<?xml version='1.0' encoding='UTF-8'?><gpx version="1.1" creator="JPX - https://github.com/jenetics/jpx" xmlns="http://www.topografix.com/GPX/1/1"><trk><trkseg><trkpt lat="45.6656897" lon="8.1971154"><ele>511.99999999999994</ele><time>2026-05-03T08:06:56.979Z</time></trkpt><trkpt lat="45.6656588" lon="8.1972095"><ele>512.0</ele><time>2026-05-03T08:06:58.984Z</time></trkpt><trkpt lat="45.6656196" lon="8.1972871"><ele>512.0</ele><time>2026-05-03T08:07:00.972Z</time></trkpt><trkpt lat="45.6655529" lon="8.1974246"><ele>512.0</ele><time>2026-05-03T08:07:02.98Z</time></trkpt><trkpt lat="45.6655013" lon="8.1975234"><ele>511.99999999999994</ele><time>2026-05-03T08:07:03.988Z</time></trkpt><trkpt lat="45.6654535" lon="8.1976114"><ele>512.0</ele><time>2026-05-03T08:07:04.974Z</time></trkpt><trkpt lat="45.6653903" lon="8.1976782"><ele>511.66666666666663</ele><time>2026-05-03T08:07:05.969Z</time></trkpt><trkpt lat="45.6653342" lon="8.1977442"><ele>511.3333333333333</ele><time>2026-05-03T08:07:06.97Z</time></trkpt><trkpt lat="45.6651982" lon="8.1977564"><ele>511.0</ele><time>2026-05-03T08:07:08.968Z</time></trkpt><trkpt lat="45.6651316" lon="8.1977336"><ele>510.66666666666663</ele><time>2026-05-03T08:07:09.973Z</time></trkpt><trkpt lat="45.6650516" lon="8.1977025"><ele>510.3333333333333</ele><time>2026-05-03T08:07:10.971Z</time></trkpt><trkpt lat="45.6649754" lon="8.1976772"><ele>510.0</ele><time>2026-05-03T08:07:11.971Z</time></trkpt><trkpt lat="45.6648855" lon="8.197649"><ele>510.0</ele><time>2026-05-03T08:07:12.975Z</time></trkpt><trkpt lat="45.6647851" lon="8.1976156"><ele>510.0</ele><time>2026-05-03T08:07:13.971Z</time></trkpt><trkpt lat="45.6647008" lon="8.1975882"><ele>510.0</ele><time>2026-05-03T08:07:14.967Z</time></trkpt><trkpt lat="45.6646169" lon="8.1975804"><ele>510.0</ele><time>2026-05-03T08:07:15.985Z</time></trkpt><trkpt lat="45.66454" lon="8.1976056"><ele>510.0</ele><time>2026-05-03T08:07:16.97Z</time></trkpt><trkpt lat="45.664487" lon="8.1976783"><ele>510.0</ele><time>2026-05-03T08:07:17.988Z</time></trkpt><trkpt lat="45.6644522" lon="8.1977983"><ele>508.2</ele><time>2026-05-03T08:07:18.965Z</time></trkpt><trkpt lat="45.6644168" lon="8.1979425"><ele>506.4</ele><time>2026-05-03T08:07:19.978Z</time></trkpt><trkpt lat="45.6643765" lon="8.1980806"><ele>504.6</ele><time>2026-05-03T08:07:20.976Z</time></trkpt><trkpt lat="45.6643227" lon="8.1981839"><ele>502.8</ele><time>2026-05-03T08:07:21.977Z</time></trkpt><trkpt lat="45.6642341" lon="8.1982681"><ele>501.0</ele><time>2026-05-03T08:07:22.973Z</time></trkpt><trkpt lat="45.6641441" lon="8.1983353"><ele>500.5</ele><time>2026-05-03T08:07:23.995Z</time></trkpt><trkpt lat="45.6640976" lon="8.1984195"><ele>500.0</ele><time>2026-05-03T08:07:24.965Z</time></trkpt><trkpt lat="45.6640859" lon="8.1985329"><ele>499.5</ele><time>2026-05-03T08:07:25.982Z</time></trkpt><trkpt lat="45.6641174" lon="8.1986352"><ele>499.0</ele><time>2026-05-03T08:07:26.972Z</time></trkpt><trkpt lat="45.6641795" lon="8.1987049"><ele>498.5</ele><time>2026-05-03T08:07:27.97Z</time></trkpt><trkpt lat="45.6642582" lon="8.1987356"><ele>498.0</ele><time>2026-05-03T08:07:28.965Z</time></trkpt><trkpt lat="45.6643413" lon="8.1987213"><ele>498.0</ele><time>2026-05-03T08:07:29.988Z</time></trkpt><trkpt lat="45.6644303" lon="8.1986961"><ele>498.0</ele><time>2026-05-03T08:07:30.961Z</time></trkpt><trkpt lat="45.6645188" lon="8.1986888"><ele>498.0</ele><time>2026-05-03T08:07:31.964Z</time></trkpt><trkpt lat="45.6646047" lon="8.1986889"><ele>498.0</ele><time>2026-05-03T08:07:32.98Z</time></trkpt><trkpt lat="45.6646783" lon="8.1987"><ele>498.0</ele><time>2026-05-03T08:07:33.977Z</time></trkpt><trkpt lat="45.6647553" lon="8.1987406"><ele>498.0</ele><time>2026-05-03T08:07:34.966Z</time></trkpt><trkpt lat="45.6648221" lon="8.1988463"><ele>498.2</ele><time>2026-05-03T08:07:35.968Z</time></trkpt><trkpt lat="45.6648952" lon="8.198988"><ele>498.4</ele><time>2026-05-03T08:07:36.965Z</time></trkpt><trkpt lat="45.6649604" lon="8.1991203"><ele>498.59999999999997</ele><time>2026-05-03T08:07:37.963Z</time></trkpt><trkpt lat="45.6649934" lon="8.1992282"><ele>498.79999999999995</ele><time>2026-05-03T08:07:38.959Z</time></trkpt><trkpt lat="45.6650167" lon="8.1993286"><ele>499.0</ele><time>2026-05-03T08:07:39.975Z</time></trkpt><trkpt lat="45.6649915" lon="8.1994174"><ele>499.00000000000006</ele><time>2026-05-03T08:07:41.004Z</time></trkpt><trkpt lat="45.6649229" lon="8.1994951"><ele>499.0</ele><time>2026-05-03T08:07:41.964Z</time></trkpt><trkpt lat="45.6648433" lon="8.1995655"><ele>499.0</ele><time>2026-05-03T08:07:42.96Z</time></trkpt><trkpt lat="45.6647674" lon="8.1996254"><ele>499.0</ele><time>2026-05-03T08:07:43.963Z</time></trkpt><trkpt lat="45.6646981" lon="8.199684"><ele>499.00000000000006</ele><time>2026-05-03T08:07:44.985Z</time></trkpt><trkpt lat="45.664631" lon="8.1997347"><ele>499.0</ele><time>2026-05-03T08:07:45.966Z</time></trkpt><trkpt lat="45.6645651" lon="8.1997841"><ele>500.00000000000006</ele><time>2026-05-03T08:07:46.977Z</time></trkpt><trkpt lat="45.6645046" lon="8.1998433"><ele>501.0</ele><time>2026-05-03T08:07:47.976Z</time></trkpt><trkpt lat="45.6644458" lon="8.1998988"><ele>502.00000000000006</ele><time>2026-05-03T08:07:48.968Z</time></trkpt><trkpt lat="45.6643839" lon="8.1999557"><ele>503.00000000000006</ele><time>2026-05-03T08:07:49.97Z</time></trkpt><trkpt lat="45.6643292" lon="8.2000067"><ele>504.0</ele><time>2026-05-03T08:07:50.969Z</time></trkpt><trkpt lat="45.6642771" lon="8.2000725"><ele>505.00000000000006</ele><time>2026-05-03T08:07:51.966Z</time></trkpt><trkpt lat="45.6642442" lon="8.2001561"><ele>506.00000000000006</ele><time>2026-05-03T08:07:52.974Z</time></trkpt><trkpt lat="45.6642387" lon="8.2002489"><ele>501.20000000000005</ele><time>2026-05-03T08:07:53.961Z</time></trkpt><trkpt lat="45.6642418" lon="8.2003562"><ele>496.40000000000003</ele><time>2026-05-03T08:07:54.97Z</time></trkpt><trkpt lat="45.6642657" lon="8.2004744"><ele>491.6</ele><time>2026-05-03T08:07:55.975Z</time></trkpt><trkpt lat="45.6642953" lon="8.2006169"><ele>486.8</ele><time>2026-05-03T08:07:56.974Z</time></trkpt><trkpt lat="45.6643229" lon="8.2007562"><ele>482.0</ele><time>2026-05-03T08:07:57.96Z</time></trkpt><trkpt lat="45.6643306" lon="8.2008959"><ele>480.99999999999994</ele><time>2026-05-03T08:07:58.969Z</time></trkpt><trkpt lat="45.6643008" lon="8.2010406"><ele>480.0</ele><time>2026-05-03T08:07:59.976Z</time></trkpt><trkpt lat="45.6642471" lon="8.2011482"><ele>479.0</ele><time>2026-05-03T08:08:00.97Z</time></trkpt><trkpt lat="45.6642107" lon="8.2012603"><ele>478.0</ele><time>2026-05-03T08:08:01.97Z</time></trkpt><trkpt lat="45.664201" lon="8.2013725"><ele>476.99999999999994</ele><time>2026-05-03T08:08:02.968Z</time></trkpt><trkpt lat="45.6642228" lon="8.201482"><ele>476.0</ele><time>2026-05-03T08:08:03.958Z</time></trkpt><trkpt lat="45.664264" lon="8.2015684"><ele>474.6</ele><time>2026-05-03T08:08:04.952Z</time></trkpt><trkpt lat="45.6643343" lon="8.2016472"><ele>473.20000000000005</ele><time>2026-05-03T08:08:05.966Z</time></trkpt><trkpt lat="45.6643923" lon="8.2017223"><ele>471.79999999999995</ele><time>2026-05-03T08:08:06.976Z</time></trkpt><trkpt lat="45.6643532" lon="8.2019047"><ele>470.4</ele><time>2026-05-03T08:08:08.96Z</time></trkpt><trkpt lat="45.6643149" lon="8.20203"><ele>469.0</ele><time>2026-05-03T08:08:09.974Z</time></trkpt><trkpt lat="45.6643061" lon="8.2021429"><ele>469.0</ele><time>2026-05-03T08:08:10.967Z</time></trkpt><trkpt lat="45.6643289" lon="8.2022583"><ele>469.0</ele><time>2026-05-03T08:08:11.961Z</time></trkpt><trkpt lat="45.6643224" lon="8.20235"><ele>469.0</ele><time>2026-05-03T08:08:12.97Z</time></trkpt><trkpt lat="45.6642503" lon="8.202423"><ele>469.0</ele><time>2026-05-03T08:08:14.962Z</time></trkpt><trkpt lat="45.6641738" lon="8.2022808"><ele>469.0</ele><time>2026-05-03T08:08:16.973Z</time></trkpt><trkpt lat="45.664189" lon="8.2021296"><ele>469.0</ele><time>2026-05-03T08:08:17.966Z</time></trkpt><trkpt lat="45.6642034" lon="8.2019818"><ele>469.0</ele><time>2026-05-03T08:08:18.964Z</time></trkpt><trkpt lat="45.6641831" lon="8.2018464"><ele>469.0</ele><time>2026-05-03T08:08:19.987Z</time></trkpt><trkpt lat="45.6641191" lon="8.2017213"><ele>469.0</ele><time>2026-05-03T08:08:20.975Z</time></trkpt><trkpt lat="45.6640489" lon="8.2015831"><ele>469.0</ele><time>2026-05-03T08:08:21.984Z</time></trkpt><trkpt lat="45.6640037" lon="8.20144"><ele>470.75</ele><time>2026-05-03T08:08:22.961Z</time></trkpt><trkpt lat="45.6639663" lon="8.201287"><ele>472.5</ele><time>2026-05-03T08:08:23.958Z</time></trkpt><trkpt lat="45.6639147" lon="8.2011354"><ele>474.25</ele><time>2026-05-03T08:08:24.966Z</time></trkpt><trkpt lat="45.6638623" lon="8.20099"><ele>476.0</ele><time>2026-05-03T08:08:25.969Z</time></trkpt><trkpt lat="45.6638035" lon="8.2008662"><ele>475.99999999999994</ele><time>2026-05-03T08:08:26.974Z</time></trkpt><trkpt lat="45.6637551" lon="8.2007657"><ele>476.0</ele><time>2026-05-03T08:08:27.965Z</time></trkpt><trkpt lat="45.6637103" lon="8.2006766"><ele>476.0</ele><time>2026-05-03T08:08:28.975Z</time></trkpt><trkpt lat="45.6636556" lon="8.2006161"><ele>476.0</ele><time>2026-05-03T08:08:29.978Z</time></trkpt><trkpt lat="45.66359" lon="8.2005675"><ele>475.99999999999994</ele><time>2026-05-03T08:08:30.983Z</time></trkpt><trkpt lat="45.6635196" lon="8.2004805"><ele>476.0</ele><time>2026-05-03T08:08:31.967Z</time></trkpt><trkpt lat="45.6634394" lon="8.2003606"><ele>473.0</ele><time>2026-05-03T08:08:32.972Z</time></trkpt><trkpt lat="45.6633547" lon="8.200226"><ele>470.0</ele><time>2026-05-03T08:08:33.988Z</time></trkpt><trkpt lat="45.663261" lon="8.2000904"><ele>467.0</ele><time>2026-05-03T08:08:34.969Z</time></trkpt><trkpt lat="45.6631622" lon="8.1999496"><ele>464.0</ele><time>2026-05-03T08:08:35.973Z</time></trkpt><trkpt lat="45.6630598" lon="8.1998132"><ele>464.0</ele><time>2026-05-03T08:08:36.976Z</time></trkpt><trkpt lat="45.6629471" lon="8.1996847"><ele>464.0</ele><time>2026-05-03T08:08:37.963Z</time></trkpt><trkpt lat="45.6628323" lon="8.199578"><ele>464.0</ele><time>2026-05-03T08:08:38.973Z</time></trkpt><trkpt lat="45.6627184" lon="8.1994802"><ele>464.0</ele><time>2026-05-03T08:08:39.966Z</time></trkpt><trkpt lat="45.6626081" lon="8.1994001"><ele>463.5</ele><time>2026-05-03T08:08:40.974Z</time></trkpt><trkpt lat="45.6625014" lon="8.1993263"><ele>463.0</ele><time>2026-05-03T08:08:41.971Z</time></trkpt><trkpt lat="45.6623953" lon="8.1992709"><ele>462.5</ele><time>2026-05-03T08:08:42.973Z</time></trkpt><trkpt lat="45.6622814" lon="8.199264"><ele>462.0</ele><time>2026-05-03T08:08:43.984Z</time></trkpt><trkpt lat="45.6621762" lon="8.1992957"><ele>462.0</ele><time>2026-05-03T08:08:44.963Z</time></trkpt><trkpt lat="45.6620781" lon="8.1993418"><ele>462.00000000000006</ele><time>2026-05-03T08:08:45.958Z</time></trkpt><trkpt lat="45.6619972" lon="8.1993982"><ele>462.00000000000006</ele><time>2026-05-03T08:08:46.987Z</time></trkpt><trkpt lat="45.6619059" lon="8.1994125"><ele>462.0</ele><time>2026-05-03T08:08:47.967Z</time></trkpt><trkpt lat="45.6618081" lon="8.1993819"><ele>462.0</ele><time>2026-05-03T08:08:48.984Z</time></trkpt><trkpt lat="45.6617184" lon="8.1993156"><ele>462.40000000000003</ele><time>2026-05-03T08:08:49.98Z</time></trkpt><trkpt lat="45.661634" lon="8.19923"><ele>462.80000000000007</ele><time>2026-05-03T08:08:50.97Z</time></trkpt><trkpt lat="45.6615519" lon="8.1991426"><ele>463.2</ele><time>2026-05-03T08:08:51.964Z</time></trkpt><trkpt lat="45.6614694" lon="8.1990517"><ele>463.6</ele><time>2026-05-03T08:08:52.96Z</time></trkpt><trkpt lat="45.6613706" lon="8.199003"><ele>464.0</ele><time>2026-05-03T08:08:54.006Z</time></trkpt><trkpt lat="45.661275" lon="8.1989945"><ele>463.99999999999994</ele><time>2026-05-03T08:08:54.97Z</time></trkpt><trkpt lat="45.6611895" lon="8.1990177"><ele>464.0</ele><time>2026-05-03T08:08:55.963Z</time></trkpt><trkpt lat="45.6611086" lon="8.1990679"><ele>464.0</ele><time>2026-05-03T08:08:56.963Z</time></trkpt><trkpt lat="45.6610493" lon="8.1991482"><ele>464.0</ele><time>2026-05-03T08:08:57.965Z</time></trkpt><trkpt lat="45.6610008" lon="8.19921"><ele>463.99999999999994</ele><time>2026-05-03T08:08:58.969Z</time></trkpt><trkpt lat="45.6609401" lon="8.1993081"><ele>464.0</ele><time>2026-05-03T08:09:00.978Z</time></trkpt><trkpt lat="45.6609699" lon="8.199418"><ele>463.99999999999994</ele><time>2026-05-03T08:09:03.96Z</time></trkpt><trkpt lat="45.6610443" lon="8.1995109"><ele>464.0</ele><time>2026-05-03T08:09:05.968Z</time></trkpt><trkpt lat="45.6610903" lon="8.199583"><ele>464.0</ele><time>2026-05-03T08:09:07.961Z</time></trkpt><trkpt lat="45.6611422" lon="8.1996563"><ele>464.0</ele><time>2026-05-03T08:09:10.968Z</time></trkpt><trkpt lat="45.6612089" lon="8.199706"><ele>463.99999999999994</ele><time>2026-05-03T08:09:13.969Z</time></trkpt><trkpt lat="45.6612802" lon="8.1997723"><ele>464.0</ele><time>2026-05-03T08:09:18.959Z</time></trkpt><trkpt lat="45.6613593" lon="8.1997641"><ele>465.99999999999994</ele><time>2026-05-03T08:09:22.986Z</time></trkpt><trkpt lat="45.6613679" lon="8.1998555"><ele>468.0</ele><time>2026-05-03T08:09:25.958Z</time></trkpt><trkpt lat="45.66139" lon="8.1999808"><ele>470.0</ele><time>2026-05-03T08:09:29.969Z</time></trkpt><trkpt lat="45.6614412" lon="8.2000585"><ele>472.0</ele><time>2026-05-03T08:09:31.958Z</time></trkpt><trkpt lat="45.6614814" lon="8.2001482"><ele>473.99999999999994</ele><time>2026-05-03T08:09:33.973Z</time></trkpt><trkpt lat="45.6615089" lon="8.2002562"><ele>476.0</ele><time>2026-05-03T08:09:36.982Z</time></trkpt><trkpt lat="45.6615161" lon="8.2003625"><ele>475.99999999999994</ele><time>2026-05-03T08:09:39.98Z</time></trkpt><trkpt lat="45.6615501" lon="8.2004722"><ele>476.0</ele><time>2026-05-03T08:09:42.973Z</time></trkpt><trkpt lat="45.661514" lon="8.200578"><ele>476.0</ele><time>2026-05-03T08:09:44.97Z</time></trkpt><trkpt lat="45.6614928" lon="8.2006735"><ele>476.0</ele><time>2026-05-03T08:09:46.964Z</time></trkpt><trkpt lat="45.6615573" lon="8.2007481"><ele>475.99999999999994</ele><time>2026-05-03T08:09:50.962Z</time></trkpt><trkpt lat="45.6615262" lon="8.2008727"><ele>476.0</ele><time>2026-05-03T08:09:53.978Z</time></trkpt><trkpt lat="45.6614894" lon="8.2009674"><ele>478.16666666666663</ele><time>2026-05-03T08:09:55.974Z</time></trkpt><trkpt lat="45.6614781" lon="8.2010727"><ele>480.3333333333333</ele><time>2026-05-03T08:09:57.99Z</time></trkpt><trkpt lat="45.661454" lon="8.2011908"><ele>482.5</ele><time>2026-05-03T08:09:59.965Z</time></trkpt><trkpt lat="45.6613987" lon="8.2013052"><ele>484.66666666666663</ele><time>2026-05-03T08:10:01.965Z</time></trkpt><trkpt lat="45.6613442" lon="8.2013975"><ele>486.8333333333333</ele><time>2026-05-03T08:10:03.965Z</time></trkpt><trkpt lat="45.66128" lon="8.2014558"><ele>489.0</ele><time>2026-05-03T08:10:05.967Z</time></trkpt><trkpt lat="45.6612332" lon="8.2015419"><ele>489.0</ele><time>2026-05-03T08:10:07.974Z</time></trkpt><trkpt lat="45.6612013" lon="8.2016211"><ele>489.0</ele><time>2026-05-03T08:10:09.962Z</time></trkpt><trkpt lat="45.6611747" lon="8.2017192"><ele>489.0</ele><time>2026-05-03T08:10:11.969Z</time></trkpt><trkpt lat="45.6610835" lon="8.2018066"><ele>489.0</ele><time>2026-05-03T08:10:13.968Z</time></trkpt><trkpt lat="45.660967" lon="8.2018479"><ele>489.0</ele><time>2026-05-03T08:10:15.966Z</time></trkpt><trkpt lat="45.6608891" lon="8.201826"><ele>489.0</ele><time>2026-05-03T08:10:17.959Z</time></trkpt><trkpt lat="45.6608155" lon="8.2018615"><ele>491.8571428571429</ele><time>2026-05-03T08:10:19.966Z</time></trkpt><trkpt lat="45.6607492" lon="8.2018723"><ele>494.7142857142858</ele><time>2026-05-03T08:10:25.969Z</time></trkpt><trkpt lat="45.6606815" lon="8.201907"><ele>497.57142857142856</ele><time>2026-05-03T08:10:28.972Z</time></trkpt><trkpt lat="45.6606317" lon="8.2019738"><ele>500.42857142857144</ele><time>2026-05-03T08:10:30.962Z</time></trkpt><trkpt lat="45.6605804" lon="8.2020324"><ele>503.2857142857143</ele><time>2026-05-03T08:10:32.974Z</time></trkpt><trkpt lat="45.6605131" lon="8.202106"><ele>506.1428571428571</ele><time>2026-05-03T08:10:35.987Z</time></trkpt><trkpt lat="45.660549" lon="8.202187"><ele>508.99999999999994</ele><time>2026-05-03T08:10:38.994Z</time></trkpt><trkpt lat="45.6606173" lon="8.2022495"><ele>510.99999999999994</ele><time>2026-05-03T08:10:40.967Z</time></trkpt><trkpt lat="45.6606182" lon="8.2023636"><ele>513.0</ele><time>2026-05-03T08:10:42.985Z</time></trkpt><trkpt lat="45.6605536" lon="8.2024318"><ele>515.0</ele><time>2026-05-03T08:10:46.006Z</time></trkpt><trkpt lat="45.6605039" lon="8.2025426"><ele>517.0</ele><time>2026-05-03T08:10:48.968Z</time></trkpt><trkpt lat="45.6604777" lon="8.2026516"><ele>519.0</ele><time>2026-05-03T08:10:50.98Z</time></trkpt><trkpt lat="45.6604483" lon="8.2027343"><ele>521.0</ele><time>2026-05-03T08:10:51.983Z</time></trkpt><trkpt lat="45.6603776" lon="8.202835"><ele>521.0</ele><time>2026-05-03T08:10:53.975Z</time></trkpt><trkpt lat="45.6603286" lon="8.2029417"><ele>521.0</ele><time>2026-05-03T08:10:55.971Z</time></trkpt><trkpt lat="45.660312" lon="8.2030702"><ele>521.0</ele><time>2026-05-03T08:10:57.976Z</time></trkpt><trkpt lat="45.6603156" lon="8.2031962"><ele>521.0</ele><time>2026-05-03T08:10:59.991Z</time></trkpt><trkpt lat="45.6602794" lon="8.2033144"><ele>521.0</ele><time>2026-05-03T08:11:01.983Z</time></trkpt><trkpt lat="45.6602587" lon="8.203459"><ele>523.1666666666666</ele><time>2026-05-03T08:11:03.967Z</time></trkpt><trkpt lat="45.6602507" lon="8.2035664"><ele>525.3333333333333</ele><time>2026-05-03T08:11:05.968Z</time></trkpt><trkpt lat="45.6602698" lon="8.2036951"><ele>527.5</ele><time>2026-05-03T08:11:07.97Z</time></trkpt><trkpt lat="45.6603198" lon="8.2037949"><ele>529.6666666666666</ele><time>2026-05-03T08:11:09.964Z</time></trkpt><trkpt lat="45.6603659" lon="8.2038932"><ele>531.8333333333334</ele><time>2026-05-03T08:11:11.971Z</time></trkpt><trkpt lat="45.6603949" lon="8.2040167"><ele>534.0</ele><time>2026-05-03T08:11:14.962Z</time></trkpt><trkpt lat="45.6604106" lon="8.2041342"><ele>537.0</ele><time>2026-05-03T08:11:16.967Z</time></trkpt><trkpt lat="45.6604552" lon="8.2042675"><ele>540.0</ele><time>2026-05-03T08:11:18.965Z</time></trkpt><trkpt lat="45.6604942" lon="8.2043971"><ele>543.0</ele><time>2026-05-03T08:11:20.967Z</time></trkpt><trkpt lat="45.660533" lon="8.204498"><ele>546.0</ele><time>2026-05-03T08:11:22.976Z</time></trkpt><trkpt lat="45.6605406" lon="8.2046526"><ele>549.0</ele><time>2026-05-03T08:11:24.969Z</time></trkpt><trkpt lat="45.6605896" lon="8.204749"><ele>549.0</ele><time>2026-05-03T08:11:25.99Z</time></trkpt><trkpt lat="45.6606301" lon="8.2048293"><ele>549.0</ele><time>2026-05-03T08:11:26.985Z</time></trkpt><trkpt lat="45.6606937" lon="8.2049669"><ele>549.0</ele><time>2026-05-03T08:11:29.008Z</time></trkpt><trkpt lat="45.6607027" lon="8.2051266"><ele>549.0</ele><time>2026-05-03T08:11:30.982Z</time></trkpt><trkpt lat="45.6606885" lon="8.2052918"><ele>549.0</ele><time>2026-05-03T08:11:32.977Z</time></trkpt><trkpt lat="45.6606616" lon="8.2054455"><ele>552.0</ele><time>2026-05-03T08:11:34.965Z</time></trkpt><trkpt lat="45.6606689" lon="8.2055867"><ele>555.0</ele><time>2026-05-03T08:11:36.976Z</time></trkpt><trkpt lat="45.6606334" lon="8.205756"><ele>558.0</ele><time>2026-05-03T08:11:38.973Z</time></trkpt><trkpt lat="45.660592" lon="8.2058977"><ele>561.0</ele><time>2026-05-03T08:11:40.986Z</time></trkpt><trkpt lat="45.6605011" lon="8.2059612"><ele>564.0</ele><time>2026-05-03T08:11:42.981Z</time></trkpt><trkpt lat="45.6604029" lon="8.2060153"><ele>565.3333333333334</ele><time>2026-05-03T08:11:44.982Z</time></trkpt><trkpt lat="45.6603369" lon="8.2060254"><ele>566.6666666666666</ele><time>2026-05-03T08:11:46.989Z</time></trkpt><trkpt lat="45.6602559" lon="8.2060102"><ele>568.0</ele><time>2026-05-03T08:11:48.971Z</time></trkpt><trkpt lat="45.6601724" lon="8.2060462"><ele>569.3333333333333</ele><time>2026-05-03T08:11:50.973Z</time></trkpt><trkpt lat="45.6600791" lon="8.2060593"><ele>570.6666666666666</ele><time>2026-05-03T08:11:52.986Z</time></trkpt><trkpt lat="45.6599878" lon="8.2060871"><ele>572.0</ele><time>2026-05-03T08:11:54.971Z</time></trkpt><trkpt lat="45.6599008" lon="8.2060711"><ele>575.8333333333333</ele><time>2026-05-03T08:11:55.991Z</time></trkpt><trkpt lat="45.6598371" lon="8.2060535"><ele>579.6666666666666</ele><time>2026-05-03T08:11:56.983Z</time></trkpt><trkpt lat="45.6597719" lon="8.2060208"><ele>583.5</ele><time>2026-05-03T08:11:57.992Z</time></trkpt><trkpt lat="45.6596781" lon="8.2059987"><ele>587.3333333333334</ele><time>2026-05-03T08:11:59.976Z</time></trkpt><trkpt lat="45.6596158" lon="8.2059753"><ele>591.1666666666667</ele><time>2026-05-03T08:12:01.96Z</time></trkpt><trkpt lat="45.659517" lon="8.2059741"><ele>595.0</ele><time>2026-05-03T08:12:03.985Z</time></trkpt><trkpt lat="45.6594349" lon="8.2060148"><ele>597.6666666666667</ele><time>2026-05-03T08:12:05.968Z</time></trkpt><trkpt lat="45.6593374" lon="8.20605"><ele>600.3333333333334</ele><time>2026-05-03T08:12:07.977Z</time></trkpt><trkpt lat="45.6592946" lon="8.2061452"><ele>603.0</ele><time>2026-05-03T08:12:09.976Z</time></trkpt><trkpt lat="45.659263" lon="8.2062435"><ele>605.6666666666666</ele><time>2026-05-03T08:12:11.972Z</time></trkpt><trkpt lat="45.659196" lon="8.2063249"><ele>608.3333333333333</ele><time>2026-05-03T08:12:14.971Z</time></trkpt><trkpt lat="45.6591436" lon="8.2064261"><ele>611.0</ele><time>2026-05-03T08:12:16.986Z</time></trkpt><trkpt lat="45.6591162" lon="8.2065274"><ele>611.7142857142858</ele><time>2026-05-03T08:12:18.978Z</time></trkpt><trkpt lat="45.659069" lon="8.2065949"><ele>612.4285714285714</ele><time>2026-05-03T08:12:20.976Z</time></trkpt><trkpt lat="45.6590071" lon="8.2066326"><ele>613.1428571428571</ele><time>2026-05-03T08:12:22.978Z</time></trkpt><trkpt lat="45.658956" lon="8.2066963"><ele>613.8571428571429</ele><time>2026-05-03T08:12:25.003Z</time></trkpt><trkpt lat="45.6588942" lon="8.2067331"><ele>614.5714285714286</ele><time>2026-05-03T08:12:26.988Z</time></trkpt><trkpt lat="45.6588049" lon="8.2067983"><ele>615.2857142857143</ele><time>2026-05-03T08:12:29.981Z</time></trkpt><trkpt lat="45.6587613" lon="8.2068734"><ele>616.0</ele><time>2026-05-03T08:12:31.973Z</time></trkpt><trkpt lat="45.6587003" lon="8.2069713"><ele>617.6</ele><time>2026-05-03T08:12:34.971Z</time></trkpt><trkpt lat="45.6586028" lon="8.2070215"><ele>619.2</ele><time>2026-05-03T08:12:36.979Z</time></trkpt><trkpt lat="45.6585295" lon="8.2071396"><ele>620.8</ele><time>2026-05-03T08:12:38.976Z</time></trkpt><trkpt lat="45.658456" lon="8.2072383"><ele>622.4</ele><time>2026-05-03T08:12:40.981Z</time></trkpt><trkpt lat="45.6583991" lon="8.2073373"><ele>624.0</ele><time>2026-05-03T08:12:42.973Z</time></trkpt><trkpt lat="45.6583174" lon="8.2074225"><ele>626.4</ele><time>2026-05-03T08:12:45.966Z</time></trkpt><trkpt lat="45.6582712" lon="8.2075122"><ele>628.8</ele><time>2026-05-03T08:12:47.979Z</time></trkpt><trkpt lat="45.6582135" lon="8.207634"><ele>631.2</ele><time>2026-05-03T08:12:49.974Z</time></trkpt><trkpt lat="45.6581574" lon="8.2077446"><ele>633.6</ele><time>2026-05-03T08:12:51.964Z</time></trkpt><trkpt lat="45.6581085" lon="8.2078476"><ele>636.0</ele><time>2026-05-03T08:12:53.98Z</time></trkpt><trkpt lat="45.6580825" lon="8.2079689"><ele>636.0</ele><time>2026-05-03T08:12:54.972Z</time></trkpt><trkpt lat="45.6580666" lon="8.2080822"><ele>636.0</ele><time>2026-05-03T08:12:55.969Z</time></trkpt><trkpt lat="45.658044" lon="8.2081865"><ele>636.0</ele><time>2026-05-03T08:12:56.981Z</time></trkpt><trkpt lat="45.6580323" lon="8.2082831"><ele>636.0</ele><time>2026-05-03T08:12:57.982Z</time></trkpt><trkpt lat="45.6580197" lon="8.2083845"><ele>636.0</ele><time>2026-05-03T08:12:58.989Z</time></trkpt><trkpt lat="45.6580151" lon="8.2084792"><ele>636.0</ele><time>2026-05-03T08:12:59.981Z</time></trkpt><trkpt lat="45.6580239" lon="8.2085778"><ele>636.0</ele><time>2026-05-03T08:13:00.992Z</time></trkpt><trkpt lat="45.658041" lon="8.2086774"><ele>637.1666666666666</ele><time>2026-05-03T08:13:01.984Z</time></trkpt><trkpt lat="45.6580636" lon="8.20879"><ele>638.3333333333334</ele><time>2026-05-03T08:13:02.986Z</time></trkpt><trkpt lat="45.6580677" lon="8.2088989"><ele>639.5</ele><time>2026-05-03T08:13:03.987Z</time></trkpt><trkpt lat="45.6580618" lon="8.2090007"><ele>640.6666666666667</ele><time>2026-05-03T08:13:04.984Z</time></trkpt><trkpt lat="45.6580277" lon="8.2090882"><ele>641.8333333333334</ele><time>2026-05-03T08:13:05.965Z</time></trkpt><trkpt lat="45.65798" lon="8.2091621"><ele>643.0</ele><time>2026-05-03T08:13:06.964Z</time></trkpt><trkpt lat="45.657919" lon="8.2092379"><ele>642.8333333333334</ele><time>2026-05-03T08:13:07.984Z</time></trkpt><trkpt lat="45.6578463" lon="8.2093117"><ele>642.6666666666667</ele><time>2026-05-03T08:13:08.98Z</time></trkpt><trkpt lat="45.6577843" lon="8.2093969"><ele>642.5</ele><time>2026-05-03T08:13:09.984Z</time></trkpt><trkpt lat="45.6577376" lon="8.2094797"><ele>642.3333333333334</ele><time>2026-05-03T08:13:10.98Z</time></trkpt><trkpt lat="45.6577243" lon="8.2095731"><ele>642.1666666666666</ele><time>2026-05-03T08:13:11.98Z</time></trkpt><trkpt lat="45.6576726" lon="8.2097019"><ele>642.0</ele><time>2026-05-03T08:13:13.974Z</time></trkpt><trkpt lat="45.6576289" lon="8.2097754"><ele>642.1666666666666</ele><time>2026-05-03T08:13:14.971Z</time></trkpt><trkpt lat="45.657581" lon="8.2098363"><ele>642.3333333333334</ele><time>2026-05-03T08:13:15.972Z</time></trkpt><trkpt lat="45.6575287" lon="8.2099165"><ele>642.5</ele><time>2026-05-03T08:13:16.983Z</time></trkpt><trkpt lat="45.6574751" lon="8.2099811"><ele>642.6666666666667</ele><time>2026-05-03T08:13:17.979Z</time></trkpt><trkpt lat="45.6574291" lon="8.2100431"><ele>642.8333333333334</ele><time>2026-05-03T08:13:18.981Z</time></trkpt><trkpt lat="45.6573417" lon="8.2101363"><ele>643.0</ele><time>2026-05-03T08:13:20.971Z</time></trkpt><trkpt lat="45.6572695" lon="8.2102425"><ele>643.0</ele><time>2026-05-03T08:13:22.977Z</time></trkpt><trkpt lat="45.6572135" lon="8.2103824"><ele>643.0</ele><time>2026-05-03T08:13:24.995Z</time></trkpt><trkpt lat="45.6571699" lon="8.2104601"><ele>643.0</ele><time>2026-05-03T08:13:25.974Z</time></trkpt><trkpt lat="45.6570884" lon="8.210592"><ele>643.0</ele><time>2026-05-03T08:13:27.97Z</time></trkpt><trkpt lat="45.6570458" lon="8.2106612"><ele>643.0</ele><time>2026-05-03T08:13:28.98Z</time></trkpt><trkpt lat="45.6569767" lon="8.2108017"><ele>642.5</ele><time>2026-05-03T08:13:30.973Z</time></trkpt><trkpt lat="45.6569244" lon="8.2109549"><ele>642.0</ele><time>2026-05-03T08:13:32.966Z</time></trkpt><trkpt lat="45.6569064" lon="8.2110506"><ele>641.5</ele><time>2026-05-03T08:13:33.974Z</time></trkpt><trkpt lat="45.65689" lon="8.2111442"><ele>641.0</ele><time>2026-05-03T08:13:34.98Z</time></trkpt><trkpt lat="45.6568808" lon="8.2112366"><ele>640.5</ele><time>2026-05-03T08:13:35.973Z</time></trkpt><trkpt lat="45.6568598" lon="8.2113774"><ele>640.0</ele><time>2026-05-03T08:13:37.991Z</time></trkpt><trkpt lat="45.6568313" lon="8.2115029"><ele>641.2</ele><time>2026-05-03T08:13:39.981Z</time></trkpt><trkpt lat="45.6567827" lon="8.2116352"><ele>642.4</ele><time>2026-05-03T08:13:41.973Z</time></trkpt><trkpt lat="45.6566881" lon="8.2117211"><ele>643.5999999999999</ele><time>2026-05-03T08:13:43.964Z</time></trkpt><trkpt lat="45.6566299" lon="8.2117715"><ele>644.8</ele><time>2026-05-03T08:13:44.963Z</time></trkpt><trkpt lat="45.656504" lon="8.2118346"><ele>646.0</ele><time>2026-05-03T08:13:46.979Z</time></trkpt><trkpt lat="45.6563922" lon="8.2118579"><ele>646.0</ele><time>2026-05-03T08:13:48.977Z</time></trkpt><trkpt lat="45.656283" lon="8.2119084"><ele>646.0</ele><time>2026-05-03T08:13:50.977Z</time></trkpt><trkpt lat="45.6561885" lon="8.2119489"><ele>646.0</ele><time>2026-05-03T08:13:52.971Z</time></trkpt><trkpt lat="45.6561114" lon="8.2120274"><ele>646.0</ele><time>2026-05-03T08:13:54.976Z</time></trkpt><trkpt lat="45.6560382" lon="8.2121398"><ele>646.0</ele><time>2026-05-03T08:13:56.979Z</time></trkpt><trkpt lat="45.6559889" lon="8.2122094"><ele>647.6666666666667</ele><time>2026-05-03T08:13:58.969Z</time></trkpt><trkpt lat="45.6559079" lon="8.2122585"><ele>649.3333333333334</ele><time>2026-05-03T08:14:01.971Z</time></trkpt><trkpt lat="45.6558146" lon="8.2122855"><ele>651.0</ele><time>2026-05-03T08:14:03.972Z</time></trkpt><trkpt lat="45.6557433" lon="8.212446"><ele>652.6666666666666</ele><time>2026-05-03T08:14:06.99Z</time></trkpt><trkpt lat="45.6557006" lon="8.2125164"><ele>654.3333333333333</ele><time>2026-05-03T08:14:07.987Z</time></trkpt><trkpt lat="45.6556502" lon="8.212574"><ele>656.0</ele><time>2026-05-03T08:14:08.974Z</time></trkpt><trkpt lat="45.6555849" lon="8.212642"><ele>656.0</ele><time>2026-05-03T08:14:09.967Z</time></trkpt><trkpt lat="45.6555261" lon="8.2126855"><ele>656.0</ele><time>2026-05-03T08:14:10.969Z</time></trkpt><trkpt lat="45.6554083" lon="8.212724"><ele>656.0</ele><time>2026-05-03T08:14:12.973Z</time></trkpt><trkpt lat="45.6553386" lon="8.2127438"><ele>656.0</ele><time>2026-05-03T08:14:13.977Z</time></trkpt><trkpt lat="45.6552528" lon="8.2127411"><ele>656.0</ele><time>2026-05-03T08:14:14.978Z</time></trkpt><trkpt lat="45.6551639" lon="8.2127323"><ele>656.0</ele><time>2026-05-03T08:14:15.975Z</time></trkpt><trkpt lat="45.6550888" lon="8.2127318"><ele>656.5</ele><time>2026-05-03T08:14:16.976Z</time></trkpt><trkpt lat="45.6550296" lon="8.2127928"><ele>657.0</ele><time>2026-05-03T08:14:17.962Z</time></trkpt><trkpt lat="45.6549552" lon="8.2128537"><ele>657.5</ele><time>2026-05-03T08:14:18.978Z</time></trkpt><trkpt lat="45.6548786" lon="8.2128705"><ele>658.0</ele><time>2026-05-03T08:14:19.971Z</time></trkpt><trkpt lat="45.6547915" lon="8.2128939"><ele>658.5</ele><time>2026-05-03T08:14:20.966Z</time></trkpt><trkpt lat="45.6547145" lon="8.2129255"><ele>659.0</ele><time>2026-05-03T08:14:21.973Z</time></trkpt><trkpt lat="45.6546494" lon="8.2129647"><ele>659.0</ele><time>2026-05-03T08:14:22.973Z</time></trkpt><trkpt lat="45.6545809" lon="8.2129918"><ele>659.0</ele><time>2026-05-03T08:14:23.964Z</time></trkpt><trkpt lat="45.6545235" lon="8.2130322"><ele>659.0</ele><time>2026-05-03T08:14:24.977Z</time></trkpt><trkpt lat="45.6544668" lon="8.2131117"><ele>659.0</ele><time>2026-05-03T08:14:25.975Z</time></trkpt><trkpt lat="45.65441" lon="8.2132009"><ele>659.0</ele><time>2026-05-03T08:14:26.97Z</time></trkpt><trkpt lat="45.6543614" lon="8.2132986"><ele>659.0</ele><time>2026-05-03T08:14:27.976Z</time></trkpt><trkpt lat="45.6543117" lon="8.2133829"><ele>661.5</ele><time>2026-05-03T08:14:28.996Z</time></trkpt><trkpt lat="45.6542514" lon="8.2134309"><ele>664.0</ele><time>2026-05-03T08:14:29.976Z</time></trkpt><trkpt lat="45.6541854" lon="8.2134914"><ele>666.5</ele><time>2026-05-03T08:14:30.973Z</time></trkpt><trkpt lat="45.6541443" lon="8.2135853"><ele>669.0</ele><time>2026-05-03T08:14:31.985Z</time></trkpt><trkpt lat="45.6540998" lon="8.2137795"><ele>671.5</ele><time>2026-05-03T08:14:33.97Z</time></trkpt><trkpt lat="45.6540875" lon="8.2138853"><ele>674.0</ele><time>2026-05-03T08:14:34.984Z</time></trkpt><trkpt lat="45.6540645" lon="8.2139781"><ele>673.3333333333333</ele><time>2026-05-03T08:14:35.978Z</time></trkpt><trkpt lat="45.6540353" lon="8.2140727"><ele>672.6666666666666</ele><time>2026-05-03T08:14:36.992Z</time></trkpt><trkpt lat="45.6539963" lon="8.2141618"><ele>672.0</ele><time>2026-05-03T08:14:37.986Z</time></trkpt><trkpt lat="45.6539516" lon="8.2142509"><ele>671.3333333333334</ele><time>2026-05-03T08:14:38.981Z</time></trkpt><trkpt lat="45.6539194" lon="8.2143388"><ele>670.6666666666667</ele><time>2026-05-03T08:14:39.973Z</time></trkpt><trkpt lat="45.6538737" lon="8.2144768"><ele>670.0</ele><time>2026-05-03T08:14:41.979Z</time></trkpt><trkpt lat="45.653791" lon="8.2145534"><ele>670.0</ele><time>2026-05-03T08:14:43.977Z</time></trkpt><trkpt lat="45.6537155" lon="8.2145503"><ele>670.0</ele><time>2026-05-03T08:14:45.975Z</time></trkpt><trkpt lat="45.6536638" lon="8.2144122"><ele>670.0</ele><time>2026-05-03T08:14:47.964Z</time></trkpt><trkpt lat="45.6536338" lon="8.2143061"><ele>670.0</ele><time>2026-05-03T08:14:48.965Z</time></trkpt><trkpt lat="45.6535996" lon="8.2142089"><ele>670.0</ele><time>2026-05-03T08:14:49.971Z</time></trkpt><trkpt lat="45.6535494" lon="8.2140833"><ele>670.0</ele><time>2026-05-03T08:14:51.975Z</time></trkpt><trkpt lat="45.6534717" lon="8.2140592"><ele>671.0</ele><time>2026-05-03T08:14:55.972Z</time></trkpt><trkpt lat="45.6534059" lon="8.214171"><ele>672.0</ele><time>2026-05-03T08:14:57.974Z</time></trkpt><trkpt lat="45.6533709" lon="8.2142509"><ele>673.0</ele><time>2026-05-03T08:14:58.978Z</time></trkpt><trkpt lat="45.6532863" lon="8.2143728"><ele>674.0</ele><time>2026-05-03T08:15:00.964Z</time></trkpt><trkpt lat="45.6532334" lon="8.2144338"><ele>675.0</ele><time>2026-05-03T08:15:01.968Z</time></trkpt><trkpt lat="45.6531803" lon="8.2144969"><ele>676.0</ele><time>2026-05-03T08:15:02.969Z</time></trkpt><trkpt lat="45.6530993" lon="8.2145761"><ele>676.0</ele><time>2026-05-03T08:15:04.979Z</time></trkpt><trkpt lat="45.6530654" lon="8.214712"><ele>676.0</ele><time>2026-05-03T08:15:06.964Z</time></trkpt><trkpt lat="45.653049" lon="8.214871"><ele>676.0</ele><time>2026-05-03T08:15:08.962Z</time></trkpt><trkpt lat="45.6530783" lon="8.2150362"><ele>676.0</ele><time>2026-05-03T08:15:10.975Z</time></trkpt><trkpt lat="45.6531604" lon="8.2151862"><ele>677.6666666666667</ele><time>2026-05-03T08:15:12.963Z</time></trkpt><trkpt lat="45.6532054" lon="8.2152597"><ele>679.3333333333334</ele><time>2026-05-03T08:15:13.972Z</time></trkpt><trkpt lat="45.6532565" lon="8.2153241"><ele>681.0</ele><time>2026-05-03T08:15:14.965Z</time></trkpt><trkpt lat="45.6532761" lon="8.2154535"><ele>682.6666666666666</ele><time>2026-05-03T08:15:16.974Z</time></trkpt><trkpt lat="45.6532495" lon="8.215562"><ele>684.3333333333333</ele><time>2026-05-03T08:15:18.968Z</time></trkpt><trkpt lat="45.6532442" lon="8.2156933"><ele>686.0</ele><time>2026-05-03T08:15:21.955Z</time></trkpt><trkpt lat="45.6531868" lon="8.215781"><ele>687.6666666666666</ele><time>2026-05-03T08:15:23.963Z</time></trkpt><trkpt lat="45.6531318" lon="8.2158464"><ele>689.3333333333333</ele><time>2026-05-03T08:15:24.968Z</time></trkpt><trkpt lat="45.6530929" lon="8.2159784"><ele>691.0</ele><time>2026-05-03T08:15:26.97Z</time></trkpt><trkpt lat="45.6531598" lon="8.2161172"><ele>692.6666666666666</ele><time>2026-05-03T08:15:28.964Z</time></trkpt><trkpt lat="45.6531969" lon="8.2162044"><ele>694.3333333333334</ele><time>2026-05-03T08:15:29.965Z</time></trkpt><trkpt lat="45.6532373" lon="8.216291"><ele>696.0</ele><time>2026-05-03T08:15:30.976Z</time></trkpt><trkpt lat="45.6533167" lon="8.2163578"><ele>696.0</ele><time>2026-05-03T08:15:32.973Z</time></trkpt><trkpt lat="45.6533858" lon="8.2164825"><ele>696.0</ele><time>2026-05-03T08:15:34.97Z</time></trkpt><trkpt lat="45.6534464" lon="8.2166192"><ele>696.0</ele><time>2026-05-03T08:15:36.991Z</time></trkpt><trkpt lat="45.6535125" lon="8.2167845"><ele>696.0</ele><time>2026-05-03T08:15:39Z</time></trkpt><trkpt lat="45.6535601" lon="8.2168541"><ele>696.0</ele><time>2026-05-03T08:15:39.97Z</time></trkpt><trkpt lat="45.653613" lon="8.2170183"><ele>697.5999999999999</ele><time>2026-05-03T08:15:41.973Z</time></trkpt><trkpt lat="45.6536419" lon="8.2171615"><ele>699.2</ele><time>2026-05-03T08:15:43.973Z</time></trkpt><trkpt lat="45.6536706" lon="8.2173098"><ele>700.8</ele><time>2026-05-03T08:15:45.98Z</time></trkpt><trkpt lat="45.6536721" lon="8.2174677"><ele>702.4000000000001</ele><time>2026-05-03T08:15:47.999Z</time></trkpt><trkpt lat="45.6536284" lon="8.2175747"><ele>704.0</ele><time>2026-05-03T08:15:49.972Z</time></trkpt><trkpt lat="45.653614" lon="8.2177159"><ele>707.8333333333333</ele><time>2026-05-03T08:15:51.985Z</time></trkpt><trkpt lat="45.6535465" lon="8.2177652"><ele>711.6666666666666</ele><time>2026-05-03T08:15:53.97Z</time></trkpt><trkpt lat="45.6534852" lon="8.2178572"><ele>715.5</ele><time>2026-05-03T08:15:55.971Z</time></trkpt><trkpt lat="45.6534254" lon="8.217977"><ele>719.3333333333334</ele><time>2026-05-03T08:15:57.981Z</time></trkpt><trkpt lat="45.653344" lon="8.2180358"><ele>723.1666666666667</ele><time>2026-05-03T08:16:00.975Z</time></trkpt><trkpt lat="45.6532769" lon="8.2180803"><ele>727.0</ele><time>2026-05-03T08:16:03.975Z</time></trkpt><trkpt lat="45.6532126" lon="8.2181264"><ele>727.0</ele><time>2026-05-03T08:16:05.977Z</time></trkpt><trkpt lat="45.6531084" lon="8.2181406"><ele>727.0</ele><time>2026-05-03T08:16:07.979Z</time></trkpt><trkpt lat="45.6530387" lon="8.2181079"><ele>727.0</ele><time>2026-05-03T08:16:09.972Z</time></trkpt><trkpt lat="45.6529917" lon="8.2179968"><ele>727.0</ele><time>2026-05-03T08:16:12.977Z</time></trkpt><trkpt lat="45.6529479" lon="8.2179133"><ele>727.0</ele><time>2026-05-03T08:16:14.982Z</time></trkpt><trkpt lat="45.6528937" lon="8.2178332"><ele>727.0</ele><time>2026-05-03T08:16:16.982Z</time></trkpt><trkpt lat="45.6528141" lon="8.2177468"><ele>725.8571428571428</ele><time>2026-05-03T08:16:18.994Z</time></trkpt><trkpt lat="45.652753" lon="8.217706"><ele>724.7142857142858</ele><time>2026-05-03T08:16:19.988Z</time></trkpt><trkpt lat="45.6526868" lon="8.2176579"><ele>723.5714285714286</ele><time>2026-05-03T08:16:20.965Z</time></trkpt><trkpt lat="45.6526266" lon="8.217621"><ele>722.4285714285713</ele><time>2026-05-03T08:16:21.983Z</time></trkpt><trkpt lat="45.6525635" lon="8.217586"><ele>721.2857142857142</ele><time>2026-05-03T08:16:22.984Z</time></trkpt><trkpt lat="45.6524985" lon="8.2175503"><ele>720.1428571428571</ele><time>2026-05-03T08:16:23.968Z</time></trkpt><trkpt lat="45.6523989" lon="8.2175155"><ele>719.0</ele><time>2026-05-03T08:16:25.982Z</time></trkpt><trkpt lat="45.6523343" lon="8.2174765"><ele>719.0</ele><time>2026-05-03T08:16:27.977Z</time></trkpt><trkpt lat="45.6522597" lon="8.2174011"><ele>719.0</ele><time>2026-05-03T08:16:30.967Z</time></trkpt><trkpt lat="45.652173" lon="8.2173066"><ele>719.0</ele><time>2026-05-03T08:16:33.971Z</time></trkpt><trkpt lat="45.652114" lon="8.2172357"><ele>719.0</ele><time>2026-05-03T08:16:34.97Z</time></trkpt><trkpt lat="45.6520505" lon="8.2171666"><ele>719.0</ele><time>2026-05-03T08:16:35.975Z</time></trkpt><trkpt lat="45.6519975" lon="8.2170926"><ele>719.0</ele><time>2026-05-03T08:16:36.982Z</time></trkpt><trkpt lat="45.6519422" lon="8.2170176"><ele>717.6666666666666</ele><time>2026-05-03T08:16:37.975Z</time></trkpt><trkpt lat="45.6518825" lon="8.2169549"><ele>716.3333333333333</ele><time>2026-05-03T08:16:38.976Z</time></trkpt><trkpt lat="45.6518308" lon="8.2169032"><ele>715.0</ele><time>2026-05-03T08:16:39.974Z</time></trkpt><trkpt lat="45.6517252" lon="8.2168472"><ele>713.6666666666666</ele><time>2026-05-03T08:16:41.969Z</time></trkpt><trkpt lat="45.6515951" lon="8.2168296"><ele>712.3333333333334</ele><time>2026-05-03T08:16:43.967Z</time></trkpt><trkpt lat="45.6515282" lon="8.2168178"><ele>711.0</ele><time>2026-05-03T08:16:44.974Z</time></trkpt><trkpt lat="45.6514564" lon="8.2167877"><ele>711.0</ele><time>2026-05-03T08:16:45.989Z</time></trkpt><trkpt lat="45.6513855" lon="8.2167524"><ele>711.0</ele><time>2026-05-03T08:16:46.988Z</time></trkpt><trkpt lat="45.651328" lon="8.2167004"><ele>711.0</ele><time>2026-05-03T08:16:47.979Z</time></trkpt><trkpt lat="45.6512756" lon="8.2166448"><ele>711.0</ele><time>2026-05-03T08:16:48.987Z</time></trkpt><trkpt lat="45.6512214" lon="8.216596"><ele>711.0</ele><time>2026-05-03T08:16:49.984Z</time></trkpt><trkpt lat="45.6511464" lon="8.2165532"><ele>711.0</ele><time>2026-05-03T08:16:50.985Z</time></trkpt><trkpt lat="45.6510627" lon="8.2164887"><ele>711.0</ele><time>2026-05-03T08:16:51.976Z</time></trkpt><trkpt lat="45.6509886" lon="8.2164304"><ele>709.4</ele><time>2026-05-03T08:16:52.976Z</time></trkpt><trkpt lat="45.6509334" lon="8.2163817"><ele>707.8</ele><time>2026-05-03T08:16:53.973Z</time></trkpt><trkpt lat="45.6508365" lon="8.2162954"><ele>706.1999999999999</ele><time>2026-05-03T08:16:55.969Z</time></trkpt><trkpt lat="45.6507029" lon="8.2163039"><ele>704.5999999999999</ele><time>2026-05-03T08:16:57.993Z</time></trkpt><trkpt lat="45.6506306" lon="8.2162865"><ele>703.0</ele><time>2026-05-03T08:16:58.99Z</time></trkpt><trkpt lat="45.6505613" lon="8.2162545"><ele>703.0</ele><time>2026-05-03T08:16:59.985Z</time></trkpt><trkpt lat="45.6504897" lon="8.2162387"><ele>703.0</ele><time>2026-05-03T08:17:00.969Z</time></trkpt><trkpt lat="45.6504227" lon="8.2162441"><ele>703.0</ele><time>2026-05-03T08:17:01.973Z</time></trkpt><trkpt lat="45.6503592" lon="8.2162521"><ele>703.0</ele><time>2026-05-03T08:17:02.984Z</time></trkpt><trkpt lat="45.650263" lon="8.2162665"><ele>703.0</ele><time>2026-05-03T08:17:04.994Z</time></trkpt><trkpt lat="45.6501781" lon="8.2162307"><ele>703.0</ele><time>2026-05-03T08:17:07.007Z</time></trkpt><trkpt lat="45.6500614" lon="8.2162266"><ele>702.8333333333334</ele><time>2026-05-03T08:17:08.979Z</time></trkpt><trkpt lat="45.6499367" lon="8.2162606"><ele>702.6666666666667</ele><time>2026-05-03T08:17:10.969Z</time></trkpt><trkpt lat="45.6498735" lon="8.2162911"><ele>702.5</ele><time>2026-05-03T08:17:11.973Z</time></trkpt><trkpt lat="45.6497979" lon="8.2163179"><ele>702.3333333333334</ele><time>2026-05-03T08:17:12.981Z</time></trkpt><trkpt lat="45.6497221" lon="8.2163355"><ele>702.1666666666666</ele><time>2026-05-03T08:17:13.972Z</time></trkpt><trkpt lat="45.6496545" lon="8.2163285"><ele>702.0</ele><time>2026-05-03T08:17:14.992Z</time></trkpt><trkpt lat="45.6495851" lon="8.2163155"><ele>702.0</ele><time>2026-05-03T08:17:15.971Z</time></trkpt><trkpt lat="45.6495198" lon="8.2163203"><ele>702.0</ele><time>2026-05-03T08:17:16.962Z</time></trkpt><trkpt lat="45.6494038" lon="8.2163214"><ele>702.0</ele><time>2026-05-03T08:17:18.972Z</time></trkpt><trkpt lat="45.6492917" lon="8.2163577"><ele>702.0</ele><time>2026-05-03T08:17:20.993Z</time></trkpt><trkpt lat="45.6492209" lon="8.216383"><ele>702.0</ele><time>2026-05-03T08:17:21.989Z</time></trkpt><trkpt lat="45.6491529" lon="8.2164096"><ele>702.0</ele><time>2026-05-03T08:17:23.971Z</time></trkpt><trkpt lat="45.6490949" lon="8.2164771"><ele>702.5714285714287</ele><time>2026-05-03T08:17:26.978Z</time></trkpt><trkpt lat="45.6490329" lon="8.2164956"><ele>703.1428571428571</ele><time>2026-05-03T08:17:28.977Z</time></trkpt><trkpt lat="45.6489732" lon="8.2164543"><ele>703.7142857142858</ele><time>2026-05-03T08:17:31.973Z</time></trkpt><trkpt lat="45.6489537" lon="8.216366"><ele>704.2857142857143</ele><time>2026-05-03T08:17:33.979Z</time></trkpt><trkpt lat="45.6489022" lon="8.2162969"><ele>704.8571428571429</ele><time>2026-05-03T08:17:42.968Z</time></trkpt><trkpt lat="45.6488356" lon="8.2163293"><ele>705.4285714285714</ele><time>2026-05-03T08:17:45.97Z</time></trkpt><trkpt lat="45.6488132" lon="8.216419"><ele>706.0</ele><time>2026-05-03T08:17:48.972Z</time></trkpt><trkpt lat="45.6487874" lon="8.2165237"><ele>706.0</ele><time>2026-05-03T08:17:52.969Z</time></trkpt><trkpt lat="45.6487969" lon="8.2166128"><ele>706.0</ele><time>2026-05-03T08:17:54.977Z</time></trkpt><trkpt lat="45.6487912" lon="8.2167139"><ele>706.0</ele><time>2026-05-03T08:17:56.976Z</time></trkpt><trkpt lat="45.6487164" lon="8.2167738"><ele>706.0</ele><time>2026-05-03T08:17:59.959Z</time></trkpt><trkpt lat="45.6486627" lon="8.2168328"><ele>706.0</ele><time>2026-05-03T08:18:01.966Z</time></trkpt><trkpt lat="45.6486561" lon="8.216933"><ele>706.0</ele><time>2026-05-03T08:18:03.971Z</time></trkpt><trkpt lat="45.6486169" lon="8.2170145"><ele>706.0</ele><time>2026-05-03T08:18:05.966Z</time></trkpt><trkpt lat="45.6485579" lon="8.2170726"><ele>700.8</ele><time>2026-05-03T08:18:07.963Z</time></trkpt><trkpt lat="45.6485188" lon="8.2171974"><ele>695.5999999999999</ele><time>2026-05-03T08:18:09.985Z</time></trkpt><trkpt lat="45.6484392" lon="8.2172749"><ele>690.4</ele><time>2026-05-03T08:18:11.978Z</time></trkpt><trkpt lat="45.6484092" lon="8.2174001"><ele>685.2</ele><time>2026-05-03T08:18:14.977Z</time></trkpt><trkpt lat="45.6483985" lon="8.21753"><ele>680.0</ele><time>2026-05-03T08:18:16.992Z</time></trkpt><trkpt lat="45.6483545" lon="8.2176226"><ele>678.6666666666666</ele><time>2026-05-03T08:18:18.989Z</time></trkpt><trkpt lat="45.6483058" lon="8.2177173"><ele>677.3333333333333</ele><time>2026-05-03T08:18:21.991Z</time></trkpt><trkpt lat="45.6483132" lon="8.2178282"><ele>676.0</ele><time>2026-05-03T08:18:23.972Z</time></trkpt><trkpt lat="45.6483106" lon="8.2179485"><ele>674.6666666666666</ele><time>2026-05-03T08:18:25.968Z</time></trkpt><trkpt lat="45.6482589" lon="8.2180418"><ele>673.3333333333334</ele><time>2026-05-03T08:18:28.641Z</time></trkpt><trkpt lat="45.6482618" lon="8.2181666"><ele>672.0</ele><time>2026-05-03T08:18:30.967Z</time></trkpt><trkpt lat="45.64822" lon="8.2182867"><ele>670.1428571428571</ele><time>2026-05-03T08:18:32.978Z</time></trkpt><trkpt lat="45.6481957" lon="8.2184054"><ele>668.2857142857142</ele><time>2026-05-03T08:18:34.989Z</time></trkpt><trkpt lat="45.6482091" lon="8.2185075"><ele>666.4285714285714</ele><time>2026-05-03T08:18:36.978Z</time></trkpt><trkpt lat="45.6482422" lon="8.2185927"><ele>664.5714285714286</ele><time>2026-05-03T08:18:38.947Z</time></trkpt><trkpt lat="45.6482105" lon="8.2186906"><ele>662.7142857142857</ele><time>2026-05-03T08:18:41Z</time></trkpt><trkpt lat="45.6481458" lon="8.218722"><ele>660.8571428571429</ele><time>2026-05-03T08:18:43.97Z</time></trkpt><trkpt lat="45.6480838" lon="8.2186748"><ele>659.0</ele><time>2026-05-03T08:19:04.973Z</time></trkpt><trkpt lat="45.6480395" lon="8.2187467"><ele>659.0</ele><time>2026-05-03T08:19:13.963Z</time></trkpt><trkpt lat="45.6479808" lon="8.2188164"><ele>659.0</ele><time>2026-05-03T08:19:19.96Z</time></trkpt><trkpt lat="45.6479129" lon="8.2188721"><ele>659.0</ele><time>2026-05-03T08:19:22.978Z</time></trkpt><trkpt lat="45.6479013" lon="8.2189765"><ele>659.0</ele><time>2026-05-03T08:19:24.975Z</time></trkpt><trkpt lat="45.647841" lon="8.2190527"><ele>659.0</ele><time>2026-05-03T08:19:26.981Z</time></trkpt><trkpt lat="45.6477541" lon="8.2190933"><ele>659.0</ele><time>2026-05-03T08:19:28.97Z</time></trkpt><trkpt lat="45.6477585" lon="8.2191963"><ele>652.8333333333333</ele><time>2026-05-03T08:19:30.962Z</time></trkpt><trkpt lat="45.6477722" lon="8.2193084"><ele>646.6666666666666</ele><time>2026-05-03T08:19:32.998Z</time></trkpt><trkpt lat="45.6477487" lon="8.2194016"><ele>640.5</ele><time>2026-05-03T08:19:34.986Z</time></trkpt><trkpt lat="45.6477134" lon="8.2195237"><ele>634.3333333333334</ele><time>2026-05-03T08:19:36.977Z</time></trkpt><trkpt lat="45.6476955" lon="8.2196388"><ele>628.1666666666667</ele><time>2026-05-03T08:19:38.972Z</time></trkpt><trkpt lat="45.6476225" lon="8.219728"><ele>622.0</ele><time>2026-05-03T08:19:40.965Z</time></trkpt><trkpt lat="45.6475526" lon="8.2197989"><ele>620.3333333333334</ele><time>2026-05-03T08:19:42.982Z</time></trkpt><trkpt lat="45.6474657" lon="8.219833"><ele>618.6666666666667</ele><time>2026-05-03T08:19:44.966Z</time></trkpt><trkpt lat="45.6473928" lon="8.2198549"><ele>617.0</ele><time>2026-05-03T08:19:46.959Z</time></trkpt><trkpt lat="45.6473748" lon="8.2199763"><ele>615.3333333333334</ele><time>2026-05-03T08:19:54.977Z</time></trkpt><trkpt lat="45.6474335" lon="8.2200701"><ele>613.6666666666666</ele><time>2026-05-03T08:19:57.972Z</time></trkpt><trkpt lat="45.6474798" lon="8.2201313"><ele>612.0</ele><time>2026-05-03T08:19:59.963Z</time></trkpt><trkpt lat="45.647486" lon="8.2202333"><ele>612.0</ele><time>2026-05-03T08:20:01.981Z</time></trkpt><trkpt lat="45.6474458" lon="8.2203145"><ele>612.0</ele><time>2026-05-03T08:20:03.969Z</time></trkpt><trkpt lat="45.6474112" lon="8.2204359"><ele>612.0</ele><time>2026-05-03T08:20:05.964Z</time></trkpt><trkpt lat="45.6473876" lon="8.2205974"><ele>612.0</ele><time>2026-05-03T08:20:07.969Z</time></trkpt><trkpt lat="45.6473584" lon="8.2207255"><ele>612.0</ele><time>2026-05-03T08:20:09.967Z</time></trkpt><trkpt lat="45.6472931" lon="8.2208034"><ele>609.3333333333334</ele><time>2026-05-03T08:20:11.965Z</time></trkpt><trkpt lat="45.6472483" lon="8.2208674"><ele>606.6666666666666</ele><time>2026-05-03T08:20:12.977Z</time></trkpt><trkpt lat="45.6471822" lon="8.220997"><ele>604.0</ele><time>2026-05-03T08:20:14.981Z</time></trkpt><trkpt lat="45.6471227" lon="8.2210626"><ele>601.3333333333333</ele><time>2026-05-03T08:20:15.965Z</time></trkpt><trkpt lat="45.647067" lon="8.2211534"><ele>598.6666666666666</ele><time>2026-05-03T08:20:17.965Z</time></trkpt><trkpt lat="45.6470027" lon="8.2212776"><ele>596.0</ele><time>2026-05-03T08:20:19.957Z</time></trkpt><trkpt lat="45.6469305" lon="8.2213714"><ele>591.4</ele><time>2026-05-03T08:20:21.984Z</time></trkpt><trkpt lat="45.6468928" lon="8.2215041"><ele>586.8</ele><time>2026-05-03T08:20:23.974Z</time></trkpt><trkpt lat="45.646844" lon="8.2215693"><ele>582.1999999999999</ele><time>2026-05-03T08:20:24.98Z</time></trkpt><trkpt lat="45.646786" lon="8.2216887"><ele>577.6</ele><time>2026-05-03T08:20:26.989Z</time></trkpt><trkpt lat="45.6467441" lon="8.2218197"><ele>573.0</ele><time>2026-05-03T08:20:29.978Z</time></trkpt><trkpt lat="45.646694" lon="8.2219113"><ele>573.0</ele><time>2026-05-03T08:20:31.992Z</time></trkpt><trkpt lat="45.6466452" lon="8.2220023"><ele>573.0</ele><time>2026-05-03T08:20:33.972Z</time></trkpt><trkpt lat="45.6465925" lon="8.222097"><ele>573.0</ele><time>2026-05-03T08:20:35.968Z</time></trkpt><trkpt lat="45.6465643" lon="8.2222355"><ele>573.0</ele><time>2026-05-03T08:20:38.989Z</time></trkpt><trkpt lat="45.6465597" lon="8.2223484"><ele>573.0</ele><time>2026-05-03T08:20:40.971Z</time></trkpt><trkpt lat="45.646555" lon="8.2224404"><ele>573.0</ele><time>2026-05-03T08:20:42.964Z</time></trkpt><trkpt lat="45.6466001" lon="8.2225473"><ele>572.6</ele><time>2026-05-03T08:20:45.972Z</time></trkpt><trkpt lat="45.6466156" lon="8.2226729"><ele>572.1999999999999</ele><time>2026-05-03T08:20:47.968Z</time></trkpt><trkpt lat="45.6466013" lon="8.2228713"><ele>571.8</ele><time>2026-05-03T08:20:49.97Z</time></trkpt><trkpt lat="45.6465989" lon="8.2230074"><ele>571.4</ele><time>2026-05-03T08:20:51.964Z</time></trkpt><trkpt lat="45.6465928" lon="8.2231258"><ele>571.0</ele><time>2026-05-03T08:20:53.971Z</time></trkpt><trkpt lat="45.646551" lon="8.2232499"><ele>571.0</ele><time>2026-05-03T08:20:55.965Z</time></trkpt><trkpt lat="45.6465052" lon="8.2233982"><ele>571.0</ele><time>2026-05-03T08:20:57.969Z</time></trkpt><trkpt lat="45.6464819" lon="8.2235394"><ele>571.0</ele><time>2026-05-03T08:20:59.981Z</time></trkpt><trkpt lat="45.6464595" lon="8.2236244"><ele>571.0</ele><time>2026-05-03T08:21:00.978Z</time></trkpt><trkpt lat="45.6464363" lon="8.2237357"><ele>571.0</ele><time>2026-05-03T08:21:01.961Z</time></trkpt><trkpt lat="45.6464228" lon="8.2238359"><ele>571.0</ele><time>2026-05-03T08:21:02.986Z</time></trkpt><trkpt lat="45.6464146" lon="8.223933"><ele>569.0</ele><time>2026-05-03T08:21:03.964Z</time></trkpt><trkpt lat="45.6464207" lon="8.2240879"><ele>567.0</ele><time>2026-05-03T08:21:05.96Z</time></trkpt><trkpt lat="45.6463922" lon="8.2241749"><ele>565.0</ele><time>2026-05-03T08:21:07.973Z</time></trkpt><trkpt lat="45.6463675" lon="8.2242861"><ele>563.0</ele><time>2026-05-03T08:21:09.995Z</time></trkpt><trkpt lat="45.6463433" lon="8.2243715"><ele>561.0</ele><time>2026-05-03T08:21:10.996Z</time></trkpt><trkpt lat="45.6463249" lon="8.2244731"><ele>559.0</ele><time>2026-05-03T08:21:11.976Z</time></trkpt><trkpt lat="45.646284" lon="8.2245694"><ele>559.0</ele><time>2026-05-03T08:21:12.998Z</time></trkpt><trkpt lat="45.646248" lon="8.2246588"><ele>559.0</ele><time>2026-05-03T08:21:13.973Z</time></trkpt><trkpt lat="45.6462462" lon="8.2247655"><ele>559.0</ele><time>2026-05-03T08:21:14.996Z</time></trkpt><trkpt lat="45.6462477" lon="8.2248694"><ele>559.0</ele><time>2026-05-03T08:21:15.992Z</time></trkpt><trkpt lat="45.646249" lon="8.2249707"><ele>559.0</ele><time>2026-05-03T08:21:17Z</time></trkpt><trkpt lat="45.6462635" lon="8.2251479"><ele>559.0</ele><time>2026-05-03T08:21:18.971Z</time></trkpt><trkpt lat="45.6462939" lon="8.2252372"><ele>557.1666666666667</ele><time>2026-05-03T08:21:19.974Z</time></trkpt><trkpt lat="45.6462758" lon="8.2253651"><ele>555.3333333333334</ele><time>2026-05-03T08:21:21.982Z</time></trkpt><trkpt lat="45.6462333" lon="8.2254451"><ele>553.5</ele><time>2026-05-03T08:21:23.985Z</time></trkpt><trkpt lat="45.6461757" lon="8.2255326"><ele>551.6666666666666</ele><time>2026-05-03T08:21:25.969Z</time></trkpt><trkpt lat="45.6461433" lon="8.225629"><ele>549.8333333333333</ele><time>2026-05-03T08:21:27.977Z</time></trkpt><trkpt lat="45.6461649" lon="8.2257512"><ele>548.0</ele><time>2026-05-03T08:21:30.985Z</time></trkpt><trkpt lat="45.6461403" lon="8.2258543"><ele>546.3333333333333</ele><time>2026-05-03T08:21:32.984Z</time></trkpt><trkpt lat="45.6460774" lon="8.2259281"><ele>544.6666666666666</ele><time>2026-05-03T08:21:34.987Z</time></trkpt><trkpt lat="45.6459922" lon="8.2259203"><ele>543.0</ele><time>2026-05-03T08:21:36.982Z</time></trkpt><trkpt lat="45.6459068" lon="8.2258723"><ele>541.3333333333334</ele><time>2026-05-03T08:21:38.978Z</time></trkpt><trkpt lat="45.6458432" lon="8.2259507"><ele>539.6666666666667</ele><time>2026-05-03T08:21:42.989Z</time></trkpt><trkpt lat="45.6457859" lon="8.2260026"><ele>538.0</ele><time>2026-05-03T08:21:45.975Z</time></trkpt><trkpt lat="45.6458041" lon="8.226102"><ele>538.0</ele><time>2026-05-03T08:21:47.982Z</time></trkpt><trkpt lat="45.645799" lon="8.2262139"><ele>538.0</ele><time>2026-05-03T08:21:50.993Z</time></trkpt><trkpt lat="45.6457282" lon="8.2262277"><ele>538.0</ele><time>2026-05-03T08:21:53.964Z</time></trkpt><trkpt lat="45.6457084" lon="8.2263356"><ele>538.0</ele><time>2026-05-03T08:21:56.986Z</time></trkpt><trkpt lat="45.6457283" lon="8.2264491"><ele>538.0</ele><time>2026-05-03T08:21:58.981Z</time></trkpt><trkpt lat="45.6457596" lon="8.2265404"><ele>538.0</ele><time>2026-05-03T08:22:00.985Z</time></trkpt><trkpt lat="45.6458368" lon="8.2266122"><ele>534.5</ele><time>2026-05-03T08:22:03.971Z</time></trkpt><trkpt lat="45.6459273" lon="8.2266416"><ele>531.0</ele><time>2026-05-03T08:22:05.973Z</time></trkpt><trkpt lat="45.646019" lon="8.2266598"><ele>527.5</ele><time>2026-05-03T08:22:07.961Z</time></trkpt><trkpt lat="45.6460841" lon="8.2267022"><ele>524.0</ele><time>2026-05-03T08:22:09.976Z</time></trkpt><trkpt lat="45.6461459" lon="8.2267218"><ele>520.5</ele><time>2026-05-03T08:22:11.965Z</time></trkpt><trkpt lat="45.6462063" lon="8.2267878"><ele>517.0</ele><time>2026-05-03T08:22:14.972Z</time></trkpt><trkpt lat="45.6461978" lon="8.2269216"><ele>514.8333333333334</ele><time>2026-05-03T08:22:18.966Z</time></trkpt><trkpt lat="45.6462135" lon="8.2270308"><ele>512.6666666666667</ele><time>2026-05-03T08:22:20.968Z</time></trkpt><trkpt lat="45.646233" lon="8.2271359"><ele>510.5</ele><time>2026-05-03T08:22:22.962Z</time></trkpt><trkpt lat="45.6462268" lon="8.2272322"><ele>508.33333333333337</ele><time>2026-05-03T08:22:24.971Z</time></trkpt><trkpt lat="45.6462099" lon="8.2273442"><ele>506.1666666666667</ele><time>2026-05-03T08:22:27.966Z</time></trkpt><trkpt lat="45.6462139" lon="8.2274751"><ele>504.0</ele><time>2026-05-03T08:22:30.966Z</time></trkpt><trkpt lat="45.6461841" lon="8.2275965"><ele>501.4</ele><time>2026-05-03T08:22:32.981Z</time></trkpt><trkpt lat="45.6461626" lon="8.2277445"><ele>498.79999999999995</ele><time>2026-05-03T08:22:35.962Z</time></trkpt><trkpt lat="45.6460914" lon="8.2278114"><ele>496.20000000000005</ele><time>2026-05-03T08:22:36.959Z</time></trkpt><trkpt lat="45.6460102" lon="8.22793"><ele>493.6</ele><time>2026-05-03T08:22:38.968Z</time></trkpt><trkpt lat="45.6459518" lon="8.2280597"><ele>491.0</ele><time>2026-05-03T08:22:40.972Z</time></trkpt><trkpt lat="45.6458994" lon="8.228131"><ele>488.0</ele><time>2026-05-03T08:22:42.968Z</time></trkpt><trkpt lat="45.6458434" lon="8.2281898"><ele>484.99999999999994</ele><time>2026-05-03T08:22:44.978Z</time></trkpt><trkpt lat="45.6458572" lon="8.2282965"><ele>482.0</ele><time>2026-05-03T08:22:47.976Z</time></trkpt><trkpt lat="45.6458085" lon="8.2283672"><ele>479.0</ele><time>2026-05-03T08:22:57.966Z</time></trkpt><trkpt lat="45.6457802" lon="8.2284832"><ele>475.99999999999994</ele><time>2026-05-03T08:23:03.981Z</time></trkpt><trkpt lat="45.6457753" lon="8.2285767"><ele>473.0</ele><time>2026-05-03T08:23:06.977Z</time></trkpt><trkpt lat="45.645725" lon="8.2286682"><ele>470.0</ele><time>2026-05-03T08:23:08.976Z</time></trkpt><trkpt lat="45.6456702" lon="8.22881"><ele>470.0</ele><time>2026-05-03T08:23:10.972Z</time></trkpt><trkpt lat="45.6456389" lon="8.2289348"><ele>470.0</ele><time>2026-05-03T08:23:12.966Z</time></trkpt><trkpt lat="45.6456562" lon="8.2290362"><ele>470.0</ele><time>2026-05-03T08:23:14.989Z</time></trkpt><trkpt lat="45.6456671" lon="8.2291907"><ele>470.0</ele><time>2026-05-03T08:23:16.968Z</time></trkpt><trkpt lat="45.6456836" lon="8.2293436"><ele>470.0</ele><time>2026-05-03T08:23:18.967Z</time></trkpt><trkpt lat="45.6456152" lon="8.2294108"><ele>467.85714285714283</ele><time>2026-05-03T08:23:21.96Z</time></trkpt><trkpt lat="45.6455538" lon="8.2293436"><ele>465.71428571428567</ele><time>2026-05-03T08:23:24.973Z</time></trkpt><trkpt lat="45.6454939" lon="8.2293835"><ele>463.57142857142856</ele><time>2026-05-03T08:23:29.958Z</time></trkpt><trkpt lat="45.6454911" lon="8.2294947"><ele>461.42857142857144</ele><time>2026-05-03T08:23:34.982Z</time></trkpt><trkpt lat="45.6454873" lon="8.229605"><ele>459.2857142857143</ele><time>2026-05-03T08:23:37.966Z</time></trkpt><trkpt lat="45.6454579" lon="8.2296978"><ele>457.1428571428571</ele><time>2026-05-03T08:23:41.967Z</time></trkpt><trkpt lat="45.6454335" lon="8.2297819"><ele>455.0</ele><time>2026-05-03T08:23:48.971Z</time></trkpt><trkpt lat="45.6453766" lon="8.2298415"><ele>453.49999999999994</ele><time>2026-05-03T08:24:10.957Z</time></trkpt><trkpt lat="45.645343" lon="8.2299299"><ele>452.0</ele><time>2026-05-03T08:24:15.96Z</time></trkpt><trkpt lat="45.6452905" lon="8.2299906"><ele>450.5</ele><time>2026-05-03T08:24:19.955Z</time></trkpt><trkpt lat="45.645242" lon="8.230069"><ele>449.0</ele><time>2026-05-03T08:24:50.981Z</time></trkpt><trkpt lat="45.6452149" lon="8.2301807"><ele>447.49999999999994</ele><time>2026-05-03T08:24:53.969Z</time></trkpt><trkpt lat="45.6451141" lon="8.2302888"><ele>446.0</ele><time>2026-05-03T08:24:55.962Z</time></trkpt><trkpt lat="45.6450562" lon="8.2303375"><ele>445.99999999999994</ele><time>2026-05-03T08:24:56.954Z</time></trkpt><trkpt lat="45.6449999" lon="8.2303878"><ele>446.0</ele><time>2026-05-03T08:24:57.976Z</time></trkpt><trkpt lat="45.6449191" lon="8.2304584"><ele>446.0</ele><time>2026-05-03T08:24:59.971Z</time></trkpt><trkpt lat="45.6448496" lon="8.2305232"><ele>446.0</ele><time>2026-05-03T08:25:01.971Z</time></trkpt><trkpt lat="45.6447776" lon="8.2305698"><ele>445.99999999999994</ele><time>2026-05-03T08:25:03.955Z</time></trkpt><trkpt lat="45.6447117" lon="8.2306191"><ele>446.0</ele><time>2026-05-03T08:25:05.969Z</time></trkpt><trkpt lat="45.6446047" lon="8.2306894"><ele>445.66666666666663</ele><time>2026-05-03T08:25:07.957Z</time></trkpt><trkpt lat="45.6445461" lon="8.2307312"><ele>445.3333333333333</ele><time>2026-05-03T08:25:08.952Z</time></trkpt><trkpt lat="45.644442" lon="8.2307814"><ele>445.0</ele><time>2026-05-03T08:25:10.96Z</time></trkpt><trkpt lat="45.6443674" lon="8.2308293"><ele>444.66666666666663</ele><time>2026-05-03T08:25:12.966Z</time></trkpt><trkpt lat="45.6443062" lon="8.2308775"><ele>444.3333333333333</ele><time>2026-05-03T08:25:13.964Z</time></trkpt><trkpt lat="45.644226" lon="8.2309244"><ele>444.0</ele><time>2026-05-03T08:25:15.959Z</time></trkpt><trkpt lat="45.6441496" lon="8.2309726"><ele>444.0</ele><time>2026-05-03T08:25:17.961Z</time></trkpt><trkpt lat="45.6440739" lon="8.2310327"><ele>444.0</ele><time>2026-05-03T08:25:19.968Z</time></trkpt><trkpt lat="45.6439952" lon="8.2310826"><ele>444.0</ele><time>2026-05-03T08:25:21.963Z</time></trkpt><trkpt lat="45.6439067" lon="8.231133"><ele>444.0</ele><time>2026-05-03T08:25:23.965Z</time></trkpt><trkpt lat="45.6438239" lon="8.2311692"><ele>444.0</ele><time>2026-05-03T08:25:25.964Z</time></trkpt><trkpt lat="45.6436981" lon="8.2312318"><ele>444.0</ele><time>2026-05-03T08:25:27.966Z</time></trkpt><trkpt lat="45.643632" lon="8.2312599"><ele>444.0</ele><time>2026-05-03T08:25:28.956Z</time></trkpt><trkpt lat="45.643565" lon="8.2312929"><ele>444.0</ele><time>2026-05-03T08:25:29.964Z</time></trkpt><trkpt lat="45.6435025" lon="8.2313075"><ele>444.0</ele><time>2026-05-03T08:25:30.968Z</time></trkpt><trkpt lat="45.6433826" lon="8.2313151"><ele>444.0</ele><time>2026-05-03T08:25:32.984Z</time></trkpt><trkpt lat="45.6432811" lon="8.2312993"><ele>444.0</ele><time>2026-05-03T08:25:34.97Z</time></trkpt><trkpt lat="45.6431963" lon="8.2312082"><ele>443.1428571428571</ele><time>2026-05-03T08:25:36.986Z</time></trkpt><trkpt lat="45.6431188" lon="8.231228"><ele>442.28571428571433</ele><time>2026-05-03T08:25:50.969Z</time></trkpt><trkpt lat="45.6430537" lon="8.2312719"><ele>441.42857142857144</ele><time>2026-05-03T08:25:55.959Z</time></trkpt><trkpt lat="45.6429828" lon="8.2313241"><ele>440.57142857142856</ele><time>2026-05-03T08:25:59.978Z</time></trkpt><trkpt lat="45.6429453" lon="8.2314001"><ele>439.71428571428567</ele><time>2026-05-03T08:26:04.99Z</time></trkpt><trkpt lat="45.643009" lon="8.2314245"><ele>438.8571428571429</ele><time>2026-05-03T08:26:08.953Z</time></trkpt><trkpt lat="45.6430754" lon="8.2314757"><ele>438.0</ele><time>2026-05-03T08:26:16.967Z</time></trkpt><trkpt lat="45.6431449" lon="8.2315214"><ele>438.0</ele><time>2026-05-03T08:26:19.963Z</time></trkpt><trkpt lat="45.6432272" lon="8.2315491"><ele>438.0</ele><time>2026-05-03T08:26:22.955Z</time></trkpt><trkpt lat="45.6432905" lon="8.2315723"><ele>438.0</ele><time>2026-05-03T08:26:24.966Z</time></trkpt><trkpt lat="45.6433623" lon="8.2315815"><ele>438.0</ele><time>2026-05-03T08:26:26.958Z</time></trkpt><trkpt lat="45.6434293" lon="8.2316182"><ele>438.0</ele><time>2026-05-03T08:26:28.967Z</time></trkpt><trkpt lat="45.643408" lon="8.2317207"><ele>438.0</ele><time>2026-05-03T08:26:34.973Z</time></trkpt><trkpt lat="45.6433241" lon="8.2317742"><ele>438.0</ele><time>2026-05-03T08:26:37.969Z</time></trkpt><trkpt lat="45.6432293" lon="8.2317898"><ele>438.0</ele><time>2026-05-03T08:26:39.959Z</time></trkpt><trkpt lat="45.6431508" lon="8.231814"><ele>438.0</ele><time>2026-05-03T08:26:40.954Z</time></trkpt><trkpt lat="45.6430729" lon="8.2318352"><ele>438.0</ele><time>2026-05-03T08:26:41.966Z</time></trkpt><trkpt lat="45.6430097" lon="8.2318931"><ele>438.0</ele><time>2026-05-03T08:26:42.971Z</time></trkpt><trkpt lat="45.6429365" lon="8.2319714"><ele>438.0</ele><time>2026-05-03T08:26:43.965Z</time></trkpt><trkpt lat="45.6428684" lon="8.2320365"><ele>438.0</ele><time>2026-05-03T08:26:44.95Z</time></trkpt><trkpt lat="45.6427859" lon="8.2321461"><ele>438.0</ele><time>2026-05-03T08:26:46.965Z</time></trkpt><trkpt lat="45.6427604" lon="8.2322372"><ele>438.0</ele><time>2026-05-03T08:26:47.966Z</time></trkpt><trkpt lat="45.6427362" lon="8.2323404"><ele>438.0</ele><time>2026-05-03T08:26:48.958Z</time></trkpt><trkpt lat="45.6427099" lon="8.2324636"><ele>438.0</ele><time>2026-05-03T08:26:49.957Z</time></trkpt><trkpt lat="45.6426805" lon="8.2325687"><ele>438.0</ele><time>2026-05-03T08:26:50.964Z</time></trkpt><trkpt lat="45.6426531" lon="8.2326718"><ele>438.0</ele><time>2026-05-03T08:26:51.968Z</time></trkpt><trkpt lat="45.6426377" lon="8.2327788"><ele>438.0</ele><time>2026-05-03T08:26:52.967Z</time></trkpt><trkpt lat="45.6426369" lon="8.2328742"><ele>438.0</ele><time>2026-05-03T08:26:53.96Z</time></trkpt><trkpt lat="45.6426414" lon="8.2329685"><ele>438.0</ele><time>2026-05-03T08:26:54.965Z</time></trkpt><trkpt lat="45.6426436" lon="8.2330647"><ele>438.0</ele><time>2026-05-03T08:26:55.966Z</time></trkpt><trkpt lat="45.6425996" lon="8.2331956"><ele>438.0</ele><time>2026-05-03T08:26:57.957Z</time></trkpt><trkpt lat="45.6425247" lon="8.2333466"><ele>440.3333333333333</ele><time>2026-05-03T08:26:59.952Z</time></trkpt><trkpt lat="45.6424897" lon="8.2334457"><ele>442.66666666666663</ele><time>2026-05-03T08:27:00.949Z</time></trkpt><trkpt lat="45.6424513" lon="8.2335356"><ele>445.0</ele><time>2026-05-03T08:27:01.961Z</time></trkpt><trkpt lat="45.6424065" lon="8.2336283"><ele>447.3333333333333</ele><time>2026-05-03T08:27:02.955Z</time></trkpt><trkpt lat="45.6423684" lon="8.2337065"><ele>449.66666666666663</ele><time>2026-05-03T08:27:03.965Z</time></trkpt><trkpt lat="45.642305" lon="8.2337805"><ele>452.0</ele><time>2026-05-03T08:27:04.961Z</time></trkpt><trkpt lat="45.6422157" lon="8.2339291"><ele>455.0</ele><time>2026-05-03T08:27:06.954Z</time></trkpt><trkpt lat="45.6421844" lon="8.2340724"><ele>458.00000000000006</ele><time>2026-05-03T08:27:08.962Z</time></trkpt><trkpt lat="45.6421955" lon="8.2341833"><ele>461.00000000000006</ele><time>2026-05-03T08:27:10.958Z</time></trkpt><trkpt lat="45.6422323" lon="8.2342987"><ele>464.0</ele><time>2026-05-03T08:27:21.963Z</time></trkpt><trkpt lat="45.6423099" lon="8.2344482"><ele>467.0</ele><time>2026-05-03T08:27:23.954Z</time></trkpt><trkpt lat="45.6423542" lon="8.234522"><ele>466.99999999999994</ele><time>2026-05-03T08:27:24.966Z</time></trkpt><trkpt lat="45.6424055" lon="8.2346069"><ele>467.0</ele><time>2026-05-03T08:27:25.97Z</time></trkpt><trkpt lat="45.6424501" lon="8.2346828"><ele>467.0</ele><time>2026-05-03T08:27:26.972Z</time></trkpt><trkpt lat="45.6425265" lon="8.2347886"><ele>467.0</ele><time>2026-05-03T08:27:28.957Z</time></trkpt><trkpt lat="45.6424525" lon="8.2347649"><ele>466.99999999999994</ele><time>2026-05-03T08:27:34.975Z</time></trkpt><trkpt lat="45.6424081" lon="8.2346723"><ele>467.0</ele><time>2026-05-03T08:27:41.969Z</time></trkpt><trkpt lat="45.6423451" lon="8.2345709"><ele>467.0</ele><time>2026-05-03T08:27:43.965Z</time></trkpt><trkpt lat="45.6422979" lon="8.2344701"><ele>467.00000000000006</ele><time>2026-05-03T08:27:45.959Z</time></trkpt><trkpt lat="45.6422134" lon="8.2343178"><ele>467.00000000000006</ele><time>2026-05-03T08:27:47.977Z</time></trkpt><trkpt lat="45.6421749" lon="8.2342149"><ele>467.0</ele><time>2026-05-03T08:27:48.987Z</time></trkpt><trkpt lat="45.6421436" lon="8.2341231"><ele>467.0</ele><time>2026-05-03T08:27:49.964Z</time></trkpt><trkpt lat="45.642124" lon="8.2339596"><ele>463.25</ele><time>2026-05-03T08:27:51.967Z</time></trkpt><trkpt lat="45.6421784" lon="8.233822"><ele>459.5</ele><time>2026-05-03T08:27:53.973Z</time></trkpt><trkpt lat="45.642266" lon="8.2337138"><ele>455.75</ele><time>2026-05-03T08:27:55.975Z</time></trkpt><trkpt lat="45.6423668" lon="8.2335787"><ele>452.0</ele><time>2026-05-03T08:27:57.966Z</time></trkpt><trkpt lat="45.6424133" lon="8.2334741"><ele>451.99999999999994</ele><time>2026-05-03T08:27:58.962Z</time></trkpt><trkpt lat="45.642456" lon="8.2333564"><ele>452.0</ele><time>2026-05-03T08:27:59.961Z</time></trkpt><trkpt lat="45.6425005" lon="8.2332385"><ele>452.0</ele><time>2026-05-03T08:28:00.977Z</time></trkpt><trkpt lat="45.6425448" lon="8.2331444"><ele>452.0</ele><time>2026-05-03T08:28:01.972Z</time></trkpt><trkpt lat="45.6425946" lon="8.2330526"><ele>451.99999999999994</ele><time>2026-05-03T08:28:02.965Z</time></trkpt><trkpt lat="45.6426186" lon="8.232969"><ele>452.0</ele><time>2026-05-03T08:28:03.965Z</time></trkpt><trkpt lat="45.6426271" lon="8.2328795"><ele>449.40000000000003</ele><time>2026-05-03T08:28:04.979Z</time></trkpt><trkpt lat="45.6426271" lon="8.2327099"><ele>446.80000000000007</ele><time>2026-05-03T08:28:06.957Z</time></trkpt><trkpt lat="45.6426354" lon="8.2326086"><ele>444.2</ele><time>2026-05-03T08:28:07.961Z</time></trkpt><trkpt lat="45.6426666" lon="8.2324654"><ele>441.6</ele><time>2026-05-03T08:28:08.965Z</time></trkpt><trkpt lat="45.6427098" lon="8.232304"><ele>439.0</ele><time>2026-05-03T08:28:09.968Z</time></trkpt><trkpt lat="45.6427389" lon="8.2321832"><ele>439.00000000000006</ele><time>2026-05-03T08:28:10.955Z</time></trkpt><trkpt lat="45.6427744" lon="8.2320954"><ele>439.0</ele><time>2026-05-03T08:28:11.969Z</time></trkpt><trkpt lat="45.6428784" lon="8.2319787"><ele>439.0</ele><time>2026-05-03T08:28:13.959Z</time></trkpt><trkpt lat="45.6429411" lon="8.2319248"><ele>439.0</ele><time>2026-05-03T08:28:14.974Z</time></trkpt><trkpt lat="45.6429978" lon="8.2318796"><ele>439.00000000000006</ele><time>2026-05-03T08:28:15.959Z</time></trkpt><trkpt lat="45.6430643" lon="8.2318248"><ele>439.0</ele><time>2026-05-03T08:28:17.957Z</time></trkpt><trkpt lat="45.6431392" lon="8.231807"><ele>438.83333333333337</ele><time>2026-05-03T08:28:19.961Z</time></trkpt><trkpt lat="45.6432229" lon="8.2318004"><ele>438.6666666666667</ele><time>2026-05-03T08:28:21.957Z</time></trkpt><trkpt lat="45.6433001" lon="8.2318001"><ele>438.5</ele><time>2026-05-03T08:28:23.984Z</time></trkpt><trkpt lat="45.6433878" lon="8.2317697"><ele>438.33333333333337</ele><time>2026-05-03T08:28:26.973Z</time></trkpt><trkpt lat="45.643458" lon="8.2317508"><ele>438.1666666666667</ele><time>2026-05-03T08:28:34.976Z</time></trkpt><trkpt lat="45.6433904" lon="8.2317229"><ele>438.0</ele><time>2026-05-03T08:28:52.955Z</time></trkpt><trkpt lat="45.6432947" lon="8.2317009"><ele>438.0</ele><time>2026-05-03T08:28:55.957Z</time></trkpt><trkpt lat="45.6432229" lon="8.231667"><ele>438.0</ele><time>2026-05-03T08:28:57.964Z</time></trkpt><trkpt lat="45.6431645" lon="8.2316187"><ele>438.0</ele><time>2026-05-03T08:28:58.962Z</time></trkpt><trkpt lat="45.6430881" lon="8.2315671"><ele>438.0</ele><time>2026-05-03T08:29:00.956Z</time></trkpt><trkpt lat="45.6430224" lon="8.2315466"><ele>438.0</ele><time>2026-05-03T08:29:02.969Z</time></trkpt><trkpt lat="45.6429335" lon="8.2315491"><ele>438.0</ele><time>2026-05-03T08:29:05.982Z</time></trkpt><trkpt lat="45.6428688" lon="8.2315816"><ele>438.0</ele><time>2026-05-03T08:29:07.972Z</time></trkpt><trkpt lat="45.6428014" lon="8.2316032"><ele>438.0</ele><time>2026-05-03T08:29:09.966Z</time></trkpt><trkpt lat="45.6427267" lon="8.2316461"><ele>438.0</ele><time>2026-05-03T08:29:11.959Z</time></trkpt><trkpt lat="45.64265" lon="8.231712"><ele>438.0</ele><time>2026-05-03T08:29:13.958Z</time></trkpt><trkpt lat="45.6425832" lon="8.2318175"><ele>438.0</ele><time>2026-05-03T08:29:15.969Z</time></trkpt><trkpt lat="45.6425285" lon="8.2319507"><ele>438.0</ele><time>2026-05-03T08:29:17.961Z</time></trkpt><trkpt lat="45.6424937" lon="8.232053"><ele>438.0</ele><time>2026-05-03T08:29:19.964Z</time></trkpt><trkpt lat="45.6424734" lon="8.2321533"><ele>438.0</ele><time>2026-05-03T08:29:23.961Z</time></trkpt><trkpt lat="45.6424598" lon="8.2322694"><ele>438.0</ele><time>2026-05-03T08:29:27.96Z</time></trkpt><trkpt lat="45.6424312" lon="8.2323506"><ele>438.0</ele><time>2026-05-03T08:29:29.955Z</time></trkpt><trkpt lat="45.6423511" lon="8.2324925"><ele>438.0</ele><time>2026-05-03T08:29:31.95Z</time></trkpt><trkpt lat="45.6423075" lon="8.2325727"><ele>438.0</ele><time>2026-05-03T08:29:32.961Z</time></trkpt><trkpt lat="45.6422652" lon="8.2326485"><ele>438.0</ele><time>2026-05-03T08:29:33.958Z</time></trkpt><trkpt lat="45.6422122" lon="8.2327463"><ele>438.0</ele><time>2026-05-03T08:29:35.967Z</time></trkpt><trkpt lat="45.6421633" lon="8.2328296"><ele>438.0</ele><time>2026-05-03T08:29:39.968Z</time></trkpt><trkpt lat="45.6421169" lon="8.2329154"><ele>438.0</ele><time>2026-05-03T08:29:41.962Z</time></trkpt><trkpt lat="45.6420459" lon="8.2330738"><ele>438.0</ele><time>2026-05-03T08:29:43.952Z</time></trkpt><trkpt lat="45.6419983" lon="8.2331428"><ele>438.0</ele><time>2026-05-03T08:29:44.971Z</time></trkpt><trkpt lat="45.6419406" lon="8.2332101"><ele>436.1666666666667</ele><time>2026-05-03T08:29:45.964Z</time></trkpt><trkpt lat="45.6418875" lon="8.2332648"><ele>434.33333333333337</ele><time>2026-05-03T08:29:46.97Z</time></trkpt><trkpt lat="45.641762" lon="8.2333283"><ele>432.5</ele><time>2026-05-03T08:29:48.967Z</time></trkpt><trkpt lat="45.6416918" lon="8.2333538"><ele>430.6666666666667</ele><time>2026-05-03T08:29:49.971Z</time></trkpt><trkpt lat="45.6415932" lon="8.2334117"><ele>428.83333333333337</ele><time>2026-05-03T08:29:51.955Z</time></trkpt><trkpt lat="45.6415288" lon="8.2334365"><ele>427.0</ele><time>2026-05-03T08:29:52.967Z</time></trkpt><trkpt lat="45.6414223" lon="8.2335306"><ele>427.00000000000006</ele><time>2026-05-03T08:29:54.976Z</time></trkpt><trkpt lat="45.6413655" lon="8.233579"><ele>427.0</ele><time>2026-05-03T08:29:55.98Z</time></trkpt><trkpt lat="45.6412957" lon="8.2336936"><ele>427.0</ele><time>2026-05-03T08:29:57.953Z</time></trkpt><trkpt lat="45.6412594" lon="8.2337807"><ele>427.0</ele><time>2026-05-03T08:29:59.962Z</time></trkpt><trkpt lat="45.6412543" lon="8.2338762"><ele>427.00000000000006</ele><time>2026-05-03T08:30:01.972Z</time></trkpt><trkpt lat="45.641285" lon="8.2339733"><ele>427.0</ele><time>2026-05-03T08:30:03.959Z</time></trkpt><trkpt lat="45.6412849" lon="8.2340723"><ele>428.00000000000006</ele><time>2026-05-03T08:30:05.966Z</time></trkpt><trkpt lat="45.6412117" lon="8.2340787"><ele>429.0</ele><time>2026-05-03T08:30:08.97Z</time></trkpt><trkpt lat="45.6411355" lon="8.2340383"><ele>430.0</ele><time>2026-05-03T08:30:10.999Z</time></trkpt><trkpt lat="45.641018" lon="8.2339959"><ele>431.0</ele><time>2026-05-03T08:30:12.964Z</time></trkpt><trkpt lat="45.640954" lon="8.2339761"><ele>432.00000000000006</ele><time>2026-05-03T08:30:13.958Z</time></trkpt><trkpt lat="45.6408677" lon="8.2339469"><ele>433.0</ele><time>2026-05-03T08:30:14.953Z</time></trkpt><trkpt lat="45.6407991" lon="8.2339479"><ele>433.33333333333337</ele><time>2026-05-03T08:30:15.962Z</time></trkpt><trkpt lat="45.6407238" lon="8.2339504"><ele>433.6666666666667</ele><time>2026-05-03T08:30:16.986Z</time></trkpt><trkpt lat="45.6406458" lon="8.2339551"><ele>434.0</ele><time>2026-05-03T08:30:17.96Z</time></trkpt><trkpt lat="45.6405743" lon="8.2339645"><ele>434.33333333333337</ele><time>2026-05-03T08:30:18.958Z</time></trkpt><trkpt lat="45.6404772" lon="8.2340301"><ele>434.6666666666667</ele><time>2026-05-03T08:30:20.969Z</time></trkpt><trkpt lat="45.6404125" lon="8.2340526"><ele>435.0</ele><time>2026-05-03T08:30:21.945Z</time></trkpt><trkpt lat="45.6402864" lon="8.2340311"><ele>435.0</ele><time>2026-05-03T08:30:23.96Z</time></trkpt><trkpt lat="45.6402275" lon="8.233975"><ele>435.0</ele><time>2026-05-03T08:30:24.952Z</time></trkpt><trkpt lat="45.6401862" lon="8.2339069"><ele>435.0</ele><time>2026-05-03T08:30:25.953Z</time></trkpt><trkpt lat="45.6401544" lon="8.2337708"><ele>435.0</ele><time>2026-05-03T08:30:27.969Z</time></trkpt><trkpt lat="45.6401205" lon="8.2336554"><ele>435.0</ele><time>2026-05-03T08:30:29.966Z</time></trkpt><trkpt lat="45.6400353" lon="8.233563"><ele>435.0</ele><time>2026-05-03T08:30:31.972Z</time></trkpt><trkpt lat="45.6399865" lon="8.2335008"><ele>432.0</ele><time>2026-05-03T08:30:32.988Z</time></trkpt><trkpt lat="45.6399205" lon="8.233376"><ele>429.0</ele><time>2026-05-03T08:30:34.962Z</time></trkpt><trkpt lat="45.639817" lon="8.2332736"><ele>426.0</ele><time>2026-05-03T08:30:36.968Z</time></trkpt><trkpt lat="45.6397636" lon="8.2332094"><ele>423.0</ele><time>2026-05-03T08:30:37.966Z</time></trkpt><trkpt lat="45.6397201" lon="8.2331207"><ele>420.0</ele><time>2026-05-03T08:30:38.959Z</time></trkpt><trkpt lat="45.6397077" lon="8.2330269"><ele>417.0</ele><time>2026-05-03T08:30:39.955Z</time></trkpt><trkpt lat="45.6396859" lon="8.2328643"><ele>417.0</ele><time>2026-05-03T08:30:41.96Z</time></trkpt><trkpt lat="45.6396386" lon="8.2327467"><ele>417.0</ele><time>2026-05-03T08:30:43.952Z</time></trkpt><trkpt lat="45.639569" lon="8.232616"><ele>417.0</ele><time>2026-05-03T08:30:45.958Z</time></trkpt><trkpt lat="45.6395353" lon="8.2325387"><ele>417.0</ele><time>2026-05-03T08:30:46.977Z</time></trkpt><trkpt lat="45.6394319" lon="8.232444"><ele>417.0</ele><time>2026-05-03T08:30:48.965Z</time></trkpt><trkpt lat="45.639357" lon="8.2323853"><ele>416.6</ele><time>2026-05-03T08:30:49.968Z</time></trkpt><trkpt lat="45.6392665" lon="8.2323265"><ele>416.20000000000005</ele><time>2026-05-03T08:30:50.962Z</time></trkpt><trkpt lat="45.6391639" lon="8.2322779"><ele>415.8</ele><time>2026-05-03T08:30:51.958Z</time></trkpt><trkpt lat="45.6390676" lon="8.232226"><ele>415.4</ele><time>2026-05-03T08:30:52.971Z</time></trkpt><trkpt lat="45.6390008" lon="8.2321772"><ele>415.0</ele><time>2026-05-03T08:30:53.959Z</time></trkpt><trkpt lat="45.6388999" lon="8.2321108"><ele>415.0</ele><time>2026-05-03T08:30:55.946Z</time></trkpt><trkpt lat="45.6388379" lon="8.2320751"><ele>415.0</ele><time>2026-05-03T08:30:56.976Z</time></trkpt><trkpt lat="45.6387172" lon="8.2320149"><ele>415.0</ele><time>2026-05-03T08:30:58.96Z</time></trkpt><trkpt lat="45.6386498" lon="8.2319847"><ele>415.0</ele><time>2026-05-03T08:30:59.954Z</time></trkpt><trkpt lat="45.6385852" lon="8.2319907"><ele>415.0</ele><time>2026-05-03T08:31:00.962Z</time></trkpt><trkpt lat="45.6384641" lon="8.2319873"><ele>413.4</ele><time>2026-05-03T08:31:02.964Z</time></trkpt><trkpt lat="45.6383847" lon="8.2320227"><ele>411.8</ele><time>2026-05-03T08:31:04.981Z</time></trkpt><trkpt lat="45.638293" lon="8.2320606"><ele>410.20000000000005</ele><time>2026-05-03T08:31:06.96Z</time></trkpt><trkpt lat="45.6382253" lon="8.2320473"><ele>408.6</ele><time>2026-05-03T08:31:07.961Z</time></trkpt><trkpt lat="45.6381137" lon="8.2320414"><ele>407.0</ele><time>2026-05-03T08:31:08.955Z</time></trkpt><trkpt lat="45.6380112" lon="8.2320166"><ele>407.0</ele><time>2026-05-03T08:31:09.96Z</time></trkpt><trkpt lat="45.637946" lon="8.231996"><ele>407.0</ele><time>2026-05-03T08:31:10.96Z</time></trkpt><trkpt lat="45.6378522" lon="8.2319127"><ele>407.0</ele><time>2026-05-03T08:31:12.96Z</time></trkpt><trkpt lat="45.6377376" lon="8.2318343"><ele>407.0</ele><time>2026-05-03T08:31:14.96Z</time></trkpt><trkpt lat="45.6376822" lon="8.2317808"><ele>407.0</ele><time>2026-05-03T08:31:15.958Z</time></trkpt><trkpt lat="45.6375913" lon="8.2317009"><ele>405.6</ele><time>2026-05-03T08:31:17.96Z</time></trkpt><trkpt lat="45.6375037" lon="8.2316885"><ele>404.20000000000005</ele><time>2026-05-03T08:31:19.966Z</time></trkpt><trkpt lat="45.6373927" lon="8.2316633"><ele>402.8</ele><time>2026-05-03T08:31:21.961Z</time></trkpt><trkpt lat="45.6372836" lon="8.2316847"><ele>401.4</ele><time>2026-05-03T08:31:23.956Z</time></trkpt><trkpt lat="45.6372032" lon="8.2317492"><ele>400.0</ele><time>2026-05-03T08:31:25.956Z</time></trkpt><trkpt lat="45.6371349" lon="8.2317746"><ele>400.0</ele><time>2026-05-03T08:31:26.961Z</time></trkpt><trkpt lat="45.6370535" lon="8.2318455"><ele>400.0</ele><time>2026-05-03T08:31:28.954Z</time></trkpt><trkpt lat="45.6369386" lon="8.2319043"><ele>400.0</ele><time>2026-05-03T08:31:30.966Z</time></trkpt><trkpt lat="45.6368788" lon="8.2319389"><ele>400.0</ele><time>2026-05-03T08:31:31.962Z</time></trkpt><trkpt lat="45.6367649" lon="8.2319715"><ele>400.0</ele><time>2026-05-03T08:31:33.959Z</time></trkpt><trkpt lat="45.6366673" lon="8.2319953"><ele>399.00000000000006</ele><time>2026-05-03T08:31:35.962Z</time></trkpt><trkpt lat="45.6366058" lon="8.2319663"><ele>398.0</ele><time>2026-05-03T08:31:36.962Z</time></trkpt><trkpt lat="45.6364996" lon="8.2319094"><ele>397.0</ele><time>2026-05-03T08:31:38.963Z</time></trkpt><trkpt lat="45.6364166" lon="8.2319282"><ele>396.0</ele><time>2026-05-03T08:31:40.973Z</time></trkpt><trkpt lat="45.636328" lon="8.2319253"><ele>395.00000000000006</ele><time>2026-05-03T08:31:43.957Z</time></trkpt><trkpt lat="45.6362601" lon="8.2319134"><ele>394.0</ele><time>2026-05-03T08:31:44.965Z</time></trkpt><trkpt lat="45.6361958" lon="8.2318895"><ele>394.6666666666667</ele><time>2026-05-03T08:31:45.97Z</time></trkpt><trkpt lat="45.6361218" lon="8.2318484"><ele>395.33333333333337</ele><time>2026-05-03T08:31:46.975Z</time></trkpt><trkpt lat="45.6360553" lon="8.2318192"><ele>396.0</ele><time>2026-05-03T08:31:47.964Z</time></trkpt><trkpt lat="45.6359842" lon="8.2317798"><ele>396.66666666666663</ele><time>2026-05-03T08:31:48.96Z</time></trkpt><trkpt lat="45.6358782" lon="8.2317467"><ele>397.3333333333333</ele><time>2026-05-03T08:31:50.966Z</time></trkpt><trkpt lat="45.6358092" lon="8.2316811"><ele>398.0</ele><time>2026-05-03T08:31:52.959Z</time></trkpt><trkpt lat="45.6357286" lon="8.2316327"><ele>398.0</ele><time>2026-05-03T08:31:54.98Z</time></trkpt><trkpt lat="45.6356296" lon="8.2316192"><ele>398.0</ele><time>2026-05-03T08:31:55.974Z</time></trkpt><trkpt lat="45.6355344" lon="8.2315877"><ele>398.0</ele><time>2026-05-03T08:31:56.955Z</time></trkpt><trkpt lat="45.6354488" lon="8.2315557"><ele>398.0</ele><time>2026-05-03T08:31:57.973Z</time></trkpt><trkpt lat="45.6353764" lon="8.2315524"><ele>398.0</ele><time>2026-05-03T08:31:58.972Z</time></trkpt><trkpt lat="45.635245" lon="8.2315786"><ele>397.99999999999994</ele><time>2026-05-03T08:32:00.955Z</time></trkpt><trkpt lat="45.6351805" lon="8.2315859"><ele>398.0</ele><time>2026-05-03T08:32:01.966Z</time></trkpt><trkpt lat="45.6351041" lon="8.2316148"><ele>398.0</ele><time>2026-05-03T08:32:02.955Z</time></trkpt><trkpt lat="45.635036" lon="8.23163"><ele>398.0</ele><time>2026-05-03T08:32:03.95Z</time></trkpt><trkpt lat="45.6349492" lon="8.2316703"><ele>397.99999999999994</ele><time>2026-05-03T08:32:04.962Z</time></trkpt><trkpt lat="45.6348624" lon="8.2316958"><ele>398.0</ele><time>2026-05-03T08:32:05.962Z</time></trkpt><trkpt lat="45.6347891" lon="8.2317105"><ele>397.99999999999994</ele><time>2026-05-03T08:32:06.954Z</time></trkpt><trkpt lat="45.6347201" lon="8.2317403"><ele>398.0</ele><time>2026-05-03T08:32:07.956Z</time></trkpt><trkpt lat="45.634656" lon="8.2317701"><ele>398.0</ele><time>2026-05-03T08:32:08.958Z</time></trkpt><trkpt lat="45.634595" lon="8.2318062"><ele>398.0</ele><time>2026-05-03T08:32:09.953Z</time></trkpt><trkpt lat="45.6344546" lon="8.2318881"><ele>397.99999999999994</ele><time>2026-05-03T08:32:11.964Z</time></trkpt><trkpt lat="45.6343686" lon="8.2318441"><ele>398.0</ele><time>2026-05-03T08:32:13.951Z</time></trkpt><trkpt lat="45.6343017" lon="8.2318416"><ele>395.99999999999994</ele><time>2026-05-03T08:32:14.951Z</time></trkpt><trkpt lat="45.634202" lon="8.2318074"><ele>394.0</ele><time>2026-05-03T08:32:16.956Z</time></trkpt><trkpt lat="45.6341914" lon="8.2317068"><ele>392.0</ele><time>2026-05-03T08:32:18.972Z</time></trkpt><trkpt lat="45.6341937" lon="8.2315931"><ele>390.0</ele><time>2026-05-03T08:32:22.955Z</time></trkpt><trkpt lat="45.6341347" lon="8.2315213"><ele>387.99999999999994</ele><time>2026-05-03T08:32:27.963Z</time></trkpt><trkpt lat="45.6340718" lon="8.2315422"><ele>386.0</ele><time>2026-05-03T08:32:29.988Z</time></trkpt><trkpt lat="45.6340071" lon="8.2315628"><ele>386.00000000000006</ele><time>2026-05-03T08:32:31.963Z</time></trkpt><trkpt lat="45.6339315" lon="8.2315995"><ele>386.0</ele><time>2026-05-03T08:32:34.964Z</time></trkpt><trkpt lat="45.6338477" lon="8.2315898"><ele>386.0</ele><time>2026-05-03T08:32:37.962Z</time></trkpt><trkpt lat="45.6337922" lon="8.2315456"><ele>386.0</ele><time>2026-05-03T08:32:42.953Z</time></trkpt><trkpt lat="45.6337811" lon="8.2314462"><ele>386.0</ele><time>2026-05-03T08:32:54.956Z</time></trkpt><trkpt lat="45.6337528" lon="8.2313354"><ele>386.00000000000006</ele><time>2026-05-03T08:32:57.964Z</time></trkpt><trkpt lat="45.6337108" lon="8.2312649"><ele>386.0</ele><time>2026-05-03T08:32:59.962Z</time></trkpt><trkpt lat="45.6337085" lon="8.2311441"><ele>388.66666666666663</ele><time>2026-05-03T08:33:02.97Z</time></trkpt><trkpt lat="45.6337646" lon="8.2310966"><ele>391.3333333333333</ele><time>2026-05-03T08:33:04.992Z</time></trkpt><trkpt lat="45.633854" lon="8.2310883"><ele>394.0</ele><time>2026-05-03T08:33:20.974Z</time></trkpt><trkpt lat="45.6339326" lon="8.2310657"><ele>396.66666666666663</ele><time>2026-05-03T08:33:21.957Z</time></trkpt><trkpt lat="45.6340087" lon="8.231022"><ele>399.3333333333333</ele><time>2026-05-03T08:33:22.978Z</time></trkpt><trkpt lat="45.634095" lon="8.2309846"><ele>402.0</ele><time>2026-05-03T08:33:23.973Z</time></trkpt><trkpt lat="45.6341878" lon="8.230934"><ele>402.0</ele><time>2026-05-03T08:33:24.957Z</time></trkpt><trkpt lat="45.6342783" lon="8.230877"><ele>402.0</ele><time>2026-05-03T08:33:25.945Z</time></trkpt><trkpt lat="45.6343768" lon="8.2308084"><ele>402.0</ele><time>2026-05-03T08:33:26.965Z</time></trkpt><trkpt lat="45.6344709" lon="8.2307338"><ele>402.0</ele><time>2026-05-03T08:33:27.975Z</time></trkpt><trkpt lat="45.634549" lon="8.230668"><ele>402.0</ele><time>2026-05-03T08:33:28.95Z</time></trkpt><trkpt lat="45.6346235" lon="8.2306108"><ele>405.20000000000005</ele><time>2026-05-03T08:33:29.966Z</time></trkpt><trkpt lat="45.634688" lon="8.2305644"><ele>408.4</ele><time>2026-05-03T08:33:30.961Z</time></trkpt><trkpt lat="45.634789" lon="8.2304983"><ele>411.6</ele><time>2026-05-03T08:33:32.975Z</time></trkpt><trkpt lat="45.6348619" lon="8.2304478"><ele>414.79999999999995</ele><time>2026-05-03T08:33:34.974Z</time></trkpt><trkpt lat="45.6347629" lon="8.2305043"><ele>418.0</ele><time>2026-05-03T08:33:38.954Z</time></trkpt><trkpt lat="45.634692" lon="8.2305604"><ele>418.0</ele><time>2026-05-03T08:33:39.948Z</time></trkpt><trkpt lat="45.6346127" lon="8.230624"><ele>418.0</ele><time>2026-05-03T08:33:40.967Z</time></trkpt><trkpt lat="45.6345263" lon="8.2306939"><ele>418.0</ele><time>2026-05-03T08:33:41.955Z</time></trkpt><trkpt lat="45.63442" lon="8.2307717"><ele>418.0</ele><time>2026-05-03T08:33:42.959Z</time></trkpt><trkpt lat="45.6343157" lon="8.2308426"><ele>418.0</ele><time>2026-05-03T08:33:43.962Z</time></trkpt><trkpt lat="45.6342164" lon="8.2309174"><ele>414.79999999999995</ele><time>2026-05-03T08:33:44.984Z</time></trkpt><trkpt lat="45.634124" lon="8.230978"><ele>411.6</ele><time>2026-05-03T08:33:45.948Z</time></trkpt><trkpt lat="45.634034" lon="8.2310242"><ele>408.4</ele><time>2026-05-03T08:33:46.953Z</time></trkpt><trkpt lat="45.6339386" lon="8.2310461"><ele>405.20000000000005</ele><time>2026-05-03T08:33:47.955Z</time></trkpt><trkpt lat="45.6338411" lon="8.2310669"><ele>402.0</ele><time>2026-05-03T08:33:48.965Z</time></trkpt><trkpt lat="45.6337488" lon="8.2310899"><ele>402.0</ele><time>2026-05-03T08:33:49.947Z</time></trkpt><trkpt lat="45.6336593" lon="8.2311154"><ele>402.0</ele><time>2026-05-03T08:33:50.955Z</time></trkpt><trkpt lat="45.6335814" lon="8.2311242"><ele>402.0</ele><time>2026-05-03T08:33:51.957Z</time></trkpt><trkpt lat="45.6335158" lon="8.2311308"><ele>402.0</ele><time>2026-05-03T08:33:52.942Z</time></trkpt><trkpt lat="45.6334502" lon="8.2311394"><ele>402.0</ele><time>2026-05-03T08:33:53.944Z</time></trkpt><trkpt lat="45.6333466" lon="8.2311509"><ele>402.0</ele><time>2026-05-03T08:33:55.949Z</time></trkpt><trkpt lat="45.6334335" lon="8.2311226"><ele>402.8</ele><time>2026-05-03T08:34:00.953Z</time></trkpt><trkpt lat="45.6335332" lon="8.231105"><ele>403.6</ele><time>2026-05-03T08:34:02.968Z</time></trkpt><trkpt lat="45.6334601" lon="8.2311418"><ele>404.40000000000003</ele><time>2026-05-03T08:34:27.958Z</time></trkpt><trkpt lat="45.6333532" lon="8.2311579"><ele>405.20000000000005</ele><time>2026-05-03T08:34:29.956Z</time></trkpt><trkpt lat="45.6332811" lon="8.2311781"><ele>406.0</ele><time>2026-05-03T08:34:30.967Z</time></trkpt><trkpt lat="45.6331695" lon="8.2312047"><ele>406.00000000000006</ele><time>2026-05-03T08:34:32.961Z</time></trkpt><trkpt lat="45.633082" lon="8.2312428"><ele>406.0</ele><time>2026-05-03T08:34:34.954Z</time></trkpt><trkpt lat="45.6330338" lon="8.231339"><ele>406.0</ele><time>2026-05-03T08:34:36.971Z</time></trkpt><trkpt lat="45.6330237" lon="8.2314697"><ele>406.0</ele><time>2026-05-03T08:34:38.961Z</time></trkpt><trkpt lat="45.6330439" lon="8.2315742"><ele>406.00000000000006</ele><time>2026-05-03T08:34:39.961Z</time></trkpt><trkpt lat="45.6330608" lon="8.2316652"><ele>406.0</ele><time>2026-05-03T08:34:40.968Z</time></trkpt><trkpt lat="45.633076" lon="8.2317774"><ele>402.4</ele><time>2026-05-03T08:34:41.972Z</time></trkpt><trkpt lat="45.6330757" lon="8.231911"><ele>398.8</ele><time>2026-05-03T08:34:42.965Z</time></trkpt><trkpt lat="45.6330638" lon="8.2320452"><ele>395.2</ele><time>2026-05-03T08:34:43.957Z</time></trkpt><trkpt lat="45.6330358" lon="8.2322023"><ele>391.59999999999997</ele><time>2026-05-03T08:34:44.967Z</time></trkpt><trkpt lat="45.6329948" lon="8.232359"><ele>388.0</ele><time>2026-05-03T08:34:45.974Z</time></trkpt><trkpt lat="45.6329505" lon="8.2325014"><ele>389.0</ele><time>2026-05-03T08:34:46.98Z</time></trkpt><trkpt lat="45.6329002" lon="8.2326307"><ele>390.0</ele><time>2026-05-03T08:34:47.969Z</time></trkpt><trkpt lat="45.6328396" lon="8.2327409"><ele>391.0</ele><time>2026-05-03T08:34:48.973Z</time></trkpt><trkpt lat="45.6327736" lon="8.2328344"><ele>392.0</ele><time>2026-05-03T08:34:49.956Z</time></trkpt><trkpt lat="45.632698" lon="8.2329233"><ele>393.0</ele><time>2026-05-03T08:34:50.967Z</time></trkpt><trkpt lat="45.632625" lon="8.2330127"><ele>393.0</ele><time>2026-05-03T08:34:51.967Z</time></trkpt><trkpt lat="45.6325584" lon="8.2331076"><ele>393.0</ele><time>2026-05-03T08:34:52.967Z</time></trkpt><trkpt lat="45.6325112" lon="8.2331888"><ele>393.0</ele><time>2026-05-03T08:34:53.974Z</time></trkpt><trkpt lat="45.6324536" lon="8.2333483"><ele>393.0</ele><time>2026-05-03T08:34:55.962Z</time></trkpt><trkpt lat="45.6324288" lon="8.2334361"><ele>393.0</ele><time>2026-05-03T08:34:56.972Z</time></trkpt><trkpt lat="45.6324182" lon="8.2335378"><ele>393.0</ele><time>2026-05-03T08:34:57.981Z</time></trkpt><trkpt lat="45.6324176" lon="8.233632"><ele>391.0</ele><time>2026-05-03T08:34:58.966Z</time></trkpt><trkpt lat="45.6324178" lon="8.2337684"><ele>389.0</ele><time>2026-05-03T08:35:00.957Z</time></trkpt><trkpt lat="45.632455" lon="8.233634"><ele>387.0</ele><time>2026-05-03T08:35:06.967Z</time></trkpt><trkpt lat="45.6324487" lon="8.2335323"><ele>385.0</ele><time>2026-05-03T08:35:09.969Z</time></trkpt><trkpt lat="45.6323778" lon="8.2334882"><ele>383.0</ele><time>2026-05-03T08:35:14.97Z</time></trkpt><trkpt lat="45.6323435" lon="8.2334116"><ele>381.0</ele><time>2026-05-03T08:35:18.961Z</time></trkpt><trkpt lat="45.6322755" lon="8.2333234"><ele>381.0</ele><time>2026-05-03T08:35:21.966Z</time></trkpt><trkpt lat="45.6322116" lon="8.2332121"><ele>381.0</ele><time>2026-05-03T08:35:23.957Z</time></trkpt><trkpt lat="45.6321782" lon="8.2331272"><ele>381.0</ele><time>2026-05-03T08:35:24.961Z</time></trkpt><trkpt lat="45.6321293" lon="8.2329919"><ele>381.0</ele><time>2026-05-03T08:35:26.976Z</time></trkpt><trkpt lat="45.6320786" lon="8.2328362"><ele>381.0</ele><time>2026-05-03T08:35:28.971Z</time></trkpt><trkpt lat="45.6320384" lon="8.2327014"><ele>383.4</ele><time>2026-05-03T08:35:30.961Z</time></trkpt><trkpt lat="45.6320054" lon="8.2326177"><ele>385.8</ele><time>2026-05-03T08:35:32.98Z</time></trkpt><trkpt lat="45.632002" lon="8.2324878"><ele>388.2</ele><time>2026-05-03T08:35:34.965Z</time></trkpt><trkpt lat="45.6320415" lon="8.2323234"><ele>390.59999999999997</ele><time>2026-05-03T08:35:36.962Z</time></trkpt><trkpt lat="45.6321004" lon="8.232189"><ele>393.0</ele><time>2026-05-03T08:35:38.966Z</time></trkpt><trkpt lat="45.6321124" lon="8.2320455"><ele>394.00000000000006</ele><time>2026-05-03T08:35:40.98Z</time></trkpt><trkpt lat="45.6321177" lon="8.2319297"><ele>395.0</ele><time>2026-05-03T08:35:42.971Z</time></trkpt><trkpt lat="45.6321268" lon="8.2318216"><ele>396.0</ele><time>2026-05-03T08:35:44.975Z</time></trkpt><trkpt lat="45.6321282" lon="8.2317219"><ele>397.0</ele><time>2026-05-03T08:35:46.968Z</time></trkpt><trkpt lat="45.6321087" lon="8.2318221"><ele>398.0</ele><time>2026-05-03T08:35:52.972Z</time></trkpt><trkpt lat="45.6320777" lon="8.2319027"><ele>399.00000000000006</ele><time>2026-05-03T08:35:55.964Z</time></trkpt><trkpt lat="45.6320362" lon="8.2319996"><ele>400.0</ele><time>2026-05-03T08:35:58.969Z</time></trkpt><trkpt lat="45.6319634" lon="8.2320841"><ele>402.0</ele><time>2026-05-03T08:36:00.972Z</time></trkpt><trkpt lat="45.6318828" lon="8.2321461"><ele>404.0</ele><time>2026-05-03T08:36:02.974Z</time></trkpt><trkpt lat="45.6317877" lon="8.2321968"><ele>406.0</ele><time>2026-05-03T08:36:04.976Z</time></trkpt><trkpt lat="45.6316707" lon="8.2322124"><ele>408.0</ele><time>2026-05-03T08:36:06.964Z</time></trkpt><trkpt lat="45.6315993" lon="8.2322281"><ele>410.0</ele><time>2026-05-03T08:36:08.966Z</time></trkpt><trkpt lat="45.6315697" lon="8.2323218"><ele>409.99999999999994</ele><time>2026-05-03T08:36:10.96Z</time></trkpt><trkpt lat="45.6315051" lon="8.2323491"><ele>410.0</ele><time>2026-05-03T08:36:13.973Z</time></trkpt><trkpt lat="45.631475" lon="8.2322371"><ele>410.0</ele><time>2026-05-03T08:36:16.976Z</time></trkpt><trkpt lat="45.6315067" lon="8.2321488"><ele>410.0</ele><time>2026-05-03T08:36:20.968Z</time></trkpt><trkpt lat="45.6315591" lon="8.2320745"><ele>409.99999999999994</ele><time>2026-05-03T08:36:23.988Z</time></trkpt><trkpt lat="45.6316225" lon="8.2320097"><ele>410.0</ele><time>2026-05-03T08:36:25.967Z</time></trkpt><trkpt lat="45.6317133" lon="8.2319234"><ele>411.6</ele><time>2026-05-03T08:36:27.974Z</time></trkpt><trkpt lat="45.6317839" lon="8.2318101"><ele>413.2</ele><time>2026-05-03T08:36:29.99Z</time></trkpt><trkpt lat="45.631726" lon="8.231907"><ele>414.79999999999995</ele><time>2026-05-03T08:36:33.958Z</time></trkpt><trkpt lat="45.6316453" lon="8.2320071"><ele>416.4</ele><time>2026-05-03T08:36:35.97Z</time></trkpt><trkpt lat="45.6315652" lon="8.2321186"><ele>418.0</ele><time>2026-05-03T08:36:37.963Z</time></trkpt><trkpt lat="45.6314941" lon="8.2322476"><ele>416.4</ele><time>2026-05-03T08:36:39.973Z</time></trkpt><trkpt lat="45.631491" lon="8.2324043"><ele>414.79999999999995</ele><time>2026-05-03T08:36:41.959Z</time></trkpt><trkpt lat="45.6315244" lon="8.232559"><ele>413.2</ele><time>2026-05-03T08:36:43.963Z</time></trkpt><trkpt lat="45.631503" lon="8.2327159"><ele>411.6</ele><time>2026-05-03T08:36:45.964Z</time></trkpt><trkpt lat="45.6314541" lon="8.2328572"><ele>410.0</ele><time>2026-05-03T08:36:47.966Z</time></trkpt><trkpt lat="45.6313912" lon="8.2329895"><ele>409.99999999999994</ele><time>2026-05-03T08:36:49.982Z</time></trkpt><trkpt lat="45.631295" lon="8.2330928"><ele>410.0</ele><time>2026-05-03T08:36:51.957Z</time></trkpt><trkpt lat="45.6312502" lon="8.2331624"><ele>410.0</ele><time>2026-05-03T08:36:52.976Z</time></trkpt><trkpt lat="45.6312154" lon="8.2332422"><ele>410.0</ele><time>2026-05-03T08:36:53.97Z</time></trkpt><trkpt lat="45.6311617" lon="8.2333535"><ele>409.99999999999994</ele><time>2026-05-03T08:36:55.959Z</time></trkpt><trkpt lat="45.631095" lon="8.2333695"><ele>410.0</ele><time>2026-05-03T08:36:57.978Z</time></trkpt><trkpt lat="45.630975" lon="8.2333329"><ele>409.99999999999994</ele><time>2026-05-03T08:36:59.974Z</time></trkpt><trkpt lat="45.6309119" lon="8.233282"><ele>410.0</ele><time>2026-05-03T08:37:00.993Z</time></trkpt><trkpt lat="45.6308456" lon="8.2332214"><ele>410.0</ele><time>2026-05-03T08:37:01.972Z</time></trkpt><trkpt lat="45.6307756" lon="8.2331697"><ele>410.0</ele><time>2026-05-03T08:37:02.973Z</time></trkpt><trkpt lat="45.6307056" lon="8.2331345"><ele>409.99999999999994</ele><time>2026-05-03T08:37:03.968Z</time></trkpt><trkpt lat="45.6306299" lon="8.2331155"><ele>410.0</ele><time>2026-05-03T08:37:04.974Z</time></trkpt><trkpt lat="45.6305549" lon="8.2331062"><ele>409.99999999999994</ele><time>2026-05-03T08:37:05.956Z</time></trkpt><trkpt lat="45.6304723" lon="8.2331082"><ele>410.0</ele><time>2026-05-03T08:37:06.952Z</time></trkpt><trkpt lat="45.6303915" lon="8.2331158"><ele>410.0</ele><time>2026-05-03T08:37:07.964Z</time></trkpt><trkpt lat="45.6303084" lon="8.2331243"><ele>410.0</ele><time>2026-05-03T08:37:08.97Z</time></trkpt><trkpt lat="45.6302236" lon="8.2331306"><ele>409.99999999999994</ele><time>2026-05-03T08:37:09.968Z</time></trkpt><trkpt lat="45.6301345" lon="8.2331209"><ele>410.0</ele><time>2026-05-03T08:37:10.982Z</time></trkpt><trkpt lat="45.630048" lon="8.233126"><ele>407.4</ele><time>2026-05-03T08:37:11.964Z</time></trkpt><trkpt lat="45.6299536" lon="8.2331226"><ele>404.8</ele><time>2026-05-03T08:37:12.972Z</time></trkpt><trkpt lat="45.629859" lon="8.2331443"><ele>402.20000000000005</ele><time>2026-05-03T08:37:13.964Z</time></trkpt><trkpt lat="45.6297744" lon="8.2331705"><ele>399.6</ele><time>2026-05-03T08:37:14.973Z</time></trkpt><trkpt lat="45.6297083" lon="8.2332153"><ele>397.0</ele><time>2026-05-03T08:37:15.967Z</time></trkpt><trkpt lat="45.6296777" lon="8.2333553"><ele>397.0</ele><time>2026-05-03T08:37:17.969Z</time></trkpt><trkpt lat="45.6296623" lon="8.2334687"><ele>397.0</ele><time>2026-05-03T08:37:18.976Z</time></trkpt><trkpt lat="45.6296303" lon="8.2335903"><ele>397.0</ele><time>2026-05-03T08:37:19.962Z</time></trkpt><trkpt lat="45.6295844" lon="8.2336904"><ele>397.0</ele><time>2026-05-03T08:37:20.989Z</time></trkpt><trkpt lat="45.6295146" lon="8.2337999"><ele>397.0</ele><time>2026-05-03T08:37:21.973Z</time></trkpt><trkpt lat="45.6294487" lon="8.2339089"><ele>395.83333333333337</ele><time>2026-05-03T08:37:22.97Z</time></trkpt><trkpt lat="45.6293745" lon="8.2340043"><ele>394.6666666666667</ele><time>2026-05-03T08:37:23.97Z</time></trkpt><trkpt lat="45.6293017" lon="8.2340791"><ele>393.5</ele><time>2026-05-03T08:37:24.983Z</time></trkpt><trkpt lat="45.6292256" lon="8.2341375"><ele>392.33333333333337</ele><time>2026-05-03T08:37:25.958Z</time></trkpt><trkpt lat="45.6291531" lon="8.2341935"><ele>391.1666666666667</ele><time>2026-05-03T08:37:26.967Z</time></trkpt><trkpt lat="45.6290841" lon="8.2342304"><ele>390.0</ele><time>2026-05-03T08:37:27.979Z</time></trkpt><trkpt lat="45.6289578" lon="8.2342572"><ele>390.0</ele><time>2026-05-03T08:37:29.995Z</time></trkpt><trkpt lat="45.6288896" lon="8.2342336"><ele>390.0</ele><time>2026-05-03T08:37:30.974Z</time></trkpt><trkpt lat="45.628812" lon="8.2342005"><ele>390.0</ele><time>2026-05-03T08:37:31.97Z</time></trkpt><trkpt lat="45.6287191" lon="8.234164"><ele>390.0</ele><time>2026-05-03T08:37:32.987Z</time></trkpt><trkpt lat="45.6286144" lon="8.2341436"><ele>390.0</ele><time>2026-05-03T08:37:33.964Z</time></trkpt><trkpt lat="45.6285075" lon="8.2341265"><ele>388.4</ele><time>2026-05-03T08:37:34.977Z</time></trkpt><trkpt lat="45.6284068" lon="8.2341169"><ele>386.8</ele><time>2026-05-03T08:37:35.97Z</time></trkpt><trkpt lat="45.6283111" lon="8.234115"><ele>385.20000000000005</ele><time>2026-05-03T08:37:36.977Z</time></trkpt><trkpt lat="45.6282199" lon="8.2341032"><ele>383.6</ele><time>2026-05-03T08:37:37.981Z</time></trkpt><trkpt lat="45.6281233" lon="8.2341148"><ele>382.0</ele><time>2026-05-03T08:37:38.987Z</time></trkpt><trkpt lat="45.6280545" lon="8.2341627"><ele>382.0</ele><time>2026-05-03T08:37:39.969Z</time></trkpt><trkpt lat="45.6280205" lon="8.2342808"><ele>382.0</ele><time>2026-05-03T08:37:40.978Z</time></trkpt><trkpt lat="45.6279749" lon="8.2344121"><ele>382.0</ele><time>2026-05-03T08:37:41.969Z</time></trkpt><trkpt lat="45.6279279" lon="8.2345386"><ele>382.0</ele><time>2026-05-03T08:37:42.956Z</time></trkpt><trkpt lat="45.6278732" lon="8.234661"><ele>382.0</ele><time>2026-05-03T08:37:43.963Z</time></trkpt><trkpt lat="45.6278237" lon="8.2347786"><ele>382.0</ele><time>2026-05-03T08:37:44.973Z</time></trkpt><trkpt lat="45.6277885" lon="8.2348737"><ele>382.0</ele><time>2026-05-03T08:37:45.955Z</time></trkpt><trkpt lat="45.627751" lon="8.2349548"><ele>382.0</ele><time>2026-05-03T08:37:47.968Z</time></trkpt><trkpt lat="45.6277434" lon="8.2348535"><ele>382.0</ele><time>2026-05-03T08:37:50.957Z</time></trkpt><trkpt lat="45.6277846" lon="8.2347009"><ele>382.0</ele><time>2026-05-03T08:37:52.969Z</time></trkpt><trkpt lat="45.6278118" lon="8.2345887"><ele>382.0</ele><time>2026-05-03T08:37:53.966Z</time></trkpt><trkpt lat="45.6278278" lon="8.2344758"><ele>382.0</ele><time>2026-05-03T08:37:54.965Z</time></trkpt><trkpt lat="45.627831" lon="8.2343735"><ele>382.0</ele><time>2026-05-03T08:37:55.976Z</time></trkpt><trkpt lat="45.627829" lon="8.2342621"><ele>382.0</ele><time>2026-05-03T08:37:56.958Z</time></trkpt><trkpt lat="45.6278218" lon="8.2341451"><ele>382.0</ele><time>2026-05-03T08:37:57.978Z</time></trkpt><trkpt lat="45.6277985" lon="8.2340112"><ele>382.0</ele><time>2026-05-03T08:37:58.961Z</time></trkpt><trkpt lat="45.6277604" lon="8.2338597"><ele>382.0</ele><time>2026-05-03T08:37:59.968Z</time></trkpt><trkpt lat="45.6277259" lon="8.233713"><ele>381.16666666666663</ele><time>2026-05-03T08:38:00.966Z</time></trkpt><trkpt lat="45.6276949" lon="8.2335941"><ele>380.3333333333333</ele><time>2026-05-03T08:38:01.971Z</time></trkpt><trkpt lat="45.6276774" lon="8.2335047"><ele>379.5</ele><time>2026-05-03T08:38:02.957Z</time></trkpt><trkpt lat="45.6276614" lon="8.2333463"><ele>378.6666666666667</ele><time>2026-05-03T08:38:04.967Z</time></trkpt><trkpt lat="45.6276804" lon="8.2332558"><ele>377.83333333333337</ele><time>2026-05-03T08:38:05.965Z</time></trkpt><trkpt lat="45.627722" lon="8.2331735"><ele>377.0</ele><time>2026-05-03T08:38:06.961Z</time></trkpt><trkpt lat="45.6277784" lon="8.2331008"><ele>378.5</ele><time>2026-05-03T08:38:07.958Z</time></trkpt><trkpt lat="45.6278466" lon="8.2330443"><ele>380.0</ele><time>2026-05-03T08:38:08.974Z</time></trkpt><trkpt lat="45.6279195" lon="8.2330799"><ele>381.5</ele><time>2026-05-03T08:38:10.982Z</time></trkpt><trkpt lat="45.6279678" lon="8.2331803"><ele>383.0</ele><time>2026-05-03T08:38:12.966Z</time></trkpt><trkpt lat="45.6280022" lon="8.2333141"><ele>384.49999999999994</ele><time>2026-05-03T08:38:14.953Z</time></trkpt><trkpt lat="45.628065" lon="8.2334221"><ele>386.0</ele><time>2026-05-03T08:38:16.975Z</time></trkpt><trkpt lat="45.6281409" lon="8.2334368"><ele>386.0</ele><time>2026-05-03T08:38:19.965Z</time></trkpt><trkpt lat="45.6282223" lon="8.2334076"><ele>386.0</ele><time>2026-05-03T08:38:22.96Z</time></trkpt><trkpt lat="45.6281243" lon="8.2334252"><ele>386.0</ele><time>2026-05-03T08:38:28.968Z</time></trkpt><trkpt lat="45.6280448" lon="8.233406"><ele>386.0</ele><time>2026-05-03T08:38:30.976Z</time></trkpt><trkpt lat="45.627994" lon="8.2332869"><ele>386.0</ele><time>2026-05-03T08:38:32.961Z</time></trkpt><trkpt lat="45.62798" lon="8.2331467"><ele>386.66666666666663</ele><time>2026-05-03T08:38:34.983Z</time></trkpt><trkpt lat="45.6279373" lon="8.2330687"><ele>387.3333333333333</ele><time>2026-05-03T08:38:36.969Z</time></trkpt><trkpt lat="45.6278864" lon="8.2329875"><ele>388.0</ele><time>2026-05-03T08:38:40.966Z</time></trkpt><trkpt lat="45.627881" lon="8.2328723"><ele>388.66666666666663</ele><time>2026-05-03T08:38:42.967Z</time></trkpt><trkpt lat="45.627887" lon="8.2327221"><ele>389.3333333333333</ele><time>2026-05-03T08:38:44.981Z</time></trkpt><trkpt lat="45.6278968" lon="8.2325734"><ele>390.0</ele><time>2026-05-03T08:38:46.995Z</time></trkpt><trkpt lat="45.62794" lon="8.2324254"><ele>391.4</ele><time>2026-05-03T08:38:48.964Z</time></trkpt><trkpt lat="45.6279923" lon="8.2322904"><ele>392.8</ele><time>2026-05-03T08:38:50.961Z</time></trkpt><trkpt lat="45.6280333" lon="8.2321419"><ele>394.20000000000005</ele><time>2026-05-03T08:38:52.967Z</time></trkpt><trkpt lat="45.6280534" lon="8.231984"><ele>395.6</ele><time>2026-05-03T08:38:54.973Z</time></trkpt><trkpt lat="45.6280872" lon="8.2318575"><ele>397.0</ele><time>2026-05-03T08:38:56.966Z</time></trkpt><trkpt lat="45.6281545" lon="8.2317581"><ele>397.00000000000006</ele><time>2026-05-03T08:38:58.979Z</time></trkpt><trkpt lat="45.6282279" lon="8.2316376"><ele>397.0</ele><time>2026-05-03T08:39:00.966Z</time></trkpt><trkpt lat="45.6283009" lon="8.2315133"><ele>397.0</ele><time>2026-05-03T08:39:02.979Z</time></trkpt><trkpt lat="45.6283471" lon="8.2314432"><ele>397.0</ele><time>2026-05-03T08:39:03.969Z</time></trkpt><trkpt lat="45.6283963" lon="8.23137"><ele>397.00000000000006</ele><time>2026-05-03T08:39:04.974Z</time></trkpt><trkpt lat="45.6284432" lon="8.2312793"><ele>397.0</ele><time>2026-05-03T08:39:05.961Z</time></trkpt><trkpt lat="45.6284992" lon="8.2311867"><ele>400.40000000000003</ele><time>2026-05-03T08:39:06.987Z</time></trkpt><trkpt lat="45.6285522" lon="8.2310842"><ele>403.8</ele><time>2026-05-03T08:39:07.974Z</time></trkpt><trkpt lat="45.6285994" lon="8.2309847"><ele>407.2</ele><time>2026-05-03T08:39:08.963Z</time></trkpt><trkpt lat="45.6286279" lon="8.2308987"><ele>410.6</ele><time>2026-05-03T08:39:09.986Z</time></trkpt><trkpt lat="45.628666" lon="8.2307405"><ele>414.0</ele><time>2026-05-03T08:39:11.969Z</time></trkpt><trkpt lat="45.6287322" lon="8.2305959"><ele>416.0</ele><time>2026-05-03T08:39:13.962Z</time></trkpt><trkpt lat="45.6287681" lon="8.2305043"><ele>418.0</ele><time>2026-05-03T08:39:14.964Z</time></trkpt><trkpt lat="45.6287981" lon="8.2304029"><ele>420.0</ele><time>2026-05-03T08:39:15.978Z</time></trkpt><trkpt lat="45.6288356" lon="8.2302972"><ele>422.0</ele><time>2026-05-03T08:39:16.964Z</time></trkpt><trkpt lat="45.6288742" lon="8.2301974"><ele>424.0</ele><time>2026-05-03T08:39:17.966Z</time></trkpt><trkpt lat="45.6289124" lon="8.2301029"><ele>426.0</ele><time>2026-05-03T08:39:18.96Z</time></trkpt><trkpt lat="45.6289531" lon="8.2300164"><ele>426.0</ele><time>2026-05-03T08:39:19.962Z</time></trkpt><trkpt lat="45.6290035" lon="8.2299326"><ele>426.0</ele><time>2026-05-03T08:39:20.966Z</time></trkpt><trkpt lat="45.6290682" lon="8.2298539"><ele>426.0</ele><time>2026-05-03T08:39:21.963Z</time></trkpt><trkpt lat="45.6291296" lon="8.2297686"><ele>426.0</ele><time>2026-05-03T08:39:22.983Z</time></trkpt><trkpt lat="45.6291896" lon="8.2296907"><ele>426.0</ele><time>2026-05-03T08:39:23.965Z</time></trkpt><trkpt lat="45.6292462" lon="8.229643"><ele>426.0</ele><time>2026-05-03T08:39:24.964Z</time></trkpt><trkpt lat="45.6293468" lon="8.22967"><ele>425.5</ele><time>2026-05-03T08:39:26.979Z</time></trkpt><trkpt lat="45.6293995" lon="8.2297229"><ele>425.0</ele><time>2026-05-03T08:39:27.957Z</time></trkpt><trkpt lat="45.6294554" lon="8.2297815"><ele>424.5</ele><time>2026-05-03T08:39:28.969Z</time></trkpt><trkpt lat="45.6295115" lon="8.2298362"><ele>424.0</ele><time>2026-05-03T08:39:29.973Z</time></trkpt><trkpt lat="45.6295704" lon="8.2298792"><ele>423.5</ele><time>2026-05-03T08:39:30.957Z</time></trkpt><trkpt lat="45.6296634" lon="8.2298674"><ele>423.0</ele><time>2026-05-03T08:39:32.989Z</time></trkpt><trkpt lat="45.6297577" lon="8.2298026"><ele>424.1666666666667</ele><time>2026-05-03T08:39:34.971Z</time></trkpt><trkpt lat="45.6297523" lon="8.229702"><ele>425.33333333333337</ele><time>2026-05-03T08:39:38.962Z</time></trkpt><trkpt lat="45.6297978" lon="8.2295793"><ele>426.5</ele><time>2026-05-03T08:39:40.961Z</time></trkpt><trkpt lat="45.6298248" lon="8.2294891"><ele>427.6666666666667</ele><time>2026-05-03T08:39:41.971Z</time></trkpt><trkpt lat="45.6298418" lon="8.2294008"><ele>428.83333333333337</ele><time>2026-05-03T08:39:42.968Z</time></trkpt><trkpt lat="45.6298792" lon="8.2292407"><ele>430.0</ele><time>2026-05-03T08:39:44.96Z</time></trkpt><trkpt lat="45.6298832" lon="8.229065"><ele>431.33333333333337</ele><time>2026-05-03T08:39:46.97Z</time></trkpt><trkpt lat="45.6298652" lon="8.2289092"><ele>432.6666666666667</ele><time>2026-05-03T08:39:48.962Z</time></trkpt><trkpt lat="45.6298681" lon="8.2288168"><ele>434.0</ele><time>2026-05-03T08:39:49.971Z</time></trkpt><trkpt lat="45.6298716" lon="8.2287074"><ele>435.33333333333337</ele><time>2026-05-03T08:39:50.979Z</time></trkpt><trkpt lat="45.6298933" lon="8.2285762"><ele>436.6666666666667</ele><time>2026-05-03T08:39:51.97Z</time></trkpt><trkpt lat="45.6299076" lon="8.2284428"><ele>438.0</ele><time>2026-05-03T08:39:52.981Z</time></trkpt><trkpt lat="45.6299128" lon="8.2283082"><ele>438.0</ele><time>2026-05-03T08:39:53.957Z</time></trkpt><trkpt lat="45.6299111" lon="8.2281722"><ele>438.0</ele><time>2026-05-03T08:39:54.96Z</time></trkpt><trkpt lat="45.6299172" lon="8.228036"><ele>438.0</ele><time>2026-05-03T08:39:55.956Z</time></trkpt><trkpt lat="45.6299325" lon="8.2279093"><ele>438.0</ele><time>2026-05-03T08:39:56.958Z</time></trkpt><trkpt lat="45.6299548" lon="8.2277899"><ele>438.0</ele><time>2026-05-03T08:39:57.964Z</time></trkpt><trkpt lat="45.6299781" lon="8.2276827"><ele>438.0</ele><time>2026-05-03T08:39:58.957Z</time></trkpt><trkpt lat="45.630011" lon="8.2275333"><ele>439.2857142857143</ele><time>2026-05-03T08:40:00.973Z</time></trkpt><trkpt lat="45.6300524" lon="8.2274471"><ele>440.57142857142856</ele><time>2026-05-03T08:40:02.974Z</time></trkpt><trkpt lat="45.6300398" lon="8.2273489"><ele>441.85714285714283</ele><time>2026-05-03T08:40:18.965Z</time></trkpt><trkpt lat="45.6300742" lon="8.2272676"><ele>443.1428571428571</ele><time>2026-05-03T08:40:20.968Z</time></trkpt><trkpt lat="45.630109" lon="8.2271666"><ele>444.42857142857144</ele><time>2026-05-03T08:40:24.973Z</time></trkpt><trkpt lat="45.6300781" lon="8.2272605"><ele>445.71428571428567</ele><time>2026-05-03T08:40:44.991Z</time></trkpt><trkpt lat="45.6300483" lon="8.2273478"><ele>447.0</ele><time>2026-05-03T08:40:48.991Z</time></trkpt><trkpt lat="45.6300729" lon="8.2274425"><ele>447.0</ele><time>2026-05-03T08:41:07.96Z</time></trkpt><trkpt lat="45.6300053" lon="8.2274446"><ele>447.0</ele><time>2026-05-03T08:41:12.955Z</time></trkpt><trkpt lat="45.6299626" lon="8.2273724"><ele>447.0</ele><time>2026-05-03T08:41:15.953Z</time></trkpt><trkpt lat="45.6299336" lon="8.2272901"><ele>447.0</ele><time>2026-05-03T08:41:17.976Z</time></trkpt><trkpt lat="45.6298688" lon="8.2272136"><ele>447.0</ele><time>2026-05-03T08:41:19.968Z</time></trkpt><trkpt lat="45.6297751" lon="8.2272848"><ele>447.0</ele><time>2026-05-03T08:41:22.973Z</time></trkpt><trkpt lat="45.6296785" lon="8.2274031"><ele>447.0</ele><time>2026-05-03T08:41:24.967Z</time></trkpt><trkpt lat="45.6295712" lon="8.2274934"><ele>447.00000000000006</ele><time>2026-05-03T08:41:26.968Z</time></trkpt><trkpt lat="45.629463" lon="8.2275777"><ele>447.00000000000006</ele><time>2026-05-03T08:41:28.97Z</time></trkpt><trkpt lat="45.629341" lon="8.2276147"><ele>447.0</ele><time>2026-05-03T08:41:30.973Z</time></trkpt><trkpt lat="45.6292649" lon="8.2275988"><ele>447.0</ele><time>2026-05-03T08:41:31.981Z</time></trkpt><trkpt lat="45.62919" lon="8.2275697"><ele>447.6666666666667</ele><time>2026-05-03T08:41:32.966Z</time></trkpt><trkpt lat="45.6291248" lon="8.2275265"><ele>448.33333333333337</ele><time>2026-05-03T08:41:33.977Z</time></trkpt><trkpt lat="45.6290729" lon="8.2274725"><ele>449.0</ele><time>2026-05-03T08:41:34.973Z</time></trkpt><trkpt lat="45.6290147" lon="8.2273359"><ele>449.6666666666667</ele><time>2026-05-03T08:41:36.964Z</time></trkpt><trkpt lat="45.6290016" lon="8.2272067"><ele>450.33333333333337</ele><time>2026-05-03T08:41:38.967Z</time></trkpt><trkpt lat="45.6289893" lon="8.2271046"><ele>451.0</ele><time>2026-05-03T08:41:40.959Z</time></trkpt><trkpt lat="45.6289147" lon="8.2269341"><ele>453.33333333333337</ele><time>2026-05-03T08:41:42.969Z</time></trkpt><trkpt lat="45.6288594" lon="8.2268516"><ele>455.6666666666667</ele><time>2026-05-03T08:41:43.973Z</time></trkpt><trkpt lat="45.6287978" lon="8.2267892"><ele>458.0</ele><time>2026-05-03T08:41:44.966Z</time></trkpt><trkpt lat="45.6287359" lon="8.226765"><ele>460.33333333333337</ele><time>2026-05-03T08:41:45.967Z</time></trkpt><trkpt lat="45.6286219" lon="8.2268474"><ele>462.6666666666667</ele><time>2026-05-03T08:41:47.954Z</time></trkpt><trkpt lat="45.6285502" lon="8.2268893"><ele>465.0</ele><time>2026-05-03T08:41:48.96Z</time></trkpt><trkpt lat="45.6284698" lon="8.2269236"><ele>465.0</ele><time>2026-05-03T08:41:49.963Z</time></trkpt><trkpt lat="45.6283926" lon="8.2269627"><ele>465.0</ele><time>2026-05-03T08:41:50.991Z</time></trkpt><trkpt lat="45.6283168" lon="8.226995"><ele>465.0</ele><time>2026-05-03T08:41:51.973Z</time></trkpt><trkpt lat="45.6282411" lon="8.2269966"><ele>465.0</ele><time>2026-05-03T08:41:52.977Z</time></trkpt><trkpt lat="45.6281535" lon="8.2269852"><ele>465.0</ele><time>2026-05-03T08:41:53.962Z</time></trkpt><trkpt lat="45.6280583" lon="8.2269768"><ele>465.0</ele><time>2026-05-03T08:41:54.967Z</time></trkpt><trkpt lat="45.6279694" lon="8.2269883"><ele>465.0</ele><time>2026-05-03T08:41:55.972Z</time></trkpt><trkpt lat="45.6279019" lon="8.2269934"><ele>465.0</ele><time>2026-05-03T08:41:57.006Z</time></trkpt><trkpt lat="45.6278649" lon="8.2268521"><ele>465.0</ele><time>2026-05-03T08:42:02.979Z</time></trkpt><trkpt lat="45.6278493" lon="8.2267012"><ele>465.0</ele><time>2026-05-03T08:42:04.969Z</time></trkpt><trkpt lat="45.6278669" lon="8.2265461"><ele>465.0</ele><time>2026-05-03T08:42:06.965Z</time></trkpt><trkpt lat="45.6279198" lon="8.2264782"><ele>468.0</ele><time>2026-05-03T08:42:07.968Z</time></trkpt><trkpt lat="45.6279583" lon="8.2264065"><ele>471.0</ele><time>2026-05-03T08:42:08.964Z</time></trkpt><trkpt lat="45.6279832" lon="8.2263203"><ele>474.0</ele><time>2026-05-03T08:42:09.966Z</time></trkpt><trkpt lat="45.6280076" lon="8.2262263"><ele>477.0</ele><time>2026-05-03T08:42:10.978Z</time></trkpt><trkpt lat="45.6280337" lon="8.22608"><ele>480.0</ele><time>2026-05-03T08:42:12.969Z</time></trkpt><trkpt lat="45.6280457" lon="8.2259714"><ele>483.0</ele><time>2026-05-03T08:42:16.968Z</time></trkpt><trkpt lat="45.6280031" lon="8.2258687"><ele>483.0</ele><time>2026-05-03T08:42:18.961Z</time></trkpt><trkpt lat="45.6280052" lon="8.2257745"><ele>483.0</ele><time>2026-05-03T08:42:21.97Z</time></trkpt><trkpt lat="45.628033" lon="8.2258825"><ele>483.0</ele><time>2026-05-03T08:42:26.981Z</time></trkpt><trkpt lat="45.628047" lon="8.2259939"><ele>483.0</ele><time>2026-05-03T08:42:29.977Z</time></trkpt><trkpt lat="45.628102" lon="8.2260758"><ele>483.0</ele><time>2026-05-03T08:42:33.976Z</time></trkpt><trkpt lat="45.6281536" lon="8.2261325"><ele>483.0</ele><time>2026-05-03T08:42:35.972Z</time></trkpt><trkpt lat="45.6282306" lon="8.2262071"><ele>483.0</ele><time>2026-05-03T08:42:38.963Z</time></trkpt><trkpt lat="45.6283068" lon="8.2262217"><ele>483.0</ele><time>2026-05-03T08:42:41.971Z</time></trkpt><trkpt lat="45.6283698" lon="8.2261371"><ele>483.0</ele><time>2026-05-03T08:42:44.966Z</time></trkpt><trkpt lat="45.6284244" lon="8.226059"><ele>483.0</ele><time>2026-05-03T08:42:46.968Z</time></trkpt><trkpt lat="45.6285127" lon="8.2259864"><ele>483.0</ele><time>2026-05-03T08:42:48.966Z</time></trkpt><trkpt lat="45.6285736" lon="8.2259578"><ele>483.0</ele><time>2026-05-03T08:42:49.967Z</time></trkpt><trkpt lat="45.6286388" lon="8.2259231"><ele>483.0</ele><time>2026-05-03T08:42:51.976Z</time></trkpt><trkpt lat="45.6287069" lon="8.2258984"><ele>483.0</ele><time>2026-05-03T08:43:03.986Z</time></trkpt><trkpt lat="45.6287807" lon="8.2259526"><ele>483.0</ele><time>2026-05-03T08:43:06.982Z</time></trkpt><trkpt lat="45.6288395" lon="8.2260006"><ele>483.0</ele><time>2026-05-03T08:43:08.973Z</time></trkpt><trkpt lat="45.6289205" lon="8.2260809"><ele>483.0</ele><time>2026-05-03T08:43:10.962Z</time></trkpt><trkpt lat="45.6290309" lon="8.2261728"><ele>483.0</ele><time>2026-05-03T08:43:12.968Z</time></trkpt><trkpt lat="45.6291285" lon="8.2262134"><ele>483.0</ele><time>2026-05-03T08:43:14.976Z</time></trkpt><trkpt lat="45.6292197" lon="8.2261734"><ele>482.99999999999994</ele><time>2026-05-03T08:43:17.973Z</time></trkpt><trkpt lat="45.6293073" lon="8.2260305"><ele>482.99999999999994</ele><time>2026-05-03T08:43:19.974Z</time></trkpt><trkpt lat="45.6293593" lon="8.2258964"><ele>483.0</ele><time>2026-05-03T08:43:21.958Z</time></trkpt><trkpt lat="45.629365" lon="8.2257865"><ele>483.0</ele><time>2026-05-03T08:43:32.985Z</time></trkpt><trkpt lat="45.6293923" lon="8.2256787"><ele>483.0</ele><time>2026-05-03T08:43:34.955Z</time></trkpt><trkpt lat="45.6294" lon="8.225807"><ele>482.99999999999994</ele><time>2026-05-03T08:43:48.972Z</time></trkpt><trkpt lat="45.6293948" lon="8.2259103"><ele>482.99999999999994</ele><time>2026-05-03T08:43:50.995Z</time></trkpt><trkpt lat="45.6293428" lon="8.2260484"><ele>483.0</ele><time>2026-05-03T08:43:52.961Z</time></trkpt><trkpt lat="45.6292697" lon="8.2261611"><ele>483.0</ele><time>2026-05-03T08:43:54.962Z</time></trkpt><trkpt lat="45.6291886" lon="8.2262373"><ele>483.0</ele><time>2026-05-03T08:43:56.972Z</time></trkpt><trkpt lat="45.6291068" lon="8.2262449"><ele>482.99999999999994</ele><time>2026-05-03T08:43:59.97Z</time></trkpt><trkpt lat="45.6290369" lon="8.2261931"><ele>482.99999999999994</ele><time>2026-05-03T08:44:02.957Z</time></trkpt><trkpt lat="45.6289351" lon="8.2260905"><ele>483.0</ele><time>2026-05-03T08:44:04.961Z</time></trkpt><trkpt lat="45.6288413" lon="8.2260178"><ele>483.0</ele><time>2026-05-03T08:44:06.969Z</time></trkpt><trkpt lat="45.628763" lon="8.2259541"><ele>483.0</ele><time>2026-05-03T08:44:08.963Z</time></trkpt><trkpt lat="45.6287047" lon="8.225883"><ele>483.0</ele><time>2026-05-03T08:44:11.974Z</time></trkpt><trkpt lat="45.6287429" lon="8.2258007"><ele>483.0</ele><time>2026-05-03T08:44:14.959Z</time></trkpt><trkpt lat="45.6288082" lon="8.2257518"><ele>483.0</ele><time>2026-05-03T08:44:16.98Z</time></trkpt><trkpt lat="45.6289064" lon="8.2257802"><ele>483.0</ele><time>2026-05-03T08:44:19.968Z</time></trkpt><trkpt lat="45.6289988" lon="8.2258604"><ele>483.0</ele><time>2026-05-03T08:44:21.979Z</time></trkpt><trkpt lat="45.6289815" lon="8.2257298"><ele>483.0</ele><time>2026-05-03T08:44:25.963Z</time></trkpt><trkpt lat="45.6290422" lon="8.2256849"><ele>483.0</ele><time>2026-05-03T08:44:30.98Z</time></trkpt><trkpt lat="45.6290075" lon="8.2255852"><ele>483.0</ele><time>2026-05-03T08:44:32.98Z</time></trkpt><trkpt lat="45.6289351" lon="8.2254999"><ele>483.0</ele><time>2026-05-03T08:44:34.955Z</time></trkpt><trkpt lat="45.6288616" lon="8.2254647"><ele>483.0</ele><time>2026-05-03T08:44:37.979Z</time></trkpt><trkpt lat="45.6288046" lon="8.2254013"><ele>483.0</ele><time>2026-05-03T08:44:39.976Z</time></trkpt><trkpt lat="45.6287346" lon="8.2253661"><ele>485.0</ele><time>2026-05-03T08:44:41.966Z</time></trkpt><trkpt lat="45.6286694" lon="8.2253002"><ele>486.99999999999994</ele><time>2026-05-03T08:44:44.967Z</time></trkpt><trkpt lat="45.6286496" lon="8.2251688"><ele>488.99999999999994</ele><time>2026-05-03T08:44:46.972Z</time></trkpt><trkpt lat="45.6286492" lon="8.2250405"><ele>491.0</ele><time>2026-05-03T08:44:48.991Z</time></trkpt><trkpt lat="45.6286551" lon="8.2248947"><ele>493.0</ele><time>2026-05-03T08:44:50.978Z</time></trkpt><trkpt lat="45.6286481" lon="8.2247617"><ele>492.79999999999995</ele><time>2026-05-03T08:44:52.979Z</time></trkpt><trkpt lat="45.6286497" lon="8.2246121"><ele>492.59999999999997</ele><time>2026-05-03T08:44:54.962Z</time></trkpt><trkpt lat="45.6286484" lon="8.2244961"><ele>492.40000000000003</ele><time>2026-05-03T08:44:56.961Z</time></trkpt><trkpt lat="45.6286191" lon="8.2243437"><ele>492.20000000000005</ele><time>2026-05-03T08:44:58.961Z</time></trkpt><trkpt lat="45.6286147" lon="8.2242184"><ele>492.0</ele><time>2026-05-03T08:45:01.954Z</time></trkpt><trkpt lat="45.6286243" lon="8.2240657"><ele>493.5</ele><time>2026-05-03T08:45:03.963Z</time></trkpt><trkpt lat="45.6285836" lon="8.2239277"><ele>495.0</ele><time>2026-05-03T08:45:05.959Z</time></trkpt><trkpt lat="45.6285473" lon="8.2238019"><ele>496.5</ele><time>2026-05-03T08:45:08.974Z</time></trkpt><trkpt lat="45.6285119" lon="8.2237197"><ele>498.0</ele><time>2026-05-03T08:45:11.975Z</time></trkpt><trkpt lat="45.6284585" lon="8.2236486"><ele>499.5</ele><time>2026-05-03T08:45:14.967Z</time></trkpt><trkpt lat="45.6283995" lon="8.2235957"><ele>501.0</ele><time>2026-05-03T08:45:21.97Z</time></trkpt><trkpt lat="45.6283305" lon="8.2235678"><ele>501.0</ele><time>2026-05-03T08:45:25.966Z</time></trkpt><trkpt lat="45.6282853" lon="8.223502"><ele>501.0</ele><time>2026-05-03T08:45:28.969Z</time></trkpt><trkpt lat="45.6282605" lon="8.2234065"><ele>501.0</ele><time>2026-05-03T08:45:31.968Z</time></trkpt><trkpt lat="45.6282288" lon="8.2233021"><ele>501.0</ele><time>2026-05-03T08:45:34.974Z</time></trkpt><trkpt lat="45.6281938" lon="8.2232187"><ele>501.0</ele><time>2026-05-03T08:45:37.961Z</time></trkpt><trkpt lat="45.6281814" lon="8.2231237"><ele>501.0</ele><time>2026-05-03T08:45:40.955Z</time></trkpt><trkpt lat="45.6281675" lon="8.2229988"><ele>501.0</ele><time>2026-05-03T08:45:42.982Z</time></trkpt><trkpt lat="45.6281688" lon="8.2228737"><ele>501.8333333333333</ele><time>2026-05-03T08:45:46.965Z</time></trkpt><trkpt lat="45.6281534" lon="8.2227634"><ele>502.66666666666663</ele><time>2026-05-03T08:45:56.969Z</time></trkpt><trkpt lat="45.628162" lon="8.2226556"><ele>503.5</ele><time>2026-05-03T08:46:00.973Z</time></trkpt><trkpt lat="45.6280827" lon="8.2226193"><ele>504.3333333333333</ele><time>2026-05-03T08:46:03.976Z</time></trkpt><trkpt lat="45.6280271" lon="8.2225512"><ele>505.16666666666663</ele><time>2026-05-03T08:46:05.963Z</time></trkpt><trkpt lat="45.6279731" lon="8.2224556"><ele>506.0</ele><time>2026-05-03T08:46:08.983Z</time></trkpt><trkpt lat="45.627938" lon="8.2223496"><ele>507.49999999999994</ele><time>2026-05-03T08:46:11.973Z</time></trkpt><trkpt lat="45.627947" lon="8.2222548"><ele>509.0</ele><time>2026-05-03T08:46:16.963Z</time></trkpt><trkpt lat="45.6279245" lon="8.2221346"><ele>510.5</ele><time>2026-05-03T08:46:19.967Z</time></trkpt><trkpt lat="45.6278767" lon="8.2220575"><ele>512.0</ele><time>2026-05-03T08:46:22.973Z</time></trkpt><trkpt lat="45.6278387" lon="8.2219577"><ele>513.5</ele><time>2026-05-03T08:46:25.975Z</time></trkpt><trkpt lat="45.6278635" lon="8.2218363"><ele>515.0</ele><time>2026-05-03T08:46:28.988Z</time></trkpt><trkpt lat="45.6278739" lon="8.2217455"><ele>515.0</ele><time>2026-05-03T08:46:30.959Z</time></trkpt><trkpt lat="45.6278802" lon="8.2216451"><ele>515.0</ele><time>2026-05-03T08:46:32.964Z</time></trkpt><trkpt lat="45.6278749" lon="8.2215495"><ele>515.0</ele><time>2026-05-03T08:46:35.976Z</time></trkpt><trkpt lat="45.6278274" lon="8.2214699"><ele>515.0</ele><time>2026-05-03T08:46:38.973Z</time></trkpt><trkpt lat="45.6277695" lon="8.2213856"><ele>515.0</ele><time>2026-05-03T08:46:41.985Z</time></trkpt><trkpt lat="45.6277214" lon="8.2213187"><ele>515.0</ele><time>2026-05-03T08:46:43.971Z</time></trkpt><trkpt lat="45.6276359" lon="8.2212578"><ele>515.0</ele><time>2026-05-03T08:46:45.965Z</time></trkpt><trkpt lat="45.6275642" lon="8.221176"><ele>515.0</ele><time>2026-05-03T08:46:47.964Z</time></trkpt><trkpt lat="45.6275418" lon="8.2210793"><ele>515.0</ele><time>2026-05-03T08:46:49.993Z</time></trkpt><trkpt lat="45.6275374" lon="8.2209668"><ele>515.0</ele><time>2026-05-03T08:46:51.983Z</time></trkpt><trkpt lat="45.6275518" lon="8.2207794"><ele>515.0</ele><time>2026-05-03T08:46:53.979Z</time></trkpt><trkpt lat="45.6275686" lon="8.2206669"><ele>515.5</ele><time>2026-05-03T08:46:55.971Z</time></trkpt><trkpt lat="45.6275544" lon="8.2205523"><ele>516.0</ele><time>2026-05-03T08:46:58.971Z</time></trkpt><trkpt lat="45.6275233" lon="8.2204598"><ele>516.5</ele><time>2026-05-03T08:47:01.976Z</time></trkpt><trkpt lat="45.6275388" lon="8.2203091"><ele>517.0</ele><time>2026-05-03T08:47:04.976Z</time></trkpt><trkpt lat="45.6274725" lon="8.22025"><ele>517.5</ele><time>2026-05-03T08:47:08.976Z</time></trkpt><trkpt lat="45.6274073" lon="8.2202045"><ele>518.0</ele><time>2026-05-03T08:48:15.975Z</time></trkpt><trkpt lat="45.6272971" lon="8.2201275"><ele>518.0</ele><time>2026-05-03T08:48:18.955Z</time></trkpt><trkpt lat="45.6272741" lon="8.2200292"><ele>518.0</ele><time>2026-05-03T08:48:20.977Z</time></trkpt><trkpt lat="45.6272561" lon="8.2199289"><ele>518.0</ele><time>2026-05-03T08:48:22.986Z</time></trkpt><trkpt lat="45.627237" lon="8.2198166"><ele>518.0</ele><time>2026-05-03T08:48:24.972Z</time></trkpt><trkpt lat="45.6271987" lon="8.2197038"><ele>518.0</ele><time>2026-05-03T08:48:27.958Z</time></trkpt><trkpt lat="45.6272302" lon="8.2196097"><ele>518.0</ele><time>2026-05-03T08:48:30.968Z</time></trkpt><trkpt lat="45.6271961" lon="8.2195254"><ele>517.1666666666666</ele><time>2026-05-03T08:48:35.957Z</time></trkpt><trkpt lat="45.6271215" lon="8.2195468"><ele>516.3333333333333</ele><time>2026-05-03T08:48:38.977Z</time></trkpt><trkpt lat="45.6270581" lon="8.2195445"><ele>515.5</ele><time>2026-05-03T08:48:40.974Z</time></trkpt><trkpt lat="45.626995" lon="8.2195133"><ele>514.6666666666666</ele><time>2026-05-03T08:48:42.968Z</time></trkpt><trkpt lat="45.6269734" lon="8.2194085"><ele>513.8333333333334</ele><time>2026-05-03T08:48:44.985Z</time></trkpt><trkpt lat="45.626882" lon="8.2193781"><ele>513.0</ele><time>2026-05-03T08:48:48.976Z</time></trkpt><trkpt lat="45.6268097" lon="8.2193158"><ele>515.8333333333334</ele><time>2026-05-03T08:48:50.98Z</time></trkpt><trkpt lat="45.6267246" lon="8.2193182"><ele>518.6666666666666</ele><time>2026-05-03T08:48:53.969Z</time></trkpt><trkpt lat="45.6266504" lon="8.2192663"><ele>521.5</ele><time>2026-05-03T08:48:56.976Z</time></trkpt><trkpt lat="45.6265522" lon="8.2192868"><ele>524.3333333333333</ele><time>2026-05-03T08:48:59.97Z</time></trkpt><trkpt lat="45.6264937" lon="8.2193247"><ele>527.1666666666666</ele><time>2026-05-03T08:49:01.975Z</time></trkpt><trkpt lat="45.6264127" lon="8.2193731"><ele>530.0</ele><time>2026-05-03T08:49:05.008Z</time></trkpt><trkpt lat="45.6263612" lon="8.2193009"><ele>530.0</ele><time>2026-05-03T08:49:06.958Z</time></trkpt><trkpt lat="45.6262793" lon="8.2193366"><ele>530.0</ele><time>2026-05-03T08:49:08.97Z</time></trkpt><trkpt lat="45.6262156" lon="8.2194131"><ele>530.0</ele><time>2026-05-03T08:49:12.961Z</time></trkpt><trkpt lat="45.6261677" lon="8.2194864"><ele>530.0</ele><time>2026-05-03T08:49:15.962Z</time></trkpt><trkpt lat="45.6261059" lon="8.2195408"><ele>530.0</ele><time>2026-05-03T08:49:18.953Z</time></trkpt><trkpt lat="45.6260465" lon="8.2196077"><ele>530.0</ele><time>2026-05-03T08:49:21.977Z</time></trkpt><trkpt lat="45.6259963" lon="8.2197031"><ele>527.1666666666666</ele><time>2026-05-03T08:49:26.985Z</time></trkpt><trkpt lat="45.6259696" lon="8.2198124"><ele>524.3333333333333</ele><time>2026-05-03T08:49:28.975Z</time></trkpt><trkpt lat="45.6259706" lon="8.2199096"><ele>521.5</ele><time>2026-05-03T08:49:30.977Z</time></trkpt><trkpt lat="45.6259343" lon="8.2199836"><ele>518.6666666666666</ele><time>2026-05-03T08:49:32.974Z</time></trkpt><trkpt lat="45.6258729" lon="8.2200737"><ele>515.8333333333334</ele><time>2026-05-03T08:49:34.966Z</time></trkpt><trkpt lat="45.6258169" lon="8.2201534"><ele>513.0</ele><time>2026-05-03T08:49:36.967Z</time></trkpt><trkpt lat="45.6258053" lon="8.2202603"><ele>512.3333333333334</ele><time>2026-05-03T08:49:41.964Z</time></trkpt><trkpt lat="45.6257309" lon="8.2202836"><ele>511.66666666666663</ele><time>2026-05-03T08:49:46.007Z</time></trkpt><trkpt lat="45.6256657" lon="8.2203217"><ele>511.0</ele><time>2026-05-03T08:49:49.974Z</time></trkpt><trkpt lat="45.6255878" lon="8.2203659"><ele>510.3333333333333</ele><time>2026-05-03T08:49:52.972Z</time></trkpt><trkpt lat="45.6255016" lon="8.2203998"><ele>509.66666666666663</ele><time>2026-05-03T08:49:54.961Z</time></trkpt><trkpt lat="45.6254142" lon="8.2204789"><ele>509.0</ele><time>2026-05-03T08:49:56.98Z</time></trkpt><trkpt lat="45.6253052" lon="8.2205407"><ele>506.66666666666663</ele><time>2026-05-03T08:49:58.972Z</time></trkpt><trkpt lat="45.6252397" lon="8.2205743"><ele>504.3333333333333</ele><time>2026-05-03T08:49:59.98Z</time></trkpt><trkpt lat="45.625175" lon="8.2206004"><ele>502.0</ele><time>2026-05-03T08:50:00.982Z</time></trkpt><trkpt lat="45.6250689" lon="8.2206345"><ele>499.66666666666663</ele><time>2026-05-03T08:50:02.987Z</time></trkpt><trkpt lat="45.6249988" lon="8.2206578"><ele>497.3333333333333</ele><time>2026-05-03T08:50:03.978Z</time></trkpt><trkpt lat="45.624919" lon="8.2206842"><ele>495.0</ele><time>2026-05-03T08:50:04.989Z</time></trkpt><trkpt lat="45.6248356" lon="8.2207159"><ele>495.0</ele><time>2026-05-03T08:50:05.974Z</time></trkpt><trkpt lat="45.6247676" lon="8.2207386"><ele>495.0</ele><time>2026-05-03T08:50:06.983Z</time></trkpt><trkpt lat="45.6246786" lon="8.220795"><ele>495.0</ele><time>2026-05-03T08:50:08.981Z</time></trkpt><trkpt lat="45.6246091" lon="8.2208804"><ele>495.0</ele><time>2026-05-03T08:50:10.982Z</time></trkpt><trkpt lat="45.624571" lon="8.2209951"><ele>495.0</ele><time>2026-05-03T08:50:12.961Z</time></trkpt><trkpt lat="45.6244758" lon="8.221026"><ele>495.0</ele><time>2026-05-03T08:50:14.968Z</time></trkpt><trkpt lat="45.6244105" lon="8.2210093"><ele>493.1666666666667</ele><time>2026-05-03T08:50:15.965Z</time></trkpt><trkpt lat="45.6243004" lon="8.2209762"><ele>491.33333333333337</ele><time>2026-05-03T08:50:17.972Z</time></trkpt><trkpt lat="45.6242295" lon="8.2209889"><ele>489.5</ele><time>2026-05-03T08:50:19.969Z</time></trkpt><trkpt lat="45.6241676" lon="8.2210108"><ele>487.6666666666667</ele><time>2026-05-03T08:50:21.977Z</time></trkpt><trkpt lat="45.6240886" lon="8.2210393"><ele>485.83333333333337</ele><time>2026-05-03T08:50:23.963Z</time></trkpt><trkpt lat="45.6240139" lon="8.2209612"><ele>484.0</ele><time>2026-05-03T08:50:26.981Z</time></trkpt><trkpt lat="45.62396" lon="8.2208798"><ele>484.00000000000006</ele><time>2026-05-03T08:50:28.967Z</time></trkpt><trkpt lat="45.6238992" lon="8.2208414"><ele>484.0</ele><time>2026-05-03T08:50:30.978Z</time></trkpt><trkpt lat="45.62383" lon="8.2207982"><ele>484.0</ele><time>2026-05-03T08:50:32.956Z</time></trkpt><trkpt lat="45.6237501" lon="8.2207034"><ele>484.0</ele><time>2026-05-03T08:50:34.96Z</time></trkpt><trkpt lat="45.6236812" lon="8.2206702"><ele>484.00000000000006</ele><time>2026-05-03T08:50:36.957Z</time></trkpt><trkpt lat="45.6235995" lon="8.2206394"><ele>484.0</ele><time>2026-05-03T08:50:40.961Z</time></trkpt><trkpt lat="45.623514" lon="8.2206033"><ele>481.57142857142856</ele><time>2026-05-03T08:50:42.965Z</time></trkpt><trkpt lat="45.6234393" lon="8.2205537"><ele>479.1428571428571</ele><time>2026-05-03T08:50:45.964Z</time></trkpt><trkpt lat="45.6233665" lon="8.2205157"><ele>476.71428571428567</ele><time>2026-05-03T08:50:49.962Z</time></trkpt><trkpt lat="45.6232839" lon="8.2205442"><ele>474.2857142857142</ele><time>2026-05-03T08:53:01.969Z</time></trkpt><trkpt lat="45.6232233" lon="8.2205726"><ele>471.85714285714283</ele><time>2026-05-03T08:53:04.98Z</time></trkpt><trkpt lat="45.6231548" lon="8.2205635"><ele>469.42857142857133</ele><time>2026-05-03T08:53:08.98Z</time></trkpt><trkpt lat="45.6230965" lon="8.220624"><ele>466.99999999999994</ele><time>2026-05-03T08:53:11.969Z</time></trkpt><trkpt lat="45.6230769" lon="8.2207477"><ele>466.99999999999994</ele><time>2026-05-03T08:53:14.98Z</time></trkpt><trkpt lat="45.6229982" lon="8.2207931"><ele>467.0</ele><time>2026-05-03T08:53:17.964Z</time></trkpt><trkpt lat="45.6229252" lon="8.2208511"><ele>467.0</ele><time>2026-05-03T08:53:19.962Z</time></trkpt><trkpt lat="45.6228612" lon="8.2208902"><ele>467.0</ele><time>2026-05-03T08:53:21.966Z</time></trkpt><trkpt lat="45.6228054" lon="8.2209423"><ele>466.99999999999994</ele><time>2026-05-03T08:53:24.973Z</time></trkpt><trkpt lat="45.6227365" lon="8.220991"><ele>467.0</ele><time>2026-05-03T08:53:26.975Z</time></trkpt><trkpt lat="45.6226627" lon="8.2210146"><ele>463.8333333333333</ele><time>2026-05-03T08:53:28.965Z</time></trkpt><trkpt lat="45.6225909" lon="8.2210385"><ele>460.66666666666663</ele><time>2026-05-03T08:53:30.965Z</time></trkpt><trkpt lat="45.6225073" lon="8.2210323"><ele>457.5</ele><time>2026-05-03T08:53:33.961Z</time></trkpt><trkpt lat="45.6224551" lon="8.2209722"><ele>454.33333333333337</ele><time>2026-05-03T08:53:36.975Z</time></trkpt><trkpt lat="45.6223863" lon="8.2209611"><ele>451.1666666666667</ele><time>2026-05-03T08:53:39.972Z</time></trkpt><trkpt lat="45.6223015" lon="8.220985"><ele>448.0</ele><time>2026-05-03T08:53:42.979Z</time></trkpt><trkpt lat="45.6222412" lon="8.2210582"><ele>448.00000000000006</ele><time>2026-05-03T08:53:44.984Z</time></trkpt><trkpt lat="45.6221403" lon="8.2210907"><ele>448.0</ele><time>2026-05-03T08:53:46.969Z</time></trkpt><trkpt lat="45.622032" lon="8.2211075"><ele>448.0</ele><time>2026-05-03T08:53:48.972Z</time></trkpt><trkpt lat="45.6219567" lon="8.2211148"><ele>448.0</ele><time>2026-05-03T08:53:50.968Z</time></trkpt><trkpt lat="45.6218882" lon="8.2211263"><ele>448.00000000000006</ele><time>2026-05-03T08:53:56.969Z</time></trkpt><trkpt lat="45.6218157" lon="8.2210631"><ele>448.0</ele><time>2026-05-03T08:53:59.966Z</time></trkpt><trkpt lat="45.6217542" lon="8.2210386"><ele>445.83333333333337</ele><time>2026-05-03T08:54:02.976Z</time></trkpt><trkpt lat="45.621707" lon="8.2209483"><ele>443.6666666666667</ele><time>2026-05-03T08:54:05.967Z</time></trkpt><trkpt lat="45.6216423" lon="8.220927"><ele>441.5</ele><time>2026-05-03T08:54:08.987Z</time></trkpt><trkpt lat="45.6215586" lon="8.2209007"><ele>439.33333333333337</ele><time>2026-05-03T08:54:11.981Z</time></trkpt><trkpt lat="45.6214562" lon="8.2208965"><ele>437.1666666666667</ele><time>2026-05-03T08:54:13.963Z</time></trkpt><trkpt lat="45.6213916" lon="8.2208592"><ele>435.0</ele><time>2026-05-03T08:54:15.971Z</time></trkpt><trkpt lat="45.6213124" lon="8.2208157"><ele>435.0</ele><time>2026-05-03T08:54:17.97Z</time></trkpt><trkpt lat="45.621254" lon="8.2208537"><ele>435.0</ele><time>2026-05-03T08:54:19.966Z</time></trkpt><trkpt lat="45.6211766" lon="8.2208333"><ele>435.0</ele><time>2026-05-03T08:54:21.969Z</time></trkpt><trkpt lat="45.621111" lon="8.220833"><ele>435.0</ele><time>2026-05-03T08:54:23.981Z</time></trkpt><trkpt lat="45.621004" lon="8.2208456"><ele>435.0</ele><time>2026-05-03T08:54:25.97Z</time></trkpt><trkpt lat="45.6209322" lon="8.2208036"><ele>435.0</ele><time>2026-05-03T08:54:27.971Z</time></trkpt><trkpt lat="45.6208705" lon="8.2208252"><ele>432.8333333333333</ele><time>2026-05-03T08:54:29.967Z</time></trkpt><trkpt lat="45.6207963" lon="8.2207854"><ele>430.66666666666663</ele><time>2026-05-03T08:54:32.972Z</time></trkpt><trkpt lat="45.6207355" lon="8.2207534"><ele>428.5</ele><time>2026-05-03T08:54:34.97Z</time></trkpt><trkpt lat="45.6206594" lon="8.2207478"><ele>426.3333333333333</ele><time>2026-05-03T08:54:36.962Z</time></trkpt><trkpt lat="45.6205995" lon="8.2207948"><ele>424.16666666666663</ele><time>2026-05-03T08:54:38.972Z</time></trkpt><trkpt lat="45.6205323" lon="8.2207606"><ele>422.0</ele><time>2026-05-03T08:54:40.981Z</time></trkpt><trkpt lat="45.6204335" lon="8.220719"><ele>421.99999999999994</ele><time>2026-05-03T08:54:42.979Z</time></trkpt><trkpt lat="45.6203284" lon="8.2207468"><ele>422.0</ele><time>2026-05-03T08:54:44.982Z</time></trkpt><trkpt lat="45.620265" lon="8.2207875"><ele>422.0</ele><time>2026-05-03T08:54:46.97Z</time></trkpt><trkpt lat="45.6201802" lon="8.2208307"><ele>422.0</ele><time>2026-05-03T08:54:48.976Z</time></trkpt><trkpt lat="45.6200963" lon="8.2208411"><ele>421.99999999999994</ele><time>2026-05-03T08:54:50.983Z</time></trkpt><trkpt lat="45.6200224" lon="8.2208307"><ele>422.0</ele><time>2026-05-03T08:54:52.981Z</time></trkpt><trkpt lat="45.6199543" lon="8.2207607"><ele>420.40000000000003</ele><time>2026-05-03T08:54:55.966Z</time></trkpt><trkpt lat="45.6198859" lon="8.2206899"><ele>418.8</ele><time>2026-05-03T08:54:57.976Z</time></trkpt><trkpt lat="45.6197753" lon="8.2207462"><ele>417.2</ele><time>2026-05-03T08:54:59.96Z</time></trkpt><trkpt lat="45.6197167" lon="8.2208386"><ele>415.6</ele><time>2026-05-03T08:55:01.972Z</time></trkpt><trkpt lat="45.6196448" lon="8.2208862"><ele>414.0</ele><time>2026-05-03T08:55:03.972Z</time></trkpt><trkpt lat="45.6195516" lon="8.2209068"><ele>411.6</ele><time>2026-05-03T08:55:06.975Z</time></trkpt><trkpt lat="45.6194647" lon="8.2208839"><ele>409.2</ele><time>2026-05-03T08:55:08.962Z</time></trkpt><trkpt lat="45.6193799" lon="8.2209031"><ele>406.8</ele><time>2026-05-03T08:55:11.973Z</time></trkpt><trkpt lat="45.6193282" lon="8.2208193"><ele>404.40000000000003</ele><time>2026-05-03T08:55:13.969Z</time></trkpt><trkpt lat="45.6192815" lon="8.2206713"><ele>402.0</ele><time>2026-05-03T08:55:15.965Z</time></trkpt><trkpt lat="45.6191829" lon="8.2206337"><ele>401.5</ele><time>2026-05-03T08:55:17.968Z</time></trkpt><trkpt lat="45.6191054" lon="8.2206282"><ele>401.0</ele><time>2026-05-03T08:55:18.977Z</time></trkpt><trkpt lat="45.6190251" lon="8.2206274"><ele>400.5</ele><time>2026-05-03T08:55:19.983Z</time></trkpt><trkpt lat="45.6189467" lon="8.2206221"><ele>400.0</ele><time>2026-05-03T08:55:20.963Z</time></trkpt><trkpt lat="45.618871" lon="8.2206199"><ele>399.5</ele><time>2026-05-03T08:55:21.978Z</time></trkpt><trkpt lat="45.618764" lon="8.2206359"><ele>399.0</ele><time>2026-05-03T08:55:23.972Z</time></trkpt><trkpt lat="45.6186525" lon="8.2206219"><ele>397.6666666666667</ele><time>2026-05-03T08:55:25.957Z</time></trkpt><trkpt lat="45.6186026" lon="8.2205198"><ele>396.33333333333337</ele><time>2026-05-03T08:55:27.962Z</time></trkpt><trkpt lat="45.6185568" lon="8.220406"><ele>395.0</ele><time>2026-05-03T08:55:29.963Z</time></trkpt><trkpt lat="45.6184882" lon="8.2203244"><ele>393.6666666666667</ele><time>2026-05-03T08:55:31.961Z</time></trkpt><trkpt lat="45.618471" lon="8.2202349"><ele>392.33333333333337</ele><time>2026-05-03T08:56:02.962Z</time></trkpt><trkpt lat="45.6184034" lon="8.2201207"><ele>391.0</ele><time>2026-05-03T08:56:06.983Z</time></trkpt><trkpt lat="45.6183382" lon="8.2200308"><ele>391.0</ele><time>2026-05-03T08:56:08.984Z</time></trkpt><trkpt lat="45.618239" lon="8.2200391"><ele>391.0</ele><time>2026-05-03T08:56:11.97Z</time></trkpt><trkpt lat="45.6181606" lon="8.2199853"><ele>391.0</ele><time>2026-05-03T08:56:13.964Z</time></trkpt><trkpt lat="45.6180724" lon="8.2199387"><ele>391.0</ele><time>2026-05-03T08:56:16.972Z</time></trkpt><trkpt lat="45.6179947" lon="8.2199628"><ele>391.0</ele><time>2026-05-03T08:56:19.984Z</time></trkpt><trkpt lat="45.6179171" lon="8.2198976"><ele>390.99999999999994</ele><time>2026-05-03T08:56:22.974Z</time></trkpt><trkpt lat="45.617841" lon="8.2198739"><ele>391.0</ele><time>2026-05-03T08:56:25.967Z</time></trkpt><trkpt lat="45.6177795" lon="8.2198969"><ele>391.0</ele><time>2026-05-03T08:56:27.972Z</time></trkpt><trkpt lat="45.6177067" lon="8.2199387"><ele>391.0</ele><time>2026-05-03T08:56:29.964Z</time></trkpt><trkpt lat="45.6176449" lon="8.2199581"><ele>391.0</ele><time>2026-05-03T08:56:35.973Z</time></trkpt><trkpt lat="45.6175755" lon="8.2199386"><ele>390.99999999999994</ele><time>2026-05-03T08:56:38.985Z</time></trkpt><trkpt lat="45.617522" lon="8.2198334"><ele>391.0</ele><time>2026-05-03T08:56:41.978Z</time></trkpt><trkpt lat="45.6174855" lon="8.2197229"><ele>387.8</ele><time>2026-05-03T08:56:44.979Z</time></trkpt><trkpt lat="45.6174274" lon="8.2196066"><ele>384.6</ele><time>2026-05-03T08:56:46.989Z</time></trkpt><trkpt lat="45.6173606" lon="8.2195638"><ele>381.4</ele><time>2026-05-03T08:56:48.976Z</time></trkpt><trkpt lat="45.6172672" lon="8.2194839"><ele>378.2</ele><time>2026-05-03T08:56:50.967Z</time></trkpt><trkpt lat="45.6172265" lon="8.2194011"><ele>375.0</ele><time>2026-05-03T08:56:51.991Z</time></trkpt><trkpt lat="45.6171562" lon="8.2192684"><ele>375.0</ele><time>2026-05-03T08:56:53.967Z</time></trkpt><trkpt lat="45.617107" lon="8.2191692"><ele>375.0</ele><time>2026-05-03T08:56:55.975Z</time></trkpt><trkpt lat="45.6170493" lon="8.2191311"><ele>375.0</ele><time>2026-05-03T08:56:56.974Z</time></trkpt><trkpt lat="45.6169817" lon="8.2191278"><ele>375.0</ele><time>2026-05-03T08:56:57.973Z</time></trkpt><trkpt lat="45.6168821" lon="8.2191409"><ele>375.0</ele><time>2026-05-03T08:56:59.959Z</time></trkpt><trkpt lat="45.6168129" lon="8.219095"><ele>375.0</ele><time>2026-05-03T08:57:01.975Z</time></trkpt><trkpt lat="45.6167712" lon="8.2189803"><ele>372.8333333333333</ele><time>2026-05-03T08:57:04.967Z</time></trkpt><trkpt lat="45.6166888" lon="8.2188834"><ele>370.6666666666667</ele><time>2026-05-03T08:57:06.982Z</time></trkpt><trkpt lat="45.6166322" lon="8.2188371"><ele>368.5</ele><time>2026-05-03T08:57:07.997Z</time></trkpt><trkpt lat="45.6165647" lon="8.2188053"><ele>366.33333333333337</ele><time>2026-05-03T08:57:08.994Z</time></trkpt><trkpt lat="45.6164839" lon="8.2187582"><ele>364.1666666666667</ele><time>2026-05-03T08:57:10.969Z</time></trkpt><trkpt lat="45.6164151" lon="8.2186626"><ele>362.0</ele><time>2026-05-03T08:57:12.969Z</time></trkpt><trkpt lat="45.6163474" lon="8.2184944"><ele>362.0</ele><time>2026-05-03T08:57:14.958Z</time></trkpt><trkpt lat="45.6163107" lon="8.2184112"><ele>362.0</ele><time>2026-05-03T08:57:15.961Z</time></trkpt><trkpt lat="45.6162112" lon="8.2183428"><ele>362.0</ele><time>2026-05-03T08:57:17.98Z</time></trkpt><trkpt lat="45.6160805" lon="8.2183408"><ele>362.0</ele><time>2026-05-03T08:57:19.974Z</time></trkpt><trkpt lat="45.6160055" lon="8.2183415"><ele>362.0</ele><time>2026-05-03T08:57:20.988Z</time></trkpt><trkpt lat="45.6159284" lon="8.218324"><ele>360.8</ele><time>2026-05-03T08:57:21.985Z</time></trkpt><trkpt lat="45.615808" lon="8.2183241"><ele>359.6</ele><time>2026-05-03T08:57:23.953Z</time></trkpt><trkpt lat="45.615698" lon="8.2184024"><ele>358.40000000000003</ele><time>2026-05-03T08:57:25.954Z</time></trkpt><trkpt lat="45.6156331" lon="8.2184122"><ele>357.20000000000005</ele><time>2026-05-03T08:57:26.964Z</time></trkpt><trkpt lat="45.6155643" lon="8.2184224"><ele>356.0</ele><time>2026-05-03T08:57:27.993Z</time></trkpt><trkpt lat="45.6154929" lon="8.2184448"><ele>356.0</ele><time>2026-05-03T08:57:28.99Z</time></trkpt><trkpt lat="45.6153908" lon="8.218481"><ele>356.0</ele><time>2026-05-03T08:57:30.984Z</time></trkpt><trkpt lat="45.615323" lon="8.2185179"><ele>356.0</ele><time>2026-05-03T08:57:32.97Z</time></trkpt><trkpt lat="45.615209" lon="8.2185417"><ele>356.0</ele><time>2026-05-03T08:57:34.978Z</time></trkpt><trkpt lat="45.6150948" lon="8.2185183"><ele>356.0</ele><time>2026-05-03T08:57:36.975Z</time></trkpt><trkpt lat="45.615006" lon="8.2185184"><ele>354.83333333333337</ele><time>2026-05-03T08:57:38.98Z</time></trkpt><trkpt lat="45.6149182" lon="8.2184963"><ele>353.6666666666667</ele><time>2026-05-03T08:57:40.999Z</time></trkpt><trkpt lat="45.6148243" lon="8.2184627"><ele>352.5</ele><time>2026-05-03T08:57:42.981Z</time></trkpt><trkpt lat="45.6147644" lon="8.2184284"><ele>351.3333333333333</ele><time>2026-05-03T08:57:44.984Z</time></trkpt><trkpt lat="45.6146997" lon="8.2184763"><ele>350.16666666666663</ele><time>2026-05-03T08:57:46.969Z</time></trkpt><trkpt lat="45.6146407" lon="8.2185088"><ele>349.0</ele><time>2026-05-03T08:57:47.967Z</time></trkpt><trkpt lat="45.614576" lon="8.2185311"><ele>348.0</ele><time>2026-05-03T08:57:48.953Z</time></trkpt><trkpt lat="45.6144836" lon="8.2185326"><ele>347.0</ele><time>2026-05-03T08:57:50.987Z</time></trkpt><trkpt lat="45.6144091" lon="8.2185242"><ele>346.0</ele><time>2026-05-03T08:57:52.971Z</time></trkpt><trkpt lat="45.6143394" lon="8.2184928"><ele>345.0</ele><time>2026-05-03T08:57:54.965Z</time></trkpt><trkpt lat="45.6142804" lon="8.2185392"><ele>344.0</ele><time>2026-05-03T08:57:56.969Z</time></trkpt><trkpt lat="45.6142093" lon="8.2186178"><ele>343.0</ele><time>2026-05-03T08:57:58.967Z</time></trkpt><trkpt lat="45.6141198" lon="8.2185918"><ele>343.0</ele><time>2026-05-03T08:58:01.959Z</time></trkpt><trkpt lat="45.6140278" lon="8.2186123"><ele>343.0</ele><time>2026-05-03T08:58:04.998Z</time></trkpt><trkpt lat="45.6139621" lon="8.2186342"><ele>343.0</ele><time>2026-05-03T08:58:06.973Z</time></trkpt><trkpt lat="45.6138494" lon="8.2186195"><ele>343.0</ele><time>2026-05-03T08:58:08.972Z</time></trkpt><trkpt lat="45.6137536" lon="8.21862"><ele>343.0</ele><time>2026-05-03T08:58:10.969Z</time></trkpt><trkpt lat="45.6136456" lon="8.2186172"><ele>341.59999999999997</ele><time>2026-05-03T08:58:12.986Z</time></trkpt><trkpt lat="45.6135771" lon="8.2185759"><ele>340.2</ele><time>2026-05-03T08:58:14.98Z</time></trkpt><trkpt lat="45.613554" lon="8.2184598"><ele>338.8</ele><time>2026-05-03T08:58:16.972Z</time></trkpt><trkpt lat="45.6134989" lon="8.2183208"><ele>337.4</ele><time>2026-05-03T08:58:18.997Z</time></trkpt><trkpt lat="45.6134339" lon="8.2181838"><ele>336.0</ele><time>2026-05-03T08:58:20.98Z</time></trkpt><trkpt lat="45.6133937" lon="8.2181062"><ele>335.14285714285717</ele><time>2026-05-03T08:58:21.973Z</time></trkpt><trkpt lat="45.6133577" lon="8.2180246"><ele>334.2857142857143</ele><time>2026-05-03T08:58:22.962Z</time></trkpt><trkpt lat="45.6133125" lon="8.2179447"><ele>333.42857142857144</ele><time>2026-05-03T08:58:23.981Z</time></trkpt><trkpt lat="45.6132645" lon="8.2178675"><ele>332.57142857142856</ele><time>2026-05-03T08:58:24.966Z</time></trkpt><trkpt lat="45.6132155" lon="8.2178044"><ele>331.7142857142857</ele><time>2026-05-03T08:58:25.956Z</time></trkpt><trkpt lat="45.6131671" lon="8.2177465"><ele>330.8571428571429</ele><time>2026-05-03T08:58:26.971Z</time></trkpt><trkpt lat="45.613089" lon="8.2176418"><ele>330.0</ele><time>2026-05-03T08:58:28.987Z</time></trkpt><trkpt lat="45.6130119" lon="8.2175372"><ele>330.0</ele><time>2026-05-03T08:58:30.965Z</time></trkpt><trkpt lat="45.6129358" lon="8.217438"><ele>330.0</ele><time>2026-05-03T08:58:32.966Z</time></trkpt><trkpt lat="45.6128587" lon="8.2173781"><ele>330.0</ele><time>2026-05-03T08:58:34.982Z</time></trkpt><trkpt lat="45.6127737" lon="8.2173659"><ele>330.0</ele><time>2026-05-03T08:58:36.965Z</time></trkpt><trkpt lat="45.612685" lon="8.2173571"><ele>330.0</ele><time>2026-05-03T08:58:38.99Z</time></trkpt><trkpt lat="45.6126042" lon="8.2174083"><ele>330.0</ele><time>2026-05-03T08:58:40.963Z</time></trkpt><trkpt lat="45.6125358" lon="8.2174802"><ele>330.0</ele><time>2026-05-03T08:58:42.985Z</time></trkpt><trkpt lat="45.6124766" lon="8.217532"><ele>330.0</ele><time>2026-05-03T08:58:44.977Z</time></trkpt><trkpt lat="45.6124253" lon="8.2175912"><ele>330.0</ele><time>2026-05-03T08:58:46.995Z</time></trkpt><trkpt lat="45.6123892" lon="8.2176816"><ele>330.0</ele><time>2026-05-03T08:58:48.974Z</time></trkpt><trkpt lat="45.6123738" lon="8.2177899"><ele>330.0</ele><time>2026-05-03T08:58:50.979Z</time></trkpt><trkpt lat="45.6123148" lon="8.2178749"><ele>330.0</ele><time>2026-05-03T08:58:53.972Z</time></trkpt><trkpt lat="45.6123261" lon="8.218006"><ele>330.0</ele><time>2026-05-03T08:58:55.968Z</time></trkpt><trkpt lat="45.6123399" lon="8.2181505"><ele>330.0</ele><time>2026-05-03T08:58:57.966Z</time></trkpt><trkpt lat="45.6123671" lon="8.2183382"><ele>330.0</ele><time>2026-05-03T08:58:59.957Z</time></trkpt><trkpt lat="45.6123482" lon="8.2184608"><ele>330.0</ele><time>2026-05-03T08:59:01.967Z</time></trkpt><trkpt lat="45.6122686" lon="8.2185226"><ele>330.2</ele><time>2026-05-03T08:59:04.98Z</time></trkpt><trkpt lat="45.6121987" lon="8.2185431"><ele>330.4</ele><time>2026-05-03T08:59:07.981Z</time></trkpt><trkpt lat="45.6121586" lon="8.2186396"><ele>330.6</ele><time>2026-05-03T08:59:10.965Z</time></trkpt><trkpt lat="45.6121269" lon="8.2187648"><ele>330.8</ele><time>2026-05-03T08:59:12.992Z</time></trkpt><trkpt lat="45.612106" lon="8.2189556"><ele>331.0</ele><time>2026-05-03T08:59:14.973Z</time></trkpt><trkpt lat="45.6120917" lon="8.2190605"><ele>331.0</ele><time>2026-05-03T08:59:16.985Z</time></trkpt><trkpt lat="45.6120619" lon="8.2192369"><ele>331.0</ele><time>2026-05-03T08:59:18.972Z</time></trkpt><trkpt lat="45.6120036" lon="8.2193568"><ele>331.0</ele><time>2026-05-03T08:59:20.956Z</time></trkpt><trkpt lat="45.6119687" lon="8.2194353"><ele>331.0</ele><time>2026-05-03T08:59:21.953Z</time></trkpt><trkpt lat="45.6119428" lon="8.2195387"><ele>331.0</ele><time>2026-05-03T08:59:24.996Z</time></trkpt><trkpt lat="45.6119567" lon="8.2196361"><ele>331.0</ele><time>2026-05-03T08:59:25.978Z</time></trkpt><trkpt lat="45.6119576" lon="8.2198049"><ele>328.40000000000003</ele><time>2026-05-03T08:59:27.968Z</time></trkpt><trkpt lat="45.6119368" lon="8.2199643"><ele>325.8</ele><time>2026-05-03T08:59:29.975Z</time></trkpt><trkpt lat="45.6119228" lon="8.2200697"><ele>323.20000000000005</ele><time>2026-05-03T08:59:31.974Z</time></trkpt><trkpt lat="45.611883" lon="8.2201676"><ele>320.6</ele><time>2026-05-03T08:59:34.954Z</time></trkpt><trkpt lat="45.6118416" lon="8.2203068"><ele>318.0</ele><time>2026-05-03T08:59:36.978Z</time></trkpt><trkpt lat="45.6117464" lon="8.2204088"><ele>318.0</ele><time>2026-05-03T08:59:38.986Z</time></trkpt><trkpt lat="45.6116719" lon="8.2204987"><ele>318.0</ele><time>2026-05-03T08:59:40.975Z</time></trkpt><trkpt lat="45.6116535" lon="8.2205903"><ele>318.0</ele><time>2026-05-03T08:59:42.983Z</time></trkpt><trkpt lat="45.6116511" lon="8.2207233"><ele>318.0</ele><time>2026-05-03T08:59:44.973Z</time></trkpt><trkpt lat="45.6116527" lon="8.2208397"><ele>318.0</ele><time>2026-05-03T08:59:46.985Z</time></trkpt><trkpt lat="45.6116029" lon="8.2209373"><ele>318.0</ele><time>2026-05-03T08:59:49.955Z</time></trkpt><trkpt lat="45.6115198" lon="8.2210411"><ele>315.6</ele><time>2026-05-03T08:59:51.954Z</time></trkpt><trkpt lat="45.6114615" lon="8.2211907"><ele>313.20000000000005</ele><time>2026-05-03T08:59:53.971Z</time></trkpt><trkpt lat="45.6114105" lon="8.2213447"><ele>310.8</ele><time>2026-05-03T08:59:55.957Z</time></trkpt><trkpt lat="45.6113821" lon="8.2214333"><ele>308.40000000000003</ele><time>2026-05-03T08:59:56.966Z</time></trkpt><trkpt lat="45.6113547" lon="8.2215367"><ele>306.0</ele><time>2026-05-03T08:59:57.961Z</time></trkpt><trkpt lat="45.6113314" lon="8.2216445"><ele>304.0</ele><time>2026-05-03T08:59:58.967Z</time></trkpt><trkpt lat="45.6113068" lon="8.2217715"><ele>302.0</ele><time>2026-05-03T08:59:59.953Z</time></trkpt><trkpt lat="45.6112829" lon="8.2218977"><ele>300.0</ele><time>2026-05-03T09:00:00.957Z</time></trkpt><trkpt lat="45.6112538" lon="8.2220334"><ele>298.0</ele><time>2026-05-03T09:00:01.959Z</time></trkpt><trkpt lat="45.6112262" lon="8.2221671"><ele>296.0</ele><time>2026-05-03T09:00:02.984Z</time></trkpt><trkpt lat="45.6112019" lon="8.2222914"><ele>294.6666666666667</ele><time>2026-05-03T09:00:03.969Z</time></trkpt><trkpt lat="45.6111739" lon="8.2224159"><ele>293.33333333333337</ele><time>2026-05-03T09:00:04.968Z</time></trkpt><trkpt lat="45.6111484" lon="8.2225404"><ele>292.0</ele><time>2026-05-03T09:00:05.966Z</time></trkpt><trkpt lat="45.611128" lon="8.2226611"><ele>290.6666666666667</ele><time>2026-05-03T09:00:06.98Z</time></trkpt><trkpt lat="45.6111083" lon="8.2227794"><ele>289.3333333333333</ele><time>2026-05-03T09:00:07.971Z</time></trkpt><trkpt lat="45.6110901" lon="8.2229046"><ele>288.0</ele><time>2026-05-03T09:00:08.961Z</time></trkpt><trkpt lat="45.6110764" lon="8.2230403"><ele>288.6</ele><time>2026-05-03T09:00:09.971Z</time></trkpt><trkpt lat="45.6110649" lon="8.2231782"><ele>289.20000000000005</ele><time>2026-05-03T09:00:10.968Z</time></trkpt><trkpt lat="45.6110614" lon="8.2233145"><ele>289.8</ele><time>2026-05-03T09:00:11.961Z</time></trkpt><trkpt lat="45.6110604" lon="8.2234484"><ele>290.40000000000003</ele><time>2026-05-03T09:00:12.963Z</time></trkpt><trkpt lat="45.6110676" lon="8.2235761"><ele>291.0</ele><time>2026-05-03T09:00:13.967Z</time></trkpt><trkpt lat="45.6110805" lon="8.2237015"><ele>291.0</ele><time>2026-05-03T09:00:14.981Z</time></trkpt><trkpt lat="45.6110918" lon="8.2238275"><ele>291.0</ele><time>2026-05-03T09:00:15.967Z</time></trkpt><trkpt lat="45.6111004" lon="8.2239475"><ele>291.0</ele><time>2026-05-03T09:00:16.985Z</time></trkpt><trkpt lat="45.611106" lon="8.2240675"><ele>291.0</ele><time>2026-05-03T09:00:17.956Z</time></trkpt><trkpt lat="45.6111132" lon="8.22418"><ele>291.0</ele><time>2026-05-03T09:00:18.973Z</time></trkpt><trkpt lat="45.6111243" lon="8.2243009"><ele>291.0</ele><time>2026-05-03T09:00:19.964Z</time></trkpt><trkpt lat="45.6111403" lon="8.2244242"><ele>291.1666666666667</ele><time>2026-05-03T09:00:20.975Z</time></trkpt><trkpt lat="45.6111536" lon="8.2245524"><ele>291.3333333333333</ele><time>2026-05-03T09:00:21.966Z</time></trkpt><trkpt lat="45.6111715" lon="8.2246817"><ele>291.5</ele><time>2026-05-03T09:00:22.972Z</time></trkpt><trkpt lat="45.6111789" lon="8.2247989"><ele>291.66666666666663</ele><time>2026-05-03T09:00:23.99Z</time></trkpt><trkpt lat="45.6111808" lon="8.2248962"><ele>291.8333333333333</ele><time>2026-05-03T09:00:24.968Z</time></trkpt><trkpt lat="45.6111914" lon="8.2250436"><ele>292.0</ele><time>2026-05-03T09:00:26.972Z</time></trkpt><trkpt lat="45.6112004" lon="8.2251797"><ele>291.2857142857143</ele><time>2026-05-03T09:00:28.997Z</time></trkpt><trkpt lat="45.6112197" lon="8.2252858"><ele>290.57142857142856</ele><time>2026-05-03T09:00:30.968Z</time></trkpt><trkpt lat="45.6112852" lon="8.2252929"><ele>289.8571428571429</ele><time>2026-05-03T09:00:34.964Z</time></trkpt><trkpt lat="45.6112664" lon="8.2253835"><ele>289.1428571428571</ele><time>2026-05-03T09:00:39.969Z</time></trkpt><trkpt lat="45.6112343" lon="8.2253014"><ele>288.42857142857144</ele><time>2026-05-03T09:00:45.96Z</time></trkpt><trkpt lat="45.6112895" lon="8.2252217"><ele>287.7142857142857</ele><time>2026-05-03T09:00:57.966Z</time></trkpt><trkpt lat="45.6113415" lon="8.225157"><ele>287.0</ele><time>2026-05-03T09:00:59.963Z</time></trkpt><trkpt lat="45.6113986" lon="8.2250509"><ele>287.0</ele><time>2026-05-03T09:01:01.97Z</time></trkpt><trkpt lat="45.611478" lon="8.2249411"><ele>287.0</ele><time>2026-05-03T09:01:03.965Z</time></trkpt><trkpt lat="45.6115596" lon="8.224834"><ele>287.0</ele><time>2026-05-03T09:01:05.976Z</time></trkpt><trkpt lat="45.6116297" lon="8.2247175"><ele>287.0</ele><time>2026-05-03T09:01:07.967Z</time></trkpt><trkpt lat="45.6117021" lon="8.2246005"><ele>287.0</ele><time>2026-05-03T09:01:09.983Z</time></trkpt><trkpt lat="45.6117868" lon="8.2244607"><ele>286.75</ele><time>2026-05-03T09:01:11.971Z</time></trkpt><trkpt lat="45.6118649" lon="8.2243309"><ele>286.5</ele><time>2026-05-03T09:01:13.983Z</time></trkpt><trkpt lat="45.6119365" lon="8.2242184"><ele>286.25</ele><time>2026-05-03T09:01:15.972Z</time></trkpt><trkpt lat="45.6119958" lon="8.2240981"><ele>286.0</ele><time>2026-05-03T09:01:17.955Z</time></trkpt><trkpt lat="45.612077" lon="8.2239702"><ele>286.4285714285714</ele><time>2026-05-03T09:01:19.974Z</time></trkpt><trkpt lat="45.6121298" lon="8.2238936"><ele>286.85714285714283</ele><time>2026-05-03T09:01:20.98Z</time></trkpt><trkpt lat="45.6121836" lon="8.2238086"><ele>287.2857142857143</ele><time>2026-05-03T09:01:21.975Z</time></trkpt><trkpt lat="45.6122335" lon="8.2237284"><ele>287.71428571428567</ele><time>2026-05-03T09:01:22.969Z</time></trkpt><trkpt lat="45.6122733" lon="8.2236562"><ele>288.1428571428571</ele><time>2026-05-03T09:01:23.98Z</time></trkpt><trkpt lat="45.6123348" lon="8.2235692"><ele>288.57142857142856</ele><time>2026-05-03T09:01:25.961Z</time></trkpt><trkpt lat="45.6123795" lon="8.223501"><ele>289.0</ele><time>2026-05-03T09:01:27.969Z</time></trkpt><trkpt lat="45.6124271" lon="8.2234412"><ele>289.0</ele><time>2026-05-03T09:01:30.981Z</time></trkpt><trkpt lat="45.6125051" lon="8.2235058"><ele>289.0</ele><time>2026-05-03T09:01:33.967Z</time></trkpt><trkpt lat="45.6125468" lon="8.2235838"><ele>289.0</ele><time>2026-05-03T09:01:34.976Z</time></trkpt><trkpt lat="45.6125898" lon="8.2236738"><ele>289.0</ele><time>2026-05-03T09:01:35.983Z</time></trkpt><trkpt lat="45.6126239" lon="8.22377"><ele>289.0</ele><time>2026-05-03T09:01:36.989Z</time></trkpt><trkpt lat="45.6126689" lon="8.2238554"><ele>289.0</ele><time>2026-05-03T09:01:37.971Z</time></trkpt><trkpt lat="45.6127149" lon="8.2239405"><ele>288.5</ele><time>2026-05-03T09:01:38.977Z</time></trkpt><trkpt lat="45.6127588" lon="8.2240252"><ele>288.0</ele><time>2026-05-03T09:01:39.985Z</time></trkpt><trkpt lat="45.6128092" lon="8.2241182"><ele>287.5</ele><time>2026-05-03T09:01:40.969Z</time></trkpt><trkpt lat="45.6128579" lon="8.2242154"><ele>287.0</ele><time>2026-05-03T09:01:41.96Z</time></trkpt><trkpt lat="45.6128968" lon="8.2243127"><ele>286.5</ele><time>2026-05-03T09:01:42.988Z</time></trkpt><trkpt lat="45.612934" lon="8.2244168"><ele>286.0</ele><time>2026-05-03T09:01:43.992Z</time></trkpt><trkpt lat="45.6129687" lon="8.2245161"><ele>286.6</ele><time>2026-05-03T09:01:44.97Z</time></trkpt><trkpt lat="45.6130088" lon="8.2246286"><ele>287.20000000000005</ele><time>2026-05-03T09:01:45.974Z</time></trkpt><trkpt lat="45.6130503" lon="8.2247515"><ele>287.79999999999995</ele><time>2026-05-03T09:01:46.979Z</time></trkpt><trkpt lat="45.6130943" lon="8.2248658"><ele>288.4</ele><time>2026-05-03T09:01:47.978Z</time></trkpt><trkpt lat="45.6131368" lon="8.2249857"><ele>289.0</ele><time>2026-05-03T09:01:48.974Z</time></trkpt><trkpt lat="45.6131824" lon="8.2250926"><ele>289.0</ele><time>2026-05-03T09:01:49.97Z</time></trkpt><trkpt lat="45.6132189" lon="8.2251856"><ele>289.0</ele><time>2026-05-03T09:01:50.973Z</time></trkpt><trkpt lat="45.6132578" lon="8.2252755"><ele>289.0</ele><time>2026-05-03T09:01:51.979Z</time></trkpt><trkpt lat="45.6132922" lon="8.2253634"><ele>289.0</ele><time>2026-05-03T09:01:52.97Z</time></trkpt><trkpt lat="45.6133216" lon="8.2254453"><ele>289.0</ele><time>2026-05-03T09:01:53.969Z</time></trkpt><trkpt lat="45.6133548" lon="8.225531"><ele>289.0</ele><time>2026-05-03T09:01:54.984Z</time></trkpt><trkpt lat="45.6134252" lon="8.2256311"><ele>288.66666666666663</ele><time>2026-05-03T09:01:56.972Z</time></trkpt><trkpt lat="45.6135073" lon="8.2256968"><ele>288.3333333333333</ele><time>2026-05-03T09:01:58.98Z</time></trkpt><trkpt lat="45.6135672" lon="8.2257899"><ele>288.0</ele><time>2026-05-03T09:02:01.964Z</time></trkpt><trkpt lat="45.6136323" lon="8.2259152"><ele>287.6666666666667</ele><time>2026-05-03T09:02:03.965Z</time></trkpt><trkpt lat="45.6136755" lon="8.2259886"><ele>287.33333333333337</ele><time>2026-05-03T09:02:05.956Z</time></trkpt><trkpt lat="45.6137183" lon="8.2260662"><ele>287.0</ele><time>2026-05-03T09:02:08.985Z</time></trkpt><trkpt lat="45.6137668" lon="8.2261356"><ele>288.7142857142857</ele><time>2026-05-03T09:02:22.97Z</time></trkpt><trkpt lat="45.6138247" lon="8.2262061"><ele>290.42857142857144</ele><time>2026-05-03T09:02:24.968Z</time></trkpt><trkpt lat="45.6138744" lon="8.2262704"><ele>292.1428571428571</ele><time>2026-05-03T09:02:28.962Z</time></trkpt><trkpt lat="45.6139066" lon="8.2263541"><ele>293.8571428571429</ele><time>2026-05-03T09:02:44.959Z</time></trkpt><trkpt lat="45.6139424" lon="8.2264408"><ele>295.57142857142856</ele><time>2026-05-03T09:02:47.963Z</time></trkpt><trkpt lat="45.6139907" lon="8.2265405"><ele>297.2857142857143</ele><time>2026-05-03T09:02:49.97Z</time></trkpt><trkpt lat="45.6140284" lon="8.2266423"><ele>299.0</ele><time>2026-05-03T09:02:51.972Z</time></trkpt><trkpt lat="45.6140701" lon="8.2267109"><ele>299.0</ele><time>2026-05-03T09:02:53.968Z</time></trkpt><trkpt lat="45.6141593" lon="8.2266966"><ele>299.0</ele><time>2026-05-03T09:02:57.955Z</time></trkpt><trkpt lat="45.6142386" lon="8.2265824"><ele>299.0</ele><time>2026-05-03T09:02:59.978Z</time></trkpt><trkpt lat="45.6142894" lon="8.2265162"><ele>299.0</ele><time>2026-05-03T09:03:00.96Z</time></trkpt><trkpt lat="45.6143373" lon="8.2264368"><ele>299.0</ele><time>2026-05-03T09:03:01.965Z</time></trkpt><trkpt lat="45.6143858" lon="8.2263571"><ele>299.0</ele><time>2026-05-03T09:03:02.981Z</time></trkpt><trkpt lat="45.6144365" lon="8.2262907"><ele>301.0</ele><time>2026-05-03T09:03:03.953Z</time></trkpt><trkpt lat="45.6144954" lon="8.2262432"><ele>303.0</ele><time>2026-05-03T09:03:04.972Z</time></trkpt><trkpt lat="45.6145553" lon="8.2261981"><ele>305.0</ele><time>2026-05-03T09:03:05.966Z</time></trkpt><trkpt lat="45.6146116" lon="8.2261515"><ele>307.0</ele><time>2026-05-03T09:03:06.97Z</time></trkpt><trkpt lat="45.614716" lon="8.2260595"><ele>309.0</ele><time>2026-05-03T09:03:08.977Z</time></trkpt><trkpt lat="45.6147946" lon="8.2259987"><ele>311.0</ele><time>2026-05-03T09:03:10.967Z</time></trkpt><trkpt lat="45.6148345" lon="8.225894"><ele>311.0</ele><time>2026-05-03T09:03:12.962Z</time></trkpt><trkpt lat="45.6148529" lon="8.2258005"><ele>311.0</ele><time>2026-05-03T09:03:13.963Z</time></trkpt><trkpt lat="45.6149113" lon="8.2257479"><ele>311.0</ele><time>2026-05-03T09:03:15.966Z</time></trkpt><trkpt lat="45.6150038" lon="8.2256715"><ele>311.0</ele><time>2026-05-03T09:03:17.978Z</time></trkpt><trkpt lat="45.6150606" lon="8.2255891"><ele>311.0</ele><time>2026-05-03T09:03:19.963Z</time></trkpt><trkpt lat="45.6151248" lon="8.2255466"><ele>311.0</ele><time>2026-05-03T09:03:21.963Z</time></trkpt><trkpt lat="45.6152089" lon="8.225585"><ele>312.33333333333337</ele><time>2026-05-03T09:03:24.983Z</time></trkpt><trkpt lat="45.6152578" lon="8.225487"><ele>313.6666666666667</ele><time>2026-05-03T09:03:29.992Z</time></trkpt><trkpt lat="45.6153283" lon="8.22542"><ele>315.0</ele><time>2026-05-03T09:03:31.96Z</time></trkpt><trkpt lat="45.6153874" lon="8.2253586"><ele>316.3333333333333</ele><time>2026-05-03T09:03:33.957Z</time></trkpt><trkpt lat="45.6153917" lon="8.2252674"><ele>317.66666666666663</ele><time>2026-05-03T09:03:39.052Z</time></trkpt><trkpt lat="45.615476" lon="8.2252281"><ele>319.0</ele><time>2026-05-03T09:03:47.033Z</time></trkpt><trkpt lat="45.6155493" lon="8.2251876"><ele>319.14285714285717</ele><time>2026-05-03T09:03:49.002Z</time></trkpt><trkpt lat="45.6156184" lon="8.2251331"><ele>319.2857142857143</ele><time>2026-05-03T09:03:51.009Z</time></trkpt><trkpt lat="45.615678" lon="8.2250861"><ele>319.42857142857144</ele><time>2026-05-03T09:03:53.018Z</time></trkpt><trkpt lat="45.6157473" lon="8.2251291"><ele>319.57142857142856</ele><time>2026-05-03T09:03:55.003Z</time></trkpt><trkpt lat="45.6158042" lon="8.2251752"><ele>319.7142857142857</ele><time>2026-05-03T09:03:57.001Z</time></trkpt><trkpt lat="45.6158706" lon="8.2251508"><ele>319.85714285714283</ele><time>2026-05-03T09:03:59.013Z</time></trkpt><trkpt lat="45.6159623" lon="8.2251667"><ele>320.0</ele><time>2026-05-03T09:04:01.056Z</time></trkpt><trkpt lat="45.6160482" lon="8.2252358"><ele>320.0</ele><time>2026-05-03T09:04:03.022Z</time></trkpt><trkpt lat="45.6161402" lon="8.2252645"><ele>320.0</ele><time>2026-05-03T09:04:05.004Z</time></trkpt><trkpt lat="45.6162037" lon="8.2252668"><ele>320.0</ele><time>2026-05-03T09:04:07.094Z</time></trkpt><trkpt lat="45.6162778" lon="8.2252274"><ele>320.0</ele><time>2026-05-03T09:04:09.042Z</time></trkpt><trkpt lat="45.6163364" lon="8.2251853"><ele>320.0</ele><time>2026-05-03T09:04:11.082Z</time></trkpt><trkpt lat="45.6164042" lon="8.2251546"><ele>320.0</ele><time>2026-05-03T09:04:13.051Z</time></trkpt><trkpt lat="45.6165086" lon="8.2251351"><ele>322.6666666666667</ele><time>2026-05-03T09:04:15.02Z</time></trkpt><trkpt lat="45.6165632" lon="8.2250758"><ele>325.33333333333337</ele><time>2026-05-03T09:04:17.021Z</time></trkpt><trkpt lat="45.6166419" lon="8.2250093"><ele>328.0</ele><time>2026-05-03T09:04:19.01Z</time></trkpt><trkpt lat="45.616708" lon="8.224977"><ele>330.6666666666667</ele><time>2026-05-03T09:04:20.026Z</time></trkpt><trkpt lat="45.6167732" lon="8.2249403"><ele>333.3333333333333</ele><time>2026-05-03T09:04:21.03Z</time></trkpt><trkpt lat="45.6168801" lon="8.2249579"><ele>336.0</ele><time>2026-05-03T09:04:23.019Z</time></trkpt><trkpt lat="45.6169875" lon="8.2250617"><ele>339.1666666666667</ele><time>2026-05-03T09:04:25.019Z</time></trkpt><trkpt lat="45.6170358" lon="8.2251258"><ele>342.3333333333333</ele><time>2026-05-03T09:04:26.013Z</time></trkpt><trkpt lat="45.6170936" lon="8.2252524"><ele>345.5</ele><time>2026-05-03T09:04:28.025Z</time></trkpt><trkpt lat="45.6171289" lon="8.2253503"><ele>348.66666666666663</ele><time>2026-05-03T09:04:30.022Z</time></trkpt><trkpt lat="45.6171907" lon="8.2254151"><ele>351.8333333333333</ele><time>2026-05-03T09:04:32.047Z</time></trkpt><trkpt lat="45.6172463" lon="8.2254748"><ele>355.0</ele><time>2026-05-03T09:04:33.03Z</time></trkpt><trkpt lat="45.6172908" lon="8.2255392"><ele>355.0</ele><time>2026-05-03T09:04:34.031Z</time></trkpt><trkpt lat="45.6173722" lon="8.2255819"><ele>355.0</ele><time>2026-05-03T09:04:36.029Z</time></trkpt><trkpt lat="45.6174692" lon="8.2255291"><ele>355.0</ele><time>2026-05-03T09:04:38.015Z</time></trkpt><trkpt lat="45.6175765" lon="8.2254374"><ele>355.0</ele><time>2026-05-03T09:04:40.021Z</time></trkpt><trkpt lat="45.6176805" lon="8.2253504"><ele>355.0</ele><time>2026-05-03T09:04:42.042Z</time></trkpt><trkpt lat="45.6177388" lon="8.2253151"><ele>357.8333333333333</ele><time>2026-05-03T09:04:43.033Z</time></trkpt><trkpt lat="45.6178241" lon="8.2253312"><ele>360.66666666666663</ele><time>2026-05-03T09:04:45.017Z</time></trkpt><trkpt lat="45.6178719" lon="8.2254001"><ele>363.5</ele><time>2026-05-03T09:04:47.018Z</time></trkpt><trkpt lat="45.6179139" lon="8.2254737"><ele>366.3333333333333</ele><time>2026-05-03T09:04:49.052Z</time></trkpt><trkpt lat="45.6179382" lon="8.2255704"><ele>369.1666666666667</ele><time>2026-05-03T09:04:51.016Z</time></trkpt><trkpt lat="45.6180098" lon="8.2256404"><ele>372.0</ele><time>2026-05-03T09:04:55.022Z</time></trkpt><trkpt lat="45.6180996" lon="8.2256325"><ele>372.0</ele><time>2026-05-03T09:04:58.041Z</time></trkpt><trkpt lat="45.6181566" lon="8.2255913"><ele>372.0</ele><time>2026-05-03T09:05:00.029Z</time></trkpt><trkpt lat="45.6182305" lon="8.2255855"><ele>372.0</ele><time>2026-05-03T09:05:02.024Z</time></trkpt><trkpt lat="45.6183156" lon="8.2256135"><ele>372.0</ele><time>2026-05-03T09:05:04.022Z</time></trkpt><trkpt lat="45.6183786" lon="8.2256476"><ele>372.0</ele><time>2026-05-03T09:05:05.025Z</time></trkpt><trkpt lat="45.6184814" lon="8.2257199"><ele>372.0</ele><time>2026-05-03T09:05:07.012Z</time></trkpt><trkpt lat="45.6185952" lon="8.2257276"><ele>372.20000000000005</ele><time>2026-05-03T09:05:09.041Z</time></trkpt><trkpt lat="45.6186719" lon="8.225658"><ele>372.4</ele><time>2026-05-03T09:05:11.018Z</time></trkpt><trkpt lat="45.6187368" lon="8.2255995"><ele>372.6</ele><time>2026-05-03T09:05:13.03Z</time></trkpt><trkpt lat="45.6188183" lon="8.2255136"><ele>372.79999999999995</ele><time>2026-05-03T09:05:15.051Z</time></trkpt><trkpt lat="45.6189037" lon="8.2253951"><ele>373.0</ele><time>2026-05-03T09:05:17.017Z</time></trkpt><trkpt lat="45.6189813" lon="8.2252783"><ele>374.4</ele><time>2026-05-03T09:05:19.03Z</time></trkpt><trkpt lat="45.6190728" lon="8.2252331"><ele>375.79999999999995</ele><time>2026-05-03T09:05:21.036Z</time></trkpt><trkpt lat="45.6191659" lon="8.2252232"><ele>377.2</ele><time>2026-05-03T09:05:23.028Z</time></trkpt><trkpt lat="45.6192585" lon="8.2251316"><ele>378.6</ele><time>2026-05-03T09:05:26.031Z</time></trkpt><trkpt lat="45.6193301" lon="8.2249955"><ele>380.0</ele><time>2026-05-03T09:05:28.034Z</time></trkpt><trkpt lat="45.6193726" lon="8.224859"><ele>380.6666666666667</ele><time>2026-05-03T09:05:30.045Z</time></trkpt><trkpt lat="45.6194161" lon="8.2247479"><ele>381.33333333333337</ele><time>2026-05-03T09:05:33.033Z</time></trkpt><trkpt lat="45.6194348" lon="8.2246453"><ele>382.0</ele><time>2026-05-03T09:05:36.059Z</time></trkpt><trkpt lat="45.6194506" lon="8.2245234"><ele>382.6666666666667</ele><time>2026-05-03T09:05:38.021Z</time></trkpt><trkpt lat="45.6194982" lon="8.2244219"><ele>383.3333333333333</ele><time>2026-05-03T09:05:41.04Z</time></trkpt><trkpt lat="45.6195292" lon="8.2243149"><ele>384.0</ele><time>2026-05-03T09:05:43.028Z</time></trkpt><trkpt lat="45.6195728" lon="8.2242077"><ele>385.3333333333333</ele><time>2026-05-03T09:05:46.028Z</time></trkpt><trkpt lat="45.6196319" lon="8.2241432"><ele>386.66666666666663</ele><time>2026-05-03T09:05:48.056Z</time></trkpt><trkpt lat="45.6196782" lon="8.2240609"><ele>388.0</ele><time>2026-05-03T09:05:50.054Z</time></trkpt><trkpt lat="45.6197441" lon="8.2239668"><ele>389.3333333333333</ele><time>2026-05-03T09:05:52.027Z</time></trkpt><trkpt lat="45.6198515" lon="8.2238657"><ele>390.66666666666663</ele><time>2026-05-03T09:05:54.034Z</time></trkpt><trkpt lat="45.6199009" lon="8.2238079"><ele>392.0</ele><time>2026-05-03T09:05:55.026Z</time></trkpt><trkpt lat="45.6199719" lon="8.2237451"><ele>392.75</ele><time>2026-05-03T09:05:56.027Z</time></trkpt><trkpt lat="45.6200609" lon="8.2236617"><ele>393.5</ele><time>2026-05-03T09:05:57.019Z</time></trkpt><trkpt lat="45.6201334" lon="8.2235824"><ele>394.25</ele><time>2026-05-03T09:05:58.029Z</time></trkpt><trkpt lat="45.6202115" lon="8.223446"><ele>395.0</ele><time>2026-05-03T09:06:00.024Z</time></trkpt><trkpt lat="45.6202959" lon="8.2232994"><ele>396.0</ele><time>2026-05-03T09:06:02.027Z</time></trkpt><trkpt lat="45.6203863" lon="8.2231964"><ele>397.0</ele><time>2026-05-03T09:06:04.022Z</time></trkpt><trkpt lat="45.6204889" lon="8.2231496"><ele>398.0</ele><time>2026-05-03T09:06:06.034Z</time></trkpt><trkpt lat="45.6206055" lon="8.2231436"><ele>399.0</ele><time>2026-05-03T09:06:08.028Z</time></trkpt><trkpt lat="45.620678" lon="8.2230779"><ele>400.0</ele><time>2026-05-03T09:06:10.025Z</time></trkpt><trkpt lat="45.6207474" lon="8.2229897"><ele>400.6</ele><time>2026-05-03T09:06:12.024Z</time></trkpt><trkpt lat="45.620795" lon="8.2229024"><ele>401.2</ele><time>2026-05-03T09:06:14.043Z</time></trkpt><trkpt lat="45.6208185" lon="8.2227675"><ele>401.79999999999995</ele><time>2026-05-03T09:06:16.054Z</time></trkpt><trkpt lat="45.620875" lon="8.2226292"><ele>402.4</ele><time>2026-05-03T09:06:18.019Z</time></trkpt><trkpt lat="45.6209396" lon="8.2225167"><ele>403.0</ele><time>2026-05-03T09:06:20.036Z</time></trkpt><trkpt lat="45.6210391" lon="8.2224589"><ele>403.00000000000006</ele><time>2026-05-03T09:06:22.041Z</time></trkpt><trkpt lat="45.6211347" lon="8.2224506"><ele>403.0</ele><time>2026-05-03T09:06:24.037Z</time></trkpt><trkpt lat="45.6212034" lon="8.222505"><ele>403.0</ele><time>2026-05-03T09:06:27.037Z</time></trkpt><trkpt lat="45.6212812" lon="8.2224736"><ele>403.0</ele><time>2026-05-03T09:06:29.031Z</time></trkpt><trkpt lat="45.62135" lon="8.2224235"><ele>403.00000000000006</ele><time>2026-05-03T09:06:32.022Z</time></trkpt><trkpt lat="45.6214026" lon="8.222359"><ele>403.0</ele><time>2026-05-03T09:06:34.023Z</time></trkpt><trkpt lat="45.6214535" lon="8.2222858"><ele>407.00000000000006</ele><time>2026-05-03T09:06:37.024Z</time></trkpt><trkpt lat="45.6215229" lon="8.2221863"><ele>411.0</ele><time>2026-05-03T09:06:40.042Z</time></trkpt><trkpt lat="45.6215804" lon="8.222139"><ele>415.0</ele><time>2026-05-03T09:06:42.018Z</time></trkpt><trkpt lat="45.621636" lon="8.2220934"><ele>419.0</ele><time>2026-05-03T09:06:44.036Z</time></trkpt><trkpt lat="45.6216997" lon="8.2220469"><ele>423.00000000000006</ele><time>2026-05-03T09:06:46.043Z</time></trkpt><trkpt lat="45.6217581" lon="8.2219498"><ele>427.0</ele><time>2026-05-03T09:06:49.024Z</time></trkpt><trkpt lat="45.621785" lon="8.2218651"><ele>427.0</ele><time>2026-05-03T09:06:51.021Z</time></trkpt><trkpt lat="45.6217796" lon="8.2217725"><ele>427.0</ele><time>2026-05-03T09:06:53.025Z</time></trkpt><trkpt lat="45.621779" lon="8.2216458"><ele>427.0</ele><time>2026-05-03T09:06:56.023Z</time></trkpt><trkpt lat="45.6217966" lon="8.2215585"><ele>427.0</ele><time>2026-05-03T09:06:58.022Z</time></trkpt><trkpt lat="45.6218148" lon="8.221459"><ele>427.0</ele><time>2026-05-03T09:07:00.037Z</time></trkpt><trkpt lat="45.6218437" lon="8.2213559"><ele>427.0</ele><time>2026-05-03T09:07:03.025Z</time></trkpt><trkpt lat="45.621865" lon="8.221249"><ele>427.0</ele><time>2026-05-03T09:07:06.034Z</time></trkpt><trkpt lat="45.6218993" lon="8.221162"><ele>428.33333333333337</ele><time>2026-05-03T09:07:08.037Z</time></trkpt><trkpt lat="45.6219611" lon="8.2210991"><ele>429.6666666666667</ele><time>2026-05-03T09:07:11.05Z</time></trkpt><trkpt lat="45.6220537" lon="8.2211069"><ele>431.0</ele><time>2026-05-03T09:07:14.039Z</time></trkpt><trkpt lat="45.6221564" lon="8.2210824"><ele>432.33333333333337</ele><time>2026-05-03T09:07:16.034Z</time></trkpt><trkpt lat="45.6222589" lon="8.221049"><ele>433.6666666666667</ele><time>2026-05-03T09:07:18.035Z</time></trkpt><trkpt lat="45.622324" lon="8.2210317"><ele>435.0</ele><time>2026-05-03T09:07:20.029Z</time></trkpt><trkpt lat="45.6223785" lon="8.221084"><ele>437.1666666666667</ele><time>2026-05-03T09:07:22.039Z</time></trkpt><trkpt lat="45.6223132" lon="8.2209962"><ele>439.33333333333337</ele><time>2026-05-03T09:07:38.015Z</time></trkpt><trkpt lat="45.6223757" lon="8.220954"><ele>441.5</ele><time>2026-05-03T09:07:43.028Z</time></trkpt><trkpt lat="45.622441" lon="8.2209353"><ele>443.6666666666667</ele><time>2026-05-03T09:07:46.03Z</time></trkpt><trkpt lat="45.6223536" lon="8.2209524"><ele>445.83333333333337</ele><time>2026-05-03T09:07:57.015Z</time></trkpt><trkpt lat="45.6222821" lon="8.221002"><ele>448.0</ele><time>2026-05-03T09:08:00.031Z</time></trkpt><trkpt lat="45.6223365" lon="8.2210629"><ele>448.0</ele><time>2026-05-03T09:08:05.023Z</time></trkpt><trkpt lat="45.6223373" lon="8.2209641"><ele>448.0</ele><time>2026-05-03T09:08:14.037Z</time></trkpt><trkpt lat="45.6224013" lon="8.2209499"><ele>448.0</ele><time>2026-05-03T09:08:20.02Z</time></trkpt><trkpt lat="45.6224654" lon="8.2209882"><ele>448.0</ele><time>2026-05-03T09:08:22.032Z</time></trkpt><trkpt lat="45.6225291" lon="8.221024"><ele>448.0</ele><time>2026-05-03T09:08:25.031Z</time></trkpt><trkpt lat="45.6226044" lon="8.2210113"><ele>448.0</ele><time>2026-05-03T09:08:27.031Z</time></trkpt><trkpt lat="45.6226879" lon="8.220988"><ele>448.0</ele><time>2026-05-03T09:08:29.038Z</time></trkpt><trkpt lat="45.6227778" lon="8.2209551"><ele>450.33333333333337</ele><time>2026-05-03T09:08:32.029Z</time></trkpt><trkpt lat="45.6228366" lon="8.2208941"><ele>452.6666666666667</ele><time>2026-05-03T09:08:34.055Z</time></trkpt><trkpt lat="45.6228933" lon="8.2208475"><ele>455.0</ele><time>2026-05-03T09:08:36.026Z</time></trkpt><trkpt lat="45.6229742" lon="8.2208138"><ele>457.33333333333337</ele><time>2026-05-03T09:08:39.057Z</time></trkpt><trkpt lat="45.6230494" lon="8.2207862"><ele>459.6666666666667</ele><time>2026-05-03T09:08:41.024Z</time></trkpt><trkpt lat="45.6231025" lon="8.2207286"><ele>462.0</ele><time>2026-05-03T09:08:44.025Z</time></trkpt><trkpt lat="45.6231138" lon="8.2206105"><ele>462.0</ele><time>2026-05-03T09:08:46.035Z</time></trkpt><trkpt lat="45.6231687" lon="8.2205499"><ele>462.0</ele><time>2026-05-03T09:08:48.04Z</time></trkpt><trkpt lat="45.6232608" lon="8.2205494"><ele>462.0</ele><time>2026-05-03T09:08:50.027Z</time></trkpt><trkpt lat="45.6233318" lon="8.2205462"><ele>462.0</ele><time>2026-05-03T09:08:52.041Z</time></trkpt><trkpt lat="45.62341" lon="8.2205571"><ele>462.0</ele><time>2026-05-03T09:08:55.027Z</time></trkpt><trkpt lat="45.6234929" lon="8.2205726"><ele>462.0</ele><time>2026-05-03T09:08:58.033Z</time></trkpt><trkpt lat="45.6235629" lon="8.2206204"><ele>462.8333333333333</ele><time>2026-05-03T09:09:00.043Z</time></trkpt><trkpt lat="45.6236345" lon="8.2206613"><ele>463.66666666666663</ele><time>2026-05-03T09:09:02.025Z</time></trkpt><trkpt lat="45.6236961" lon="8.2206835"><ele>464.5</ele><time>2026-05-03T09:09:04.034Z</time></trkpt><trkpt lat="45.6237816" lon="8.2207146"><ele>465.3333333333333</ele><time>2026-05-03T09:09:07.027Z</time></trkpt><trkpt lat="45.6238381" lon="8.2208011"><ele>466.16666666666663</ele><time>2026-05-03T09:09:10.03Z</time></trkpt><trkpt lat="45.623901" lon="8.2208336"><ele>467.0</ele><time>2026-05-03T09:09:12.029Z</time></trkpt><trkpt lat="45.6239881" lon="8.2208824"><ele>469.8333333333333</ele><time>2026-05-03T09:09:15.02Z</time></trkpt><trkpt lat="45.6240542" lon="8.2209431"><ele>472.66666666666663</ele><time>2026-05-03T09:09:17.012Z</time></trkpt><trkpt lat="45.6241281" lon="8.220977"><ele>475.5</ele><time>2026-05-03T09:09:19.035Z</time></trkpt><trkpt lat="45.6241899" lon="8.2209367"><ele>478.33333333333337</ele><time>2026-05-03T09:09:21.028Z</time></trkpt><trkpt lat="45.6242627" lon="8.2209674"><ele>481.1666666666667</ele><time>2026-05-03T09:09:30.025Z</time></trkpt><trkpt lat="45.6243377" lon="8.2209615"><ele>484.0</ele><time>2026-05-03T09:09:33.042Z</time></trkpt><trkpt lat="45.624449" lon="8.2210095"><ele>485.83333333333337</ele><time>2026-05-03T09:09:35.028Z</time></trkpt><trkpt lat="45.6245245" lon="8.2210021"><ele>487.6666666666667</ele><time>2026-05-03T09:09:37.046Z</time></trkpt><trkpt lat="45.6245994" lon="8.2209155"><ele>489.5</ele><time>2026-05-03T09:09:39.029Z</time></trkpt><trkpt lat="45.6246457" lon="8.220837"><ele>491.33333333333337</ele><time>2026-05-03T09:09:41.027Z</time></trkpt><trkpt lat="45.6246944" lon="8.2207545"><ele>493.1666666666667</ele><time>2026-05-03T09:09:43.026Z</time></trkpt><trkpt lat="45.624755" lon="8.2207148"><ele>495.0</ele><time>2026-05-03T09:09:45.046Z</time></trkpt><trkpt lat="45.6248422" lon="8.2206789"><ele>495.0</ele><time>2026-05-03T09:09:47.019Z</time></trkpt><trkpt lat="45.6249058" lon="8.2206603"><ele>495.0</ele><time>2026-05-03T09:09:48.035Z</time></trkpt><trkpt lat="45.6249794" lon="8.2206301"><ele>495.0</ele><time>2026-05-03T09:09:50.024Z</time></trkpt><trkpt lat="45.6250966" lon="8.2205846"><ele>495.0</ele><time>2026-05-03T09:09:52.045Z</time></trkpt><trkpt lat="45.6251975" lon="8.2205561"><ele>495.0</ele><time>2026-05-03T09:09:54.027Z</time></trkpt><trkpt lat="45.6252844" lon="8.2205299"><ele>497.3333333333333</ele><time>2026-05-03T09:09:56.016Z</time></trkpt><trkpt lat="45.6253552" lon="8.2204838"><ele>499.66666666666663</ele><time>2026-05-03T09:09:58.033Z</time></trkpt><trkpt lat="45.6254347" lon="8.2204119"><ele>502.0</ele><time>2026-05-03T09:10:00.035Z</time></trkpt><trkpt lat="45.6254989" lon="8.2203813"><ele>504.3333333333333</ele><time>2026-05-03T09:10:02.035Z</time></trkpt><trkpt lat="45.6255713" lon="8.2203525"><ele>506.66666666666663</ele><time>2026-05-03T09:10:06.032Z</time></trkpt><trkpt lat="45.6256335" lon="8.2203116"><ele>509.0</ele><time>2026-05-03T09:10:08.03Z</time></trkpt><trkpt lat="45.625706" lon="8.2202612"><ele>508.99999999999994</ele><time>2026-05-03T09:10:10.043Z</time></trkpt><trkpt lat="45.6257767" lon="8.2202515"><ele>509.0</ele><time>2026-05-03T09:10:12.032Z</time></trkpt><trkpt lat="45.6258155" lon="8.2201475"><ele>509.0</ele><time>2026-05-03T09:10:15.03Z</time></trkpt><trkpt lat="45.6258533" lon="8.2200711"><ele>509.0</ele><time>2026-05-03T09:10:17.024Z</time></trkpt><trkpt lat="45.6259196" lon="8.219992"><ele>508.99999999999994</ele><time>2026-05-03T09:10:19.038Z</time></trkpt><trkpt lat="45.625964" lon="8.2199105"><ele>509.0</ele><time>2026-05-03T09:10:21.025Z</time></trkpt><trkpt lat="45.6259646" lon="8.2197926"><ele>509.66666666666663</ele><time>2026-05-03T09:10:23.022Z</time></trkpt><trkpt lat="45.6259936" lon="8.2196822"><ele>510.3333333333333</ele><time>2026-05-03T09:10:31.034Z</time></trkpt><trkpt lat="45.6260394" lon="8.2195873"><ele>511.0</ele><time>2026-05-03T09:10:34.059Z</time></trkpt><trkpt lat="45.6261236" lon="8.2195319"><ele>511.66666666666663</ele><time>2026-05-03T09:10:37.023Z</time></trkpt><trkpt lat="45.6261591" lon="8.2194573"><ele>512.3333333333334</ele><time>2026-05-03T09:10:40.03Z</time></trkpt><trkpt lat="45.626224" lon="8.2193556"><ele>513.0</ele><time>2026-05-03T09:10:43.027Z</time></trkpt><trkpt lat="45.6262961" lon="8.2192956"><ele>515.8333333333334</ele><time>2026-05-03T09:10:49.034Z</time></trkpt><trkpt lat="45.6263945" lon="8.2193472"><ele>518.6666666666666</ele><time>2026-05-03T09:10:52.034Z</time></trkpt><trkpt lat="45.6264937" lon="8.219297"><ele>521.5</ele><time>2026-05-03T09:10:55.036Z</time></trkpt><trkpt lat="45.6265747" lon="8.2192616"><ele>524.3333333333333</ele><time>2026-05-03T09:10:57.036Z</time></trkpt><trkpt lat="45.6266443" lon="8.2192645"><ele>527.1666666666666</ele><time>2026-05-03T09:11:00.062Z</time></trkpt><trkpt lat="45.626724" lon="8.2192875"><ele>530.0</ele><time>2026-05-03T09:11:02.028Z</time></trkpt><trkpt lat="45.6268025" lon="8.2193032"><ele>530.0</ele><time>2026-05-03T09:11:05.033Z</time></trkpt><trkpt lat="45.6268651" lon="8.2193574"><ele>530.0</ele><time>2026-05-03T09:11:07.039Z</time></trkpt><trkpt lat="45.6269489" lon="8.2193868"><ele>530.0</ele><time>2026-05-03T09:11:10.047Z</time></trkpt><trkpt lat="45.6269878" lon="8.2194921"><ele>530.0</ele><time>2026-05-03T09:11:14.033Z</time></trkpt><trkpt lat="45.6270599" lon="8.2195473"><ele>530.0</ele><time>2026-05-03T09:11:17.033Z</time></trkpt><trkpt lat="45.6271316" lon="8.2195519"><ele>530.0</ele><time>2026-05-03T09:11:20.027Z</time></trkpt><trkpt lat="45.6272125" lon="8.2195092"><ele>528.2857142857142</ele><time>2026-05-03T09:11:24.03Z</time></trkpt><trkpt lat="45.6272552" lon="8.2195921"><ele>526.5714285714286</ele><time>2026-05-03T09:11:26.027Z</time></trkpt><trkpt lat="45.62722" lon="8.219692"><ele>524.8571428571429</ele><time>2026-05-03T09:11:30.033Z</time></trkpt><trkpt lat="45.6272443" lon="8.2198128"><ele>523.1428571428571</ele><time>2026-05-03T09:11:33.035Z</time></trkpt><trkpt lat="45.6272484" lon="8.2199031"><ele>521.4285714285714</ele><time>2026-05-03T09:11:35.03Z</time></trkpt><trkpt lat="45.6272637" lon="8.2200013"><ele>519.7142857142857</ele><time>2026-05-03T09:11:37.027Z</time></trkpt><trkpt lat="45.6272816" lon="8.2200899"><ele>518.0</ele><time>2026-05-03T09:11:39.024Z</time></trkpt><trkpt lat="45.627347" lon="8.2201614"><ele>518.0</ele><time>2026-05-03T09:11:42.031Z</time></trkpt><trkpt lat="45.627414" lon="8.2201911"><ele>518.0</ele><time>2026-05-03T09:11:44.049Z</time></trkpt><trkpt lat="45.6274797" lon="8.2202324"><ele>518.0</ele><time>2026-05-03T09:11:47.017Z</time></trkpt><trkpt lat="45.6275668" lon="8.2202413"><ele>518.0</ele><time>2026-05-03T09:11:50.036Z</time></trkpt><trkpt lat="45.627617" lon="8.2203301"><ele>518.0</ele><time>2026-05-03T09:11:52.034Z</time></trkpt><trkpt lat="45.6276743" lon="8.2204025"><ele>518.0</ele><time>2026-05-03T09:11:54.05Z</time></trkpt><trkpt lat="45.627706" lon="8.2204958"><ele>518.0</ele><time>2026-05-03T09:11:56.026Z</time></trkpt><trkpt lat="45.6277707" lon="8.2205843"><ele>518.0</ele><time>2026-05-03T09:11:58.025Z</time></trkpt><trkpt lat="45.6278719" lon="8.2205732"><ele>518.0</ele><time>2026-05-03T09:12:00.023Z</time></trkpt><trkpt lat="45.6279364" lon="8.220564"><ele>518.0</ele><time>2026-05-03T09:12:02.025Z</time></trkpt><trkpt lat="45.6280351" lon="8.2205537"><ele>518.0</ele><time>2026-05-03T09:12:04.043Z</time></trkpt><trkpt lat="45.6281007" lon="8.2205356"><ele>518.0</ele><time>2026-05-03T09:12:05.036Z</time></trkpt><trkpt lat="45.6282033" lon="8.2205063"><ele>517.8333333333333</ele><time>2026-05-03T09:12:07.026Z</time></trkpt><trkpt lat="45.6282702" lon="8.2204054"><ele>517.6666666666666</ele><time>2026-05-03T09:12:09.03Z</time></trkpt><trkpt lat="45.6283559" lon="8.220379"><ele>517.5</ele><time>2026-05-03T09:12:11.031Z</time></trkpt><trkpt lat="45.6284415" lon="8.2203472"><ele>517.3333333333334</ele><time>2026-05-03T09:12:13.029Z</time></trkpt><trkpt lat="45.6285106" lon="8.2203499"><ele>517.1666666666667</ele><time>2026-05-03T09:12:15.031Z</time></trkpt><trkpt lat="45.6285937" lon="8.2204277"><ele>517.0</ele><time>2026-05-03T09:12:17.032Z</time></trkpt><trkpt lat="45.6286778" lon="8.2204781"><ele>517.0</ele><time>2026-05-03T09:12:19.023Z</time></trkpt><trkpt lat="45.6287522" lon="8.2205714"><ele>517.0</ele><time>2026-05-03T09:12:22.03Z</time></trkpt><trkpt lat="45.628819" lon="8.2206395"><ele>517.0</ele><time>2026-05-03T09:12:24.024Z</time></trkpt><trkpt lat="45.628889" lon="8.220684"><ele>517.0</ele><time>2026-05-03T09:12:26.041Z</time></trkpt><trkpt lat="45.6289531" lon="8.2207719"><ele>517.0</ele><time>2026-05-03T09:12:28.018Z</time></trkpt><trkpt lat="45.629019" lon="8.2208588"><ele>517.0</ele><time>2026-05-03T09:12:31.018Z</time></trkpt><trkpt lat="45.6290666" lon="8.2209263"><ele>520.0</ele><time>2026-05-03T09:12:36.033Z</time></trkpt><trkpt lat="45.6291085" lon="8.2210102"><ele>523.0</ele><time>2026-05-03T09:12:38.023Z</time></trkpt><trkpt lat="45.6291775" lon="8.2210503"><ele>526.0</ele><time>2026-05-03T09:12:41.016Z</time></trkpt><trkpt lat="45.6292523" lon="8.2210477"><ele>529.0</ele><time>2026-05-03T09:12:43.036Z</time></trkpt><trkpt lat="45.6293311" lon="8.2210104"><ele>532.0</ele><time>2026-05-03T09:12:45.017Z</time></trkpt><trkpt lat="45.629386" lon="8.221085"><ele>535.0</ele><time>2026-05-03T09:12:47.024Z</time></trkpt><trkpt lat="45.6294671" lon="8.221058"><ele>536.3333333333334</ele><time>2026-05-03T09:12:49.045Z</time></trkpt><trkpt lat="45.6295352" lon="8.2211145"><ele>537.6666666666667</ele><time>2026-05-03T09:12:51.025Z</time></trkpt><trkpt lat="45.6295672" lon="8.2212033"><ele>539.0</ele><time>2026-05-03T09:12:53.022Z</time></trkpt><trkpt lat="45.6296434" lon="8.221191"><ele>540.3333333333334</ele><time>2026-05-03T09:12:56.023Z</time></trkpt><trkpt lat="45.6297131" lon="8.2212213"><ele>541.6666666666666</ele><time>2026-05-03T09:12:58.028Z</time></trkpt><trkpt lat="45.6298011" lon="8.2212077"><ele>543.0</ele><time>2026-05-03T09:13:01.022Z</time></trkpt><trkpt lat="45.6298768" lon="8.2212312"><ele>543.0</ele><time>2026-05-03T09:13:03.037Z</time></trkpt><trkpt lat="45.6299512" lon="8.2212431"><ele>543.0</ele><time>2026-05-03T09:13:05.034Z</time></trkpt><trkpt lat="45.63002" lon="8.2213235"><ele>543.0</ele><time>2026-05-03T09:13:07.043Z</time></trkpt><trkpt lat="45.6301015" lon="8.2213774"><ele>543.0</ele><time>2026-05-03T09:13:16.026Z</time></trkpt><trkpt lat="45.6301331" lon="8.2214847"><ele>543.0</ele><time>2026-05-03T09:13:24.042Z</time></trkpt><trkpt lat="45.6301268" lon="8.2216229"><ele>543.0</ele><time>2026-05-03T09:13:27.036Z</time></trkpt><trkpt lat="45.6301113" lon="8.2217343"><ele>544.4285714285714</ele><time>2026-05-03T09:13:29.029Z</time></trkpt><trkpt lat="45.6301486" lon="8.2218221"><ele>545.8571428571429</ele><time>2026-05-03T09:13:31.012Z</time></trkpt><trkpt lat="45.6302212" lon="8.2218092"><ele>547.2857142857142</ele><time>2026-05-03T09:13:33.01Z</time></trkpt><trkpt lat="45.6302602" lon="8.2217046"><ele>548.7142857142858</ele><time>2026-05-03T09:13:36.062Z</time></trkpt><trkpt lat="45.6303156" lon="8.2216457"><ele>550.1428571428571</ele><time>2026-05-03T09:13:39.02Z</time></trkpt><trkpt lat="45.6303679" lon="8.2216963"><ele>551.5714285714286</ele><time>2026-05-03T09:13:42.033Z</time></trkpt><trkpt lat="45.6304142" lon="8.2217656"><ele>553.0</ele><time>2026-05-03T09:13:49.041Z</time></trkpt><trkpt lat="45.6304798" lon="8.2218091"><ele>555.0</ele><time>2026-05-03T09:13:52.027Z</time></trkpt><trkpt lat="45.6305061" lon="8.2218921"><ele>557.0</ele><time>2026-05-03T09:13:54.041Z</time></trkpt><trkpt lat="45.6305707" lon="8.2219532"><ele>559.0</ele><time>2026-05-03T09:13:58.035Z</time></trkpt><trkpt lat="45.630636" lon="8.2219604"><ele>561.0</ele><time>2026-05-03T09:14:00.059Z</time></trkpt><trkpt lat="45.6307028" lon="8.2219961"><ele>563.0</ele><time>2026-05-03T09:14:02.041Z</time></trkpt><trkpt lat="45.6307547" lon="8.2220765"><ele>565.0</ele><time>2026-05-03T09:14:04.043Z</time></trkpt><trkpt lat="45.6308116" lon="8.2221817"><ele>567.0</ele><time>2026-05-03T09:14:06.039Z</time></trkpt><trkpt lat="45.6308761" lon="8.2222579"><ele>567.0</ele><time>2026-05-03T09:14:09.016Z</time></trkpt><trkpt lat="45.6309183" lon="8.2221889"><ele>567.0</ele><time>2026-05-03T09:14:13.025Z</time></trkpt><trkpt lat="45.6309302" lon="8.2221002"><ele>567.0</ele><time>2026-05-03T09:14:15.04Z</time></trkpt><trkpt lat="45.6309659" lon="8.2220061"><ele>567.0</ele><time>2026-05-03T09:14:17.041Z</time></trkpt><trkpt lat="45.6309655" lon="8.2218774"><ele>567.0</ele><time>2026-05-03T09:14:21.018Z</time></trkpt><trkpt lat="45.6309912" lon="8.2217658"><ele>567.0</ele><time>2026-05-03T09:14:24.021Z</time></trkpt><trkpt lat="45.6310258" lon="8.22169"><ele>567.0</ele><time>2026-05-03T09:14:26.028Z</time></trkpt><trkpt lat="45.6310851" lon="8.2216025"><ele>566.8000000000001</ele><time>2026-05-03T09:14:29.046Z</time></trkpt><trkpt lat="45.6311445" lon="8.2215715"><ele>566.6</ele><time>2026-05-03T09:14:31.031Z</time></trkpt><trkpt lat="45.6312419" lon="8.2214732"><ele>566.4000000000001</ele><time>2026-05-03T09:14:33.023Z</time></trkpt><trkpt lat="45.631284" lon="8.2213992"><ele>566.2</ele><time>2026-05-03T09:14:34.035Z</time></trkpt><trkpt lat="45.6313292" lon="8.2212906"><ele>566.0</ele><time>2026-05-03T09:14:36.047Z</time></trkpt><trkpt lat="45.631431" lon="8.2212088"><ele>564.4</ele><time>2026-05-03T09:14:38.031Z</time></trkpt><trkpt lat="45.6314938" lon="8.2211997"><ele>562.8</ele><time>2026-05-03T09:14:39.035Z</time></trkpt><trkpt lat="45.6315687" lon="8.2211316"><ele>561.1999999999999</ele><time>2026-05-03T09:14:41.023Z</time></trkpt><trkpt lat="45.6316515" lon="8.2210928"><ele>559.6</ele><time>2026-05-03T09:14:43.028Z</time></trkpt><trkpt lat="45.6317658" lon="8.2211072"><ele>558.0</ele><time>2026-05-03T09:14:45.064Z</time></trkpt><trkpt lat="45.6318666" lon="8.2211323"><ele>558.6</ele><time>2026-05-03T09:14:47.025Z</time></trkpt><trkpt lat="45.6319784" lon="8.2211731"><ele>559.1999999999999</ele><time>2026-05-03T09:14:49.053Z</time></trkpt><trkpt lat="45.632081" lon="8.2212092"><ele>559.8</ele><time>2026-05-03T09:14:51.031Z</time></trkpt><trkpt lat="45.6321877" lon="8.2212534"><ele>560.4</ele><time>2026-05-03T09:14:53.013Z</time></trkpt><trkpt lat="45.6322834" lon="8.2212492"><ele>561.0</ele><time>2026-05-03T09:14:55.017Z</time></trkpt><trkpt lat="45.6324048" lon="8.2211947"><ele>561.0</ele><time>2026-05-03T09:14:57.027Z</time></trkpt><trkpt lat="45.6325057" lon="8.2211683"><ele>561.0</ele><time>2026-05-03T09:14:59.036Z</time></trkpt><trkpt lat="45.6326091" lon="8.2211836"><ele>561.0</ele><time>2026-05-03T09:15:01.022Z</time></trkpt><trkpt lat="45.6326856" lon="8.2212049"><ele>561.0</ele><time>2026-05-03T09:15:03.028Z</time></trkpt><trkpt lat="45.6327752" lon="8.2211737"><ele>561.0</ele><time>2026-05-03T09:15:06.023Z</time></trkpt><trkpt lat="45.6328305" lon="8.2210555"><ele>561.6</ele><time>2026-05-03T09:15:08.024Z</time></trkpt><trkpt lat="45.6328943" lon="8.2209332"><ele>562.2</ele><time>2026-05-03T09:15:10.054Z</time></trkpt><trkpt lat="45.6329719" lon="8.220846"><ele>562.8</ele><time>2026-05-03T09:15:12.031Z</time></trkpt><trkpt lat="45.6330388" lon="8.2207827"><ele>563.4</ele><time>2026-05-03T09:15:14.036Z</time></trkpt><trkpt lat="45.6331169" lon="8.2206538"><ele>564.0</ele><time>2026-05-03T09:15:16.031Z</time></trkpt><trkpt lat="45.633186" lon="8.2205251"><ele>564.0</ele><time>2026-05-03T09:15:18.03Z</time></trkpt><trkpt lat="45.6332289" lon="8.2204581"><ele>564.0</ele><time>2026-05-03T09:15:19.019Z</time></trkpt><trkpt lat="45.633277" lon="8.2203702"><ele>564.0</ele><time>2026-05-03T09:15:20.048Z</time></trkpt><trkpt lat="45.6333252" lon="8.2202822"><ele>564.0</ele><time>2026-05-03T09:15:21.037Z</time></trkpt><trkpt lat="45.6333744" lon="8.2202074"><ele>564.0</ele><time>2026-05-03T09:15:22.033Z</time></trkpt><trkpt lat="45.6334162" lon="8.2201362"><ele>564.0</ele><time>2026-05-03T09:15:23.02Z</time></trkpt><trkpt lat="45.6334671" lon="8.2200259"><ele>564.0</ele><time>2026-05-03T09:15:25.024Z</time></trkpt><trkpt lat="45.6335344" lon="8.2199104"><ele>562.6666666666666</ele><time>2026-05-03T09:15:27.028Z</time></trkpt><trkpt lat="45.6335886" lon="8.2197874"><ele>561.3333333333334</ele><time>2026-05-03T09:15:29.025Z</time></trkpt><trkpt lat="45.6336184" lon="8.2196937"><ele>560.0</ele><time>2026-05-03T09:15:31.029Z</time></trkpt><trkpt lat="45.633644" lon="8.2196059"><ele>558.6666666666667</ele><time>2026-05-03T09:15:33.03Z</time></trkpt><trkpt lat="45.6336992" lon="8.2195401"><ele>557.3333333333334</ele><time>2026-05-03T09:15:35.024Z</time></trkpt><trkpt lat="45.6337544" lon="8.2194807"><ele>556.0</ele><time>2026-05-03T09:15:38.054Z</time></trkpt><trkpt lat="45.6338294" lon="8.2194312"><ele>558.1428571428571</ele><time>2026-05-03T09:15:41.045Z</time></trkpt><trkpt lat="45.6338966" lon="8.2193603"><ele>560.2857142857143</ele><time>2026-05-03T09:15:43.033Z</time></trkpt><trkpt lat="45.6339496" lon="8.2193025"><ele>562.4285714285714</ele><time>2026-05-03T09:15:47.012Z</time></trkpt><trkpt lat="45.6339549" lon="8.2192059"><ele>564.5714285714286</ele><time>2026-05-03T09:15:50.051Z</time></trkpt><trkpt lat="45.6339329" lon="8.2191067"><ele>566.7142857142857</ele><time>2026-05-03T09:15:53.017Z</time></trkpt><trkpt lat="45.6339163" lon="8.2190156"><ele>568.8571428571429</ele><time>2026-05-03T09:15:55.025Z</time></trkpt><trkpt lat="45.6339183" lon="8.2189026"><ele>571.0</ele><time>2026-05-03T09:15:58.041Z</time></trkpt><trkpt lat="45.6339399" lon="8.2188005"><ele>571.0</ele><time>2026-05-03T09:16:00.03Z</time></trkpt><trkpt lat="45.6339808" lon="8.218645"><ele>571.0</ele><time>2026-05-03T09:16:02.013Z</time></trkpt><trkpt lat="45.6340343" lon="8.2184817"><ele>571.0</ele><time>2026-05-03T09:16:04.044Z</time></trkpt><trkpt lat="45.6340519" lon="8.2183896"><ele>571.0</ele><time>2026-05-03T09:16:05.01Z</time></trkpt><trkpt lat="45.6340465" lon="8.2182368"><ele>571.0</ele><time>2026-05-03T09:16:07.032Z</time></trkpt><trkpt lat="45.6340261" lon="8.2181176"><ele>569.6666666666667</ele><time>2026-05-03T09:16:09.034Z</time></trkpt><trkpt lat="45.6340455" lon="8.217992"><ele>568.3333333333334</ele><time>2026-05-03T09:16:11.02Z</time></trkpt><trkpt lat="45.6340264" lon="8.2178294"><ele>567.0</ele><time>2026-05-03T09:16:13.045Z</time></trkpt><trkpt lat="45.6340476" lon="8.2177273"><ele>565.6666666666666</ele><time>2026-05-03T09:16:16.026Z</time></trkpt><trkpt lat="45.6340959" lon="8.2175954"><ele>564.3333333333333</ele><time>2026-05-03T09:16:18.028Z</time></trkpt><trkpt lat="45.6341373" lon="8.2175268"><ele>563.0</ele><time>2026-05-03T09:16:20.032Z</time></trkpt><trkpt lat="45.6341354" lon="8.2174009"><ele>561.8333333333333</ele><time>2026-05-03T09:16:23.037Z</time></trkpt><trkpt lat="45.6341388" lon="8.2173046"><ele>560.6666666666666</ele><time>2026-05-03T09:16:24.03Z</time></trkpt><trkpt lat="45.6340926" lon="8.2171741"><ele>559.5</ele><time>2026-05-03T09:16:26.045Z</time></trkpt><trkpt lat="45.6341233" lon="8.2170677"><ele>558.3333333333334</ele><time>2026-05-03T09:16:28.038Z</time></trkpt><trkpt lat="45.6341814" lon="8.2169965"><ele>557.1666666666667</ele><time>2026-05-03T09:16:30.029Z</time></trkpt><trkpt lat="45.6342198" lon="8.2168974"><ele>556.0</ele><time>2026-05-03T09:16:32.026Z</time></trkpt><trkpt lat="45.6342495" lon="8.2167701"><ele>556.0</ele><time>2026-05-03T09:16:34.044Z</time></trkpt><trkpt lat="45.6343004" lon="8.2166288"><ele>556.0</ele><time>2026-05-03T09:16:36.034Z</time></trkpt><trkpt lat="45.6343467" lon="8.216555"><ele>556.0</ele><time>2026-05-03T09:16:38.023Z</time></trkpt><trkpt lat="45.6344203" lon="8.2165077"><ele>556.0</ele><time>2026-05-03T09:16:40.031Z</time></trkpt><trkpt lat="45.6345229" lon="8.2164155"><ele>556.0</ele><time>2026-05-03T09:16:42.042Z</time></trkpt><trkpt lat="45.6345981" lon="8.2163392"><ele>553.8333333333334</ele><time>2026-05-03T09:16:44.021Z</time></trkpt><trkpt lat="45.6346695" lon="8.2162643"><ele>551.6666666666667</ele><time>2026-05-03T09:16:47.025Z</time></trkpt><trkpt lat="45.6347113" lon="8.2161889"><ele>549.5</ele><time>2026-05-03T09:16:49.033Z</time></trkpt><trkpt lat="45.634772" lon="8.216126"><ele>547.3333333333334</ele><time>2026-05-03T09:16:51.047Z</time></trkpt><trkpt lat="45.6348393" lon="8.2160933"><ele>545.1666666666666</ele><time>2026-05-03T09:16:52.032Z</time></trkpt><trkpt lat="45.6349465" lon="8.2160354"><ele>543.0</ele><time>2026-05-03T09:16:54.033Z</time></trkpt><trkpt lat="45.6350305" lon="8.2159422"><ele>543.0</ele><time>2026-05-03T09:16:56.014Z</time></trkpt><trkpt lat="45.6350388" lon="8.2158166"><ele>543.0</ele><time>2026-05-03T09:16:58.027Z</time></trkpt><trkpt lat="45.6350778" lon="8.2156712"><ele>543.0</ele><time>2026-05-03T09:17:00.024Z</time></trkpt><trkpt lat="45.6351064" lon="8.2155808"><ele>543.0</ele><time>2026-05-03T09:17:01.041Z</time></trkpt><trkpt lat="45.6351636" lon="8.2154477"><ele>543.0</ele><time>2026-05-03T09:17:03.026Z</time></trkpt><trkpt lat="45.6352467" lon="8.2153319"><ele>541.5</ele><time>2026-05-03T09:17:05.031Z</time></trkpt><trkpt lat="45.6353148" lon="8.2152674"><ele>540.0</ele><time>2026-05-03T09:17:07.016Z</time></trkpt><trkpt lat="45.635371" lon="8.2151942"><ele>538.5</ele><time>2026-05-03T09:17:09.022Z</time></trkpt><trkpt lat="45.6354418" lon="8.2151662"><ele>537.0</ele><time>2026-05-03T09:17:13.023Z</time></trkpt><trkpt lat="45.6355156" lon="8.2151399"><ele>535.5</ele><time>2026-05-03T09:17:16.03Z</time></trkpt><trkpt lat="45.6355693" lon="8.2150082"><ele>534.0</ele><time>2026-05-03T09:17:18.031Z</time></trkpt><trkpt lat="45.6356551" lon="8.215015"><ele>534.0</ele><time>2026-05-03T09:17:20.029Z</time></trkpt><trkpt lat="45.6357343" lon="8.2149756"><ele>534.0</ele><time>2026-05-03T09:17:23.022Z</time></trkpt><trkpt lat="45.6358242" lon="8.2149206"><ele>534.0</ele><time>2026-05-03T09:17:25.025Z</time></trkpt><trkpt lat="45.6359028" lon="8.2148852"><ele>534.0</ele><time>2026-05-03T09:17:27.025Z</time></trkpt><trkpt lat="45.6359807" lon="8.2148962"><ele>534.0</ele><time>2026-05-03T09:17:30.034Z</time></trkpt><trkpt lat="45.6360617" lon="8.2149159"><ele>534.0</ele><time>2026-05-03T09:17:32.03Z</time></trkpt><trkpt lat="45.6361483" lon="8.2149819"><ele>535.0000000000001</ele><time>2026-05-03T09:17:34.029Z</time></trkpt><trkpt lat="45.636227" lon="8.2149928"><ele>536.0</ele><time>2026-05-03T09:17:36.017Z</time></trkpt><trkpt lat="45.6362793" lon="8.2150435"><ele>537.0</ele><time>2026-05-03T09:17:38.04Z</time></trkpt><trkpt lat="45.6363544" lon="8.2150148"><ele>538.0</ele><time>2026-05-03T09:17:41.056Z</time></trkpt><trkpt lat="45.6364095" lon="8.2149589"><ele>539.0</ele><time>2026-05-03T09:17:45.006Z</time></trkpt><trkpt lat="45.6364835" lon="8.2149396"><ele>540.0000000000001</ele><time>2026-05-03T09:17:49.028Z</time></trkpt><trkpt lat="45.6365646" lon="8.2149355"><ele>541.0</ele><time>2026-05-03T09:17:52.039Z</time></trkpt><trkpt lat="45.6366545" lon="8.2148891"><ele>541.0</ele><time>2026-05-03T09:17:54.033Z</time></trkpt><trkpt lat="45.636747" lon="8.2148836"><ele>541.0</ele><time>2026-05-03T09:17:56.026Z</time></trkpt><trkpt lat="45.6368182" lon="8.2148762"><ele>541.0</ele><time>2026-05-03T09:17:58.039Z</time></trkpt><trkpt lat="45.6368866" lon="8.2148095"><ele>541.0</ele><time>2026-05-03T09:18:01.026Z</time></trkpt><trkpt lat="45.636935" lon="8.2147502"><ele>541.0</ele><time>2026-05-03T09:18:04.021Z</time></trkpt><trkpt lat="45.6369421" lon="8.2149021"><ele>541.0</ele><time>2026-05-03T09:18:08.03Z</time></trkpt><trkpt lat="45.6369551" lon="8.2150053"><ele>544.6666666666667</ele><time>2026-05-03T09:18:26.024Z</time></trkpt><trkpt lat="45.6370358" lon="8.215047"><ele>548.3333333333334</ele><time>2026-05-03T09:18:29.029Z</time></trkpt><trkpt lat="45.637098" lon="8.2150753"><ele>552.0</ele><time>2026-05-03T09:18:31.022Z</time></trkpt><trkpt lat="45.6371579" lon="8.2151106"><ele>555.6666666666666</ele><time>2026-05-03T09:18:33.026Z</time></trkpt><trkpt lat="45.6372487" lon="8.2151568"><ele>559.3333333333333</ele><time>2026-05-03T09:18:36.027Z</time></trkpt><trkpt lat="45.6373021" lon="8.2152419"><ele>563.0</ele><time>2026-05-03T09:18:38.026Z</time></trkpt><trkpt lat="45.6372919" lon="8.2153487"><ele>563.0</ele><time>2026-05-03T09:18:40.042Z</time></trkpt><trkpt lat="45.6372757" lon="8.2154733"><ele>563.0</ele><time>2026-05-03T09:18:42.034Z</time></trkpt><trkpt lat="45.6372586" lon="8.2156028"><ele>563.0</ele><time>2026-05-03T09:18:44.011Z</time></trkpt><trkpt lat="45.6372875" lon="8.2156873"><ele>563.0</ele><time>2026-05-03T09:18:46.031Z</time></trkpt><trkpt lat="45.6373739" lon="8.2157313"><ele>563.0</ele><time>2026-05-03T09:18:48.022Z</time></trkpt><trkpt lat="45.6374765" lon="8.2157571"><ele>563.0</ele><time>2026-05-03T09:18:50.026Z</time></trkpt><trkpt lat="45.6375605" lon="8.2157103"><ele>563.0</ele><time>2026-05-03T09:18:52.031Z</time></trkpt><trkpt lat="45.6376452" lon="8.2156324"><ele>563.0</ele><time>2026-05-03T09:18:54.035Z</time></trkpt><trkpt lat="45.6377243" lon="8.2155467"><ele>563.0</ele><time>2026-05-03T09:18:56.038Z</time></trkpt><trkpt lat="45.6378299" lon="8.2155064"><ele>563.0</ele><time>2026-05-03T09:18:58.04Z</time></trkpt><trkpt lat="45.6379181" lon="8.2155285"><ele>563.0</ele><time>2026-05-03T09:19:00.031Z</time></trkpt><trkpt lat="45.6380134" lon="8.2155625"><ele>566.8333333333333</ele><time>2026-05-03T09:19:02.042Z</time></trkpt><trkpt lat="45.6380892" lon="8.2155855"><ele>570.6666666666666</ele><time>2026-05-03T09:19:04.032Z</time></trkpt><trkpt lat="45.6381651" lon="8.2154994"><ele>574.5</ele><time>2026-05-03T09:19:06.056Z</time></trkpt><trkpt lat="45.6382003" lon="8.2154132"><ele>578.3333333333334</ele><time>2026-05-03T09:19:07.025Z</time></trkpt><trkpt lat="45.6382289" lon="8.2153207"><ele>582.1666666666667</ele><time>2026-05-03T09:19:08.026Z</time></trkpt><trkpt lat="45.6382608" lon="8.2151633"><ele>586.0</ele><time>2026-05-03T09:19:10.014Z</time></trkpt><trkpt lat="45.6382512" lon="8.2150118"><ele>586.0</ele><time>2026-05-03T09:19:12.037Z</time></trkpt><trkpt lat="45.6381996" lon="8.2148783"><ele>586.0</ele><time>2026-05-03T09:19:14.03Z</time></trkpt><trkpt lat="45.6382093" lon="8.2147221"><ele>586.0</ele><time>2026-05-03T09:19:16.018Z</time></trkpt><trkpt lat="45.6382787" lon="8.2146364"><ele>586.0</ele><time>2026-05-03T09:19:18.023Z</time></trkpt><trkpt lat="45.6383789" lon="8.214646"><ele>586.0</ele><time>2026-05-03T09:19:20.016Z</time></trkpt><trkpt lat="45.6384923" lon="8.2146969"><ele>586.6</ele><time>2026-05-03T09:19:22.021Z</time></trkpt><trkpt lat="45.6385547" lon="8.2147233"><ele>587.2</ele><time>2026-05-03T09:19:23.045Z</time></trkpt><trkpt lat="45.6386621" lon="8.2147177"><ele>587.8</ele><time>2026-05-03T09:19:25.028Z</time></trkpt><trkpt lat="45.6387615" lon="8.2146643"><ele>588.4</ele><time>2026-05-03T09:19:27.022Z</time></trkpt><trkpt lat="45.6388568" lon="8.2145778"><ele>589.0</ele><time>2026-05-03T09:19:29.022Z</time></trkpt><trkpt lat="45.6389484" lon="8.2145141"><ele>592.3333333333334</ele><time>2026-05-03T09:19:31.022Z</time></trkpt><trkpt lat="45.6390142" lon="8.2144757"><ele>595.6666666666667</ele><time>2026-05-03T09:19:33.024Z</time></trkpt><trkpt lat="45.6390668" lon="8.2144147"><ele>599.0</ele><time>2026-05-03T09:19:35.021Z</time></trkpt><trkpt lat="45.6391232" lon="8.2143551"><ele>602.3333333333334</ele><time>2026-05-03T09:19:37.031Z</time></trkpt><trkpt lat="45.63919" lon="8.2142922"><ele>605.6666666666666</ele><time>2026-05-03T09:19:39.024Z</time></trkpt><trkpt lat="45.6392678" lon="8.2142126"><ele>609.0</ele><time>2026-05-03T09:19:41.03Z</time></trkpt><trkpt lat="45.639355" lon="8.2141704"><ele>609.0</ele><time>2026-05-03T09:19:43.036Z</time></trkpt><trkpt lat="45.6394606" lon="8.2141708"><ele>609.0</ele><time>2026-05-03T09:19:45.024Z</time></trkpt><trkpt lat="45.6395425" lon="8.2141795"><ele>609.0</ele><time>2026-05-03T09:19:47.021Z</time></trkpt><trkpt lat="45.6396138" lon="8.2141635"><ele>609.0</ele><time>2026-05-03T09:19:49.028Z</time></trkpt><trkpt lat="45.6397192" lon="8.2141458"><ele>609.0</ele><time>2026-05-03T09:19:51.007Z</time></trkpt><trkpt lat="45.639817" lon="8.2141266"><ele>611.6666666666666</ele><time>2026-05-03T09:19:53.027Z</time></trkpt><trkpt lat="45.6398966" lon="8.2141867"><ele>614.3333333333334</ele><time>2026-05-03T09:19:55.017Z</time></trkpt><trkpt lat="45.6399516" lon="8.2142493"><ele>617.0</ele><time>2026-05-03T09:19:57.024Z</time></trkpt><trkpt lat="45.6400166" lon="8.2143536"><ele>619.6666666666667</ele><time>2026-05-03T09:19:59.036Z</time></trkpt><trkpt lat="45.6400913" lon="8.2144182"><ele>622.3333333333334</ele><time>2026-05-03T09:20:01.019Z</time></trkpt><trkpt lat="45.6401623" lon="8.2144541"><ele>625.0</ele><time>2026-05-03T09:20:03.024Z</time></trkpt><trkpt lat="45.640219" lon="8.2145006"><ele>625.8</ele><time>2026-05-03T09:20:05.016Z</time></trkpt><trkpt lat="45.6403113" lon="8.2145663"><ele>626.6</ele><time>2026-05-03T09:20:07.034Z</time></trkpt><trkpt lat="45.6403721" lon="8.2146128"><ele>627.4</ele><time>2026-05-03T09:20:08.029Z</time></trkpt><trkpt lat="45.6404766" lon="8.214679"><ele>628.2</ele><time>2026-05-03T09:20:10.05Z</time></trkpt><trkpt lat="45.64054" lon="8.2147026"><ele>629.0</ele><time>2026-05-03T09:20:11.031Z</time></trkpt><trkpt lat="45.6406493" lon="8.2147095"><ele>629.0</ele><time>2026-05-03T09:20:13.012Z</time></trkpt><trkpt lat="45.6407534" lon="8.2146538"><ele>629.0</ele><time>2026-05-03T09:20:15.019Z</time></trkpt><trkpt lat="45.6408173" lon="8.2145795"><ele>629.0</ele><time>2026-05-03T09:20:17.029Z</time></trkpt><trkpt lat="45.6409054" lon="8.2144882"><ele>629.0</ele><time>2026-05-03T09:20:19.014Z</time></trkpt><trkpt lat="45.6409722" lon="8.2143693"><ele>629.0</ele><time>2026-05-03T09:20:21.03Z</time></trkpt><trkpt lat="45.6410311" lon="8.2142184"><ele>629.0</ele><time>2026-05-03T09:20:23.019Z</time></trkpt><trkpt lat="45.6410697" lon="8.214127"><ele>629.0</ele><time>2026-05-03T09:20:24.033Z</time></trkpt><trkpt lat="45.6411216" lon="8.2140489"><ele>629.0</ele><time>2026-05-03T09:20:25.007Z</time></trkpt><trkpt lat="45.6411897" lon="8.2139907"><ele>629.0</ele><time>2026-05-03T09:20:26.029Z</time></trkpt><trkpt lat="45.6412609" lon="8.2139313"><ele>629.0</ele><time>2026-05-03T09:20:27.019Z</time></trkpt><trkpt lat="45.6413404" lon="8.2139325"><ele>629.0</ele><time>2026-05-03T09:20:28.027Z</time></trkpt><trkpt lat="45.6414146" lon="8.2139474"><ele>629.8333333333333</ele><time>2026-05-03T09:20:29.025Z</time></trkpt><trkpt lat="45.6414953" lon="8.2139644"><ele>630.6666666666666</ele><time>2026-05-03T09:20:30.037Z</time></trkpt><trkpt lat="45.6415819" lon="8.2139815"><ele>631.5</ele><time>2026-05-03T09:20:31.045Z</time></trkpt><trkpt lat="45.6416761" lon="8.2139852"><ele>632.3333333333334</ele><time>2026-05-03T09:20:32.044Z</time></trkpt><trkpt lat="45.6417436" lon="8.2140145"><ele>633.1666666666667</ele><time>2026-05-03T09:20:33.019Z</time></trkpt><trkpt lat="45.6417963" lon="8.214066"><ele>634.0</ele><time>2026-05-03T09:20:34.03Z</time></trkpt><trkpt lat="45.641848" lon="8.214119"><ele>635.6</ele><time>2026-05-03T09:20:35.017Z</time></trkpt><trkpt lat="45.6418983" lon="8.2141759"><ele>637.2</ele><time>2026-05-03T09:20:36.032Z</time></trkpt><trkpt lat="45.6419536" lon="8.2143003"><ele>638.8000000000001</ele><time>2026-05-03T09:20:38.02Z</time></trkpt><trkpt lat="45.6420107" lon="8.2144296"><ele>640.4</ele><time>2026-05-03T09:20:40.025Z</time></trkpt><trkpt lat="45.6420604" lon="8.2145562"><ele>642.0</ele><time>2026-05-03T09:20:42.018Z</time></trkpt><trkpt lat="45.6421594" lon="8.2145861"><ele>645.2</ele><time>2026-05-03T09:20:44.033Z</time></trkpt><trkpt lat="45.6422329" lon="8.2145895"><ele>648.4000000000001</ele><time>2026-05-03T09:20:46.015Z</time></trkpt><trkpt lat="45.6423404" lon="8.2145436"><ele>651.5999999999999</ele><time>2026-05-03T09:20:48.013Z</time></trkpt><trkpt lat="45.6424015" lon="8.2144392"><ele>654.8</ele><time>2026-05-03T09:20:50.021Z</time></trkpt><trkpt lat="45.6424687" lon="8.2142996"><ele>658.0</ele><time>2026-05-03T09:20:52.017Z</time></trkpt><trkpt lat="45.6425783" lon="8.2142706"><ele>658.0</ele><time>2026-05-03T09:20:54.011Z</time></trkpt><trkpt lat="45.6426398" lon="8.2142958"><ele>658.0</ele><time>2026-05-03T09:20:55.019Z</time></trkpt><trkpt lat="45.6427078" lon="8.2143244"><ele>658.0</ele><time>2026-05-03T09:20:56.034Z</time></trkpt><trkpt lat="45.6427762" lon="8.2143551"><ele>658.0</ele><time>2026-05-03T09:20:57.026Z</time></trkpt><trkpt lat="45.6428464" lon="8.214393"><ele>658.0</ele><time>2026-05-03T09:20:58.037Z</time></trkpt><trkpt lat="45.6429068" lon="8.2144535"><ele>658.0</ele><time>2026-05-03T09:20:59.024Z</time></trkpt><trkpt lat="45.6429525" lon="8.214528"><ele>658.0</ele><time>2026-05-03T09:21:00.048Z</time></trkpt><trkpt lat="45.6430105" lon="8.2145847"><ele>658.8571428571429</ele><time>2026-05-03T09:21:01.04Z</time></trkpt><trkpt lat="45.6430768" lon="8.214634"><ele>659.7142857142858</ele><time>2026-05-03T09:21:02.021Z</time></trkpt><trkpt lat="45.6431389" lon="8.2146648"><ele>660.5714285714286</ele><time>2026-05-03T09:21:03.021Z</time></trkpt><trkpt lat="45.6432035" lon="8.2146855"><ele>661.4285714285714</ele><time>2026-05-03T09:21:04.014Z</time></trkpt><trkpt lat="45.64327" lon="8.2147106"><ele>662.2857142857143</ele><time>2026-05-03T09:21:05.02Z</time></trkpt><trkpt lat="45.6433399" lon="8.2147215"><ele>663.1428571428571</ele><time>2026-05-03T09:21:06.021Z</time></trkpt><trkpt lat="45.6434068" lon="8.2147156"><ele>664.0</ele><time>2026-05-03T09:21:07.022Z</time></trkpt><trkpt lat="45.6434692" lon="8.214681"><ele>664.0</ele><time>2026-05-03T09:21:08.012Z</time></trkpt><trkpt lat="45.6435352" lon="8.2146453"><ele>664.0</ele><time>2026-05-03T09:21:09.022Z</time></trkpt><trkpt lat="45.6436067" lon="8.2145993"><ele>664.0</ele><time>2026-05-03T09:21:10.019Z</time></trkpt><trkpt lat="45.6436832" lon="8.2145616"><ele>664.0</ele><time>2026-05-03T09:21:11.007Z</time></trkpt><trkpt lat="45.64376" lon="8.2145234"><ele>664.0</ele><time>2026-05-03T09:21:12.025Z</time></trkpt><trkpt lat="45.6438285" lon="8.214484"><ele>664.0</ele><time>2026-05-03T09:21:13.035Z</time></trkpt><trkpt lat="45.6439051" lon="8.2144416"><ele>662.6666666666667</ele><time>2026-05-03T09:21:14.031Z</time></trkpt><trkpt lat="45.6439859" lon="8.214386"><ele>661.3333333333334</ele><time>2026-05-03T09:21:15.02Z</time></trkpt><trkpt lat="45.6440637" lon="8.2143096"><ele>660.0</ele><time>2026-05-03T09:21:16.026Z</time></trkpt><trkpt lat="45.644134" lon="8.2142494"><ele>658.6666666666666</ele><time>2026-05-03T09:21:17.043Z</time></trkpt><trkpt lat="45.6442033" lon="8.2142045"><ele>657.3333333333333</ele><time>2026-05-03T09:21:18.026Z</time></trkpt><trkpt lat="45.6442523" lon="8.2141375"><ele>656.0</ele><time>2026-05-03T09:21:19.034Z</time></trkpt><trkpt lat="45.6443599" lon="8.2140232"><ele>656.0</ele><time>2026-05-03T09:21:21.041Z</time></trkpt><trkpt lat="45.6444238" lon="8.2140181"><ele>656.0</ele><time>2026-05-03T09:21:22.031Z</time></trkpt><trkpt lat="45.6444955" lon="8.2140415"><ele>656.0</ele><time>2026-05-03T09:21:23.039Z</time></trkpt><trkpt lat="45.6445697" lon="8.2141088"><ele>656.0</ele><time>2026-05-03T09:21:24.02Z</time></trkpt><trkpt lat="45.6446435" lon="8.2141882"><ele>656.0</ele><time>2026-05-03T09:21:25.016Z</time></trkpt><trkpt lat="45.6446978" lon="8.2142716"><ele>656.0</ele><time>2026-05-03T09:21:26.021Z</time></trkpt><trkpt lat="45.6447769" lon="8.2143421"><ele>655.7142857142857</ele><time>2026-05-03T09:21:28.013Z</time></trkpt><trkpt lat="45.6448332" lon="8.2144096"><ele>655.4285714285714</ele><time>2026-05-03T09:21:30.029Z</time></trkpt><trkpt lat="45.6448779" lon="8.2144874"><ele>655.1428571428571</ele><time>2026-05-03T09:21:32.032Z</time></trkpt><trkpt lat="45.6448765" lon="8.2146043"><ele>654.8571428571429</ele><time>2026-05-03T09:21:34.996Z</time></trkpt><trkpt lat="45.6448476" lon="8.2146907"><ele>654.5714285714286</ele><time>2026-05-03T09:21:37.024Z</time></trkpt><trkpt lat="45.6448511" lon="8.214811"><ele>654.2857142857142</ele><time>2026-05-03T09:21:40.033Z</time></trkpt><trkpt lat="45.6448401" lon="8.2149091"><ele>654.0</ele><time>2026-05-03T09:21:42.027Z</time></trkpt><trkpt lat="45.6448823" lon="8.2149876"><ele>655.0</ele><time>2026-05-03T09:21:45.024Z</time></trkpt><trkpt lat="45.6449432" lon="8.2150664"><ele>656.0</ele><time>2026-05-03T09:21:48.037Z</time></trkpt><trkpt lat="45.6449968" lon="8.2151233"><ele>657.0</ele><time>2026-05-03T09:21:49.026Z</time></trkpt><trkpt lat="45.6450486" lon="8.2151776"><ele>658.0</ele><time>2026-05-03T09:21:50.042Z</time></trkpt><trkpt lat="45.6449824" lon="8.2152657"><ele>659.0</ele><time>2026-05-03T09:21:54.03Z</time></trkpt><trkpt lat="45.6449182" lon="8.2152953"><ele>660.0</ele><time>2026-05-03T09:21:55.033Z</time></trkpt><trkpt lat="45.6448601" lon="8.2153386"><ele>661.0</ele><time>2026-05-03T09:21:56.016Z</time></trkpt><trkpt lat="45.6448452" lon="8.2154346"><ele>661.0</ele><time>2026-05-03T09:21:58.029Z</time></trkpt><trkpt lat="45.6448925" lon="8.2155214"><ele>661.0</ele><time>2026-05-03T09:22:01.028Z</time></trkpt><trkpt lat="45.6449855" lon="8.2154697"><ele>661.0</ele><time>2026-05-03T09:22:04.025Z</time></trkpt><trkpt lat="45.6451109" lon="8.2154984"><ele>661.0</ele><time>2026-05-03T09:22:06.02Z</time></trkpt><trkpt lat="45.6451913" lon="8.2155203"><ele>661.0</ele><time>2026-05-03T09:22:07.029Z</time></trkpt><trkpt lat="45.6452703" lon="8.2155463"><ele>662.3333333333334</ele><time>2026-05-03T09:22:08.022Z</time></trkpt><trkpt lat="45.6453421" lon="8.2155641"><ele>663.6666666666667</ele><time>2026-05-03T09:22:09.02Z</time></trkpt><trkpt lat="45.6454106" lon="8.2155705"><ele>665.0</ele><time>2026-05-03T09:22:10.027Z</time></trkpt><trkpt lat="45.6454816" lon="8.2155677"><ele>666.3333333333334</ele><time>2026-05-03T09:22:11.037Z</time></trkpt><trkpt lat="45.6455585" lon="8.2155537"><ele>667.6666666666666</ele><time>2026-05-03T09:22:12.022Z</time></trkpt><trkpt lat="45.6456314" lon="8.2155491"><ele>669.0</ele><time>2026-05-03T09:22:13.018Z</time></trkpt><trkpt lat="45.6457322" lon="8.2155401"><ele>669.0</ele><time>2026-05-03T09:22:15.027Z</time></trkpt><trkpt lat="45.6458016" lon="8.2154796"><ele>669.0</ele><time>2026-05-03T09:22:17.015Z</time></trkpt><trkpt lat="45.6458603" lon="8.2153339"><ele>669.0</ele><time>2026-05-03T09:22:19.022Z</time></trkpt><trkpt lat="45.6459675" lon="8.2152325"><ele>669.0</ele><time>2026-05-03T09:22:21.031Z</time></trkpt><trkpt lat="45.646039" lon="8.2151791"><ele>669.0</ele><time>2026-05-03T09:22:22.04Z</time></trkpt><trkpt lat="45.6461092" lon="8.2151377"><ele>669.1666666666666</ele><time>2026-05-03T09:22:23.022Z</time></trkpt><trkpt lat="45.6461746" lon="8.2151113"><ele>669.3333333333334</ele><time>2026-05-03T09:22:24.026Z</time></trkpt><trkpt lat="45.6462586" lon="8.2150948"><ele>669.5</ele><time>2026-05-03T09:22:25.03Z</time></trkpt><trkpt lat="45.6463397" lon="8.2150774"><ele>669.6666666666667</ele><time>2026-05-03T09:22:26.045Z</time></trkpt><trkpt lat="45.6464138" lon="8.2150668"><ele>669.8333333333334</ele><time>2026-05-03T09:22:27.027Z</time></trkpt><trkpt lat="45.6465376" lon="8.2150139"><ele>670.0</ele><time>2026-05-03T09:22:29.039Z</time></trkpt><trkpt lat="45.6466086" lon="8.2149963"><ele>670.0</ele><time>2026-05-03T09:22:30.024Z</time></trkpt><trkpt lat="45.6466771" lon="8.2149869"><ele>670.0</ele><time>2026-05-03T09:22:31.031Z</time></trkpt><trkpt lat="45.6468119" lon="8.2149863"><ele>670.0</ele><time>2026-05-03T09:22:33.038Z</time></trkpt><trkpt lat="45.6468793" lon="8.2149992"><ele>670.0</ele><time>2026-05-03T09:22:34.03Z</time></trkpt><trkpt lat="45.6469411" lon="8.2150191"><ele>670.0</ele><time>2026-05-03T09:22:35.021Z</time></trkpt><trkpt lat="45.6470575" lon="8.2150215"><ele>669.8</ele><time>2026-05-03T09:22:37.026Z</time></trkpt><trkpt lat="45.6471623" lon="8.2150302"><ele>669.6</ele><time>2026-05-03T09:22:39.037Z</time></trkpt><trkpt lat="45.6472481" lon="8.2150284"><ele>669.4000000000001</ele><time>2026-05-03T09:22:41.025Z</time></trkpt><trkpt lat="45.6473574" lon="8.2150142"><ele>669.2</ele><time>2026-05-03T09:22:44.013Z</time></trkpt><trkpt lat="45.6474815" lon="8.2150445"><ele>669.0</ele><time>2026-05-03T09:22:46.023Z</time></trkpt><trkpt lat="45.6475447" lon="8.2150552"><ele>669.0</ele><time>2026-05-03T09:22:47.021Z</time></trkpt><trkpt lat="45.6476164" lon="8.2150644"><ele>669.0</ele><time>2026-05-03T09:22:49.028Z</time></trkpt><trkpt lat="45.647678" lon="8.2150961"><ele>669.0</ele><time>2026-05-03T09:22:51.03Z</time></trkpt><trkpt lat="45.6477689" lon="8.2151168"><ele>669.0</ele><time>2026-05-03T09:22:53.027Z</time></trkpt><trkpt lat="45.6478598" lon="8.215136"><ele>669.0</ele><time>2026-05-03T09:22:55.01Z</time></trkpt><trkpt lat="45.6479474" lon="8.2151685"><ele>669.0</ele><time>2026-05-03T09:22:57.006Z</time></trkpt><trkpt lat="45.6479952" lon="8.2152504"><ele>670.3333333333334</ele><time>2026-05-03T09:23:00.038Z</time></trkpt><trkpt lat="45.6480467" lon="8.2153469"><ele>671.6666666666666</ele><time>2026-05-03T09:23:04.027Z</time></trkpt><trkpt lat="45.6480657" lon="8.2154571"><ele>673.0</ele><time>2026-05-03T09:23:06.014Z</time></trkpt><trkpt lat="45.6480658" lon="8.2155982"><ele>674.3333333333333</ele><time>2026-05-03T09:23:08.035Z</time></trkpt><trkpt lat="45.6481039" lon="8.2156887"><ele>675.6666666666666</ele><time>2026-05-03T09:23:10.034Z</time></trkpt><trkpt lat="45.6481883" lon="8.2157163"><ele>677.0</ele><time>2026-05-03T09:23:12.028Z</time></trkpt><trkpt lat="45.6482648" lon="8.2157413"><ele>679.2</ele><time>2026-05-03T09:23:14.03Z</time></trkpt><trkpt lat="45.648354" lon="8.2157596"><ele>681.4000000000001</ele><time>2026-05-03T09:23:16.033Z</time></trkpt><trkpt lat="45.6484467" lon="8.2158034"><ele>683.5999999999999</ele><time>2026-05-03T09:23:18.026Z</time></trkpt><trkpt lat="45.6485168" lon="8.2159065"><ele>685.8</ele><time>2026-05-03T09:23:20.026Z</time></trkpt><trkpt lat="45.6486109" lon="8.2159464"><ele>688.0</ele><time>2026-05-03T09:23:22.015Z</time></trkpt><trkpt lat="45.6486792" lon="8.216022"><ele>691.5999999999999</ele><time>2026-05-03T09:23:24.033Z</time></trkpt><trkpt lat="45.6487408" lon="8.2161137"><ele>695.1999999999999</ele><time>2026-05-03T09:23:26.022Z</time></trkpt><trkpt lat="45.6488155" lon="8.2160506"><ele>698.8</ele><time>2026-05-03T09:23:28.052Z</time></trkpt><trkpt lat="45.6489083" lon="8.2159778"><ele>702.4</ele><time>2026-05-03T09:23:30.044Z</time></trkpt><trkpt lat="45.649016" lon="8.2159365"><ele>706.0</ele><time>2026-05-03T09:23:32.027Z</time></trkpt><trkpt lat="45.6490823" lon="8.2159149"><ele>706.0</ele><time>2026-05-03T09:23:33.017Z</time></trkpt><trkpt lat="45.6491955" lon="8.2158715"><ele>706.0</ele><time>2026-05-03T09:23:35.018Z</time></trkpt><trkpt lat="45.6492964" lon="8.215812"><ele>706.0</ele><time>2026-05-03T09:23:37.027Z</time></trkpt><trkpt lat="45.6493797" lon="8.2157502"><ele>706.0</ele><time>2026-05-03T09:23:38.02Z</time></trkpt><trkpt lat="45.6494568" lon="8.2157065"><ele>706.0</ele><time>2026-05-03T09:23:39.029Z</time></trkpt><trkpt lat="45.649532" lon="8.2156782"><ele>705.1999999999999</ele><time>2026-05-03T09:23:40.039Z</time></trkpt><trkpt lat="45.6496407" lon="8.2157451"><ele>704.4</ele><time>2026-05-03T09:23:42.014Z</time></trkpt><trkpt lat="45.6497005" lon="8.2158338"><ele>703.6</ele><time>2026-05-03T09:23:43.02Z</time></trkpt><trkpt lat="45.649769" lon="8.2159499"><ele>702.8</ele><time>2026-05-03T09:23:44.037Z</time></trkpt><trkpt lat="45.6498352" lon="8.2160635"><ele>702.0</ele><time>2026-05-03T09:23:45.019Z</time></trkpt><trkpt lat="45.6499053" lon="8.2161142"><ele>702.0</ele><time>2026-05-03T09:23:46.011Z</time></trkpt><trkpt lat="45.6499843" lon="8.2161444"><ele>702.0</ele><time>2026-05-03T09:23:47.029Z</time></trkpt><trkpt lat="45.6500686" lon="8.2161933"><ele>702.0</ele><time>2026-05-03T09:23:48.016Z</time></trkpt><trkpt lat="45.6501473" lon="8.2162449"><ele>702.0</ele><time>2026-05-03T09:23:49.005Z</time></trkpt><trkpt lat="45.6502233" lon="8.2162757"><ele>702.0</ele><time>2026-05-03T09:23:50.01Z</time></trkpt><trkpt lat="45.6502996" lon="8.2162713"><ele>702.0</ele><time>2026-05-03T09:23:51.045Z</time></trkpt><trkpt lat="45.6504038" lon="8.2162419"><ele>702.2</ele><time>2026-05-03T09:23:52.027Z</time></trkpt><trkpt lat="45.6505219" lon="8.2162369"><ele>702.4000000000001</ele><time>2026-05-03T09:23:53.01Z</time></trkpt><trkpt lat="45.6506487" lon="8.216254"><ele>702.5999999999999</ele><time>2026-05-03T09:23:54.027Z</time></trkpt><trkpt lat="45.6507539" lon="8.2162662"><ele>702.8</ele><time>2026-05-03T09:23:55.019Z</time></trkpt><trkpt lat="45.6508471" lon="8.2162708"><ele>703.0</ele><time>2026-05-03T09:23:56.02Z</time></trkpt><trkpt lat="45.6509227" lon="8.2162968"><ele>703.0</ele><time>2026-05-03T09:23:57.023Z</time></trkpt><trkpt lat="45.6509816" lon="8.2163468"><ele>703.0</ele><time>2026-05-03T09:23:58.023Z</time></trkpt><trkpt lat="45.6510564" lon="8.2164098"><ele>703.0</ele><time>2026-05-03T09:23:59.022Z</time></trkpt><trkpt lat="45.6511404" lon="8.2164789"><ele>703.0</ele><time>2026-05-03T09:24:00.033Z</time></trkpt><trkpt lat="45.6512169" lon="8.2165441"><ele>703.0</ele><time>2026-05-03T09:24:01.021Z</time></trkpt><trkpt lat="45.6512921" lon="8.2166131"><ele>703.0</ele><time>2026-05-03T09:24:02.014Z</time></trkpt><trkpt lat="45.6513528" lon="8.2166689"><ele>704.5999999999999</ele><time>2026-05-03T09:24:03.024Z</time></trkpt><trkpt lat="45.6514111" lon="8.2167206"><ele>706.1999999999999</ele><time>2026-05-03T09:24:04.029Z</time></trkpt><trkpt lat="45.6515451" lon="8.216786"><ele>707.8</ele><time>2026-05-03T09:24:06.023Z</time></trkpt><trkpt lat="45.6516298" lon="8.2167971"><ele>709.4</ele><time>2026-05-03T09:24:07.012Z</time></trkpt><trkpt lat="45.6517211" lon="8.2168125"><ele>711.0</ele><time>2026-05-03T09:24:08.02Z</time></trkpt><trkpt lat="45.651795" lon="8.2168353"><ele>711.0</ele><time>2026-05-03T09:24:09.031Z</time></trkpt><trkpt lat="45.6518645" lon="8.2169027"><ele>711.0</ele><time>2026-05-03T09:24:10.045Z</time></trkpt><trkpt lat="45.6519367" lon="8.2169825"><ele>711.0</ele><time>2026-05-03T09:24:11.015Z</time></trkpt><trkpt lat="45.6520072" lon="8.2170617"><ele>711.0</ele><time>2026-05-03T09:24:12.015Z</time></trkpt><trkpt lat="45.652075" lon="8.217136"><ele>711.0</ele><time>2026-05-03T09:24:13.025Z</time></trkpt><trkpt lat="45.6521268" lon="8.217198"><ele>711.0</ele><time>2026-05-03T09:24:14.023Z</time></trkpt><trkpt lat="45.6522092" lon="8.2172978"><ele>709.5999999999999</ele><time>2026-05-03T09:24:16.02Z</time></trkpt><trkpt lat="45.6522791" lon="8.2173134"><ele>708.2</ele><time>2026-05-03T09:24:18.033Z</time></trkpt><trkpt lat="45.6523547" lon="8.2172804"><ele>706.8</ele><time>2026-05-03T09:24:20.033Z</time></trkpt><trkpt lat="45.6524623" lon="8.2172158"><ele>705.4000000000001</ele><time>2026-05-03T09:24:22.027Z</time></trkpt><trkpt lat="45.6525826" lon="8.2171588"><ele>704.0</ele><time>2026-05-03T09:24:24.02Z</time></trkpt><trkpt lat="45.652675" lon="8.2170813"><ele>704.0</ele><time>2026-05-03T09:24:26.018Z</time></trkpt><trkpt lat="45.6527576" lon="8.2170346"><ele>704.0</ele><time>2026-05-03T09:24:28.017Z</time></trkpt><trkpt lat="45.6528397" lon="8.2170474"><ele>704.0</ele><time>2026-05-03T09:24:30.021Z</time></trkpt><trkpt lat="45.652938" lon="8.2170003"><ele>704.0</ele><time>2026-05-03T09:24:32.007Z</time></trkpt><trkpt lat="45.6530121" lon="8.2169606"><ele>704.0</ele><time>2026-05-03T09:24:33.012Z</time></trkpt><trkpt lat="45.6530914" lon="8.2169363"><ele>704.0</ele><time>2026-05-03T09:24:34.033Z</time></trkpt><trkpt lat="45.6531608" lon="8.2168857"><ele>704.7142857142858</ele><time>2026-05-03T09:24:35.019Z</time></trkpt><trkpt lat="45.6532107" lon="8.21683"><ele>705.4285714285714</ele><time>2026-05-03T09:24:36.021Z</time></trkpt><trkpt lat="45.6532399" lon="8.2167478"><ele>706.1428571428571</ele><time>2026-05-03T09:24:37.022Z</time></trkpt><trkpt lat="45.6532522" lon="8.216656"><ele>706.8571428571429</ele><time>2026-05-03T09:24:38.016Z</time></trkpt><trkpt lat="45.6532533" lon="8.2165274"><ele>707.5714285714286</ele><time>2026-05-03T09:24:39.018Z</time></trkpt><trkpt lat="45.6532608" lon="8.216413"><ele>708.2857142857143</ele><time>2026-05-03T09:24:40.018Z</time></trkpt><trkpt lat="45.6532461" lon="8.2163056"><ele>709.0</ele><time>2026-05-03T09:24:42.009Z</time></trkpt><trkpt lat="45.6532188" lon="8.216196"><ele>706.8333333333334</ele><time>2026-05-03T09:24:44.01Z</time></trkpt><trkpt lat="45.6531663" lon="8.2161308"><ele>704.6666666666667</ele><time>2026-05-03T09:24:46.018Z</time></trkpt><trkpt lat="45.6531285" lon="8.2160488"><ele>702.5</ele><time>2026-05-03T09:24:48.012Z</time></trkpt><trkpt lat="45.6531645" lon="8.2159479"><ele>700.3333333333334</ele><time>2026-05-03T09:24:50.019Z</time></trkpt><trkpt lat="45.6532347" lon="8.2158242"><ele>698.1666666666666</ele><time>2026-05-03T09:24:52.019Z</time></trkpt><trkpt lat="45.6532636" lon="8.2157161"><ele>696.0</ele><time>2026-05-03T09:24:54.038Z</time></trkpt><trkpt lat="45.6532838" lon="8.2156228"><ele>694.3333333333334</ele><time>2026-05-03T09:24:56.012Z</time></trkpt><trkpt lat="45.653276" lon="8.2155325"><ele>692.6666666666666</ele><time>2026-05-03T09:24:58.008Z</time></trkpt><trkpt lat="45.6533127" lon="8.2154115"><ele>691.0</ele><time>2026-05-03T09:25:00.022Z</time></trkpt><trkpt lat="45.6532638" lon="8.2153195"><ele>689.3333333333333</ele><time>2026-05-03T09:25:02.027Z</time></trkpt><trkpt lat="45.6531891" lon="8.2152662"><ele>687.6666666666666</ele><time>2026-05-03T09:25:03.015Z</time></trkpt><trkpt lat="45.6531254" lon="8.2151244"><ele>686.0</ele><time>2026-05-03T09:25:05.02Z</time></trkpt><trkpt lat="45.6530515" lon="8.2150112"><ele>686.0</ele><time>2026-05-03T09:25:07.021Z</time></trkpt><trkpt lat="45.6530407" lon="8.2148936"><ele>686.0</ele><time>2026-05-03T09:25:09.034Z</time></trkpt><trkpt lat="45.653057" lon="8.2147316"><ele>686.0</ele><time>2026-05-03T09:25:11.033Z</time></trkpt><trkpt lat="45.6531038" lon="8.2145902"><ele>686.0</ele><time>2026-05-03T09:25:13.025Z</time></trkpt><trkpt lat="45.6532171" lon="8.2144668"><ele>686.0</ele><time>2026-05-03T09:25:15.005Z</time></trkpt><trkpt lat="45.6532952" lon="8.2143991"><ele>684.3333333333333</ele><time>2026-05-03T09:25:16.023Z</time></trkpt><trkpt lat="45.6533661" lon="8.2143146"><ele>682.6666666666666</ele><time>2026-05-03T09:25:17.008Z</time></trkpt><trkpt lat="45.6534232" lon="8.2142291"><ele>681.0</ele><time>2026-05-03T09:25:18.018Z</time></trkpt><trkpt lat="45.6534692" lon="8.2141483"><ele>679.3333333333334</ele><time>2026-05-03T09:25:19.017Z</time></trkpt><trkpt lat="45.6535293" lon="8.2140637"><ele>677.6666666666667</ele><time>2026-05-03T09:25:21.017Z</time></trkpt><trkpt lat="45.6536242" lon="8.2140914"><ele>676.0</ele><time>2026-05-03T09:25:23.022Z</time></trkpt><trkpt lat="45.6536726" lon="8.2142009"><ele>674.8</ele><time>2026-05-03T09:25:25.019Z</time></trkpt><trkpt lat="45.6537005" lon="8.2143411"><ele>673.5999999999999</ele><time>2026-05-03T09:25:27.029Z</time></trkpt><trkpt lat="45.6537431" lon="8.2144827"><ele>672.4</ele><time>2026-05-03T09:25:29.021Z</time></trkpt><trkpt lat="45.6538117" lon="8.2145431"><ele>671.2</ele><time>2026-05-03T09:25:32.022Z</time></trkpt><trkpt lat="45.6538877" lon="8.2144461"><ele>670.0</ele><time>2026-05-03T09:25:35.026Z</time></trkpt><trkpt lat="45.6539227" lon="8.2143555"><ele>670.0</ele><time>2026-05-03T09:25:36.05Z</time></trkpt><trkpt lat="45.6539669" lon="8.2142341"><ele>670.0</ele><time>2026-05-03T09:25:37.018Z</time></trkpt><trkpt lat="45.6540082" lon="8.2141225"><ele>670.0</ele><time>2026-05-03T09:25:38.01Z</time></trkpt><trkpt lat="45.6540467" lon="8.2139984"><ele>670.0</ele><time>2026-05-03T09:25:39.009Z</time></trkpt><trkpt lat="45.6540801" lon="8.2138781"><ele>670.0</ele><time>2026-05-03T09:25:40.02Z</time></trkpt><trkpt lat="45.6540969" lon="8.2137836"><ele>670.0</ele><time>2026-05-03T09:25:41.019Z</time></trkpt><trkpt lat="45.6541279" lon="8.2136785"><ele>670.5714285714286</ele><time>2026-05-03T09:25:42.026Z</time></trkpt><trkpt lat="45.6541571" lon="8.2135664"><ele>671.1428571428571</ele><time>2026-05-03T09:25:43.013Z</time></trkpt><trkpt lat="45.6541911" lon="8.2134662"><ele>671.7142857142858</ele><time>2026-05-03T09:25:44.009Z</time></trkpt><trkpt lat="45.6542452" lon="8.2133937"><ele>672.2857142857142</ele><time>2026-05-03T09:25:45.01Z</time></trkpt><trkpt lat="45.6543045" lon="8.2133414"><ele>672.8571428571429</ele><time>2026-05-03T09:25:46.016Z</time></trkpt><trkpt lat="45.6543587" lon="8.2132897"><ele>673.4285714285714</ele><time>2026-05-03T09:25:47.027Z</time></trkpt><trkpt lat="45.6544045" lon="8.2131991"><ele>674.0</ele><time>2026-05-03T09:25:48.048Z</time></trkpt><trkpt lat="45.654463" lon="8.2130983"><ele>671.5</ele><time>2026-05-03T09:25:49.011Z</time></trkpt><trkpt lat="45.6545271" lon="8.2129997"><ele>669.0</ele><time>2026-05-03T09:25:50.027Z</time></trkpt><trkpt lat="45.6545835" lon="8.2129344"><ele>666.5</ele><time>2026-05-03T09:25:51.018Z</time></trkpt><trkpt lat="45.6547071" lon="8.2128979"><ele>664.0</ele><time>2026-05-03T09:25:53.026Z</time></trkpt><trkpt lat="45.6547764" lon="8.2128552"><ele>661.5</ele><time>2026-05-03T09:25:54.009Z</time></trkpt><trkpt lat="45.6548528" lon="8.2128248"><ele>659.0</ele><time>2026-05-03T09:25:55.021Z</time></trkpt><trkpt lat="45.6549391" lon="8.2128107"><ele>659.0</ele><time>2026-05-03T09:25:56.028Z</time></trkpt><trkpt lat="45.6550213" lon="8.2127728"><ele>659.0</ele><time>2026-05-03T09:25:57.024Z</time></trkpt><trkpt lat="45.6550936" lon="8.2127356"><ele>659.0</ele><time>2026-05-03T09:25:58.03Z</time></trkpt><trkpt lat="45.6551836" lon="8.2127206"><ele>659.0</ele><time>2026-05-03T09:25:59.022Z</time></trkpt><trkpt lat="45.6552666" lon="8.212735"><ele>659.0</ele><time>2026-05-03T09:26:00.012Z</time></trkpt><trkpt lat="45.6553579" lon="8.212733"><ele>659.0</ele><time>2026-05-03T09:26:01.035Z</time></trkpt><trkpt lat="45.6554393" lon="8.2126977"><ele>658.6666666666666</ele><time>2026-05-03T09:26:02.034Z</time></trkpt><trkpt lat="45.6555474" lon="8.2126689"><ele>658.3333333333333</ele><time>2026-05-03T09:26:04.043Z</time></trkpt><trkpt lat="45.6556088" lon="8.2126027"><ele>658.0</ele><time>2026-05-03T09:26:05.054Z</time></trkpt><trkpt lat="45.6556754" lon="8.2125308"><ele>657.6666666666666</ele><time>2026-05-03T09:26:06.022Z</time></trkpt><trkpt lat="45.6557188" lon="8.2124425"><ele>657.3333333333334</ele><time>2026-05-03T09:26:07.022Z</time></trkpt><trkpt lat="45.6557561" lon="8.2123397"><ele>657.0</ele><time>2026-05-03T09:26:08.019Z</time></trkpt><trkpt lat="45.6558249" lon="8.2123151"><ele>657.0</ele><time>2026-05-03T09:26:10.02Z</time></trkpt><trkpt lat="45.6559146" lon="8.2122644"><ele>657.0</ele><time>2026-05-03T09:26:12.024Z</time></trkpt><trkpt lat="45.6559915" lon="8.2121844"><ele>657.0</ele><time>2026-05-03T09:26:14.017Z</time></trkpt><trkpt lat="45.6560544" lon="8.2120921"><ele>657.0</ele><time>2026-05-03T09:26:16.026Z</time></trkpt><trkpt lat="45.6561502" lon="8.2119786"><ele>657.0</ele><time>2026-05-03T09:26:18.018Z</time></trkpt><trkpt lat="45.6562245" lon="8.2119081"><ele>654.8</ele><time>2026-05-03T09:26:20.015Z</time></trkpt><trkpt lat="45.656295" lon="8.2118686"><ele>652.6</ele><time>2026-05-03T09:26:22.032Z</time></trkpt><trkpt lat="45.656385" lon="8.2118327"><ele>650.4</ele><time>2026-05-03T09:26:24.046Z</time></trkpt><trkpt lat="45.6564973" lon="8.2118149"><ele>648.1999999999999</ele><time>2026-05-03T09:26:26.032Z</time></trkpt><trkpt lat="45.6566094" lon="8.2117392"><ele>646.0</ele><time>2026-05-03T09:26:28.015Z</time></trkpt><trkpt lat="45.6566753" lon="8.2116839"><ele>646.0</ele><time>2026-05-03T09:26:29.016Z</time></trkpt><trkpt lat="45.6567424" lon="8.2116165"><ele>646.0</ele><time>2026-05-03T09:26:30.024Z</time></trkpt><trkpt lat="45.656797" lon="8.2115573"><ele>646.0</ele><time>2026-05-03T09:26:31.024Z</time></trkpt><trkpt lat="45.6568312" lon="8.2114193"><ele>646.0</ele><time>2026-05-03T09:26:33.027Z</time></trkpt><trkpt lat="45.6568635" lon="8.2112476"><ele>646.0</ele><time>2026-05-03T09:26:35.027Z</time></trkpt><trkpt lat="45.656878" lon="8.2111319"><ele>645.5714285714287</ele><time>2026-05-03T09:26:36.022Z</time></trkpt><trkpt lat="45.6568997" lon="8.2110281"><ele>645.1428571428571</ele><time>2026-05-03T09:26:37.022Z</time></trkpt><trkpt lat="45.6569256" lon="8.2109418"><ele>644.7142857142858</ele><time>2026-05-03T09:26:38.022Z</time></trkpt><trkpt lat="45.6569688" lon="8.2108491"><ele>644.2857142857143</ele><time>2026-05-03T09:26:39.013Z</time></trkpt><trkpt lat="45.6570163" lon="8.21076"><ele>643.8571428571429</ele><time>2026-05-03T09:26:40.023Z</time></trkpt><trkpt lat="45.6570492" lon="8.2106732"><ele>643.4285714285714</ele><time>2026-05-03T09:26:41.011Z</time></trkpt><trkpt lat="45.657091" lon="8.210595"><ele>643.0</ele><time>2026-05-03T09:26:42.022Z</time></trkpt><trkpt lat="45.6571327" lon="8.2105142"><ele>643.0</ele><time>2026-05-03T09:26:43.023Z</time></trkpt><trkpt lat="45.6571855" lon="8.2104262"><ele>643.0</ele><time>2026-05-03T09:26:44.025Z</time></trkpt><trkpt lat="45.6572397" lon="8.2103164"><ele>643.0</ele><time>2026-05-03T09:26:45.022Z</time></trkpt><trkpt lat="45.6572971" lon="8.2102061"><ele>643.0</ele><time>2026-05-03T09:26:46.025Z</time></trkpt><trkpt lat="45.6573558" lon="8.2101023"><ele>643.0</ele><time>2026-05-03T09:26:47.028Z</time></trkpt><trkpt lat="45.6574131" lon="8.2100219"><ele>643.0</ele><time>2026-05-03T09:26:48.004Z</time></trkpt><trkpt lat="45.657475" lon="8.2099493"><ele>643.0</ele><time>2026-05-03T09:26:49.013Z</time></trkpt><trkpt lat="45.6575276" lon="8.2098728"><ele>643.0</ele><time>2026-05-03T09:26:50.012Z</time></trkpt><trkpt lat="45.6575774" lon="8.2098024"><ele>643.0</ele><time>2026-05-03T09:26:51.011Z</time></trkpt><trkpt lat="45.6576321" lon="8.2097272"><ele>643.0</ele><time>2026-05-03T09:26:52.019Z</time></trkpt><trkpt lat="45.6576778" lon="8.2096585"><ele>643.0</ele><time>2026-05-03T09:26:53.025Z</time></trkpt><trkpt lat="45.6577346" lon="8.2095051"><ele>643.0</ele><time>2026-05-03T09:26:55.021Z</time></trkpt><trkpt lat="45.6577564" lon="8.2094142"><ele>643.0</ele><time>2026-05-03T09:26:56.014Z</time></trkpt><trkpt lat="45.6578048" lon="8.2093262"><ele>643.0</ele><time>2026-05-03T09:26:57.023Z</time></trkpt><trkpt lat="45.6578652" lon="8.2092588"><ele>643.0</ele><time>2026-05-03T09:26:58.029Z</time></trkpt><trkpt lat="45.6579274" lon="8.2091877"><ele>643.0</ele><time>2026-05-03T09:26:59.011Z</time></trkpt><trkpt lat="45.6579946" lon="8.209118"><ele>643.0</ele><time>2026-05-03T09:27:00.025Z</time></trkpt><trkpt lat="45.6580435" lon="8.2090407"><ele>643.0</ele><time>2026-05-03T09:27:01.028Z</time></trkpt><trkpt lat="45.6580791" lon="8.2089315"><ele>643.0</ele><time>2026-05-03T09:27:02.023Z</time></trkpt><trkpt lat="45.6580834" lon="8.2088108"><ele>643.0</ele><time>2026-05-03T09:27:03.019Z</time></trkpt><trkpt lat="45.6580786" lon="8.2086836"><ele>643.0</ele><time>2026-05-03T09:27:04.022Z</time></trkpt><trkpt lat="45.6580524" lon="8.2085515"><ele>643.0</ele><time>2026-05-03T09:27:05.008Z</time></trkpt><trkpt lat="45.6580265" lon="8.2084435"><ele>643.0</ele><time>2026-05-03T09:27:06.024Z</time></trkpt><trkpt lat="45.6580111" lon="8.2083544"><ele>643.0</ele><time>2026-05-03T09:27:07.016Z</time></trkpt><trkpt lat="45.658021" lon="8.2082523"><ele>641.8333333333334</ele><time>2026-05-03T09:27:08.024Z</time></trkpt><trkpt lat="45.6580364" lon="8.2081285"><ele>640.6666666666667</ele><time>2026-05-03T09:27:09.015Z</time></trkpt><trkpt lat="45.6580528" lon="8.2079998"><ele>639.5</ele><time>2026-05-03T09:27:10.02Z</time></trkpt><trkpt lat="45.6580741" lon="8.2078706"><ele>638.3333333333334</ele><time>2026-05-03T09:27:11.015Z</time></trkpt><trkpt lat="45.6581049" lon="8.2077628"><ele>637.1666666666666</ele><time>2026-05-03T09:27:12.037Z</time></trkpt><trkpt lat="45.6581431" lon="8.207682"><ele>636.0</ele><time>2026-05-03T09:27:13.02Z</time></trkpt><trkpt lat="45.6581896" lon="8.207594"><ele>636.0</ele><time>2026-05-03T09:27:14.011Z</time></trkpt><trkpt lat="45.6582651" lon="8.2074834"><ele>636.0</ele><time>2026-05-03T09:27:16.023Z</time></trkpt><trkpt lat="45.6583109" lon="8.207408"><ele>636.0</ele><time>2026-05-03T09:27:17.012Z</time></trkpt><trkpt lat="45.6583671" lon="8.2073536"><ele>636.0</ele><time>2026-05-03T09:27:18.027Z</time></trkpt><trkpt lat="45.6584041" lon="8.2072772"><ele>636.0</ele><time>2026-05-03T09:27:20.024Z</time></trkpt><trkpt lat="45.6584554" lon="8.2071707"><ele>636.0</ele><time>2026-05-03T09:27:24.024Z</time></trkpt><trkpt lat="45.6585228" lon="8.2070825"><ele>632.0</ele><time>2026-05-03T09:27:26.013Z</time></trkpt><trkpt lat="45.6586343" lon="8.2069957"><ele>628.0</ele><time>2026-05-03T09:27:28.021Z</time></trkpt><trkpt lat="45.6587129" lon="8.20691"><ele>624.0</ele><time>2026-05-03T09:27:30.015Z</time></trkpt><trkpt lat="45.6587308" lon="8.20682"><ele>620.0</ele><time>2026-05-03T09:27:31.011Z</time></trkpt><trkpt lat="45.6587672" lon="8.2066763"><ele>616.0</ele><time>2026-05-03T09:27:33.018Z</time></trkpt><trkpt lat="45.6588288" lon="8.2066061"><ele>616.0</ele><time>2026-05-03T09:27:35.031Z</time></trkpt><trkpt lat="45.6588896" lon="8.2066406"><ele>616.0</ele><time>2026-05-03T09:27:37.011Z</time></trkpt><trkpt lat="45.6589639" lon="8.2065833"><ele>616.0</ele><time>2026-05-03T09:27:40.018Z</time></trkpt><trkpt lat="45.6590548" lon="8.2064999"><ele>616.0</ele><time>2026-05-03T09:27:42.017Z</time></trkpt><trkpt lat="45.6591359" lon="8.2063928"><ele>616.0</ele><time>2026-05-03T09:27:44.027Z</time></trkpt><trkpt lat="45.6591971" lon="8.2062983"><ele>615.1666666666667</ele><time>2026-05-03T09:27:46.033Z</time></trkpt><trkpt lat="45.659258" lon="8.2062141"><ele>614.3333333333334</ele><time>2026-05-03T09:27:55.02Z</time></trkpt><trkpt lat="45.6592884" lon="8.2060963"><ele>613.5</ele><time>2026-05-03T09:27:57.011Z</time></trkpt><trkpt lat="45.659343" lon="8.2060498"><ele>612.6666666666666</ele><time>2026-05-03T09:28:03.018Z</time></trkpt><trkpt lat="45.6594044" lon="8.2059886"><ele>611.8333333333333</ele><time>2026-05-03T09:28:06.036Z</time></trkpt><trkpt lat="45.659472" lon="8.2059509"><ele>611.0</ele><time>2026-05-03T09:28:08.026Z</time></trkpt><trkpt lat="45.6595403" lon="8.2059569"><ele>608.3333333333333</ele><time>2026-05-03T09:28:10.013Z</time></trkpt><trkpt lat="45.6596177" lon="8.2059785"><ele>605.6666666666666</ele><time>2026-05-03T09:28:12.024Z</time></trkpt><trkpt lat="45.6597002" lon="8.2060104"><ele>603.0</ele><time>2026-05-03T09:28:14.011Z</time></trkpt><trkpt lat="45.6598288" lon="8.2060325"><ele>600.3333333333334</ele><time>2026-05-03T09:28:16.014Z</time></trkpt><trkpt lat="45.6598951" lon="8.2060548"><ele>597.6666666666667</ele><time>2026-05-03T09:28:17.012Z</time></trkpt><trkpt lat="45.6599702" lon="8.2060491"><ele>595.0</ele><time>2026-05-03T09:28:18.023Z</time></trkpt><trkpt lat="45.6600925" lon="8.2060324"><ele>595.0</ele><time>2026-05-03T09:28:20.015Z</time></trkpt><trkpt lat="45.660189" lon="8.2060223"><ele>595.0</ele><time>2026-05-03T09:28:22.016Z</time></trkpt><trkpt lat="45.6602609" lon="8.2060123"><ele>595.0</ele><time>2026-05-03T09:28:23.018Z</time></trkpt><trkpt lat="45.6603236" lon="8.2060313"><ele>595.0</ele><time>2026-05-03T09:28:24.019Z</time></trkpt><trkpt lat="45.660389" lon="8.206012"><ele>595.0</ele><time>2026-05-03T09:28:26.019Z</time></trkpt><trkpt lat="45.6604475" lon="8.2059597"><ele>595.0</ele><time>2026-05-03T09:28:27.016Z</time></trkpt><trkpt lat="45.6605087" lon="8.2059171"><ele>595.0</ele><time>2026-05-03T09:28:28.017Z</time></trkpt><trkpt lat="45.6605972" lon="8.2058058"><ele>589.25</ele><time>2026-05-03T09:28:30.007Z</time></trkpt><trkpt lat="45.6606669" lon="8.2056693"><ele>583.5</ele><time>2026-05-03T09:28:32.018Z</time></trkpt><trkpt lat="45.6606206" lon="8.2055366"><ele>577.75</ele><time>2026-05-03T09:28:34.013Z</time></trkpt><trkpt lat="45.6606377" lon="8.2053256"><ele>572.0</ele><time>2026-05-03T09:28:36.026Z</time></trkpt><trkpt lat="45.660658" lon="8.2052008"><ele>570.8571428571428</ele><time>2026-05-03T09:28:37.013Z</time></trkpt><trkpt lat="45.6606694" lon="8.2050858"><ele>569.7142857142857</ele><time>2026-05-03T09:28:38.008Z</time></trkpt><trkpt lat="45.6606698" lon="8.2049946"><ele>568.5714285714286</ele><time>2026-05-03T09:28:39.021Z</time></trkpt><trkpt lat="45.660672" lon="8.2048951"><ele>567.4285714285713</ele><time>2026-05-03T09:28:40.029Z</time></trkpt><trkpt lat="45.6606244" lon="8.2048021"><ele>566.2857142857142</ele><time>2026-05-03T09:28:41.023Z</time></trkpt><trkpt lat="45.660583" lon="8.2047144"><ele>565.1428571428571</ele><time>2026-05-03T09:28:42.013Z</time></trkpt><trkpt lat="45.6605621" lon="8.2046056"><ele>564.0</ele><time>2026-05-03T09:28:43.013Z</time></trkpt><trkpt lat="45.6605356" lon="8.2044844"><ele>561.5</ele><time>2026-05-03T09:28:45.01Z</time></trkpt><trkpt lat="45.6605128" lon="8.2043724"><ele>559.0</ele><time>2026-05-03T09:28:47.022Z</time></trkpt><trkpt lat="45.6604868" lon="8.2042598"><ele>556.5</ele><time>2026-05-03T09:28:48.015Z</time></trkpt><trkpt lat="45.6604453" lon="8.2041691"><ele>554.0</ele><time>2026-05-03T09:28:49.012Z</time></trkpt><trkpt lat="45.6604051" lon="8.2040816"><ele>551.5</ele><time>2026-05-03T09:28:50.022Z</time></trkpt><trkpt lat="45.6603434" lon="8.2039475"><ele>549.0</ele><time>2026-05-03T09:28:52.013Z</time></trkpt><trkpt lat="45.6602944" lon="8.2038167"><ele>550.2</ele><time>2026-05-03T09:28:54.03Z</time></trkpt><trkpt lat="45.6602531" lon="8.2037377"><ele>551.4</ele><time>2026-05-03T09:28:55.013Z</time></trkpt><trkpt lat="45.6602188" lon="8.2036471"><ele>552.6</ele><time>2026-05-03T09:28:56.021Z</time></trkpt><trkpt lat="45.6602338" lon="8.2034711"><ele>553.8</ele><time>2026-05-03T09:28:58.028Z</time></trkpt><trkpt lat="45.6602561" lon="8.2033439"><ele>555.0</ele><time>2026-05-03T09:29:00.033Z</time></trkpt><trkpt lat="45.6602775" lon="8.2032019"><ele>551.0</ele><time>2026-05-03T09:29:02.013Z</time></trkpt><trkpt lat="45.6602729" lon="8.2030943"><ele>547.0</ele><time>2026-05-03T09:29:04.016Z</time></trkpt><trkpt lat="45.6602837" lon="8.2029123"><ele>543.0</ele><time>2026-05-03T09:29:06.008Z</time></trkpt><trkpt lat="45.6603651" lon="8.202773"><ele>539.0</ele><time>2026-05-03T09:29:08.015Z</time></trkpt><trkpt lat="45.6604094" lon="8.2026635"><ele>535.0</ele><time>2026-05-03T09:29:10.013Z</time></trkpt><trkpt lat="45.6604524" lon="8.2025614"><ele>532.6666666666667</ele><time>2026-05-03T09:29:12.021Z</time></trkpt><trkpt lat="45.6605176" lon="8.2024719"><ele>530.3333333333334</ele><time>2026-05-03T09:29:15.003Z</time></trkpt><trkpt lat="45.6605777" lon="8.2024258"><ele>528.0</ele><time>2026-05-03T09:29:17.006Z</time></trkpt><trkpt lat="45.6605638" lon="8.2022812"><ele>525.6666666666666</ele><time>2026-05-03T09:29:19.051Z</time></trkpt><trkpt lat="45.6604831" lon="8.2022159"><ele>523.3333333333333</ele><time>2026-05-03T09:29:21.018Z</time></trkpt><trkpt lat="45.6604805" lon="8.2021209"><ele>521.0</ele><time>2026-05-03T09:29:23.019Z</time></trkpt><trkpt lat="45.6605536" lon="8.2020175"><ele>518.6</ele><time>2026-05-03T09:29:25.012Z</time></trkpt><trkpt lat="45.6606094" lon="8.2019606"><ele>516.2</ele><time>2026-05-03T09:29:28.008Z</time></trkpt><trkpt lat="45.6607227" lon="8.2018715"><ele>513.8</ele><time>2026-05-03T09:29:30.007Z</time></trkpt><trkpt lat="45.6608404" lon="8.2018548"><ele>511.4</ele><time>2026-05-03T09:29:32.015Z</time></trkpt><trkpt lat="45.6609046" lon="8.201848"><ele>509.0</ele><time>2026-05-03T09:29:33.017Z</time></trkpt><trkpt lat="45.6610154" lon="8.2018485"><ele>505.8333333333333</ele><time>2026-05-03T09:29:35.018Z</time></trkpt><trkpt lat="45.661119" lon="8.2017781"><ele>502.66666666666663</ele><time>2026-05-03T09:29:37.023Z</time></trkpt><trkpt lat="45.6611901" lon="8.2016587"><ele>499.5</ele><time>2026-05-03T09:29:39.013Z</time></trkpt><trkpt lat="45.6612167" lon="8.2015524"><ele>496.33333333333337</ele><time>2026-05-03T09:29:41.015Z</time></trkpt><trkpt lat="45.661251" lon="8.2014698"><ele>493.1666666666667</ele><time>2026-05-03T09:29:43.024Z</time></trkpt><trkpt lat="45.661303" lon="8.2014096"><ele>490.0</ele><time>2026-05-03T09:29:45.014Z</time></trkpt><trkpt lat="45.6613615" lon="8.2013574"><ele>490.00000000000006</ele><time>2026-05-03T09:29:47.015Z</time></trkpt><trkpt lat="45.661433" lon="8.2012632"><ele>490.0</ele><time>2026-05-03T09:29:49.016Z</time></trkpt><trkpt lat="45.6614681" lon="8.2011778"><ele>490.0</ele><time>2026-05-03T09:29:51.018Z</time></trkpt><trkpt lat="45.6614584" lon="8.2010719"><ele>490.0</ele><time>2026-05-03T09:29:53.018Z</time></trkpt><trkpt lat="45.661484" lon="8.2009785"><ele>490.00000000000006</ele><time>2026-05-03T09:29:55.011Z</time></trkpt><trkpt lat="45.661512" lon="8.2008786"><ele>490.0</ele><time>2026-05-03T09:29:57.009Z</time></trkpt><trkpt lat="45.6615379" lon="8.2007826"><ele>490.00000000000006</ele><time>2026-05-03T09:30:00.034Z</time></trkpt><trkpt lat="45.6614867" lon="8.2007158"><ele>490.0</ele><time>2026-05-03T09:30:03.015Z</time></trkpt><trkpt lat="45.6615209" lon="8.2005787"><ele>490.0</ele><time>2026-05-03T09:30:06.01Z</time></trkpt><trkpt lat="45.6615149" lon="8.2004732"><ele>490.0</ele><time>2026-05-03T09:30:08.002Z</time></trkpt><trkpt lat="45.6614879" lon="8.2003781"><ele>490.00000000000006</ele><time>2026-05-03T09:30:11.011Z</time></trkpt><trkpt lat="45.6615121" lon="8.2002517"><ele>490.0</ele><time>2026-05-03T09:30:14.027Z</time></trkpt><trkpt lat="45.6614835" lon="8.2001703"><ele>487.6666666666667</ele><time>2026-05-03T09:30:16.012Z</time></trkpt><trkpt lat="45.661453" lon="8.2000912"><ele>485.33333333333337</ele><time>2026-05-03T09:30:18.018Z</time></trkpt><trkpt lat="45.6614179" lon="8.199975"><ele>483.0</ele><time>2026-05-03T09:30:21.019Z</time></trkpt><trkpt lat="45.6613758" lon="8.1998686"><ele>480.66666666666663</ele><time>2026-05-03T09:30:45.012Z</time></trkpt><trkpt lat="45.6613317" lon="8.199786"><ele>478.3333333333333</ele><time>2026-05-03T09:30:50.009Z</time></trkpt><trkpt lat="45.6612626" lon="8.1998094"><ele>476.0</ele><time>2026-05-03T09:30:52.034Z</time></trkpt><trkpt lat="45.6611852" lon="8.1997777"><ele>474.99999999999994</ele><time>2026-05-03T09:30:55.017Z</time></trkpt><trkpt lat="45.6611191" lon="8.1997018"><ele>474.0</ele><time>2026-05-03T09:31:00.012Z</time></trkpt><trkpt lat="45.6610817" lon="8.1996151"><ele>473.0</ele><time>2026-05-03T09:31:03.01Z</time></trkpt><trkpt lat="45.6610245" lon="8.1995238"><ele>472.0</ele><time>2026-05-03T09:31:06.027Z</time></trkpt><trkpt lat="45.6609846" lon="8.1994452"><ele>470.99999999999994</ele><time>2026-05-03T09:31:08.019Z</time></trkpt><trkpt lat="45.6610017" lon="8.1993151"><ele>470.0</ele><time>2026-05-03T09:31:23.004Z</time></trkpt><trkpt lat="45.6611096" lon="8.1991509"><ele>468.8</ele><time>2026-05-03T09:31:24.998Z</time></trkpt><trkpt lat="45.6612108" lon="8.1990821"><ele>467.6</ele><time>2026-05-03T09:31:26.003Z</time></trkpt><trkpt lat="45.6613276" lon="8.1990644"><ele>466.4</ele><time>2026-05-03T09:31:27.015Z</time></trkpt><trkpt lat="45.6614327" lon="8.1991021"><ele>465.2</ele><time>2026-05-03T09:31:27.999Z</time></trkpt><trkpt lat="45.6615257" lon="8.1991704"><ele>464.0</ele><time>2026-05-03T09:31:29.003Z</time></trkpt><trkpt lat="45.6616262" lon="8.1992657"><ele>464.0</ele><time>2026-05-03T09:31:30.002Z</time></trkpt><trkpt lat="45.6617309" lon="8.1993437"><ele>464.0</ele><time>2026-05-03T09:31:30.999Z</time></trkpt><trkpt lat="45.661819" lon="8.1994154"><ele>464.0</ele><time>2026-05-03T09:31:32.008Z</time></trkpt><trkpt lat="45.661904" lon="8.1994487"><ele>464.0</ele><time>2026-05-03T09:31:33Z</time></trkpt><trkpt lat="45.6619841" lon="8.1994372"><ele>464.0</ele><time>2026-05-03T09:31:34.003Z</time></trkpt><trkpt lat="45.6620678" lon="8.1994038"><ele>463.5</ele><time>2026-05-03T09:31:35.005Z</time></trkpt><trkpt lat="45.6621611" lon="8.1993528"><ele>463.0</ele><time>2026-05-03T09:31:36.019Z</time></trkpt><trkpt lat="45.6622692" lon="8.1993232"><ele>462.5</ele><time>2026-05-03T09:31:37.007Z</time></trkpt><trkpt lat="45.6623884" lon="8.1993291"><ele>462.0</ele><time>2026-05-03T09:31:38.011Z</time></trkpt><trkpt lat="45.6625073" lon="8.1993776"><ele>462.0</ele><time>2026-05-03T09:31:39.007Z</time></trkpt><trkpt lat="45.662614" lon="8.1994441"><ele>462.0</ele><time>2026-05-03T09:31:40.017Z</time></trkpt><trkpt lat="45.6627163" lon="8.1995223"><ele>462.0</ele><time>2026-05-03T09:31:41.01Z</time></trkpt><trkpt lat="45.6628232" lon="8.1996067"><ele>462.0</ele><time>2026-05-03T09:31:42.005Z</time></trkpt><trkpt lat="45.6629269" lon="8.1997089"><ele>461.75</ele><time>2026-05-03T09:31:43.003Z</time></trkpt><trkpt lat="45.663029" lon="8.1998103"><ele>461.5</ele><time>2026-05-03T09:31:44.012Z</time></trkpt><trkpt lat="45.6631212" lon="8.199929"><ele>461.25</ele><time>2026-05-03T09:31:45.011Z</time></trkpt><trkpt lat="45.6632071" lon="8.2000616"><ele>461.0</ele><time>2026-05-03T09:31:46.019Z</time></trkpt><trkpt lat="45.6632919" lon="8.2001912"><ele>461.0</ele><time>2026-05-03T09:31:47.002Z</time></trkpt><trkpt lat="45.6633723" lon="8.2003143"><ele>461.0</ele><time>2026-05-03T09:31:48.013Z</time></trkpt><trkpt lat="45.6634461" lon="8.2004283"><ele>461.0</ele><time>2026-05-03T09:31:49.016Z</time></trkpt><trkpt lat="45.6635124" lon="8.2005214"><ele>461.0</ele><time>2026-05-03T09:31:50.038Z</time></trkpt><trkpt lat="45.6635872" lon="8.2005948"><ele>461.0</ele><time>2026-05-03T09:31:51.022Z</time></trkpt><trkpt lat="45.6636555" lon="8.2006552"><ele>463.49999999999994</ele><time>2026-05-03T09:31:52.021Z</time></trkpt><trkpt lat="45.6637132" lon="8.200725"><ele>466.0</ele><time>2026-05-03T09:31:53.016Z</time></trkpt><trkpt lat="45.6637704" lon="8.2008036"><ele>468.5</ele><time>2026-05-03T09:31:54.022Z</time></trkpt><trkpt lat="45.6638156" lon="8.2008904"><ele>471.0</ele><time>2026-05-03T09:31:55.006Z</time></trkpt><trkpt lat="45.6638547" lon="8.2009831"><ele>473.49999999999994</ele><time>2026-05-03T09:31:56.01Z</time></trkpt><trkpt lat="45.6638975" lon="8.2010753"><ele>476.0</ele><time>2026-05-03T09:31:57.005Z</time></trkpt><trkpt lat="45.663937" lon="8.2011551"><ele>475.99999999999994</ele><time>2026-05-03T09:31:58.018Z</time></trkpt><trkpt lat="45.6639659" lon="8.2012482"><ele>476.0</ele><time>2026-05-03T09:31:59.016Z</time></trkpt><trkpt lat="45.6639894" lon="8.2013452"><ele>476.0</ele><time>2026-05-03T09:32:00.031Z</time></trkpt><trkpt lat="45.6640075" lon="8.2014483"><ele>476.0</ele><time>2026-05-03T09:32:01.019Z</time></trkpt><trkpt lat="45.6640317" lon="8.2015545"><ele>475.99999999999994</ele><time>2026-05-03T09:32:02.013Z</time></trkpt><trkpt lat="45.6640733" lon="8.2016491"><ele>476.0</ele><time>2026-05-03T09:32:03.001Z</time></trkpt><trkpt lat="45.6641302" lon="8.2017374"><ele>476.8571428571429</ele><time>2026-05-03T09:32:04.023Z</time></trkpt><trkpt lat="45.6641797" lon="8.201833"><ele>477.7142857142857</ele><time>2026-05-03T09:32:05.011Z</time></trkpt><trkpt lat="45.6642118" lon="8.2019331"><ele>478.57142857142856</ele><time>2026-05-03T09:32:06.013Z</time></trkpt><trkpt lat="45.6642165" lon="8.2020242"><ele>479.42857142857144</ele><time>2026-05-03T09:32:07.006Z</time></trkpt><trkpt lat="45.6642123" lon="8.2021212"><ele>480.28571428571433</ele><time>2026-05-03T09:32:08.032Z</time></trkpt><trkpt lat="45.6642002" lon="8.2022269"><ele>481.14285714285717</ele><time>2026-05-03T09:32:09.008Z</time></trkpt><trkpt lat="45.6641857" lon="8.202333"><ele>482.0</ele><time>2026-05-03T09:32:10.025Z</time></trkpt><trkpt lat="45.6641906" lon="8.2024383"><ele>482.0</ele><time>2026-05-03T09:32:11.014Z</time></trkpt><trkpt lat="45.6642973" lon="8.2025082"><ele>482.00000000000006</ele><time>2026-05-03T09:32:13.012Z</time></trkpt><trkpt lat="45.6643724" lon="8.2023825"><ele>482.00000000000006</ele><time>2026-05-03T09:32:15.006Z</time></trkpt><trkpt lat="45.6643481" lon="8.2022851"><ele>482.0</ele><time>2026-05-03T09:32:16.018Z</time></trkpt><trkpt lat="45.664332" lon="8.2021938"><ele>482.0</ele><time>2026-05-03T09:32:17.005Z</time></trkpt><trkpt lat="45.664339" lon="8.2020733"><ele>480.99999999999994</ele><time>2026-05-03T09:32:18.013Z</time></trkpt><trkpt lat="45.6643704" lon="8.2019527"><ele>480.0</ele><time>2026-05-03T09:32:19.002Z</time></trkpt><trkpt lat="45.6644051" lon="8.2018358"><ele>479.0</ele><time>2026-05-03T09:32:20.006Z</time></trkpt><trkpt lat="45.6644037" lon="8.201731"><ele>478.0</ele><time>2026-05-03T09:32:21.02Z</time></trkpt><trkpt lat="45.6643545" lon="8.2016406"><ele>476.99999999999994</ele><time>2026-05-03T09:32:22.01Z</time></trkpt><trkpt lat="45.6642862" lon="8.2015498"><ele>476.0</ele><time>2026-05-03T09:32:23.008Z</time></trkpt><trkpt lat="45.6642434" lon="8.2014406"><ele>475.99999999999994</ele><time>2026-05-03T09:32:24.015Z</time></trkpt><trkpt lat="45.6642317" lon="8.2013117"><ele>476.0</ele><time>2026-05-03T09:32:25.015Z</time></trkpt><trkpt lat="45.6642481" lon="8.201202"><ele>476.0</ele><time>2026-05-03T09:32:26.029Z</time></trkpt><trkpt lat="45.6642831" lon="8.2010905"><ele>476.0</ele><time>2026-05-03T09:32:27.015Z</time></trkpt><trkpt lat="45.6643349" lon="8.2009864"><ele>475.99999999999994</ele><time>2026-05-03T09:32:28.023Z</time></trkpt><trkpt lat="45.6643675" lon="8.200871"><ele>476.0</ele><time>2026-05-03T09:32:29.024Z</time></trkpt><trkpt lat="45.6643693" lon="8.2007559"><ele>477.20000000000005</ele><time>2026-05-03T09:32:30.023Z</time></trkpt><trkpt lat="45.6643437" lon="8.2006266"><ele>478.40000000000003</ele><time>2026-05-03T09:32:31.014Z</time></trkpt><trkpt lat="45.6643138" lon="8.2005031"><ele>479.6</ele><time>2026-05-03T09:32:32.02Z</time></trkpt><trkpt lat="45.6642862" lon="8.2003737"><ele>480.8</ele><time>2026-05-03T09:32:33.007Z</time></trkpt><trkpt lat="45.6642786" lon="8.200247"><ele>482.0</ele><time>2026-05-03T09:32:34.011Z</time></trkpt><trkpt lat="45.664289" lon="8.2001266"><ele>481.99999999999994</ele><time>2026-05-03T09:32:34.999Z</time></trkpt><trkpt lat="45.6643211" lon="8.2000215"><ele>482.0</ele><time>2026-05-03T09:32:36.016Z</time></trkpt><trkpt lat="45.6643817" lon="8.1999546"><ele>482.0</ele><time>2026-05-03T09:32:37.008Z</time></trkpt><trkpt lat="45.6644534" lon="8.1999129"><ele>482.0</ele><time>2026-05-03T09:32:38.024Z</time></trkpt><trkpt lat="45.6645236" lon="8.1998582"><ele>481.99999999999994</ele><time>2026-05-03T09:32:39.016Z</time></trkpt><trkpt lat="45.6646058" lon="8.199804"><ele>482.0</ele><time>2026-05-03T09:32:40.022Z</time></trkpt><trkpt lat="45.6646881" lon="8.1997518"><ele>485.40000000000003</ele><time>2026-05-03T09:32:41.007Z</time></trkpt><trkpt lat="45.6647783" lon="8.1996845"><ele>488.80000000000007</ele><time>2026-05-03T09:32:42.018Z</time></trkpt><trkpt lat="45.664866" lon="8.1996165"><ele>492.2</ele><time>2026-05-03T09:32:43.007Z</time></trkpt><trkpt lat="45.6649522" lon="8.1995403"><ele>495.6</ele><time>2026-05-03T09:32:44.014Z</time></trkpt><trkpt lat="45.6650242" lon="8.1994592"><ele>499.0</ele><time>2026-05-03T09:32:45.008Z</time></trkpt><trkpt lat="45.6650786" lon="8.1993794"><ele>499.00000000000006</ele><time>2026-05-03T09:32:46.022Z</time></trkpt><trkpt lat="45.6651062" lon="8.199294"><ele>499.0</ele><time>2026-05-03T09:32:46.998Z</time></trkpt><trkpt lat="45.6651102" lon="8.1991891"><ele>499.0</ele><time>2026-05-03T09:32:48.015Z</time></trkpt><trkpt lat="45.665065" lon="8.1990796"><ele>499.0</ele><time>2026-05-03T09:32:49.004Z</time></trkpt><trkpt lat="45.6650197" lon="8.1989791"><ele>499.00000000000006</ele><time>2026-05-03T09:32:50.015Z</time></trkpt><trkpt lat="45.664949" lon="8.1988606"><ele>499.0</ele><time>2026-05-03T09:32:51.008Z</time></trkpt><trkpt lat="45.664844" lon="8.1987427"><ele>498.75</ele><time>2026-05-03T09:32:52.008Z</time></trkpt><trkpt lat="45.6647067" lon="8.1986839"><ele>498.5</ele><time>2026-05-03T09:32:53.004Z</time></trkpt><trkpt lat="45.6645725" lon="8.1986779"><ele>498.25</ele><time>2026-05-03T09:32:54.011Z</time></trkpt><trkpt lat="45.6644654" lon="8.1986962"><ele>498.0</ele><time>2026-05-03T09:32:55.02Z</time></trkpt><trkpt lat="45.664359" lon="8.1987129"><ele>498.0</ele><time>2026-05-03T09:32:56.024Z</time></trkpt><trkpt lat="45.6642668" lon="8.1987195"><ele>498.0</ele><time>2026-05-03T09:32:57.017Z</time></trkpt><trkpt lat="45.6641811" lon="8.1986904"><ele>498.0</ele><time>2026-05-03T09:32:58.024Z</time></trkpt><trkpt lat="45.6641222" lon="8.1986281"><ele>498.0</ele><time>2026-05-03T09:32:59.021Z</time></trkpt><trkpt lat="45.664097" lon="8.1985194"><ele>498.0</ele><time>2026-05-03T09:33:00.02Z</time></trkpt><trkpt lat="45.6641229" lon="8.1984208"><ele>498.0</ele><time>2026-05-03T09:33:01Z</time></trkpt><trkpt lat="45.6641807" lon="8.1983351"><ele>498.0</ele><time>2026-05-03T09:33:02.024Z</time></trkpt><trkpt lat="45.6642553" lon="8.1982548"><ele>498.0</ele><time>2026-05-03T09:33:03.003Z</time></trkpt><trkpt lat="45.6643282" lon="8.1981936"><ele>498.0</ele><time>2026-05-03T09:33:04.05Z</time></trkpt><trkpt lat="45.6643837" lon="8.1981231"><ele>498.0</ele><time>2026-05-03T09:33:05.009Z</time></trkpt><trkpt lat="45.6644347" lon="8.1980324"><ele>498.0</ele><time>2026-05-03T09:33:07.006Z</time></trkpt><trkpt lat="45.6644845" lon="8.1979261"><ele>498.0</ele><time>2026-05-03T09:33:09.025Z</time></trkpt><trkpt lat="45.6645124" lon="8.1978451"><ele>499.71428571428567</ele><time>2026-05-03T09:33:10.02Z</time></trkpt><trkpt lat="45.6645424" lon="8.1977603"><ele>501.4285714285714</ele><time>2026-05-03T09:33:11.018Z</time></trkpt><trkpt lat="45.6645875" lon="8.1976697"><ele>503.1428571428571</ele><time>2026-05-03T09:33:12.019Z</time></trkpt><trkpt lat="45.6646511" lon="8.1976255"><ele>504.8571428571429</ele><time>2026-05-03T09:33:13.029Z</time></trkpt><trkpt lat="45.6647179" lon="8.1976041"><ele>506.5714285714286</ele><time>2026-05-03T09:33:14.04Z</time></trkpt><trkpt lat="45.6647918" lon="8.1976186"><ele>508.28571428571433</ele><time>2026-05-03T09:33:15.016Z</time></trkpt><trkpt lat="45.6648786" lon="8.1976425"><ele>510.0</ele><time>2026-05-03T09:33:16.019Z</time></trkpt><trkpt lat="45.6649702" lon="8.1976669"><ele>510.0</ele><time>2026-05-03T09:33:17.016Z</time></trkpt><trkpt lat="45.6650599" lon="8.1976938"><ele>510.0</ele><time>2026-05-03T09:33:18.006Z</time></trkpt><trkpt lat="45.6651534" lon="8.1977108"><ele>510.0</ele><time>2026-05-03T09:33:19.005Z</time></trkpt><trkpt lat="45.6652502" lon="8.1977312"><ele>510.0</ele><time>2026-05-03T09:33:20.034Z</time></trkpt><trkpt lat="45.6653483" lon="8.1977357"><ele>510.0</ele><time>2026-05-03T09:33:21.018Z</time></trkpt><trkpt lat="45.6654277" lon="8.1977035"><ele>509.6666666666667</ele><time>2026-05-03T09:33:22.01Z</time></trkpt><trkpt lat="45.6654942" lon="8.1976478"><ele>509.33333333333337</ele><time>2026-05-03T09:33:23.009Z</time></trkpt><trkpt lat="45.6655442" lon="8.1975653"><ele>509.0</ele><time>2026-05-03T09:33:24.018Z</time></trkpt><trkpt lat="45.6655867" lon="8.1974515"><ele>508.6666666666667</ele><time>2026-05-03T09:33:25.018Z</time></trkpt><trkpt lat="45.6656265" lon="8.197339"><ele>508.33333333333337</ele><time>2026-05-03T09:33:26.012Z</time></trkpt><trkpt lat="45.6656519" lon="8.1972344"><ele>508.0</ele><time>2026-05-03T09:33:27.016Z</time></trkpt><trkpt lat="45.6656765" lon="8.197148"><ele>508.79999999999995</ele><time>2026-05-03T09:33:28.022Z</time></trkpt><trkpt lat="45.6657318" lon="8.1969874"><ele>509.59999999999997</ele><time>2026-05-03T09:33:30.02Z</time></trkpt><trkpt lat="45.6657699" lon="8.1969143"><ele>510.40000000000003</ele><time>2026-05-03T09:33:31.003Z</time></trkpt><trkpt lat="45.6658076" lon="8.1968401"><ele>511.20000000000005</ele><time>2026-05-03T09:33:32.015Z</time></trkpt><trkpt lat="45.6658923" lon="8.1967183"><ele>512.0</ele><time>2026-05-03T09:33:34.025Z</time></trkpt><trkpt lat="45.6659876" lon="8.1965993"><ele>511.20000000000005</ele><time>2026-05-03T09:33:36.024Z</time></trkpt><trkpt lat="45.6660847" lon="8.1964889"><ele>510.40000000000003</ele><time>2026-05-03T09:33:38.019Z</time></trkpt><trkpt lat="45.6661818" lon="8.1963831"><ele>509.59999999999997</ele><time>2026-05-03T09:33:40.01Z</time></trkpt><trkpt lat="45.6662842" lon="8.1963113"><ele>508.79999999999995</ele><time>2026-05-03T09:33:42.016Z</time></trkpt><trkpt lat="45.6663425" lon="8.1962573"><ele>508.0</ele><time>2026-05-03T09:33:43.013Z</time></trkpt><trkpt lat="45.6664109" lon="8.1962074"><ele>508.0</ele><time>2026-05-03T09:33:44.023Z</time></trkpt><trkpt lat="45.6664748" lon="8.1961681"><ele>507.99999999999994</ele><time>2026-05-03T09:33:45.009Z</time></trkpt><trkpt lat="45.6665582" lon="8.1961058"><ele>507.99999999999994</ele><time>2026-05-03T09:33:47.026Z</time></trkpt><trkpt lat="45.6665249" lon="8.1959897"><ele>508.0</ele><time>2026-05-03T09:33:51.017Z</time></trkpt><trkpt lat="45.6664443" lon="8.1958906"><ele>508.0</ele><time>2026-05-03T09:33:53.011Z</time></trkpt><trkpt lat="45.6663376" lon="8.1958196"><ele>508.0</ele><time>2026-05-03T09:33:55.014Z</time></trkpt><trkpt lat="45.6662626" lon="8.1958058"><ele>507.99999999999994</ele><time>2026-05-03T09:33:56.021Z</time></trkpt><trkpt lat="45.6661436" lon="8.1957804"><ele>507.99999999999994</ele><time>2026-05-03T09:33:58.018Z</time></trkpt><trkpt lat="45.6660784" lon="8.1957657"><ele>508.0</ele><time>2026-05-03T09:33:59.013Z</time></trkpt><trkpt lat="45.6659979" lon="8.1957344"><ele>508.0</ele><time>2026-05-03T09:34:01.009Z</time></trkpt><trkpt lat="45.6660633" lon="8.1956006"><ele>507.1666666666667</ele><time>2026-05-03T09:34:04.005Z</time></trkpt><trkpt lat="45.6661773" lon="8.1955526"><ele>506.33333333333337</ele><time>2026-05-03T09:34:06.021Z</time></trkpt><trkpt lat="45.6662452" lon="8.19553"><ele>505.5</ele><time>2026-05-03T09:34:07.006Z</time></trkpt><trkpt lat="45.6663121" lon="8.1955145"><ele>504.66666666666663</ele><time>2026-05-03T09:34:08.008Z</time></trkpt><trkpt lat="45.6663758" lon="8.1954858"><ele>503.8333333333333</ele><time>2026-05-03T09:34:09.002Z</time></trkpt><trkpt lat="45.666429" lon="8.195425"><ele>503.0</ele><time>2026-05-03T09:34:10.009Z</time></trkpt><trkpt lat="45.6664553" lon="8.1953398"><ele>502.99999999999994</ele><time>2026-05-03T09:34:11.016Z</time></trkpt><trkpt lat="45.6664692" lon="8.1952403"><ele>503.0</ele><time>2026-05-03T09:34:12.019Z</time></trkpt><trkpt lat="45.666498" lon="8.1950904"><ele>503.0</ele><time>2026-05-03T09:34:14.034Z</time></trkpt><trkpt lat="45.6665659" lon="8.1950214"><ele>503.0</ele><time>2026-05-03T09:34:17Z</time></trkpt><trkpt lat="45.6666387" lon="8.1950126"><ele>502.99999999999994</ele><time>2026-05-03T09:34:19.009Z</time></trkpt><trkpt lat="45.666702" lon="8.1949662"><ele>503.0</ele><time>2026-05-03T09:34:22.004Z</time></trkpt><trkpt lat="45.6667307" lon="8.1948852"><ele>501.8333333333333</ele><time>2026-05-03T09:34:24.02Z</time></trkpt><trkpt lat="45.6668001" lon="8.1947805"><ele>500.66666666666663</ele><time>2026-05-03T09:34:26.015Z</time></trkpt><trkpt lat="45.6668555" lon="8.1947233"><ele>499.5</ele><time>2026-05-03T09:34:27.018Z</time></trkpt><trkpt lat="45.666913" lon="8.1946588"><ele>498.33333333333337</ele><time>2026-05-03T09:34:28.026Z</time></trkpt><trkpt lat="45.6669665" lon="8.1945955"><ele>497.1666666666667</ele><time>2026-05-03T09:34:29.022Z</time></trkpt><trkpt lat="45.6670389" lon="8.1944934"><ele>496.0</ele><time>2026-05-03T09:34:31.041Z</time></trkpt><trkpt lat="45.6670867" lon="8.1943655"><ele>498.6666666666667</ele><time>2026-05-03T09:34:33.007Z</time></trkpt><trkpt lat="45.6671168" lon="8.1942414"><ele>501.33333333333337</ele><time>2026-05-03T09:34:35.015Z</time></trkpt><trkpt lat="45.6671268" lon="8.1941427"><ele>504.0</ele><time>2026-05-03T09:34:37.025Z</time></trkpt><trkpt lat="45.6671047" lon="8.1940275"><ele>506.66666666666663</ele><time>2026-05-03T09:34:39.013Z</time></trkpt><trkpt lat="45.6670855" lon="8.1939412"><ele>509.3333333333333</ele><time>2026-05-03T09:34:40.025Z</time></trkpt><trkpt lat="45.6670791" lon="8.193834"><ele>512.0</ele><time>2026-05-03T09:34:41.023Z</time></trkpt><trkpt lat="45.6670947" lon="8.1937057"><ele>512.0</ele><time>2026-05-03T09:34:42.037Z</time></trkpt><trkpt lat="45.6671184" lon="8.1935708"><ele>512.0</ele><time>2026-05-03T09:34:43.018Z</time></trkpt><trkpt lat="45.6671477" lon="8.193435"><ele>512.0</ele><time>2026-05-03T09:34:44.022Z</time></trkpt><trkpt lat="45.6671696" lon="8.1932767"><ele>512.0</ele><time>2026-05-03T09:34:45.012Z</time></trkpt><trkpt lat="45.6671724" lon="8.1930789"><ele>512.0</ele><time>2026-05-03T09:34:46.012Z</time></trkpt><trkpt lat="45.6671772" lon="8.1928812"><ele>511.6</ele><time>2026-05-03T09:34:47.022Z</time></trkpt><trkpt lat="45.667192" lon="8.1927258"><ele>511.20000000000005</ele><time>2026-05-03T09:34:48.012Z</time></trkpt><trkpt lat="45.6672361" lon="8.1925882"><ele>510.8</ele><time>2026-05-03T09:34:49.015Z</time></trkpt><trkpt lat="45.6673006" lon="8.192462"><ele>510.4</ele><time>2026-05-03T09:34:50.016Z</time></trkpt><trkpt lat="45.667371" lon="8.1923315"><ele>510.0</ele><time>2026-05-03T09:34:51.01Z</time></trkpt><trkpt lat="45.6674511" lon="8.1922018"><ele>508.0</ele><time>2026-05-03T09:34:52.016Z</time></trkpt><trkpt lat="45.667514" lon="8.1920706"><ele>506.0</ele><time>2026-05-03T09:34:53.006Z</time></trkpt><trkpt lat="45.6675525" lon="8.1919413"><ele>504.0</ele><time>2026-05-03T09:34:54.015Z</time></trkpt><trkpt lat="45.6675603" lon="8.1918081"><ele>502.0</ele><time>2026-05-03T09:34:55.011Z</time></trkpt><trkpt lat="45.6675476" lon="8.1916734"><ele>500.0</ele><time>2026-05-03T09:34:56.016Z</time></trkpt><trkpt lat="45.6675047" lon="8.1915528"><ele>499.2</ele><time>2026-05-03T09:34:57.006Z</time></trkpt><trkpt lat="45.6674419" lon="8.1914554"><ele>498.4</ele><time>2026-05-03T09:34:58.019Z</time></trkpt><trkpt lat="45.6673685" lon="8.1913666"><ele>497.6</ele><time>2026-05-03T09:34:59.02Z</time></trkpt><trkpt lat="45.6672883" lon="8.191295"><ele>496.8</ele><time>2026-05-03T09:35:00.019Z</time></trkpt><trkpt lat="45.6672003" lon="8.1912181"><ele>496.0</ele><time>2026-05-03T09:35:01.014Z</time></trkpt><trkpt lat="45.6671342" lon="8.1911382"><ele>496.0</ele><time>2026-05-03T09:35:02.013Z</time></trkpt><trkpt lat="45.6671067" lon="8.1910565"><ele>496.0</ele><time>2026-05-03T09:35:03.019Z</time></trkpt><trkpt lat="45.6671709" lon="8.1908904"><ele>496.0</ele><time>2026-05-03T09:35:05.023Z</time></trkpt><trkpt lat="45.6672381" lon="8.1908169"><ele>496.0</ele><time>2026-05-03T09:35:06.021Z</time></trkpt><trkpt lat="45.6673254" lon="8.1907535"><ele>496.0</ele><time>2026-05-03T09:35:07.008Z</time></trkpt><trkpt lat="45.6674288" lon="8.1906911"><ele>496.25</ele><time>2026-05-03T09:35:08.024Z</time></trkpt><trkpt lat="45.6675438" lon="8.190624"><ele>496.5</ele><time>2026-05-03T09:35:09.019Z</time></trkpt><trkpt lat="45.6676701" lon="8.1905468"><ele>496.75</ele><time>2026-05-03T09:35:10.031Z</time></trkpt><trkpt lat="45.6678037" lon="8.1904758"><ele>497.0</ele><time>2026-05-03T09:35:11.028Z</time></trkpt><trkpt lat="45.6679352" lon="8.1904131"><ele>498.8</ele><time>2026-05-03T09:35:12.007Z</time></trkpt><trkpt lat="45.6680591" lon="8.1903472"><ele>500.6</ele><time>2026-05-03T09:35:13.003Z</time></trkpt><trkpt lat="45.6681724" lon="8.1902888"><ele>502.40000000000003</ele><time>2026-05-03T09:35:14.013Z</time></trkpt><trkpt lat="45.6682551" lon="8.1902225"><ele>504.20000000000005</ele><time>2026-05-03T09:35:15.023Z</time></trkpt><trkpt lat="45.6683071" lon="8.1901312"><ele>506.0</ele><time>2026-05-03T09:35:16.025Z</time></trkpt><trkpt lat="45.6683433" lon="8.1900386"><ele>506.0</ele><time>2026-05-03T09:35:17.006Z</time></trkpt><trkpt lat="45.668455" lon="8.1900412"><ele>506.0</ele><time>2026-05-03T09:35:20.012Z</time></trkpt><trkpt lat="45.668539" lon="8.1900802"><ele>506.0</ele><time>2026-05-03T09:35:21.005Z</time></trkpt><trkpt lat="45.6686333" lon="8.1901281"><ele>506.0</ele><time>2026-05-03T09:35:22.027Z</time></trkpt><trkpt lat="45.6687372" lon="8.1901676"><ele>506.0</ele><time>2026-05-03T09:35:23.008Z</time></trkpt><trkpt lat="45.6688305" lon="8.1902085"><ele>507.20000000000005</ele><time>2026-05-03T09:35:24.027Z</time></trkpt><trkpt lat="45.6688966" lon="8.1902319"><ele>508.40000000000003</ele><time>2026-05-03T09:35:25.03Z</time></trkpt><trkpt lat="45.6690171" lon="8.1902051"><ele>509.6</ele><time>2026-05-03T09:35:27.017Z</time></trkpt><trkpt lat="45.6691366" lon="8.1901967"><ele>510.8</ele><time>2026-05-03T09:35:29.022Z</time></trkpt><trkpt lat="45.6692517" lon="8.1902514"><ele>512.0</ele><time>2026-05-03T09:35:31.008Z</time></trkpt><trkpt lat="45.6693695" lon="8.1902263"><ele>511.99999999999994</ele><time>2026-05-03T09:35:33.023Z</time></trkpt><trkpt lat="45.669432" lon="8.1901917"><ele>512.0</ele><time>2026-05-03T09:35:33.999Z</time></trkpt><trkpt lat="45.6695125" lon="8.1901644"><ele>512.0</ele><time>2026-05-03T09:35:35.011Z</time></trkpt><trkpt lat="45.6696065" lon="8.1901372"><ele>512.0</ele><time>2026-05-03T09:35:36.016Z</time></trkpt><trkpt lat="45.6696949" lon="8.1901017"><ele>511.99999999999994</ele><time>2026-05-03T09:35:37.016Z</time></trkpt><trkpt lat="45.6697812" lon="8.1900582"><ele>512.0</ele><time>2026-05-03T09:35:38.023Z</time></trkpt><trkpt lat="45.6698588" lon="8.1900012"><ele>513.5</ele><time>2026-05-03T09:35:39.01Z</time></trkpt><trkpt lat="45.6699167" lon="8.1899407"><ele>515.0</ele><time>2026-05-03T09:35:40.004Z</time></trkpt><trkpt lat="45.669965" lon="8.189864"><ele>516.5</ele><time>2026-05-03T09:35:41.006Z</time></trkpt><trkpt lat="45.6700101" lon="8.1897944"><ele>518.0</ele><time>2026-05-03T09:35:42.004Z</time></trkpt><trkpt lat="45.6700567" lon="8.1897246"><ele>519.5</ele><time>2026-05-03T09:35:43.01Z</time></trkpt><trkpt lat="45.6701555" lon="8.1896621"><ele>521.0</ele><time>2026-05-03T09:35:45.009Z</time></trkpt><trkpt lat="45.6702277" lon="8.1897003"><ele>525.4</ele><time>2026-05-03T09:35:46.023Z</time></trkpt><trkpt lat="45.6703078" lon="8.1897332"><ele>529.8</ele><time>2026-05-03T09:35:47.007Z</time></trkpt><trkpt lat="45.6704077" lon="8.1897536"><ele>534.1999999999999</ele><time>2026-05-03T09:35:48.013Z</time></trkpt><trkpt lat="45.6705272" lon="8.1897889"><ele>538.6</ele><time>2026-05-03T09:35:49.013Z</time></trkpt><trkpt lat="45.6706305" lon="8.1897845"><ele>543.0</ele><time>2026-05-03T09:35:50.013Z</time></trkpt><trkpt lat="45.6707341" lon="8.1897314"><ele>543.0</ele><time>2026-05-03T09:35:51.013Z</time></trkpt><trkpt lat="45.6708389" lon="8.1896838"><ele>543.0</ele><time>2026-05-03T09:35:52.02Z</time></trkpt><trkpt lat="45.6709179" lon="8.1896734"><ele>543.0</ele><time>2026-05-03T09:35:53.015Z</time></trkpt><trkpt lat="45.6709874" lon="8.1896739"><ele>543.0</ele><time>2026-05-03T09:35:54.015Z</time></trkpt><trkpt lat="45.6710506" lon="8.189656"><ele>543.0</ele><time>2026-05-03T09:35:56.017Z</time></trkpt><trkpt lat="45.6711234" lon="8.1895709"><ele>543.0</ele><time>2026-05-03T09:35:58.034Z</time></trkpt><trkpt lat="45.6712285" lon="8.1895033"><ele>545.4</ele><time>2026-05-03T09:36:00.015Z</time></trkpt><trkpt lat="45.6713032" lon="8.1895009"><ele>547.8</ele><time>2026-05-03T09:36:01.013Z</time></trkpt><trkpt lat="45.6713937" lon="8.1894896"><ele>550.2</ele><time>2026-05-03T09:36:02.021Z</time></trkpt><trkpt lat="45.6714858" lon="8.1894755"><ele>552.6</ele><time>2026-05-03T09:36:03.013Z</time></trkpt><trkpt lat="45.6715802" lon="8.1894337"><ele>555.0</ele><time>2026-05-03T09:36:05.012Z</time></trkpt><trkpt lat="45.6716725" lon="8.1893952"><ele>555.0</ele><time>2026-05-03T09:36:07.005Z</time></trkpt><trkpt lat="45.6717518" lon="8.1893762"><ele>555.0</ele><time>2026-05-03T09:36:09.025Z</time></trkpt><trkpt lat="45.6718015" lon="8.1893166"><ele>555.0</ele><time>2026-05-03T09:36:20.03Z</time></trkpt><trkpt lat="45.6718765" lon="8.189282"><ele>555.0</ele><time>2026-05-03T09:36:28.025Z</time></trkpt><trkpt lat="45.6719987" lon="8.1892351"><ele>555.0</ele><time>2026-05-03T09:36:30.002Z</time></trkpt><trkpt lat="45.6720652" lon="8.1892248"><ele>555.0</ele><time>2026-05-03T09:36:31.027Z</time></trkpt><trkpt lat="45.6721766" lon="8.1892238"><ele>556.6666666666666</ele><time>2026-05-03T09:36:33.023Z</time></trkpt><trkpt lat="45.6722962" lon="8.1892091"><ele>558.3333333333334</ele><time>2026-05-03T09:36:35.014Z</time></trkpt><trkpt lat="45.6723591" lon="8.1892141"><ele>560.0</ele><time>2026-05-03T09:36:37.017Z</time></trkpt><trkpt lat="45.6724349" lon="8.189256"><ele>561.6666666666667</ele><time>2026-05-03T09:36:39.008Z</time></trkpt><trkpt lat="45.6724997" lon="8.1892756"><ele>563.3333333333334</ele><time>2026-05-03T09:36:40.036Z</time></trkpt><trkpt lat="45.6726171" lon="8.1892632"><ele>565.0</ele><time>2026-05-03T09:36:42.019Z</time></trkpt><trkpt lat="45.672713" lon="8.1892523"><ele>566.3333333333334</ele><time>2026-05-03T09:36:44.013Z</time></trkpt><trkpt lat="45.6727947" lon="8.1892223"><ele>567.6666666666667</ele><time>2026-05-03T09:36:46.01Z</time></trkpt><trkpt lat="45.6729086" lon="8.1891968"><ele>569.0</ele><time>2026-05-03T09:36:48.025Z</time></trkpt><trkpt lat="45.6729796" lon="8.1891883"><ele>570.3333333333334</ele><time>2026-05-03T09:36:49.009Z</time></trkpt><trkpt lat="45.6730535" lon="8.1891792"><ele>571.6666666666666</ele><time>2026-05-03T09:36:50.021Z</time></trkpt><trkpt lat="45.6731361" lon="8.1891777"><ele>573.0</ele><time>2026-05-03T09:36:51.008Z</time></trkpt><trkpt lat="45.67322" lon="8.1891716"><ele>573.0</ele><time>2026-05-03T09:36:52.018Z</time></trkpt><trkpt lat="45.6732876" lon="8.1891545"><ele>573.0</ele><time>2026-05-03T09:36:53.016Z</time></trkpt><trkpt lat="45.6733776" lon="8.1890995"><ele>573.0</ele><time>2026-05-03T09:36:55.008Z</time></trkpt><trkpt lat="45.6734103" lon="8.1891913"><ele>573.0</ele><time>2026-05-03T09:36:57.022Z</time></trkpt><trkpt lat="45.6733863" lon="8.1893465"><ele>573.0</ele><time>2026-05-03T09:36:59.043Z</time></trkpt><trkpt lat="45.6733539" lon="8.1894595"><ele>573.0</ele><time>2026-05-03T09:37:00.006Z</time></trkpt><trkpt lat="45.6733029" lon="8.1895517"><ele>573.0</ele><time>2026-05-03T09:37:01.016Z</time></trkpt><trkpt lat="45.6732424" lon="8.189648"><ele>573.0</ele><time>2026-05-03T09:37:02.028Z</time></trkpt><trkpt lat="45.6731933" lon="8.1897548"><ele>573.0</ele><time>2026-05-03T09:37:03.005Z</time></trkpt><trkpt lat="45.6731923" lon="8.1898711"><ele>573.0</ele><time>2026-05-03T09:37:04.005Z</time></trkpt><trkpt lat="45.6731963" lon="8.1899802"><ele>573.0</ele><time>2026-05-03T09:37:05.017Z</time></trkpt><trkpt lat="45.6732137" lon="8.190068"><ele>573.0</ele><time>2026-05-03T09:37:06.014Z</time></trkpt><trkpt lat="45.6732692" lon="8.1901568"><ele>572.3333333333334</ele><time>2026-05-03T09:37:07.004Z</time></trkpt><trkpt lat="45.6733382" lon="8.1902204"><ele>571.6666666666666</ele><time>2026-05-03T09:37:08.015Z</time></trkpt><trkpt lat="45.6734052" lon="8.1902936"><ele>571.0</ele><time>2026-05-03T09:37:09.015Z</time></trkpt><trkpt lat="45.6734798" lon="8.1903634"><ele>570.3333333333333</ele><time>2026-05-03T09:37:10.009Z</time></trkpt><trkpt lat="45.6735628" lon="8.1904115"><ele>569.6666666666666</ele><time>2026-05-03T09:37:11.007Z</time></trkpt><trkpt lat="45.6736345" lon="8.1904411"><ele>569.0</ele><time>2026-05-03T09:37:12.011Z</time></trkpt><trkpt lat="45.6736673" lon="8.190521"><ele>569.6666666666666</ele><time>2026-05-03T09:37:14.017Z</time></trkpt><trkpt lat="45.6736276" lon="8.1906447"><ele>570.3333333333333</ele><time>2026-05-03T09:37:16.023Z</time></trkpt><trkpt lat="45.6736" lon="8.1907403"><ele>571.0</ele><time>2026-05-03T09:37:17.003Z</time></trkpt><trkpt lat="45.673521" lon="8.1908247"><ele>571.6666666666666</ele><time>2026-05-03T09:37:19.016Z</time></trkpt><trkpt lat="45.6734128" lon="8.1908029"><ele>572.3333333333334</ele><time>2026-05-03T09:37:21.004Z</time></trkpt><trkpt lat="45.6733428" lon="8.1907904"><ele>573.0</ele><time>2026-05-03T09:37:22.02Z</time></trkpt><trkpt lat="45.6732804" lon="8.1908136"><ele>573.0</ele><time>2026-05-03T09:37:23.004Z</time></trkpt><trkpt lat="45.6732126" lon="8.1908592"><ele>573.0</ele><time>2026-05-03T09:37:23.997Z</time></trkpt><trkpt lat="45.6731569" lon="8.1909227"><ele>573.0</ele><time>2026-05-03T09:37:25Z</time></trkpt><trkpt lat="45.6730757" lon="8.1910425"><ele>573.0</ele><time>2026-05-03T09:37:27.007Z</time></trkpt><trkpt lat="45.673021" lon="8.1911964"><ele>573.0</ele><time>2026-05-03T09:37:29.007Z</time></trkpt><trkpt lat="45.6729976" lon="8.1912903"><ele>573.0</ele><time>2026-05-03T09:37:30.007Z</time></trkpt><trkpt lat="45.6729747" lon="8.1913937"><ele>573.0</ele><time>2026-05-03T09:37:31.006Z</time></trkpt><trkpt lat="45.6729417" lon="8.1915015"><ele>573.0</ele><time>2026-05-03T09:37:32.003Z</time></trkpt><trkpt lat="45.6729069" lon="8.1916145"><ele>573.0</ele><time>2026-05-03T09:37:33.005Z</time></trkpt><trkpt lat="45.6728782" lon="8.1917211"><ele>573.0</ele><time>2026-05-03T09:37:34.011Z</time></trkpt><trkpt lat="45.6728564" lon="8.1918187"><ele>573.0</ele><time>2026-05-03T09:37:35.005Z</time></trkpt><trkpt lat="45.67283" lon="8.1919249"><ele>574.3333333333334</ele><time>2026-05-03T09:37:36.011Z</time></trkpt><trkpt lat="45.6728144" lon="8.1920252"><ele>575.6666666666666</ele><time>2026-05-03T09:37:37.018Z</time></trkpt><trkpt lat="45.6728257" lon="8.1921179"><ele>577.0</ele><time>2026-05-03T09:37:42.019Z</time></trkpt><trkpt lat="45.6729094" lon="8.1921781"><ele>578.3333333333333</ele><time>2026-05-03T09:37:46.015Z</time></trkpt><trkpt lat="45.6729692" lon="8.1922883"><ele>579.6666666666666</ele><time>2026-05-03T09:37:48.007Z</time></trkpt><trkpt lat="45.6730737" lon="8.1923582"><ele>581.0</ele><time>2026-05-03T09:37:50.011Z</time></trkpt><trkpt lat="45.6731382" lon="8.1923391"><ele>581.0</ele><time>2026-05-03T09:37:51.028Z</time></trkpt><trkpt lat="45.6732079" lon="8.1922941"><ele>581.0</ele><time>2026-05-03T09:37:52.027Z</time></trkpt><trkpt lat="45.6732871" lon="8.1922261"><ele>581.0</ele><time>2026-05-03T09:37:53.016Z</time></trkpt><trkpt lat="45.6733493" lon="8.192121"><ele>581.0</ele><time>2026-05-03T09:37:54.018Z</time></trkpt><trkpt lat="45.6734195" lon="8.1920176"><ele>581.0</ele><time>2026-05-03T09:37:55.003Z</time></trkpt><trkpt lat="45.6734924" lon="8.1919231"><ele>581.0</ele><time>2026-05-03T09:37:56.046Z</time></trkpt><trkpt lat="45.6735637" lon="8.1918336"><ele>581.0</ele><time>2026-05-03T09:37:57.022Z</time></trkpt><trkpt lat="45.6736307" lon="8.1917363"><ele>581.0</ele><time>2026-05-03T09:37:58.013Z</time></trkpt><trkpt lat="45.6736882" lon="8.1916245"><ele>581.0</ele><time>2026-05-03T09:37:59.007Z</time></trkpt><trkpt lat="45.6737378" lon="8.1915033"><ele>581.0</ele><time>2026-05-03T09:38:00.021Z</time></trkpt><trkpt lat="45.6737973" lon="8.1913816"><ele>583.5</ele><time>2026-05-03T09:38:01.014Z</time></trkpt><trkpt lat="45.6738839" lon="8.1912652"><ele>586.0</ele><time>2026-05-03T09:38:02.023Z</time></trkpt><trkpt lat="45.673977" lon="8.1911362"><ele>588.5</ele><time>2026-05-03T09:38:03.016Z</time></trkpt><trkpt lat="45.6740797" lon="8.1910041"><ele>591.0</ele><time>2026-05-03T09:38:04.045Z</time></trkpt><trkpt lat="45.6741834" lon="8.1908837"><ele>591.0</ele><time>2026-05-03T09:38:05.025Z</time></trkpt><trkpt lat="45.674292" lon="8.1907659"><ele>591.0</ele><time>2026-05-03T09:38:06.015Z</time></trkpt><trkpt lat="45.6744063" lon="8.1906555"><ele>591.0</ele><time>2026-05-03T09:38:07.013Z</time></trkpt><trkpt lat="45.6745054" lon="8.1905446"><ele>591.0</ele><time>2026-05-03T09:38:08.019Z</time></trkpt><trkpt lat="45.6745828" lon="8.1904102"><ele>591.0</ele><time>2026-05-03T09:38:09.012Z</time></trkpt><trkpt lat="45.674627" lon="8.1902393"><ele>591.0</ele><time>2026-05-03T09:38:10.023Z</time></trkpt><trkpt lat="45.6746434" lon="8.1900312"><ele>591.0</ele><time>2026-05-03T09:38:11.016Z</time></trkpt><trkpt lat="45.6746404" lon="8.1898259"><ele>591.0</ele><time>2026-05-03T09:38:12.017Z</time></trkpt><trkpt lat="45.674631" lon="8.1896215"><ele>591.0</ele><time>2026-05-03T09:38:13.017Z</time></trkpt><trkpt lat="45.6746202" lon="8.1893998"><ele>591.0</ele><time>2026-05-03T09:38:14.009Z</time></trkpt><trkpt lat="45.6746092" lon="8.1891757"><ele>591.0</ele><time>2026-05-03T09:38:15.014Z</time></trkpt><trkpt lat="45.6745967" lon="8.188949"><ele>593.0</ele><time>2026-05-03T09:38:16.016Z</time></trkpt><trkpt lat="45.674599" lon="8.1887506"><ele>595.0</ele><time>2026-05-03T09:38:17.004Z</time></trkpt><trkpt lat="45.6746127" lon="8.1885676"><ele>597.0</ele><time>2026-05-03T09:38:18.007Z</time></trkpt><trkpt lat="45.6746467" lon="8.1884005"><ele>599.0</ele><time>2026-05-03T09:38:19.014Z</time></trkpt><trkpt lat="45.6746948" lon="8.1882481"><ele>600.25</ele><time>2026-05-03T09:38:20.016Z</time></trkpt><trkpt lat="45.6747346" lon="8.1880934"><ele>601.5</ele><time>2026-05-03T09:38:21.018Z</time></trkpt><trkpt lat="45.6747811" lon="8.1879352"><ele>602.75</ele><time>2026-05-03T09:38:22.017Z</time></trkpt><trkpt lat="45.6748158" lon="8.1877723"><ele>604.0</ele><time>2026-05-03T09:38:23.01Z</time></trkpt><trkpt lat="45.6748321" lon="8.1876012"><ele>604.0</ele><time>2026-05-03T09:38:24.035Z</time></trkpt><trkpt lat="45.674842" lon="8.1874338"><ele>604.0</ele><time>2026-05-03T09:38:25.018Z</time></trkpt><trkpt lat="45.6748427" lon="8.1872621"><ele>604.0</ele><time>2026-05-03T09:38:26.017Z</time></trkpt><trkpt lat="45.6748257" lon="8.1870916"><ele>604.0</ele><time>2026-05-03T09:38:27.016Z</time></trkpt><trkpt lat="45.6747586" lon="8.1869415"><ele>603.75</ele><time>2026-05-03T09:38:28.011Z</time></trkpt><trkpt lat="45.6746457" lon="8.1868054"><ele>603.5</ele><time>2026-05-03T09:38:29.007Z</time></trkpt><trkpt lat="45.6745292" lon="8.1866806"><ele>603.25</ele><time>2026-05-03T09:38:29.997Z</time></trkpt><trkpt lat="45.6744207" lon="8.18654"><ele>603.0</ele><time>2026-05-03T09:38:31.01Z</time></trkpt><trkpt lat="45.6743195" lon="8.1863855"><ele>605.0</ele><time>2026-05-03T09:38:32.008Z</time></trkpt><trkpt lat="45.6742324" lon="8.1862229"><ele>607.0</ele><time>2026-05-03T09:38:33.004Z</time></trkpt><trkpt lat="45.6741687" lon="8.1860531"><ele>609.0</ele><time>2026-05-03T09:38:33.998Z</time></trkpt><trkpt lat="45.6741205" lon="8.1858766"><ele>611.0</ele><time>2026-05-03T09:38:35.01Z</time></trkpt><trkpt lat="45.6740902" lon="8.1856956"><ele>612.0</ele><time>2026-05-03T09:38:36Z</time></trkpt><trkpt lat="45.6740667" lon="8.1855306"><ele>613.0</ele><time>2026-05-03T09:38:37.002Z</time></trkpt><trkpt lat="45.6740507" lon="8.1853806"><ele>614.0</ele><time>2026-05-03T09:38:38.006Z</time></trkpt><trkpt lat="45.6740358" lon="8.1852365"><ele>615.0</ele><time>2026-05-03T09:38:39.013Z</time></trkpt><trkpt lat="45.6740411" lon="8.1851086"><ele>616.0</ele><time>2026-05-03T09:38:40.033Z</time></trkpt><trkpt lat="45.6740663" lon="8.1849746"><ele>621.5</ele><time>2026-05-03T09:38:41.012Z</time></trkpt><trkpt lat="45.6741077" lon="8.1848333"><ele>627.0</ele><time>2026-05-03T09:38:42.014Z</time></trkpt><trkpt lat="45.6741542" lon="8.1846765"><ele>632.5</ele><time>2026-05-03T09:38:43.024Z</time></trkpt><trkpt lat="45.6741916" lon="8.1845193"><ele>638.0</ele><time>2026-05-03T09:38:44.01Z</time></trkpt><trkpt lat="45.6742286" lon="8.1843602"><ele>638.0</ele><time>2026-05-03T09:38:45.007Z</time></trkpt><trkpt lat="45.6742763" lon="8.1842062"><ele>638.0</ele><time>2026-05-03T09:38:46.013Z</time></trkpt><trkpt lat="45.6743486" lon="8.1840746"><ele>638.0</ele><time>2026-05-03T09:38:47.004Z</time></trkpt><trkpt lat="45.6744226" lon="8.1839525"><ele>638.0</ele><time>2026-05-03T09:38:48.009Z</time></trkpt><trkpt lat="45.6744821" lon="8.1838584"><ele>638.0</ele><time>2026-05-03T09:38:49.012Z</time></trkpt><trkpt lat="45.6745165" lon="8.1837652"><ele>637.0</ele><time>2026-05-03T09:38:50.008Z</time></trkpt><trkpt lat="45.674543" lon="8.1836827"><ele>636.0</ele><time>2026-05-03T09:38:51.019Z</time></trkpt><trkpt lat="45.6745665" lon="8.1835763"><ele>635.0</ele><time>2026-05-03T09:38:52.022Z</time></trkpt><trkpt lat="45.674596" lon="8.1834645"><ele>634.0</ele><time>2026-05-03T09:38:53.003Z</time></trkpt><trkpt lat="45.6746242" lon="8.1833293"><ele>633.0</ele><time>2026-05-03T09:38:54.025Z</time></trkpt><trkpt lat="45.6746574" lon="8.1831891"><ele>632.0</ele><time>2026-05-03T09:38:55.006Z</time></trkpt><trkpt lat="45.6746883" lon="8.1830345"><ele>632.0</ele><time>2026-05-03T09:38:56.033Z</time></trkpt><trkpt lat="45.6747228" lon="8.1828794"><ele>632.0</ele><time>2026-05-03T09:38:57.024Z</time></trkpt><trkpt lat="45.6747598" lon="8.1827166"><ele>632.0</ele><time>2026-05-03T09:38:58.021Z</time></trkpt><trkpt lat="45.6748053" lon="8.1825541"><ele>632.0</ele><time>2026-05-03T09:38:59.009Z</time></trkpt><trkpt lat="45.6748402" lon="8.1823731"><ele>633.25</ele><time>2026-05-03T09:39:00.021Z</time></trkpt><trkpt lat="45.674857" lon="8.1821745"><ele>634.5</ele><time>2026-05-03T09:39:01.01Z</time></trkpt><trkpt lat="45.674859" lon="8.1819597"><ele>635.75</ele><time>2026-05-03T09:39:02.017Z</time></trkpt><trkpt lat="45.6748495" lon="8.1817532"><ele>637.0</ele><time>2026-05-03T09:39:03.003Z</time></trkpt><trkpt lat="45.6748287" lon="8.1815395"><ele>638.5</ele><time>2026-05-03T09:39:04.016Z</time></trkpt><trkpt lat="45.6748257" lon="8.1813336"><ele>640.0</ele><time>2026-05-03T09:39:05.01Z</time></trkpt><trkpt lat="45.6748344" lon="8.181147"><ele>641.5</ele><time>2026-05-03T09:39:06.017Z</time></trkpt><trkpt lat="45.6748673" lon="8.1809713"><ele>643.0</ele><time>2026-05-03T09:39:07.008Z</time></trkpt><trkpt lat="45.6749141" lon="8.1807887"><ele>642.75</ele><time>2026-05-03T09:39:08.005Z</time></trkpt><trkpt lat="45.6749548" lon="8.1806077"><ele>642.5</ele><time>2026-05-03T09:39:09.009Z</time></trkpt><trkpt lat="45.6749741" lon="8.1804388"><ele>642.25</ele><time>2026-05-03T09:39:10.014Z</time></trkpt><trkpt lat="45.6749786" lon="8.1802869"><ele>642.0</ele><time>2026-05-03T09:39:11.023Z</time></trkpt><trkpt lat="45.6749503" lon="8.1801474"><ele>642.0</ele><time>2026-05-03T09:39:12.022Z</time></trkpt><trkpt lat="45.6749126" lon="8.1800146"><ele>642.0</ele><time>2026-05-03T09:39:13.011Z</time></trkpt><trkpt lat="45.6748736" lon="8.1799058"><ele>642.0</ele><time>2026-05-03T09:39:14.016Z</time></trkpt><trkpt lat="45.674851" lon="8.1797981"><ele>642.0</ele><time>2026-05-03T09:39:15.025Z</time></trkpt><trkpt lat="45.6748342" lon="8.1796893"><ele>642.0</ele><time>2026-05-03T09:39:16.02Z</time></trkpt><trkpt lat="45.6748355" lon="8.1795948"><ele>642.0</ele><time>2026-05-03T09:39:17.005Z</time></trkpt><trkpt lat="45.6748406" lon="8.1795038"><ele>640.6</ele><time>2026-05-03T09:39:18.011Z</time></trkpt><trkpt lat="45.6748701" lon="8.1794045"><ele>639.2</ele><time>2026-05-03T09:39:19.025Z</time></trkpt><trkpt lat="45.6749431" lon="8.1793095"><ele>637.8</ele><time>2026-05-03T09:39:20.023Z</time></trkpt><trkpt lat="45.6750309" lon="8.179238"><ele>636.4</ele><time>2026-05-03T09:39:21.015Z</time></trkpt><trkpt lat="45.6751037" lon="8.17915"><ele>635.0</ele><time>2026-05-03T09:39:22.028Z</time></trkpt><trkpt lat="45.6751184" lon="8.179006"><ele>633.5</ele><time>2026-05-03T09:39:23.013Z</time></trkpt><trkpt lat="45.6751023" lon="8.1788473"><ele>632.0</ele><time>2026-05-03T09:39:24.012Z</time></trkpt><trkpt lat="45.6750729" lon="8.1786921"><ele>630.5</ele><time>2026-05-03T09:39:25.005Z</time></trkpt><trkpt lat="45.6750443" lon="8.1785279"><ele>629.0</ele><time>2026-05-03T09:39:26.018Z</time></trkpt><trkpt lat="45.6750107" lon="8.1783709"><ele>629.0</ele><time>2026-05-03T09:39:27.012Z</time></trkpt><trkpt lat="45.6749815" lon="8.178211"><ele>629.0</ele><time>2026-05-03T09:39:28.018Z</time></trkpt><trkpt lat="45.6749632" lon="8.1780627"><ele>629.0</ele><time>2026-05-03T09:39:29.011Z</time></trkpt><trkpt lat="45.6749634" lon="8.1779267"><ele>629.0</ele><time>2026-05-03T09:39:30.033Z</time></trkpt><trkpt lat="45.6749824" lon="8.1777773"><ele>629.0</ele><time>2026-05-03T09:39:31.018Z</time></trkpt><trkpt lat="45.675029" lon="8.1776285"><ele>628.4</ele><time>2026-05-03T09:39:32Z</time></trkpt><trkpt lat="45.6750874" lon="8.1774867"><ele>627.8</ele><time>2026-05-03T09:39:33.025Z</time></trkpt><trkpt lat="45.6751652" lon="8.1773508"><ele>627.2</ele><time>2026-05-03T09:39:34.018Z</time></trkpt><trkpt lat="45.675227" lon="8.1772242"><ele>626.6</ele><time>2026-05-03T09:39:35.027Z</time></trkpt><trkpt lat="45.6752876" lon="8.1771105"><ele>626.0</ele><time>2026-05-03T09:39:36.023Z</time></trkpt><trkpt lat="45.6753332" lon="8.1770186"><ele>628.2</ele><time>2026-05-03T09:39:37.019Z</time></trkpt><trkpt lat="45.6753722" lon="8.1769393"><ele>630.4000000000001</ele><time>2026-05-03T09:39:38.019Z</time></trkpt><trkpt lat="45.6754393" lon="8.1769088"><ele>632.6</ele><time>2026-05-03T09:39:39.011Z</time></trkpt><trkpt lat="45.6755339" lon="8.1769284"><ele>634.8000000000001</ele><time>2026-05-03T09:39:40.013Z</time></trkpt><trkpt lat="45.6756411" lon="8.1769648"><ele>637.0</ele><time>2026-05-03T09:39:41.006Z</time></trkpt><trkpt lat="45.6757475" lon="8.1769824"><ele>637.0</ele><time>2026-05-03T09:39:42.01Z</time></trkpt><trkpt lat="45.6758655" lon="8.1770087"><ele>637.0</ele><time>2026-05-03T09:39:43.009Z</time></trkpt><trkpt lat="45.6759882" lon="8.1770441"><ele>637.0</ele><time>2026-05-03T09:39:44.011Z</time></trkpt><trkpt lat="45.6761143" lon="8.1770707"><ele>637.0</ele><time>2026-05-03T09:39:45.02Z</time></trkpt><trkpt lat="45.6762461" lon="8.1771054"><ele>639.0</ele><time>2026-05-03T09:39:46.01Z</time></trkpt><trkpt lat="45.6763794" lon="8.177135"><ele>641.0</ele><time>2026-05-03T09:39:47.01Z</time></trkpt><trkpt lat="45.676508" lon="8.1771669"><ele>643.0</ele><time>2026-05-03T09:39:48.028Z</time></trkpt><trkpt lat="45.6766324" lon="8.1771956"><ele>645.0</ele><time>2026-05-03T09:39:49.01Z</time></trkpt><trkpt lat="45.6767443" lon="8.1772435"><ele>645.0</ele><time>2026-05-03T09:39:50.016Z</time></trkpt><trkpt lat="45.6768536" lon="8.1772949"><ele>645.0</ele><time>2026-05-03T09:39:51.017Z</time></trkpt><trkpt lat="45.6769577" lon="8.177333"><ele>645.0</ele><time>2026-05-03T09:39:52.007Z</time></trkpt><trkpt lat="45.6770627" lon="8.177357"><ele>645.0</ele><time>2026-05-03T09:39:53.01Z</time></trkpt><trkpt lat="45.6771637" lon="8.1773684"><ele>645.0</ele><time>2026-05-03T09:39:54.012Z</time></trkpt><trkpt lat="45.6772581" lon="8.1773556"><ele>642.2</ele><time>2026-05-03T09:39:55.018Z</time></trkpt><trkpt lat="45.6773438" lon="8.1773059"><ele>639.4</ele><time>2026-05-03T09:39:56.006Z</time></trkpt><trkpt lat="45.6774276" lon="8.1772279"><ele>636.6</ele><time>2026-05-03T09:39:57.018Z</time></trkpt><trkpt lat="45.6775076" lon="8.1771282"><ele>633.8</ele><time>2026-05-03T09:39:58.023Z</time></trkpt><trkpt lat="45.6775806" lon="8.177001"><ele>631.0</ele><time>2026-05-03T09:39:59.01Z</time></trkpt><trkpt lat="45.6776461" lon="8.1768754"><ele>631.0</ele><time>2026-05-03T09:40:00.019Z</time></trkpt><trkpt lat="45.677712" lon="8.1767765"><ele>631.0</ele><time>2026-05-03T09:40:01.023Z</time></trkpt><trkpt lat="45.677777" lon="8.1767177"><ele>631.0</ele><time>2026-05-03T09:40:02.017Z</time></trkpt><trkpt lat="45.6778535" lon="8.1767186"><ele>631.0</ele><time>2026-05-03T09:40:03.005Z</time></trkpt><trkpt lat="45.6779298" lon="8.1767252"><ele>631.0</ele><time>2026-05-03T09:40:04.008Z</time></trkpt><trkpt lat="45.6780222" lon="8.1767356"><ele>631.0</ele><time>2026-05-03T09:40:05.015Z</time></trkpt><trkpt lat="45.6781211" lon="8.1767449"><ele>629.6</ele><time>2026-05-03T09:40:06.019Z</time></trkpt><trkpt lat="45.6782229" lon="8.1767341"><ele>628.2</ele><time>2026-05-03T09:40:07.016Z</time></trkpt><trkpt lat="45.6783272" lon="8.1767431"><ele>626.8</ele><time>2026-05-03T09:40:08.012Z</time></trkpt><trkpt lat="45.6784327" lon="8.1767514"><ele>625.4</ele><time>2026-05-03T09:40:09.01Z</time></trkpt><trkpt lat="45.6785474" lon="8.1767449"><ele>624.0</ele><time>2026-05-03T09:40:10.007Z</time></trkpt><trkpt lat="45.6786595" lon="8.1767357"><ele>624.0</ele><time>2026-05-03T09:40:11.016Z</time></trkpt><trkpt lat="45.6787731" lon="8.1767347"><ele>624.0</ele><time>2026-05-03T09:40:11.996Z</time></trkpt><trkpt lat="45.6788882" lon="8.1767371"><ele>624.0</ele><time>2026-05-03T09:40:13.011Z</time></trkpt><trkpt lat="45.6789968" lon="8.176733"><ele>624.0</ele><time>2026-05-03T09:40:14.014Z</time></trkpt><trkpt lat="45.6790916" lon="8.1767229"><ele>624.0</ele><time>2026-05-03T09:40:15.012Z</time></trkpt><trkpt lat="45.6791703" lon="8.1766925"><ele>624.0</ele><time>2026-05-03T09:40:16.013Z</time></trkpt><trkpt lat="45.6792384" lon="8.1766163"><ele>624.0</ele><time>2026-05-03T09:40:17.007Z</time></trkpt><trkpt lat="45.6793015" lon="8.176498"><ele>624.0</ele><time>2026-05-03T09:40:18.009Z</time></trkpt><trkpt lat="45.6793676" lon="8.1763798"><ele>624.0</ele><time>2026-05-03T09:40:19.019Z</time></trkpt><trkpt lat="45.6794242" lon="8.1762502"><ele>624.0</ele><time>2026-05-03T09:40:20.02Z</time></trkpt><trkpt lat="45.6794779" lon="8.1761178"><ele>624.5</ele><time>2026-05-03T09:40:21.009Z</time></trkpt><trkpt lat="45.6795293" lon="8.1759876"><ele>625.0</ele><time>2026-05-03T09:40:22.009Z</time></trkpt><trkpt lat="45.6795688" lon="8.1758627"><ele>625.5</ele><time>2026-05-03T09:40:23.01Z</time></trkpt><trkpt lat="45.6796048" lon="8.1757497"><ele>626.0</ele><time>2026-05-03T09:40:24.007Z</time></trkpt><trkpt lat="45.6796583" lon="8.1756602"><ele>626.5</ele><time>2026-05-03T09:40:25.015Z</time></trkpt><trkpt lat="45.6797247" lon="8.175604"><ele>627.0</ele><time>2026-05-03T09:40:26.004Z</time></trkpt><trkpt lat="45.6798148" lon="8.1755934"><ele>627.0</ele><time>2026-05-03T09:40:27.01Z</time></trkpt><trkpt lat="45.679885" lon="8.1756198"><ele>627.0</ele><time>2026-05-03T09:40:28.022Z</time></trkpt><trkpt lat="45.6799567" lon="8.1757001"><ele>627.0</ele><time>2026-05-03T09:40:29.012Z</time></trkpt><trkpt lat="45.6800162" lon="8.1757896"><ele>627.0</ele><time>2026-05-03T09:40:30.014Z</time></trkpt><trkpt lat="45.6800699" lon="8.1758759"><ele>627.0</ele><time>2026-05-03T09:40:31.017Z</time></trkpt><trkpt lat="45.6801137" lon="8.1759732"><ele>627.0</ele><time>2026-05-03T09:40:32.017Z</time></trkpt><trkpt lat="45.6801506" lon="8.1760707"><ele>627.0</ele><time>2026-05-03T09:40:33.022Z</time></trkpt><trkpt lat="45.6802095" lon="8.1761947"><ele>627.0</ele><time>2026-05-03T09:40:35.012Z</time></trkpt><trkpt lat="45.6803408" lon="8.176187"><ele>627.0</ele><time>2026-05-03T09:40:37.036Z</time></trkpt><trkpt lat="45.6804614" lon="8.1761633"><ele>627.0</ele><time>2026-05-03T09:40:39.004Z</time></trkpt><trkpt lat="45.6805547" lon="8.1760727"><ele>625.8000000000001</ele><time>2026-05-03T09:40:41.013Z</time></trkpt><trkpt lat="45.6806106" lon="8.1759052"><ele>624.6</ele><time>2026-05-03T09:40:43.014Z</time></trkpt><trkpt lat="45.6806569" lon="8.1757853"><ele>623.4000000000001</ele><time>2026-05-03T09:40:44.013Z</time></trkpt><trkpt lat="45.6807047" lon="8.1756937"><ele>622.2</ele><time>2026-05-03T09:40:45.006Z</time></trkpt><trkpt lat="45.6807519" lon="8.1756175"><ele>621.0</ele><time>2026-05-03T09:40:46.016Z</time></trkpt><trkpt lat="45.680837" lon="8.175523"><ele>619.8333333333334</ele><time>2026-05-03T09:40:48.027Z</time></trkpt><trkpt lat="45.6809661" lon="8.1755348"><ele>618.6666666666666</ele><time>2026-05-03T09:40:50.024Z</time></trkpt><trkpt lat="45.6810424" lon="8.1755871"><ele>617.5</ele><time>2026-05-03T09:40:51.013Z</time></trkpt><trkpt lat="45.6811129" lon="8.1756491"><ele>616.3333333333333</ele><time>2026-05-03T09:40:51.998Z</time></trkpt><trkpt lat="45.6811723" lon="8.1757114"><ele>615.1666666666666</ele><time>2026-05-03T09:40:53.007Z</time></trkpt><trkpt lat="45.6812318" lon="8.1757555"><ele>614.0</ele><time>2026-05-03T09:40:54.012Z</time></trkpt><trkpt lat="45.6812986" lon="8.1757785"><ele>614.0</ele><time>2026-05-03T09:40:54.999Z</time></trkpt><trkpt lat="45.681366" lon="8.1757844"><ele>614.0</ele><time>2026-05-03T09:40:56.013Z</time></trkpt><trkpt lat="45.6814428" lon="8.1757933"><ele>614.0</ele><time>2026-05-03T09:40:57.01Z</time></trkpt><trkpt lat="45.6815199" lon="8.1758275"><ele>614.0</ele><time>2026-05-03T09:40:58.009Z</time></trkpt><trkpt lat="45.6816043" lon="8.1758572"><ele>614.0</ele><time>2026-05-03T09:40:59.029Z</time></trkpt><trkpt lat="45.681691" lon="8.1758968"><ele>614.0</ele><time>2026-05-03T09:41:00.006Z</time></trkpt><trkpt lat="45.6817716" lon="8.1759443"><ele>614.0</ele><time>2026-05-03T09:41:01.004Z</time></trkpt><trkpt lat="45.6818459" lon="8.1759932"><ele>614.0</ele><time>2026-05-03T09:41:02.014Z</time></trkpt><trkpt lat="45.681913" lon="8.1760219"><ele>614.0</ele><time>2026-05-03T09:41:03.009Z</time></trkpt><trkpt lat="45.6819836" lon="8.1760915"><ele>614.0</ele><time>2026-05-03T09:41:04.021Z</time></trkpt><trkpt lat="45.6820356" lon="8.1761541"><ele>614.0</ele><time>2026-05-03T09:41:05.012Z</time></trkpt><trkpt lat="45.6821351" lon="8.1762167"><ele>614.0</ele><time>2026-05-03T09:41:07.013Z</time></trkpt><trkpt lat="45.6822325" lon="8.1761811"><ele>613.0</ele><time>2026-05-03T09:41:09.019Z</time></trkpt><trkpt lat="45.6823038" lon="8.176037"><ele>612.0</ele><time>2026-05-03T09:41:11.003Z</time></trkpt><trkpt lat="45.6823326" lon="8.1759449"><ele>611.0</ele><time>2026-05-03T09:41:12.014Z</time></trkpt><trkpt lat="45.6823578" lon="8.1758482"><ele>610.0</ele><time>2026-05-03T09:41:13.023Z</time></trkpt><trkpt lat="45.6823624" lon="8.1757561"><ele>609.0</ele><time>2026-05-03T09:41:14.002Z</time></trkpt><trkpt lat="45.6823743" lon="8.1756674"><ele>608.0</ele><time>2026-05-03T09:41:15.009Z</time></trkpt><trkpt lat="45.682454" lon="8.1757083"><ele>608.0</ele><time>2026-05-03T09:41:19.034Z</time></trkpt><trkpt lat="45.682545" lon="8.175723"><ele>608.0</ele><time>2026-05-03T09:41:22.006Z</time></trkpt><trkpt lat="45.6826076" lon="8.1757017"><ele>608.0</ele><time>2026-05-03T09:41:23.021Z</time></trkpt><trkpt lat="45.6826731" lon="8.1756535"><ele>608.0</ele><time>2026-05-03T09:41:24.016Z</time></trkpt><trkpt lat="45.6827304" lon="8.1755452"><ele>608.0</ele><time>2026-05-03T09:41:25.013Z</time></trkpt><trkpt lat="45.6827984" lon="8.1754406"><ele>608.0</ele><time>2026-05-03T09:41:26.019Z</time></trkpt><trkpt lat="45.682895" lon="8.1753583"><ele>600.4</ele><time>2026-05-03T09:41:27.021Z</time></trkpt><trkpt lat="45.6829941" lon="8.1753131"><ele>592.8</ele><time>2026-05-03T09:41:28.015Z</time></trkpt><trkpt lat="45.6830779" lon="8.1752308"><ele>585.2</ele><time>2026-05-03T09:41:29.011Z</time></trkpt><trkpt lat="45.6831295" lon="8.1751363"><ele>577.6</ele><time>2026-05-03T09:41:30.02Z</time></trkpt><trkpt lat="45.6831513" lon="8.175049"><ele>570.0</ele><time>2026-05-03T09:41:31.005Z</time></trkpt><trkpt lat="45.6831632" lon="8.1748847"><ele>570.2857142857142</ele><time>2026-05-03T09:41:33.004Z</time></trkpt><trkpt lat="45.6831584" lon="8.1747765"><ele>570.5714285714286</ele><time>2026-05-03T09:41:34.029Z</time></trkpt><trkpt lat="45.6831574" lon="8.1746709"><ele>570.8571428571429</ele><time>2026-05-03T09:41:35.016Z</time></trkpt><trkpt lat="45.6831598" lon="8.1745713"><ele>571.1428571428571</ele><time>2026-05-03T09:41:36.003Z</time></trkpt><trkpt lat="45.6831698" lon="8.1744701"><ele>571.4285714285714</ele><time>2026-05-03T09:41:37.011Z</time></trkpt><trkpt lat="45.6831724" lon="8.1743537"><ele>571.7142857142857</ele><time>2026-05-03T09:41:38.024Z</time></trkpt><trkpt lat="45.6831578" lon="8.1742464"><ele>572.0</ele><time>2026-05-03T09:41:39.014Z</time></trkpt><trkpt lat="45.6831461" lon="8.1741365"><ele>572.0</ele><time>2026-05-03T09:41:40.003Z</time></trkpt><trkpt lat="45.6831263" lon="8.1740234"><ele>572.0</ele><time>2026-05-03T09:41:41.011Z</time></trkpt><trkpt lat="45.6830938" lon="8.1739415"><ele>572.0</ele><time>2026-05-03T09:41:42.019Z</time></trkpt><trkpt lat="45.6830596" lon="8.1738555"><ele>572.0</ele><time>2026-05-03T09:41:43.001Z</time></trkpt><trkpt lat="45.6830159" lon="8.1737665"><ele>572.0</ele><time>2026-05-03T09:41:44.004Z</time></trkpt><trkpt lat="45.6829881" lon="8.1736714"><ele>572.0</ele><time>2026-05-03T09:41:45.004Z</time></trkpt><trkpt lat="45.6830099" lon="8.1735462"><ele>574.0</ele><time>2026-05-03T09:41:47.002Z</time></trkpt><trkpt lat="45.6831376" lon="8.1735898"><ele>576.0</ele><time>2026-05-03T09:41:50.006Z</time></trkpt><trkpt lat="45.6832179" lon="8.1736156"><ele>578.0</ele><time>2026-05-03T09:41:51.015Z</time></trkpt><trkpt lat="45.6832957" lon="8.1736302"><ele>580.0</ele><time>2026-05-03T09:41:52.026Z</time></trkpt><trkpt lat="45.6833744" lon="8.1736221"><ele>582.0</ele><time>2026-05-03T09:41:53.011Z</time></trkpt><trkpt lat="45.6834645" lon="8.1736169"><ele>582.0</ele><time>2026-05-03T09:41:54.014Z</time></trkpt><trkpt lat="45.68356" lon="8.173606"><ele>582.0</ele><time>2026-05-03T09:41:55.01Z</time></trkpt><trkpt lat="45.683645" lon="8.1736083"><ele>582.0</ele><time>2026-05-03T09:41:56.009Z</time></trkpt><trkpt lat="45.6837201" lon="8.1736031"><ele>582.0</ele><time>2026-05-03T09:41:57.016Z</time></trkpt><trkpt lat="45.6837986" lon="8.1735809"><ele>582.0</ele><time>2026-05-03T09:41:58.012Z</time></trkpt><trkpt lat="45.6838753" lon="8.1735565"><ele>582.0</ele><time>2026-05-03T09:41:59.007Z</time></trkpt><trkpt lat="45.6839523" lon="8.1735669"><ele>581.8000000000001</ele><time>2026-05-03T09:42:00.011Z</time></trkpt><trkpt lat="45.6840385" lon="8.1736203"><ele>581.6</ele><time>2026-05-03T09:42:01.003Z</time></trkpt><trkpt lat="45.6841236" lon="8.1736916"><ele>581.4000000000001</ele><time>2026-05-03T09:42:02Z</time></trkpt><trkpt lat="45.6842153" lon="8.1737344"><ele>581.2</ele><time>2026-05-03T09:42:03.01Z</time></trkpt><trkpt lat="45.6842945" lon="8.1737763"><ele>581.0</ele><time>2026-05-03T09:42:03.995Z</time></trkpt><trkpt lat="45.6843727" lon="8.1738088"><ele>576.3333333333333</ele><time>2026-05-03T09:42:05.011Z</time></trkpt><trkpt lat="45.6844457" lon="8.1738668"><ele>571.6666666666666</ele><time>2026-05-03T09:42:05.998Z</time></trkpt><trkpt lat="45.6845129" lon="8.1739221"><ele>567.0</ele><time>2026-05-03T09:42:07.01Z</time></trkpt><trkpt lat="45.6845752" lon="8.1739772"><ele>562.3333333333334</ele><time>2026-05-03T09:42:08.016Z</time></trkpt><trkpt lat="45.6846826" lon="8.1740578"><ele>557.6666666666667</ele><time>2026-05-03T09:42:10.009Z</time></trkpt><trkpt lat="45.6847322" lon="8.1741147"><ele>553.0</ele><time>2026-05-03T09:42:10.999Z</time></trkpt><trkpt lat="45.6847809" lon="8.1742014"><ele>552.5</ele><time>2026-05-03T09:42:12.008Z</time></trkpt><trkpt lat="45.6848279" lon="8.174316"><ele>552.0</ele><time>2026-05-03T09:42:13.011Z</time></trkpt><trkpt lat="45.6848861" lon="8.1743956"><ele>551.5</ele><time>2026-05-03T09:42:14.014Z</time></trkpt><trkpt lat="45.6849559" lon="8.1744557"><ele>551.0</ele><time>2026-05-03T09:42:15.006Z</time></trkpt><trkpt lat="45.6850352" lon="8.1745224"><ele>550.5</ele><time>2026-05-03T09:42:16.003Z</time></trkpt><trkpt lat="45.6851016" lon="8.1745843"><ele>550.0</ele><time>2026-05-03T09:42:17.01Z</time></trkpt><trkpt lat="45.6851583" lon="8.1746257"><ele>550.0</ele><time>2026-05-03T09:42:18.022Z</time></trkpt><trkpt lat="45.6852169" lon="8.1745401"><ele>550.0</ele><time>2026-05-03T09:42:21.018Z</time></trkpt><trkpt lat="45.6852229" lon="8.1743979"><ele>550.0</ele><time>2026-05-03T09:42:23.002Z</time></trkpt><trkpt lat="45.6851313" lon="8.1742853"><ele>550.0</ele><time>2026-05-03T09:42:25.01Z</time></trkpt><trkpt lat="45.6850884" lon="8.1742146"><ele>550.0</ele><time>2026-05-03T09:42:26.004Z</time></trkpt><trkpt lat="45.685068" lon="8.1741221"><ele>550.0</ele><time>2026-05-03T09:42:27.019Z</time></trkpt><trkpt lat="45.6851099" lon="8.1739769"><ele>550.5</ele><time>2026-05-03T09:42:29.009Z</time></trkpt><trkpt lat="45.6851479" lon="8.173884"><ele>551.0</ele><time>2026-05-03T09:42:30.017Z</time></trkpt><trkpt lat="45.6852077" lon="8.1738047"><ele>551.5</ele><time>2026-05-03T09:42:31.028Z</time></trkpt><trkpt lat="45.6852652" lon="8.1737382"><ele>552.0</ele><time>2026-05-03T09:42:32.006Z</time></trkpt><trkpt lat="45.6853177" lon="8.1736451"><ele>552.5</ele><time>2026-05-03T09:42:33.019Z</time></trkpt><trkpt lat="45.6853415" lon="8.1735431"><ele>553.0</ele><time>2026-05-03T09:42:33.997Z</time></trkpt><trkpt lat="45.6853419" lon="8.1734084"><ele>546.1999999999999</ele><time>2026-05-03T09:42:35.012Z</time></trkpt><trkpt lat="45.6853293" lon="8.173267"><ele>539.4</ele><time>2026-05-03T09:42:36.011Z</time></trkpt><trkpt lat="45.6852927" lon="8.1731148"><ele>532.5999999999999</ele><time>2026-05-03T09:42:37.018Z</time></trkpt><trkpt lat="45.6852669" lon="8.1729778"><ele>525.8</ele><time>2026-05-03T09:42:38.012Z</time></trkpt><trkpt lat="45.6852877" lon="8.172859"><ele>519.0</ele><time>2026-05-03T09:42:39.016Z</time></trkpt><trkpt lat="45.6853148" lon="8.1727019"><ele>519.0</ele><time>2026-05-03T09:42:40.016Z</time></trkpt><trkpt lat="45.6853344" lon="8.1725481"><ele>519.0</ele><time>2026-05-03T09:42:41.006Z</time></trkpt><trkpt lat="45.6853592" lon="8.1724016"><ele>519.0</ele><time>2026-05-03T09:42:41.998Z</time></trkpt><trkpt lat="45.6853955" lon="8.1722871"><ele>519.0</ele><time>2026-05-03T09:42:43.012Z</time></trkpt><trkpt lat="45.6854448" lon="8.1721913"><ele>519.0</ele><time>2026-05-03T09:42:44.016Z</time></trkpt><trkpt lat="45.6854698" lon="8.1720936"><ele>522.1666666666666</ele><time>2026-05-03T09:42:45.013Z</time></trkpt><trkpt lat="45.6854629" lon="8.1719927"><ele>525.3333333333334</ele><time>2026-05-03T09:42:46.016Z</time></trkpt><trkpt lat="45.6854527" lon="8.171901"><ele>528.5</ele><time>2026-05-03T09:42:47.006Z</time></trkpt><trkpt lat="45.6854932" lon="8.1717823"><ele>531.6666666666667</ele><time>2026-05-03T09:42:49.002Z</time></trkpt><trkpt lat="45.6855953" lon="8.1717138"><ele>534.8333333333334</ele><time>2026-05-03T09:42:51.007Z</time></trkpt><trkpt lat="45.685665" lon="8.1717259"><ele>538.0</ele><time>2026-05-03T09:42:52.018Z</time></trkpt><trkpt lat="45.685747" lon="8.1717428"><ele>538.0</ele><time>2026-05-03T09:42:53.009Z</time></trkpt><trkpt lat="45.6858195" lon="8.1717803"><ele>538.0</ele><time>2026-05-03T09:42:54.008Z</time></trkpt><trkpt lat="45.6859001" lon="8.1718548"><ele>538.0</ele><time>2026-05-03T09:42:55.003Z</time></trkpt><trkpt lat="45.6859634" lon="8.1719429"><ele>538.0</ele><time>2026-05-03T09:42:56.011Z</time></trkpt><trkpt lat="45.6859957" lon="8.1720394"><ele>538.0</ele><time>2026-05-03T09:42:56.996Z</time></trkpt><trkpt lat="45.6860025" lon="8.1721451"><ele>538.0</ele><time>2026-05-03T09:42:58.012Z</time></trkpt><trkpt lat="45.6860137" lon="8.1722413"><ele>538.0</ele><time>2026-05-03T09:42:59.006Z</time></trkpt><trkpt lat="45.6860404" lon="8.1723335"><ele>538.0</ele><time>2026-05-03T09:43:00.019Z</time></trkpt><trkpt lat="45.6860858" lon="8.1724014"><ele>538.0</ele><time>2026-05-03T09:43:01.011Z</time></trkpt><trkpt lat="45.6862133" lon="8.1724548"><ele>538.0</ele><time>2026-05-03T09:43:02.997Z</time></trkpt><trkpt lat="45.6863133" lon="8.1724608"><ele>538.0</ele><time>2026-05-03T09:43:04.016Z</time></trkpt><trkpt lat="45.6864052" lon="8.1724681"><ele>535.0</ele><time>2026-05-03T09:43:05.006Z</time></trkpt><trkpt lat="45.6864898" lon="8.1724744"><ele>532.0</ele><time>2026-05-03T09:43:06.018Z</time></trkpt><trkpt lat="45.686571" lon="8.1724976"><ele>529.0</ele><time>2026-05-03T09:43:07.015Z</time></trkpt><trkpt lat="45.6866585" lon="8.1725584"><ele>526.0</ele><time>2026-05-03T09:43:08.005Z</time></trkpt><trkpt lat="45.6867435" lon="8.1726077"><ele>523.0</ele><time>2026-05-03T09:43:09.011Z</time></trkpt><trkpt lat="45.6868193" lon="8.172657"><ele>520.0</ele><time>2026-05-03T09:43:10.018Z</time></trkpt><trkpt lat="45.6868916" lon="8.1726946"><ele>518.6666666666667</ele><time>2026-05-03T09:43:11.006Z</time></trkpt><trkpt lat="45.68696" lon="8.172712"><ele>517.3333333333334</ele><time>2026-05-03T09:43:12.015Z</time></trkpt><trkpt lat="45.6870235" lon="8.1726972"><ele>516.0</ele><time>2026-05-03T09:43:13.009Z</time></trkpt><trkpt lat="45.6871108" lon="8.1726521"><ele>514.6666666666666</ele><time>2026-05-03T09:43:15.006Z</time></trkpt><trkpt lat="45.687161" lon="8.17255"><ele>513.3333333333333</ele><time>2026-05-03T09:43:17.017Z</time></trkpt><trkpt lat="45.6871723" lon="8.172392"><ele>512.0</ele><time>2026-05-03T09:43:18.994Z</time></trkpt><trkpt lat="45.6871799" lon="8.1722812"><ele>512.0</ele><time>2026-05-03T09:43:20.013Z</time></trkpt><trkpt lat="45.6872081" lon="8.1721721"><ele>511.99999999999994</ele><time>2026-05-03T09:43:22.022Z</time></trkpt><trkpt lat="45.68728" lon="8.1721963"><ele>512.0</ele><time>2026-05-03T09:43:24.011Z</time></trkpt><trkpt lat="45.6873494" lon="8.1722389"><ele>512.0</ele><time>2026-05-03T09:43:26.007Z</time></trkpt><trkpt lat="45.6874228" lon="8.1722645"><ele>511.99999999999994</ele><time>2026-05-03T09:43:34.012Z</time></trkpt><trkpt lat="45.6874833" lon="8.1723092"><ele>512.0</ele><time>2026-05-03T09:43:35.007Z</time></trkpt><trkpt lat="45.687544" lon="8.1723477"><ele>512.0</ele><time>2026-05-03T09:43:36.013Z</time></trkpt><trkpt lat="45.6876086" lon="8.1723824"><ele>511.99999999999994</ele><time>2026-05-03T09:43:37.005Z</time></trkpt><trkpt lat="45.6877276" lon="8.1723216"><ele>512.0</ele><time>2026-05-03T09:43:38.999Z</time></trkpt><trkpt lat="45.6877959" lon="8.1722435"><ele>512.0</ele><time>2026-05-03T09:43:40.02Z</time></trkpt><trkpt lat="45.6878515" lon="8.1721732"><ele>512.0</ele><time>2026-05-03T09:43:41.011Z</time></trkpt><trkpt lat="45.6878845" lon="8.1720894"><ele>511.99999999999994</ele><time>2026-05-03T09:43:42.011Z</time></trkpt><trkpt lat="45.6878935" lon="8.1719837"><ele>512.0</ele><time>2026-05-03T09:43:43.008Z</time></trkpt><trkpt lat="45.6878912" lon="8.1718622"><ele>511.99999999999994</ele><time>2026-05-03T09:43:44.021Z</time></trkpt><trkpt lat="45.6878976" lon="8.1717586"><ele>512.0</ele><time>2026-05-03T09:43:45.004Z</time></trkpt><trkpt lat="45.687925" lon="8.171657"><ele>512.0</ele><time>2026-05-03T09:43:46.008Z</time></trkpt><trkpt lat="45.6879517" lon="8.1715591"><ele>512.0</ele><time>2026-05-03T09:43:46.995Z</time></trkpt><trkpt lat="45.6879724" lon="8.1714389"><ele>511.99999999999994</ele><time>2026-05-03T09:43:48.016Z</time></trkpt><trkpt lat="45.6879942" lon="8.1713167"><ele>512.0</ele><time>2026-05-03T09:43:49.003Z</time></trkpt><trkpt lat="45.6880202" lon="8.1712095"><ele>518.5</ele><time>2026-05-03T09:43:50.025Z</time></trkpt><trkpt lat="45.6880514" lon="8.1711235"><ele>525.0</ele><time>2026-05-03T09:43:51.022Z</time></trkpt><trkpt lat="45.6881434" lon="8.1711112"><ele>531.5</ele><time>2026-05-03T09:43:53.997Z</time></trkpt><trkpt lat="45.6881923" lon="8.1711959"><ele>538.0</ele><time>2026-05-03T09:43:54.997Z</time></trkpt><trkpt lat="45.6882276" lon="8.1712867"><ele>544.5</ele><time>2026-05-03T09:43:56.005Z</time></trkpt><trkpt lat="45.688269" lon="8.1713758"><ele>551.0</ele><time>2026-05-03T09:43:56.998Z</time></trkpt><trkpt lat="45.6883285" lon="8.1714764"><ele>544.5</ele><time>2026-05-03T09:43:58.008Z</time></trkpt><trkpt lat="45.6883847" lon="8.1715658"><ele>538.0</ele><time>2026-05-03T09:43:59.007Z</time></trkpt><trkpt lat="45.6884449" lon="8.1716327"><ele>531.5</ele><time>2026-05-03T09:44:00.002Z</time></trkpt><trkpt lat="45.6885213" lon="8.171696"><ele>525.0</ele><time>2026-05-03T09:44:02.019Z</time></trkpt><trkpt lat="45.6886144" lon="8.1716589"><ele>518.5</ele><time>2026-05-03T09:44:04.015Z</time></trkpt><trkpt lat="45.6886767" lon="8.1716363"><ele>512.0</ele><time>2026-05-03T09:44:05.002Z</time></trkpt><trkpt lat="45.6887651" lon="8.1716192"><ele>518.5</ele><time>2026-05-03T09:44:07.003Z</time></trkpt><trkpt lat="45.6888178" lon="8.1714698"><ele>525.0</ele><time>2026-05-03T09:44:09.005Z</time></trkpt><trkpt lat="45.6888864" lon="8.1713405"><ele>531.5</ele><time>2026-05-03T09:44:11.007Z</time></trkpt><trkpt lat="45.6889847" lon="8.1712599"><ele>538.0</ele><time>2026-05-03T09:44:13.005Z</time></trkpt><trkpt lat="45.6891026" lon="8.171259"><ele>538.0</ele><time>2026-05-03T09:44:15.02Z</time></trkpt><trkpt lat="45.6892255" lon="8.1712886"><ele>538.0</ele><time>2026-05-03T09:44:16.996Z</time></trkpt><trkpt lat="45.689304" lon="8.1712889"><ele>538.0</ele><time>2026-05-03T09:44:18.007Z</time></trkpt><trkpt lat="45.6893801" lon="8.1712861"><ele>538.0</ele><time>2026-05-03T09:44:19.009Z</time></trkpt><trkpt lat="45.6894595" lon="8.171259"><ele>538.0</ele><time>2026-05-03T09:44:20.027Z</time></trkpt><trkpt lat="45.6895537" lon="8.1712236"><ele>535.8333333333334</ele><time>2026-05-03T09:44:21.011Z</time></trkpt><trkpt lat="45.6896462" lon="8.1711956"><ele>533.6666666666667</ele><time>2026-05-03T09:44:22.009Z</time></trkpt><trkpt lat="45.6897317" lon="8.1711887"><ele>531.5</ele><time>2026-05-03T09:44:23.011Z</time></trkpt><trkpt lat="45.6898134" lon="8.1711679"><ele>529.3333333333334</ele><time>2026-05-03T09:44:24.016Z</time></trkpt><trkpt lat="45.6899036" lon="8.1711404"><ele>527.1666666666666</ele><time>2026-05-03T09:44:24.999Z</time></trkpt><trkpt lat="45.6899881" lon="8.1711312"><ele>525.0</ele><time>2026-05-03T09:44:26.008Z</time></trkpt><trkpt lat="45.6900676" lon="8.1711494"><ele>525.0</ele><time>2026-05-03T09:44:27.011Z</time></trkpt><trkpt lat="45.6901407" lon="8.171178"><ele>525.0</ele><time>2026-05-03T09:44:28.013Z</time></trkpt><trkpt lat="45.6902141" lon="8.1711941"><ele>525.0</ele><time>2026-05-03T09:44:29.001Z</time></trkpt><trkpt lat="45.6902835" lon="8.1712101"><ele>525.0</ele><time>2026-05-03T09:44:30.014Z</time></trkpt><trkpt lat="45.6903505" lon="8.1712302"><ele>525.0</ele><time>2026-05-03T09:44:31.003Z</time></trkpt><trkpt lat="45.6904524" lon="8.1712315"><ele>525.0</ele><time>2026-05-03T09:44:33.006Z</time></trkpt><trkpt lat="45.6905394" lon="8.1712122"><ele>524.0</ele><time>2026-05-03T09:44:34.998Z</time></trkpt><trkpt lat="45.6906274" lon="8.1712306"><ele>523.0</ele><time>2026-05-03T09:44:37.001Z</time></trkpt><trkpt lat="45.6906548" lon="8.1713381"><ele>522.0</ele><time>2026-05-03T09:44:41.007Z</time></trkpt><trkpt lat="45.6907203" lon="8.1713988"><ele>521.0</ele><time>2026-05-03T09:44:44.007Z</time></trkpt><trkpt lat="45.6908098" lon="8.1713919"><ele>520.0</ele><time>2026-05-03T09:44:46.002Z</time></trkpt><trkpt lat="45.6908948" lon="8.1713757"><ele>519.0</ele><time>2026-05-03T09:44:48.012Z</time></trkpt><trkpt lat="45.6909967" lon="8.1713608"><ele>517.5</ele><time>2026-05-03T09:44:50.019Z</time></trkpt><trkpt lat="45.6911027" lon="8.1713145"><ele>516.0</ele><time>2026-05-03T09:44:52.009Z</time></trkpt><trkpt lat="45.6911782" lon="8.171332"><ele>514.5</ele><time>2026-05-03T09:44:53.001Z</time></trkpt><trkpt lat="45.6912608" lon="8.1713559"><ele>513.0</ele><time>2026-05-03T09:44:54.001Z</time></trkpt><trkpt lat="45.6913383" lon="8.1713519"><ele>511.5</ele><time>2026-05-03T09:44:54.998Z</time></trkpt><trkpt lat="45.6914129" lon="8.171349"><ele>510.0</ele><time>2026-05-03T09:44:56.019Z</time></trkpt><trkpt lat="45.6914876" lon="8.171345"><ele>510.0</ele><time>2026-05-03T09:44:57.011Z</time></trkpt><trkpt lat="45.6915752" lon="8.1713343"><ele>510.0</ele><time>2026-05-03T09:44:58.014Z</time></trkpt><trkpt lat="45.6916547" lon="8.1713275"><ele>510.0</ele><time>2026-05-03T09:44:59.015Z</time></trkpt><trkpt lat="45.6917372" lon="8.1713041"><ele>510.0</ele><time>2026-05-03T09:45:00.018Z</time></trkpt><trkpt lat="45.6918281" lon="8.1712546"><ele>510.0</ele><time>2026-05-03T09:45:00.995Z</time></trkpt><trkpt lat="45.6919108" lon="8.1712032"><ele>510.0</ele><time>2026-05-03T09:45:01.995Z</time></trkpt><trkpt lat="45.6919812" lon="8.1711741"><ele>507.1666666666667</ele><time>2026-05-03T09:45:03.008Z</time></trkpt><trkpt lat="45.6920467" lon="8.1711519"><ele>504.33333333333337</ele><time>2026-05-03T09:45:04.025Z</time></trkpt><trkpt lat="45.6921628" lon="8.1711008"><ele>501.5</ele><time>2026-05-03T09:45:05.991Z</time></trkpt><trkpt lat="45.6922678" lon="8.1711144"><ele>498.6666666666667</ele><time>2026-05-03T09:45:08.009Z</time></trkpt><trkpt lat="45.6923296" lon="8.1711717"><ele>495.83333333333337</ele><time>2026-05-03T09:45:10.003Z</time></trkpt><trkpt lat="45.6923724" lon="8.1712416"><ele>493.0</ele><time>2026-05-03T09:45:21.008Z</time></trkpt><trkpt lat="45.6923262" lon="8.171312"><ele>493.00000000000006</ele><time>2026-05-03T09:45:24.996Z</time></trkpt><trkpt lat="45.6923068" lon="8.1712032"><ele>493.0</ele><time>2026-05-03T09:45:28.02Z</time></trkpt><trkpt lat="45.6923787" lon="8.1711656"><ele>493.0</ele><time>2026-05-03T09:45:30.001Z</time></trkpt><trkpt lat="45.6924376" lon="8.1710939"><ele>493.0</ele><time>2026-05-03T09:45:32.019Z</time></trkpt><trkpt lat="45.6925044" lon="8.1709571"><ele>493.00000000000006</ele><time>2026-05-03T09:45:34.002Z</time></trkpt><trkpt lat="45.692555" lon="8.170837"><ele>493.0</ele><time>2026-05-03T09:45:36.016Z</time></trkpt><trkpt lat="45.6926312" lon="8.170827"><ele>493.0</ele><time>2026-05-03T09:45:38.023Z</time></trkpt><trkpt lat="45.6926848" lon="8.170907"><ele>493.0</ele><time>2026-05-03T09:45:40.002Z</time></trkpt></trkseg></trk></gpx>